<?xml version="1.0" encoding="UTF-8" standalone="no" ?>
<gpx xmlns="http://www.topografix.com/GPX/1/1" xmlns:xsi="http://www.w3.org/2001/XMLSchema-instance" xsi:schemaLocation="http://www.topografix.com/GPX/1/1 http://www.topografix.com/GPX/1/1/gpx.xsd" version="1.1" creator="VisuGPX - https://www.visugpx.com">
  <metadata>
    <name>VTT du mercredi 4 octobre 2017</name>
    <desc><![CDATA[Un peu frisquet au début, ce parcours était destiné à repasser par le tracé de la rando pédestre et gourmande effectué dimanche par les ports. Le passage dans le bois des Rompeux est plutôt sympa. Je pense qu'on peut couper au court en évitant Aroz (à la Garenne... à tester)]]></desc>
  </metadata>
  <trk>
    <name><![CDATA[2017-10-04 09:34]]></name>
    <desc><![CDATA[<p>Heure de départ: 10/04/2017 09:34<br/>Heure d'arrivée: 10/04/2017 11:39<br/>Distance: 26,4 km (02:04)<br/>Temps déplacement: 01:51<br/>Vitesse moyenne: 12,67 km/h<br/>Vitesse moyenne mouv.: 14,14 km/h<br/>Vitesse Max.: 51,19 km/h<br/>Altitude minimale: 207 m<br/>Altitude maximale: 271 m<br/>Vitesse de montée: 144,2 m/h<br/>Vitesse de descente: -407,8 m/h<br/>Gain d'altitude: 78 m<br/>Perte d'altitude: -146 m<br/>Temps de montée: 00:32<br/>Temps de descente: 00:21<br/></p><hr align="center" width="480" style="height: 2px; width: 517px"/>]]></desc>
    <trkseg>
      <trkpt lat="47.68626" lon="6.04546">
        <ele>271.41</ele>
        <time>2017-10-04T07:34:24Z</time>
      </trkpt>
      <trkpt lat="47.6863" lon="6.0454">
        <ele>230.86</ele>
        <time>2017-10-04T07:34:53Z</time>
      </trkpt>
      <trkpt lat="47.68631" lon="6.0453">
        <ele>231.21</ele>
        <time>2017-10-04T07:34:56Z</time>
      </trkpt>
      <trkpt lat="47.68625" lon="6.04524">
        <ele>231.6</ele>
        <time>2017-10-04T07:34:59Z</time>
      </trkpt>
      <trkpt lat="47.68619" lon="6.04519">
        <ele>231.59</ele>
        <time>2017-10-04T07:35:01Z</time>
      </trkpt>
      <trkpt lat="47.68613" lon="6.04515">
        <ele>231.44</ele>
        <time>2017-10-04T07:35:03Z</time>
      </trkpt>
      <trkpt lat="47.68605" lon="6.04508">
        <ele>231.13</ele>
        <time>2017-10-04T07:35:05Z</time>
      </trkpt>
      <trkpt lat="47.68601" lon="6.04504">
        <ele>230.97</ele>
        <time>2017-10-04T07:35:06Z</time>
      </trkpt>
      <trkpt lat="47.68597" lon="6.04501">
        <ele>230.82</ele>
        <time>2017-10-04T07:35:07Z</time>
      </trkpt>
      <trkpt lat="47.68592" lon="6.04497">
        <ele>230.59</ele>
        <time>2017-10-04T07:35:08Z</time>
      </trkpt>
      <trkpt lat="47.68587" lon="6.04493">
        <ele>230.35</ele>
        <time>2017-10-04T07:35:09Z</time>
      </trkpt>
      <trkpt lat="47.68582" lon="6.04489">
        <ele>230.14</ele>
        <time>2017-10-04T07:35:10Z</time>
      </trkpt>
      <trkpt lat="47.68576" lon="6.04485">
        <ele>229.93</ele>
        <time>2017-10-04T07:35:11Z</time>
      </trkpt>
      <trkpt lat="47.68569" lon="6.0448">
        <ele>229.72</ele>
        <time>2017-10-04T07:35:12Z</time>
      </trkpt>
      <trkpt lat="47.68563" lon="6.04475">
        <ele>229.46</ele>
        <time>2017-10-04T07:35:13Z</time>
      </trkpt>
      <trkpt lat="47.68556" lon="6.0447">
        <ele>229.19</ele>
        <time>2017-10-04T07:35:14Z</time>
      </trkpt>
      <trkpt lat="47.6855" lon="6.04466">
        <ele>228.91</ele>
        <time>2017-10-04T07:35:15Z</time>
      </trkpt>
      <trkpt lat="47.68543" lon="6.04461">
        <ele>228.63</ele>
        <time>2017-10-04T07:35:16Z</time>
      </trkpt>
      <trkpt lat="47.68536" lon="6.04456">
        <ele>228.35</ele>
        <time>2017-10-04T07:35:17Z</time>
      </trkpt>
      <trkpt lat="47.68529" lon="6.04452">
        <ele>228.08</ele>
        <time>2017-10-04T07:35:18Z</time>
      </trkpt>
      <trkpt lat="47.68522" lon="6.04447">
        <ele>227.8</ele>
        <time>2017-10-04T07:35:19Z</time>
      </trkpt>
      <trkpt lat="47.68515" lon="6.04442">
        <ele>227.49</ele>
        <time>2017-10-04T07:35:20Z</time>
      </trkpt>
      <trkpt lat="47.68508" lon="6.04438">
        <ele>227.18</ele>
        <time>2017-10-04T07:35:21Z</time>
      </trkpt>
      <trkpt lat="47.685" lon="6.04434">
        <ele>226.86</ele>
        <time>2017-10-04T07:35:22Z</time>
      </trkpt>
      <trkpt lat="47.68492" lon="6.04432">
        <ele>226.54</ele>
        <time>2017-10-04T07:35:23Z</time>
      </trkpt>
      <trkpt lat="47.68484" lon="6.04431">
        <ele>226.23</ele>
        <time>2017-10-04T07:35:24Z</time>
      </trkpt>
      <trkpt lat="47.68476" lon="6.04431">
        <ele>225.94</ele>
        <time>2017-10-04T07:35:25Z</time>
      </trkpt>
      <trkpt lat="47.68468" lon="6.04431">
        <ele>225.63</ele>
        <time>2017-10-04T07:35:26Z</time>
      </trkpt>
      <trkpt lat="47.6846" lon="6.04431">
        <ele>225.33</ele>
        <time>2017-10-04T07:35:27Z</time>
      </trkpt>
      <trkpt lat="47.68452" lon="6.04431">
        <ele>225.02</ele>
        <time>2017-10-04T07:35:28Z</time>
      </trkpt>
      <trkpt lat="47.68444" lon="6.04431">
        <ele>224.66</ele>
        <time>2017-10-04T07:35:29Z</time>
      </trkpt>
      <trkpt lat="47.68436" lon="6.04431">
        <ele>224.3</ele>
        <time>2017-10-04T07:35:30Z</time>
      </trkpt>
      <trkpt lat="47.68428" lon="6.04431">
        <ele>223.98</ele>
        <time>2017-10-04T07:35:31Z</time>
      </trkpt>
      <trkpt lat="47.68422" lon="6.04431">
        <ele>223.69</ele>
        <time>2017-10-04T07:35:32Z</time>
      </trkpt>
      <trkpt lat="47.68416" lon="6.04431">
        <ele>223.47</ele>
        <time>2017-10-04T07:35:33Z</time>
      </trkpt>
      <trkpt lat="47.68411" lon="6.04431">
        <ele>223.27</ele>
        <time>2017-10-04T07:35:34Z</time>
      </trkpt>
      <trkpt lat="47.68404" lon="6.04428">
        <ele>223.16</ele>
        <time>2017-10-04T07:35:36Z</time>
      </trkpt>
      <trkpt lat="47.68401" lon="6.04419">
        <ele>223.1</ele>
        <time>2017-10-04T07:35:38Z</time>
      </trkpt>
      <trkpt lat="47.68401" lon="6.04408">
        <ele>223.07</ele>
        <time>2017-10-04T07:35:40Z</time>
      </trkpt>
      <trkpt lat="47.68401" lon="6.04397">
        <ele>223.03</ele>
        <time>2017-10-04T07:35:42Z</time>
      </trkpt>
      <trkpt lat="47.68401" lon="6.04387">
        <ele>222.88</ele>
        <time>2017-10-04T07:35:44Z</time>
      </trkpt>
      <trkpt lat="47.68402" lon="6.04375">
        <ele>222.55</ele>
        <time>2017-10-04T07:35:46Z</time>
      </trkpt>
      <trkpt lat="47.68402" lon="6.04362">
        <ele>222.18</ele>
        <time>2017-10-04T07:35:48Z</time>
      </trkpt>
      <trkpt lat="47.68401" lon="6.0435">
        <ele>221.85</ele>
        <time>2017-10-04T07:35:50Z</time>
      </trkpt>
      <trkpt lat="47.68401" lon="6.04337">
        <ele>221.4</ele>
        <time>2017-10-04T07:35:52Z</time>
      </trkpt>
      <trkpt lat="47.68401" lon="6.0433">
        <ele>221.2</ele>
        <time>2017-10-04T07:35:53Z</time>
      </trkpt>
      <trkpt lat="47.68401" lon="6.04323">
        <ele>220.99</ele>
        <time>2017-10-04T07:35:54Z</time>
      </trkpt>
      <trkpt lat="47.68401" lon="6.04316">
        <ele>220.75</ele>
        <time>2017-10-04T07:35:55Z</time>
      </trkpt>
      <trkpt lat="47.68401" lon="6.04308">
        <ele>220.51</ele>
        <time>2017-10-04T07:35:56Z</time>
      </trkpt>
      <trkpt lat="47.68401" lon="6.043">
        <ele>220.23</ele>
        <time>2017-10-04T07:35:57Z</time>
      </trkpt>
      <trkpt lat="47.68401" lon="6.04292">
        <ele>219.83</ele>
        <time>2017-10-04T07:35:58Z</time>
      </trkpt>
      <trkpt lat="47.68401" lon="6.04284">
        <ele>219.42</ele>
        <time>2017-10-04T07:35:59Z</time>
      </trkpt>
      <trkpt lat="47.68401" lon="6.04277">
        <ele>219.03</ele>
        <time>2017-10-04T07:36:00Z</time>
      </trkpt>
      <trkpt lat="47.68401" lon="6.04267">
        <ele>218.82</ele>
        <time>2017-10-04T07:36:02Z</time>
      </trkpt>
      <trkpt lat="47.684" lon="6.04259">
        <ele>218.72</ele>
        <time>2017-10-04T07:36:05Z</time>
      </trkpt>
      <trkpt lat="47.68398" lon="6.04253">
        <ele>218.46</ele>
        <time>2017-10-04T07:36:14Z</time>
      </trkpt>
      <trkpt lat="47.68393" lon="6.04252">
        <ele>218.38</ele>
        <time>2017-10-04T07:36:16Z</time>
      </trkpt>
      <trkpt lat="47.68388" lon="6.0425">
        <ele>218.3</ele>
        <time>2017-10-04T07:36:18Z</time>
      </trkpt>
      <trkpt lat="47.68384" lon="6.04247">
        <ele>218.22</ele>
        <time>2017-10-04T07:36:20Z</time>
      </trkpt>
      <trkpt lat="47.6838" lon="6.04241">
        <ele>218.13</ele>
        <time>2017-10-04T07:36:22Z</time>
      </trkpt>
      <trkpt lat="47.68376" lon="6.04235">
        <ele>218.04</ele>
        <time>2017-10-04T07:36:24Z</time>
      </trkpt>
      <trkpt lat="47.68373" lon="6.04229">
        <ele>217.95</ele>
        <time>2017-10-04T07:36:26Z</time>
      </trkpt>
      <trkpt lat="47.6837" lon="6.04224">
        <ele>217.85</ele>
        <time>2017-10-04T07:36:28Z</time>
      </trkpt>
      <trkpt lat="47.68367" lon="6.04218">
        <ele>217.7</ele>
        <time>2017-10-04T07:36:31Z</time>
      </trkpt>
      <trkpt lat="47.68365" lon="6.04211">
        <ele>217.54</ele>
        <time>2017-10-04T07:36:34Z</time>
      </trkpt>
      <trkpt lat="47.68366" lon="6.04203">
        <ele>217.33</ele>
        <time>2017-10-04T07:36:38Z</time>
      </trkpt>
      <trkpt lat="47.68362" lon="6.04198">
        <ele>217.16</ele>
        <time>2017-10-04T07:36:41Z</time>
      </trkpt>
      <trkpt lat="47.68358" lon="6.04203">
        <ele>216.99</ele>
        <time>2017-10-04T07:36:44Z</time>
      </trkpt>
      <trkpt lat="47.68355" lon="6.04209">
        <ele>216.88</ele>
        <time>2017-10-04T07:36:46Z</time>
      </trkpt>
      <trkpt lat="47.68353" lon="6.04218">
        <ele>216.71</ele>
        <time>2017-10-04T07:36:49Z</time>
      </trkpt>
      <trkpt lat="47.68358" lon="6.04221">
        <ele>216.48</ele>
        <time>2017-10-04T07:36:53Z</time>
      </trkpt>
      <trkpt lat="47.68359" lon="6.04213">
        <ele>216.32</ele>
        <time>2017-10-04T07:36:56Z</time>
      </trkpt>
      <trkpt lat="47.68358" lon="6.04206">
        <ele>216.18</ele>
        <time>2017-10-04T07:36:59Z</time>
      </trkpt>
      <trkpt lat="47.68358" lon="6.04199">
        <ele>215.73</ele>
        <time>2017-10-04T07:37:41Z</time>
      </trkpt>
      <trkpt lat="47.68357" lon="6.04191">
        <ele>215.55</ele>
        <time>2017-10-04T07:37:44Z</time>
      </trkpt>
      <trkpt lat="47.68355" lon="6.04183">
        <ele>215.37</ele>
        <time>2017-10-04T07:37:47Z</time>
      </trkpt>
      <trkpt lat="47.68355" lon="6.04175">
        <ele>215.13</ele>
        <time>2017-10-04T07:37:51Z</time>
      </trkpt>
      <trkpt lat="47.68353" lon="6.04169">
        <ele>214.97</ele>
        <time>2017-10-04T07:37:54Z</time>
      </trkpt>
      <trkpt lat="47.68349" lon="6.04166">
        <ele>214.86</ele>
        <time>2017-10-04T07:37:56Z</time>
      </trkpt>
      <trkpt lat="47.68344" lon="6.04163">
        <ele>214.76</ele>
        <time>2017-10-04T07:37:58Z</time>
      </trkpt>
      <trkpt lat="47.6834" lon="6.0416">
        <ele>214.66</ele>
        <time>2017-10-04T07:38:00Z</time>
      </trkpt>
      <trkpt lat="47.68333" lon="6.04158">
        <ele>214.56</ele>
        <time>2017-10-04T07:38:02Z</time>
      </trkpt>
      <trkpt lat="47.68326" lon="6.04157">
        <ele>214.47</ele>
        <time>2017-10-04T07:38:04Z</time>
      </trkpt>
      <trkpt lat="47.68318" lon="6.04156">
        <ele>214.39</ele>
        <time>2017-10-04T07:38:06Z</time>
      </trkpt>
      <trkpt lat="47.68311" lon="6.04156">
        <ele>214.3</ele>
        <time>2017-10-04T07:38:08Z</time>
      </trkpt>
      <trkpt lat="47.68303" lon="6.04157">
        <ele>214.21</ele>
        <time>2017-10-04T07:38:10Z</time>
      </trkpt>
      <trkpt lat="47.68296" lon="6.04157">
        <ele>214.12</ele>
        <time>2017-10-04T07:38:12Z</time>
      </trkpt>
      <trkpt lat="47.6829" lon="6.0416">
        <ele>214.03</ele>
        <time>2017-10-04T07:38:14Z</time>
      </trkpt>
      <trkpt lat="47.68284" lon="6.04162">
        <ele>213.94</ele>
        <time>2017-10-04T07:38:16Z</time>
      </trkpt>
      <trkpt lat="47.68278" lon="6.04164">
        <ele>213.85</ele>
        <time>2017-10-04T07:38:18Z</time>
      </trkpt>
      <trkpt lat="47.68272" lon="6.04166">
        <ele>213.77</ele>
        <time>2017-10-04T07:38:20Z</time>
      </trkpt>
      <trkpt lat="47.68266" lon="6.04168">
        <ele>213.69</ele>
        <time>2017-10-04T07:38:22Z</time>
      </trkpt>
      <trkpt lat="47.68261" lon="6.0417">
        <ele>213.61</ele>
        <time>2017-10-04T07:38:24Z</time>
      </trkpt>
      <trkpt lat="47.68256" lon="6.04172">
        <ele>213.54</ele>
        <time>2017-10-04T07:38:26Z</time>
      </trkpt>
      <trkpt lat="47.6825" lon="6.04169">
        <ele>213.43</ele>
        <time>2017-10-04T07:38:29Z</time>
      </trkpt>
      <trkpt lat="47.68247" lon="6.04164">
        <ele>213.36</ele>
        <time>2017-10-04T07:38:31Z</time>
      </trkpt>
      <trkpt lat="47.68243" lon="6.04157">
        <ele>213.3</ele>
        <time>2017-10-04T07:38:33Z</time>
      </trkpt>
      <trkpt lat="47.6824" lon="6.04149">
        <ele>213.24</ele>
        <time>2017-10-04T07:38:35Z</time>
      </trkpt>
      <trkpt lat="47.6824" lon="6.0414">
        <ele>213.18</ele>
        <time>2017-10-04T07:38:37Z</time>
      </trkpt>
      <trkpt lat="47.68241" lon="6.04132">
        <ele>213.12</ele>
        <time>2017-10-04T07:38:39Z</time>
      </trkpt>
      <trkpt lat="47.68242" lon="6.04124">
        <ele>213.07</ele>
        <time>2017-10-04T07:38:41Z</time>
      </trkpt>
      <trkpt lat="47.68243" lon="6.04115">
        <ele>213.01</ele>
        <time>2017-10-04T07:38:43Z</time>
      </trkpt>
      <trkpt lat="47.68244" lon="6.04104">
        <ele>212.96</ele>
        <time>2017-10-04T07:38:45Z</time>
      </trkpt>
      <trkpt lat="47.68245" lon="6.04092">
        <ele>212.75</ele>
        <time>2017-10-04T07:38:47Z</time>
      </trkpt>
      <trkpt lat="47.68247" lon="6.04079">
        <ele>212.39</ele>
        <time>2017-10-04T07:38:49Z</time>
      </trkpt>
      <trkpt lat="47.68247" lon="6.04072">
        <ele>212.24</ele>
        <time>2017-10-04T07:38:50Z</time>
      </trkpt>
      <trkpt lat="47.68248" lon="6.04065">
        <ele>212.13</ele>
        <time>2017-10-04T07:38:51Z</time>
      </trkpt>
      <trkpt lat="47.68248" lon="6.04058">
        <ele>212.03</ele>
        <time>2017-10-04T07:38:52Z</time>
      </trkpt>
      <trkpt lat="47.68249" lon="6.0405">
        <ele>211.96</ele>
        <time>2017-10-04T07:38:53Z</time>
      </trkpt>
      <trkpt lat="47.68251" lon="6.04038">
        <ele>211.84</ele>
        <time>2017-10-04T07:38:55Z</time>
      </trkpt>
      <trkpt lat="47.68252" lon="6.04026">
        <ele>211.76</ele>
        <time>2017-10-04T07:38:57Z</time>
      </trkpt>
      <trkpt lat="47.68255" lon="6.04014">
        <ele>211.71</ele>
        <time>2017-10-04T07:38:59Z</time>
      </trkpt>
      <trkpt lat="47.68258" lon="6.04004">
        <ele>211.71</ele>
        <time>2017-10-04T07:39:01Z</time>
      </trkpt>
      <trkpt lat="47.6826" lon="6.03996">
        <ele>211.7</ele>
        <time>2017-10-04T07:39:03Z</time>
      </trkpt>
      <trkpt lat="47.68264" lon="6.03992">
        <ele>211.7</ele>
        <time>2017-10-04T07:39:06Z</time>
      </trkpt>
      <trkpt lat="47.68268" lon="6.03989">
        <ele>211.71</ele>
        <time>2017-10-04T07:39:09Z</time>
      </trkpt>
      <trkpt lat="47.68273" lon="6.03988">
        <ele>211.71</ele>
        <time>2017-10-04T07:39:11Z</time>
      </trkpt>
      <trkpt lat="47.68279" lon="6.03993">
        <ele>211.71</ele>
        <time>2017-10-04T07:39:13Z</time>
      </trkpt>
      <trkpt lat="47.68286" lon="6.03997">
        <ele>211.71</ele>
        <time>2017-10-04T07:39:15Z</time>
      </trkpt>
      <trkpt lat="47.68291" lon="6.03999">
        <ele>211.71</ele>
        <time>2017-10-04T07:39:17Z</time>
      </trkpt>
      <trkpt lat="47.68299" lon="6.04002">
        <ele>211.71</ele>
        <time>2017-10-04T07:39:19Z</time>
      </trkpt>
      <trkpt lat="47.68306" lon="6.04006">
        <ele>211.71</ele>
        <time>2017-10-04T07:39:21Z</time>
      </trkpt>
      <trkpt lat="47.68311" lon="6.04008">
        <ele>211.71</ele>
        <time>2017-10-04T07:39:22Z</time>
      </trkpt>
      <trkpt lat="47.68319" lon="6.0401">
        <ele>211.71</ele>
        <time>2017-10-04T07:39:24Z</time>
      </trkpt>
      <trkpt lat="47.68327" lon="6.04011">
        <ele>211.71</ele>
        <time>2017-10-04T07:39:26Z</time>
      </trkpt>
      <trkpt lat="47.68335" lon="6.04014">
        <ele>211.71</ele>
        <time>2017-10-04T07:39:28Z</time>
      </trkpt>
      <trkpt lat="47.68343" lon="6.04016">
        <ele>211.71</ele>
        <time>2017-10-04T07:39:30Z</time>
      </trkpt>
      <trkpt lat="47.6835" lon="6.04018">
        <ele>211.72</ele>
        <time>2017-10-04T07:39:32Z</time>
      </trkpt>
      <trkpt lat="47.68357" lon="6.04018">
        <ele>211.73</ele>
        <time>2017-10-04T07:39:34Z</time>
      </trkpt>
      <trkpt lat="47.68365" lon="6.04018">
        <ele>211.78</ele>
        <time>2017-10-04T07:39:36Z</time>
      </trkpt>
      <trkpt lat="47.68373" lon="6.04019">
        <ele>211.81</ele>
        <time>2017-10-04T07:39:38Z</time>
      </trkpt>
      <trkpt lat="47.68381" lon="6.0402">
        <ele>211.89</ele>
        <time>2017-10-04T07:39:40Z</time>
      </trkpt>
      <trkpt lat="47.68387" lon="6.04024">
        <ele>211.91</ele>
        <time>2017-10-04T07:39:42Z</time>
      </trkpt>
      <trkpt lat="47.68391" lon="6.0403">
        <ele>211.92</ele>
        <time>2017-10-04T07:39:44Z</time>
      </trkpt>
      <trkpt lat="47.68396" lon="6.04037">
        <ele>211.93</ele>
        <time>2017-10-04T07:39:46Z</time>
      </trkpt>
      <trkpt lat="47.68402" lon="6.04044">
        <ele>211.94</ele>
        <time>2017-10-04T07:39:48Z</time>
      </trkpt>
      <trkpt lat="47.68408" lon="6.0405">
        <ele>211.95</ele>
        <time>2017-10-04T07:39:50Z</time>
      </trkpt>
      <trkpt lat="47.68413" lon="6.04057">
        <ele>211.98</ele>
        <time>2017-10-04T07:39:52Z</time>
      </trkpt>
      <trkpt lat="47.68419" lon="6.04065">
        <ele>212.02</ele>
        <time>2017-10-04T07:39:54Z</time>
      </trkpt>
      <trkpt lat="47.68426" lon="6.04073">
        <ele>212.04</ele>
        <time>2017-10-04T07:39:56Z</time>
      </trkpt>
      <trkpt lat="47.68432" lon="6.0408">
        <ele>212.04</ele>
        <time>2017-10-04T07:39:58Z</time>
      </trkpt>
      <trkpt lat="47.68438" lon="6.04086">
        <ele>212.04</ele>
        <time>2017-10-04T07:40:00Z</time>
      </trkpt>
      <trkpt lat="47.68446" lon="6.04093">
        <ele>212.04</ele>
        <time>2017-10-04T07:40:02Z</time>
      </trkpt>
      <trkpt lat="47.68451" lon="6.04097">
        <ele>212.03</ele>
        <time>2017-10-04T07:40:03Z</time>
      </trkpt>
      <trkpt lat="47.68455" lon="6.041">
        <ele>212.03</ele>
        <time>2017-10-04T07:40:04Z</time>
      </trkpt>
      <trkpt lat="47.6846" lon="6.04102">
        <ele>212.02</ele>
        <time>2017-10-04T07:40:05Z</time>
      </trkpt>
      <trkpt lat="47.68464" lon="6.04105">
        <ele>212.01</ele>
        <time>2017-10-04T07:40:06Z</time>
      </trkpt>
      <trkpt lat="47.68468" lon="6.04109">
        <ele>212</ele>
        <time>2017-10-04T07:40:07Z</time>
      </trkpt>
      <trkpt lat="47.68475" lon="6.04115">
        <ele>211.99</ele>
        <time>2017-10-04T07:40:09Z</time>
      </trkpt>
      <trkpt lat="47.6848" lon="6.04119">
        <ele>211.99</ele>
        <time>2017-10-04T07:40:11Z</time>
      </trkpt>
      <trkpt lat="47.68486" lon="6.04121">
        <ele>211.99</ele>
        <time>2017-10-04T07:40:13Z</time>
      </trkpt>
      <trkpt lat="47.68491" lon="6.04122">
        <ele>211.98</ele>
        <time>2017-10-04T07:40:15Z</time>
      </trkpt>
      <trkpt lat="47.68497" lon="6.04125">
        <ele>211.97</ele>
        <time>2017-10-04T07:40:17Z</time>
      </trkpt>
      <trkpt lat="47.68504" lon="6.04128">
        <ele>211.97</ele>
        <time>2017-10-04T07:40:19Z</time>
      </trkpt>
      <trkpt lat="47.68512" lon="6.0413">
        <ele>211.96</ele>
        <time>2017-10-04T07:40:21Z</time>
      </trkpt>
      <trkpt lat="47.68517" lon="6.04133">
        <ele>211.95</ele>
        <time>2017-10-04T07:40:23Z</time>
      </trkpt>
      <trkpt lat="47.68523" lon="6.04135">
        <ele>211.94</ele>
        <time>2017-10-04T07:40:25Z</time>
      </trkpt>
      <trkpt lat="47.68528" lon="6.04137">
        <ele>211.93</ele>
        <time>2017-10-04T07:40:27Z</time>
      </trkpt>
      <trkpt lat="47.68533" lon="6.04139">
        <ele>211.93</ele>
        <time>2017-10-04T07:40:29Z</time>
      </trkpt>
      <trkpt lat="47.68539" lon="6.04142">
        <ele>211.92</ele>
        <time>2017-10-04T07:40:31Z</time>
      </trkpt>
      <trkpt lat="47.68546" lon="6.04145">
        <ele>211.91</ele>
        <time>2017-10-04T07:40:33Z</time>
      </trkpt>
      <trkpt lat="47.68552" lon="6.04146">
        <ele>211.91</ele>
        <time>2017-10-04T07:40:35Z</time>
      </trkpt>
      <trkpt lat="47.6856" lon="6.04148">
        <ele>211.9</ele>
        <time>2017-10-04T07:40:37Z</time>
      </trkpt>
      <trkpt lat="47.68567" lon="6.0415">
        <ele>211.89</ele>
        <time>2017-10-04T07:40:39Z</time>
      </trkpt>
      <trkpt lat="47.68574" lon="6.0415">
        <ele>211.89</ele>
        <time>2017-10-04T07:40:41Z</time>
      </trkpt>
      <trkpt lat="47.6858" lon="6.04152">
        <ele>211.88</ele>
        <time>2017-10-04T07:40:43Z</time>
      </trkpt>
      <trkpt lat="47.68585" lon="6.04154">
        <ele>211.88</ele>
        <time>2017-10-04T07:40:45Z</time>
      </trkpt>
      <trkpt lat="47.68591" lon="6.04156">
        <ele>211.87</ele>
        <time>2017-10-04T07:40:47Z</time>
      </trkpt>
      <trkpt lat="47.68597" lon="6.04159">
        <ele>211.87</ele>
        <time>2017-10-04T07:40:49Z</time>
      </trkpt>
      <trkpt lat="47.68604" lon="6.0416">
        <ele>211.87</ele>
        <time>2017-10-04T07:40:51Z</time>
      </trkpt>
      <trkpt lat="47.68611" lon="6.04162">
        <ele>211.87</ele>
        <time>2017-10-04T07:40:53Z</time>
      </trkpt>
      <trkpt lat="47.68618" lon="6.04162">
        <ele>211.87</ele>
        <time>2017-10-04T07:40:55Z</time>
      </trkpt>
      <trkpt lat="47.68623" lon="6.04163">
        <ele>211.87</ele>
        <time>2017-10-04T07:40:57Z</time>
      </trkpt>
      <trkpt lat="47.68629" lon="6.04164">
        <ele>211.86</ele>
        <time>2017-10-04T07:40:59Z</time>
      </trkpt>
      <trkpt lat="47.68634" lon="6.04165">
        <ele>211.86</ele>
        <time>2017-10-04T07:41:01Z</time>
      </trkpt>
      <trkpt lat="47.68639" lon="6.04167">
        <ele>211.86</ele>
        <time>2017-10-04T07:41:03Z</time>
      </trkpt>
      <trkpt lat="47.68645" lon="6.04169">
        <ele>211.86</ele>
        <time>2017-10-04T07:41:05Z</time>
      </trkpt>
      <trkpt lat="47.68651" lon="6.04171">
        <ele>211.87</ele>
        <time>2017-10-04T07:41:07Z</time>
      </trkpt>
      <trkpt lat="47.68656" lon="6.04172">
        <ele>211.87</ele>
        <time>2017-10-04T07:41:09Z</time>
      </trkpt>
      <trkpt lat="47.68662" lon="6.04175">
        <ele>211.88</ele>
        <time>2017-10-04T07:41:11Z</time>
      </trkpt>
      <trkpt lat="47.68668" lon="6.04177">
        <ele>211.88</ele>
        <time>2017-10-04T07:41:13Z</time>
      </trkpt>
      <trkpt lat="47.68674" lon="6.04179">
        <ele>211.89</ele>
        <time>2017-10-04T07:41:15Z</time>
      </trkpt>
      <trkpt lat="47.68679" lon="6.0418">
        <ele>211.9</ele>
        <time>2017-10-04T07:41:17Z</time>
      </trkpt>
      <trkpt lat="47.68685" lon="6.04182">
        <ele>211.91</ele>
        <time>2017-10-04T07:41:19Z</time>
      </trkpt>
      <trkpt lat="47.68691" lon="6.04183">
        <ele>211.92</ele>
        <time>2017-10-04T07:41:21Z</time>
      </trkpt>
      <trkpt lat="47.68697" lon="6.04183">
        <ele>211.92</ele>
        <time>2017-10-04T07:41:23Z</time>
      </trkpt>
      <trkpt lat="47.68702" lon="6.04184">
        <ele>211.93</ele>
        <time>2017-10-04T07:41:25Z</time>
      </trkpt>
      <trkpt lat="47.68707" lon="6.04184">
        <ele>211.94</ele>
        <time>2017-10-04T07:41:27Z</time>
      </trkpt>
      <trkpt lat="47.68711" lon="6.04185">
        <ele>211.95</ele>
        <time>2017-10-04T07:41:29Z</time>
      </trkpt>
      <trkpt lat="47.68716" lon="6.04187">
        <ele>211.97</ele>
        <time>2017-10-04T07:41:31Z</time>
      </trkpt>
      <trkpt lat="47.68722" lon="6.0419">
        <ele>211.98</ele>
        <time>2017-10-04T07:41:34Z</time>
      </trkpt>
      <trkpt lat="47.68728" lon="6.04191">
        <ele>212</ele>
        <time>2017-10-04T07:41:37Z</time>
      </trkpt>
      <trkpt lat="47.68735" lon="6.04195">
        <ele>212</ele>
        <time>2017-10-04T07:41:39Z</time>
      </trkpt>
      <trkpt lat="47.6874" lon="6.04196">
        <ele>212.01</ele>
        <time>2017-10-04T07:41:40Z</time>
      </trkpt>
      <trkpt lat="47.68748" lon="6.04197">
        <ele>212.02</ele>
        <time>2017-10-04T07:41:42Z</time>
      </trkpt>
      <trkpt lat="47.68755" lon="6.04195">
        <ele>212.02</ele>
        <time>2017-10-04T07:41:43Z</time>
      </trkpt>
      <trkpt lat="47.68759" lon="6.04195">
        <ele>212.02</ele>
        <time>2017-10-04T07:41:44Z</time>
      </trkpt>
      <trkpt lat="47.68765" lon="6.04197">
        <ele>212.03</ele>
        <time>2017-10-04T07:41:46Z</time>
      </trkpt>
      <trkpt lat="47.6877" lon="6.04197">
        <ele>212.04</ele>
        <time>2017-10-04T07:41:48Z</time>
      </trkpt>
      <trkpt lat="47.68776" lon="6.04195">
        <ele>212.05</ele>
        <time>2017-10-04T07:41:50Z</time>
      </trkpt>
      <trkpt lat="47.68781" lon="6.04195">
        <ele>212.06</ele>
        <time>2017-10-04T07:41:52Z</time>
      </trkpt>
      <trkpt lat="47.68786" lon="6.04196">
        <ele>212.07</ele>
        <time>2017-10-04T07:41:54Z</time>
      </trkpt>
      <trkpt lat="47.68792" lon="6.04197">
        <ele>212.08</ele>
        <time>2017-10-04T07:41:56Z</time>
      </trkpt>
      <trkpt lat="47.68798" lon="6.04198">
        <ele>212.08</ele>
        <time>2017-10-04T07:41:58Z</time>
      </trkpt>
      <trkpt lat="47.68803" lon="6.04199">
        <ele>212.09</ele>
        <time>2017-10-04T07:42:00Z</time>
      </trkpt>
      <trkpt lat="47.68808" lon="6.04199">
        <ele>212.1</ele>
        <time>2017-10-04T07:42:02Z</time>
      </trkpt>
      <trkpt lat="47.68814" lon="6.042">
        <ele>212.11</ele>
        <time>2017-10-04T07:42:04Z</time>
      </trkpt>
      <trkpt lat="47.68823" lon="6.04199">
        <ele>212.13</ele>
        <time>2017-10-04T07:42:06Z</time>
      </trkpt>
      <trkpt lat="47.68829" lon="6.04201">
        <ele>212.15</ele>
        <time>2017-10-04T07:42:09Z</time>
      </trkpt>
      <trkpt lat="47.68835" lon="6.04205">
        <ele>212.18</ele>
        <time>2017-10-04T07:42:12Z</time>
      </trkpt>
      <trkpt lat="47.6884" lon="6.04208">
        <ele>212.21</ele>
        <time>2017-10-04T07:42:15Z</time>
      </trkpt>
      <trkpt lat="47.68846" lon="6.0421">
        <ele>212.24</ele>
        <time>2017-10-04T07:42:18Z</time>
      </trkpt>
      <trkpt lat="47.68852" lon="6.04211">
        <ele>212.27</ele>
        <time>2017-10-04T07:42:21Z</time>
      </trkpt>
      <trkpt lat="47.68857" lon="6.04212">
        <ele>212.3</ele>
        <time>2017-10-04T07:42:24Z</time>
      </trkpt>
      <trkpt lat="47.68863" lon="6.04214">
        <ele>212.32</ele>
        <time>2017-10-04T07:42:26Z</time>
      </trkpt>
      <trkpt lat="47.68868" lon="6.04213">
        <ele>212.34</ele>
        <time>2017-10-04T07:42:28Z</time>
      </trkpt>
      <trkpt lat="47.68874" lon="6.04211">
        <ele>212.35</ele>
        <time>2017-10-04T07:42:30Z</time>
      </trkpt>
      <trkpt lat="47.68882" lon="6.04207">
        <ele>212.37</ele>
        <time>2017-10-04T07:42:32Z</time>
      </trkpt>
      <trkpt lat="47.68889" lon="6.04204">
        <ele>212.38</ele>
        <time>2017-10-04T07:42:34Z</time>
      </trkpt>
      <trkpt lat="47.68897" lon="6.04205">
        <ele>212.4</ele>
        <time>2017-10-04T07:42:36Z</time>
      </trkpt>
      <trkpt lat="47.68903" lon="6.04205">
        <ele>212.42</ele>
        <time>2017-10-04T07:42:38Z</time>
      </trkpt>
      <trkpt lat="47.6891" lon="6.04202">
        <ele>212.43</ele>
        <time>2017-10-04T07:42:40Z</time>
      </trkpt>
      <trkpt lat="47.68915" lon="6.04197">
        <ele>212.45</ele>
        <time>2017-10-04T07:42:42Z</time>
      </trkpt>
      <trkpt lat="47.6892" lon="6.04194">
        <ele>212.48</ele>
        <time>2017-10-04T07:42:45Z</time>
      </trkpt>
      <trkpt lat="47.68925" lon="6.04195">
        <ele>212.52</ele>
        <time>2017-10-04T07:42:49Z</time>
      </trkpt>
      <trkpt lat="47.6893" lon="6.04196">
        <ele>212.6</ele>
        <time>2017-10-04T07:42:57Z</time>
      </trkpt>
      <trkpt lat="47.68935" lon="6.04192">
        <ele>212.66</ele>
        <time>2017-10-04T07:43:06Z</time>
      </trkpt>
      <trkpt lat="47.68942" lon="6.04188">
        <ele>212.68</ele>
        <time>2017-10-04T07:43:08Z</time>
      </trkpt>
      <trkpt lat="47.68947" lon="6.0418">
        <ele>212.78</ele>
        <time>2017-10-04T07:43:10Z</time>
      </trkpt>
      <trkpt lat="47.68952" lon="6.04172">
        <ele>212.86</ele>
        <time>2017-10-04T07:43:12Z</time>
      </trkpt>
      <trkpt lat="47.68958" lon="6.04162">
        <ele>212.98</ele>
        <time>2017-10-04T07:43:14Z</time>
      </trkpt>
      <trkpt lat="47.68963" lon="6.04151">
        <ele>213.07</ele>
        <time>2017-10-04T07:43:16Z</time>
      </trkpt>
      <trkpt lat="47.68965" lon="6.04144">
        <ele>213.11</ele>
        <time>2017-10-04T07:43:17Z</time>
      </trkpt>
      <trkpt lat="47.68967" lon="6.04138">
        <ele>213.14</ele>
        <time>2017-10-04T07:43:18Z</time>
      </trkpt>
      <trkpt lat="47.68969" lon="6.04132">
        <ele>213.16</ele>
        <time>2017-10-04T07:43:19Z</time>
      </trkpt>
      <trkpt lat="47.68974" lon="6.04121">
        <ele>213.19</ele>
        <time>2017-10-04T07:43:21Z</time>
      </trkpt>
      <trkpt lat="47.68978" lon="6.0411">
        <ele>213.21</ele>
        <time>2017-10-04T07:43:23Z</time>
      </trkpt>
      <trkpt lat="47.68982" lon="6.04098">
        <ele>213.22</ele>
        <time>2017-10-04T07:43:25Z</time>
      </trkpt>
      <trkpt lat="47.68985" lon="6.04093">
        <ele>213.22</ele>
        <time>2017-10-04T07:43:26Z</time>
      </trkpt>
      <trkpt lat="47.68987" lon="6.04087">
        <ele>213.23</ele>
        <time>2017-10-04T07:43:27Z</time>
      </trkpt>
      <trkpt lat="47.68989" lon="6.04081">
        <ele>213.24</ele>
        <time>2017-10-04T07:43:28Z</time>
      </trkpt>
      <trkpt lat="47.68993" lon="6.0407">
        <ele>213.24</ele>
        <time>2017-10-04T07:43:30Z</time>
      </trkpt>
      <trkpt lat="47.68997" lon="6.0406">
        <ele>213.24</ele>
        <time>2017-10-04T07:43:32Z</time>
      </trkpt>
      <trkpt lat="47.69001" lon="6.0405">
        <ele>213.24</ele>
        <time>2017-10-04T07:43:34Z</time>
      </trkpt>
      <trkpt lat="47.69004" lon="6.0404">
        <ele>213.24</ele>
        <time>2017-10-04T07:43:36Z</time>
      </trkpt>
      <trkpt lat="47.69008" lon="6.04031">
        <ele>213.24</ele>
        <time>2017-10-04T07:43:38Z</time>
      </trkpt>
      <trkpt lat="47.69012" lon="6.04021">
        <ele>213.23</ele>
        <time>2017-10-04T07:43:40Z</time>
      </trkpt>
      <trkpt lat="47.69016" lon="6.04011">
        <ele>213.23</ele>
        <time>2017-10-04T07:43:42Z</time>
      </trkpt>
      <trkpt lat="47.69019" lon="6.04002">
        <ele>213.23</ele>
        <time>2017-10-04T07:43:44Z</time>
      </trkpt>
      <trkpt lat="47.69023" lon="6.03992">
        <ele>213.23</ele>
        <time>2017-10-04T07:43:46Z</time>
      </trkpt>
      <trkpt lat="47.69027" lon="6.03983">
        <ele>213.23</ele>
        <time>2017-10-04T07:43:48Z</time>
      </trkpt>
      <trkpt lat="47.69031" lon="6.03973">
        <ele>213.24</ele>
        <time>2017-10-04T07:43:50Z</time>
      </trkpt>
      <trkpt lat="47.69035" lon="6.03962">
        <ele>213.26</ele>
        <time>2017-10-04T07:43:52Z</time>
      </trkpt>
      <trkpt lat="47.69037" lon="6.03956">
        <ele>213.26</ele>
        <time>2017-10-04T07:43:53Z</time>
      </trkpt>
      <trkpt lat="47.69039" lon="6.03949">
        <ele>213.27</ele>
        <time>2017-10-04T07:43:54Z</time>
      </trkpt>
      <trkpt lat="47.69041" lon="6.03943">
        <ele>213.27</ele>
        <time>2017-10-04T07:43:55Z</time>
      </trkpt>
      <trkpt lat="47.69044" lon="6.03937">
        <ele>213.27</ele>
        <time>2017-10-04T07:43:56Z</time>
      </trkpt>
      <trkpt lat="47.69047" lon="6.03932">
        <ele>213.27</ele>
        <time>2017-10-04T07:43:57Z</time>
      </trkpt>
      <trkpt lat="47.69049" lon="6.03925">
        <ele>213.27</ele>
        <time>2017-10-04T07:43:58Z</time>
      </trkpt>
      <trkpt lat="47.69052" lon="6.03919">
        <ele>213.27</ele>
        <time>2017-10-04T07:43:59Z</time>
      </trkpt>
      <trkpt lat="47.69056" lon="6.03908">
        <ele>213.27</ele>
        <time>2017-10-04T07:44:01Z</time>
      </trkpt>
      <trkpt lat="47.6906" lon="6.03897">
        <ele>213.26</ele>
        <time>2017-10-04T07:44:03Z</time>
      </trkpt>
      <trkpt lat="47.69065" lon="6.03886">
        <ele>213.25</ele>
        <time>2017-10-04T07:44:05Z</time>
      </trkpt>
      <trkpt lat="47.69067" lon="6.0388">
        <ele>213.25</ele>
        <time>2017-10-04T07:44:06Z</time>
      </trkpt>
      <trkpt lat="47.6907" lon="6.03874">
        <ele>213.24</ele>
        <time>2017-10-04T07:44:07Z</time>
      </trkpt>
      <trkpt lat="47.69074" lon="6.03863">
        <ele>213.23</ele>
        <time>2017-10-04T07:44:09Z</time>
      </trkpt>
      <trkpt lat="47.69078" lon="6.03852">
        <ele>213.22</ele>
        <time>2017-10-04T07:44:11Z</time>
      </trkpt>
      <trkpt lat="47.69082" lon="6.03841">
        <ele>213.21</ele>
        <time>2017-10-04T07:44:13Z</time>
      </trkpt>
      <trkpt lat="47.69086" lon="6.03831">
        <ele>213.2</ele>
        <time>2017-10-04T07:44:15Z</time>
      </trkpt>
      <trkpt lat="47.6909" lon="6.03822">
        <ele>213.2</ele>
        <time>2017-10-04T07:44:17Z</time>
      </trkpt>
      <trkpt lat="47.69093" lon="6.03814">
        <ele>213.19</ele>
        <time>2017-10-04T07:44:19Z</time>
      </trkpt>
      <trkpt lat="47.69096" lon="6.03808">
        <ele>213.19</ele>
        <time>2017-10-04T07:44:21Z</time>
      </trkpt>
      <trkpt lat="47.69099" lon="6.03802">
        <ele>213.19</ele>
        <time>2017-10-04T07:44:24Z</time>
      </trkpt>
      <trkpt lat="47.69101" lon="6.03796">
        <ele>213.19</ele>
        <time>2017-10-04T07:44:30Z</time>
      </trkpt>
      <trkpt lat="47.69102" lon="6.03789">
        <ele>213.21</ele>
        <time>2017-10-04T07:44:37Z</time>
      </trkpt>
      <trkpt lat="47.69096" lon="6.03785">
        <ele>213.26</ele>
        <time>2017-10-04T07:44:39Z</time>
      </trkpt>
      <trkpt lat="47.69091" lon="6.03782">
        <ele>213.3</ele>
        <time>2017-10-04T07:44:40Z</time>
      </trkpt>
      <trkpt lat="47.69086" lon="6.03779">
        <ele>213.33</ele>
        <time>2017-10-04T07:44:41Z</time>
      </trkpt>
      <trkpt lat="47.6908" lon="6.03776">
        <ele>213.37</ele>
        <time>2017-10-04T07:44:42Z</time>
      </trkpt>
      <trkpt lat="47.69074" lon="6.03771">
        <ele>213.39</ele>
        <time>2017-10-04T07:44:43Z</time>
      </trkpt>
      <trkpt lat="47.69067" lon="6.03767">
        <ele>213.42</ele>
        <time>2017-10-04T07:44:44Z</time>
      </trkpt>
      <trkpt lat="47.69061" lon="6.03762">
        <ele>213.43</ele>
        <time>2017-10-04T07:44:45Z</time>
      </trkpt>
      <trkpt lat="47.69055" lon="6.03757">
        <ele>213.44</ele>
        <time>2017-10-04T07:44:46Z</time>
      </trkpt>
      <trkpt lat="47.69049" lon="6.03753">
        <ele>213.44</ele>
        <time>2017-10-04T07:44:47Z</time>
      </trkpt>
      <trkpt lat="47.69043" lon="6.03749">
        <ele>213.44</ele>
        <time>2017-10-04T07:44:48Z</time>
      </trkpt>
      <trkpt lat="47.69038" lon="6.03745">
        <ele>213.44</ele>
        <time>2017-10-04T07:44:49Z</time>
      </trkpt>
      <trkpt lat="47.69033" lon="6.0374">
        <ele>213.42</ele>
        <time>2017-10-04T07:44:50Z</time>
      </trkpt>
      <trkpt lat="47.69028" lon="6.03736">
        <ele>213.39</ele>
        <time>2017-10-04T07:44:51Z</time>
      </trkpt>
      <trkpt lat="47.69022" lon="6.03732">
        <ele>213.36</ele>
        <time>2017-10-04T07:44:52Z</time>
      </trkpt>
      <trkpt lat="47.69017" lon="6.03729">
        <ele>213.31</ele>
        <time>2017-10-04T07:44:53Z</time>
      </trkpt>
      <trkpt lat="47.69013" lon="6.03725">
        <ele>213.27</ele>
        <time>2017-10-04T07:44:54Z</time>
      </trkpt>
      <trkpt lat="47.69008" lon="6.03722">
        <ele>213.21</ele>
        <time>2017-10-04T07:44:55Z</time>
      </trkpt>
      <trkpt lat="47.69004" lon="6.03718">
        <ele>213.11</ele>
        <time>2017-10-04T07:44:56Z</time>
      </trkpt>
      <trkpt lat="47.68999" lon="6.03715">
        <ele>213.04</ele>
        <time>2017-10-04T07:44:57Z</time>
      </trkpt>
      <trkpt lat="47.68995" lon="6.03712">
        <ele>212.98</ele>
        <time>2017-10-04T07:44:58Z</time>
      </trkpt>
      <trkpt lat="47.6899" lon="6.03708">
        <ele>212.93</ele>
        <time>2017-10-04T07:44:59Z</time>
      </trkpt>
      <trkpt lat="47.68986" lon="6.03705">
        <ele>212.85</ele>
        <time>2017-10-04T07:45:00Z</time>
      </trkpt>
      <trkpt lat="47.68982" lon="6.03701">
        <ele>212.79</ele>
        <time>2017-10-04T07:45:01Z</time>
      </trkpt>
      <trkpt lat="47.68978" lon="6.03698">
        <ele>212.72</ele>
        <time>2017-10-04T07:45:02Z</time>
      </trkpt>
      <trkpt lat="47.6897" lon="6.03692">
        <ele>212.57</ele>
        <time>2017-10-04T07:45:04Z</time>
      </trkpt>
      <trkpt lat="47.68966" lon="6.03689">
        <ele>212.52</ele>
        <time>2017-10-04T07:45:05Z</time>
      </trkpt>
      <trkpt lat="47.68961" lon="6.03686">
        <ele>212.47</ele>
        <time>2017-10-04T07:45:06Z</time>
      </trkpt>
      <trkpt lat="47.68957" lon="6.03683">
        <ele>212.4</ele>
        <time>2017-10-04T07:45:07Z</time>
      </trkpt>
      <trkpt lat="47.68952" lon="6.0368">
        <ele>212.33</ele>
        <time>2017-10-04T07:45:08Z</time>
      </trkpt>
      <trkpt lat="47.68947" lon="6.03677">
        <ele>212.22</ele>
        <time>2017-10-04T07:45:09Z</time>
      </trkpt>
      <trkpt lat="47.68942" lon="6.03674">
        <ele>212.08</ele>
        <time>2017-10-04T07:45:10Z</time>
      </trkpt>
      <trkpt lat="47.68937" lon="6.03671">
        <ele>211.97</ele>
        <time>2017-10-04T07:45:11Z</time>
      </trkpt>
      <trkpt lat="47.68931" lon="6.03668">
        <ele>211.9</ele>
        <time>2017-10-04T07:45:12Z</time>
      </trkpt>
      <trkpt lat="47.68925" lon="6.03666">
        <ele>211.86</ele>
        <time>2017-10-04T07:45:13Z</time>
      </trkpt>
      <trkpt lat="47.6892" lon="6.03663">
        <ele>211.85</ele>
        <time>2017-10-04T07:45:14Z</time>
      </trkpt>
      <trkpt lat="47.68915" lon="6.03662">
        <ele>211.85</ele>
        <time>2017-10-04T07:45:15Z</time>
      </trkpt>
      <trkpt lat="47.6891" lon="6.03659">
        <ele>211.88</ele>
        <time>2017-10-04T07:45:16Z</time>
      </trkpt>
      <trkpt lat="47.68904" lon="6.03658">
        <ele>211.92</ele>
        <time>2017-10-04T07:45:17Z</time>
      </trkpt>
      <trkpt lat="47.68899" lon="6.03656">
        <ele>211.95</ele>
        <time>2017-10-04T07:45:18Z</time>
      </trkpt>
      <trkpt lat="47.68894" lon="6.03655">
        <ele>212</ele>
        <time>2017-10-04T07:45:19Z</time>
      </trkpt>
      <trkpt lat="47.68889" lon="6.03654">
        <ele>212.04</ele>
        <time>2017-10-04T07:45:20Z</time>
      </trkpt>
      <trkpt lat="47.68885" lon="6.03653">
        <ele>212.08</ele>
        <time>2017-10-04T07:45:21Z</time>
      </trkpt>
      <trkpt lat="47.6888" lon="6.03653">
        <ele>212.17</ele>
        <time>2017-10-04T07:45:22Z</time>
      </trkpt>
      <trkpt lat="47.68875" lon="6.03653">
        <ele>212.27</ele>
        <time>2017-10-04T07:45:23Z</time>
      </trkpt>
      <trkpt lat="47.6887" lon="6.03652">
        <ele>212.37</ele>
        <time>2017-10-04T07:45:24Z</time>
      </trkpt>
      <trkpt lat="47.68865" lon="6.03653">
        <ele>212.48</ele>
        <time>2017-10-04T07:45:25Z</time>
      </trkpt>
      <trkpt lat="47.6886" lon="6.03653">
        <ele>212.6</ele>
        <time>2017-10-04T07:45:26Z</time>
      </trkpt>
      <trkpt lat="47.68856" lon="6.03654">
        <ele>212.71</ele>
        <time>2017-10-04T07:45:27Z</time>
      </trkpt>
      <trkpt lat="47.68851" lon="6.03654">
        <ele>212.83</ele>
        <time>2017-10-04T07:45:28Z</time>
      </trkpt>
      <trkpt lat="47.68846" lon="6.03654">
        <ele>212.94</ele>
        <time>2017-10-04T07:45:29Z</time>
      </trkpt>
      <trkpt lat="47.68841" lon="6.03654">
        <ele>213</ele>
        <time>2017-10-04T07:45:30Z</time>
      </trkpt>
      <trkpt lat="47.68836" lon="6.03654">
        <ele>213.07</ele>
        <time>2017-10-04T07:45:31Z</time>
      </trkpt>
      <trkpt lat="47.6883" lon="6.03653">
        <ele>213.13</ele>
        <time>2017-10-04T07:45:32Z</time>
      </trkpt>
      <trkpt lat="47.68825" lon="6.03653">
        <ele>213.2</ele>
        <time>2017-10-04T07:45:33Z</time>
      </trkpt>
      <trkpt lat="47.68819" lon="6.03652">
        <ele>213.26</ele>
        <time>2017-10-04T07:45:34Z</time>
      </trkpt>
      <trkpt lat="47.68813" lon="6.03652">
        <ele>213.32</ele>
        <time>2017-10-04T07:45:35Z</time>
      </trkpt>
      <trkpt lat="47.68808" lon="6.03652">
        <ele>213.36</ele>
        <time>2017-10-04T07:45:36Z</time>
      </trkpt>
      <trkpt lat="47.68803" lon="6.03651">
        <ele>213.42</ele>
        <time>2017-10-04T07:45:37Z</time>
      </trkpt>
      <trkpt lat="47.68798" lon="6.03651">
        <ele>213.49</ele>
        <time>2017-10-04T07:45:38Z</time>
      </trkpt>
      <trkpt lat="47.68792" lon="6.03651">
        <ele>213.54</ele>
        <time>2017-10-04T07:45:39Z</time>
      </trkpt>
      <trkpt lat="47.68787" lon="6.03651">
        <ele>213.62</ele>
        <time>2017-10-04T07:45:40Z</time>
      </trkpt>
      <trkpt lat="47.68782" lon="6.03651">
        <ele>213.71</ele>
        <time>2017-10-04T07:45:41Z</time>
      </trkpt>
      <trkpt lat="47.68777" lon="6.03651">
        <ele>213.79</ele>
        <time>2017-10-04T07:45:42Z</time>
      </trkpt>
      <trkpt lat="47.68771" lon="6.03651">
        <ele>213.88</ele>
        <time>2017-10-04T07:45:43Z</time>
      </trkpt>
      <trkpt lat="47.68766" lon="6.0365">
        <ele>213.96</ele>
        <time>2017-10-04T07:45:44Z</time>
      </trkpt>
      <trkpt lat="47.6876" lon="6.03649">
        <ele>214.03</ele>
        <time>2017-10-04T07:45:45Z</time>
      </trkpt>
      <trkpt lat="47.68755" lon="6.03648">
        <ele>214.11</ele>
        <time>2017-10-04T07:45:46Z</time>
      </trkpt>
      <trkpt lat="47.6875" lon="6.03646">
        <ele>214.18</ele>
        <time>2017-10-04T07:45:47Z</time>
      </trkpt>
      <trkpt lat="47.68745" lon="6.03645">
        <ele>214.26</ele>
        <time>2017-10-04T07:45:48Z</time>
      </trkpt>
      <trkpt lat="47.68739" lon="6.03643">
        <ele>214.36</ele>
        <time>2017-10-04T07:45:49Z</time>
      </trkpt>
      <trkpt lat="47.68734" lon="6.03642">
        <ele>214.46</ele>
        <time>2017-10-04T07:45:50Z</time>
      </trkpt>
      <trkpt lat="47.68728" lon="6.03641">
        <ele>214.58</ele>
        <time>2017-10-04T07:45:51Z</time>
      </trkpt>
      <trkpt lat="47.68722" lon="6.0364">
        <ele>214.7</ele>
        <time>2017-10-04T07:45:52Z</time>
      </trkpt>
      <trkpt lat="47.68717" lon="6.03639">
        <ele>214.86</ele>
        <time>2017-10-04T07:45:53Z</time>
      </trkpt>
      <trkpt lat="47.68712" lon="6.03638">
        <ele>215.03</ele>
        <time>2017-10-04T07:45:54Z</time>
      </trkpt>
      <trkpt lat="47.68706" lon="6.03637">
        <ele>215.18</ele>
        <time>2017-10-04T07:45:55Z</time>
      </trkpt>
      <trkpt lat="47.68701" lon="6.03637">
        <ele>215.31</ele>
        <time>2017-10-04T07:45:56Z</time>
      </trkpt>
      <trkpt lat="47.68695" lon="6.03636">
        <ele>215.43</ele>
        <time>2017-10-04T07:45:57Z</time>
      </trkpt>
      <trkpt lat="47.6869" lon="6.03635">
        <ele>215.56</ele>
        <time>2017-10-04T07:45:58Z</time>
      </trkpt>
      <trkpt lat="47.68685" lon="6.03635">
        <ele>215.65</ele>
        <time>2017-10-04T07:45:59Z</time>
      </trkpt>
      <trkpt lat="47.6868" lon="6.03634">
        <ele>215.71</ele>
        <time>2017-10-04T07:46:00Z</time>
      </trkpt>
      <trkpt lat="47.68675" lon="6.03633">
        <ele>215.76</ele>
        <time>2017-10-04T07:46:01Z</time>
      </trkpt>
      <trkpt lat="47.6867" lon="6.03632">
        <ele>215.78</ele>
        <time>2017-10-04T07:46:02Z</time>
      </trkpt>
      <trkpt lat="47.68665" lon="6.03631">
        <ele>215.79</ele>
        <time>2017-10-04T07:46:03Z</time>
      </trkpt>
      <trkpt lat="47.68659" lon="6.03631">
        <ele>215.85</ele>
        <time>2017-10-04T07:46:04Z</time>
      </trkpt>
      <trkpt lat="47.68654" lon="6.0363">
        <ele>215.91</ele>
        <time>2017-10-04T07:46:05Z</time>
      </trkpt>
      <trkpt lat="47.68649" lon="6.0363">
        <ele>215.99</ele>
        <time>2017-10-04T07:46:06Z</time>
      </trkpt>
      <trkpt lat="47.68644" lon="6.03629">
        <ele>216.09</ele>
        <time>2017-10-04T07:46:07Z</time>
      </trkpt>
      <trkpt lat="47.6864" lon="6.03629">
        <ele>216.19</ele>
        <time>2017-10-04T07:46:08Z</time>
      </trkpt>
      <trkpt lat="47.68632" lon="6.03627">
        <ele>216.35</ele>
        <time>2017-10-04T07:46:10Z</time>
      </trkpt>
      <trkpt lat="47.68624" lon="6.03627">
        <ele>216.52</ele>
        <time>2017-10-04T07:46:12Z</time>
      </trkpt>
      <trkpt lat="47.68616" lon="6.0363">
        <ele>216.63</ele>
        <time>2017-10-04T07:46:14Z</time>
      </trkpt>
      <trkpt lat="47.68608" lon="6.03635">
        <ele>216.74</ele>
        <time>2017-10-04T07:46:16Z</time>
      </trkpt>
      <trkpt lat="47.686" lon="6.03639">
        <ele>216.78</ele>
        <time>2017-10-04T07:46:18Z</time>
      </trkpt>
      <trkpt lat="47.68592" lon="6.03644">
        <ele>216.78</ele>
        <time>2017-10-04T07:46:20Z</time>
      </trkpt>
      <trkpt lat="47.68585" lon="6.03647">
        <ele>216.61</ele>
        <time>2017-10-04T07:46:22Z</time>
      </trkpt>
      <trkpt lat="47.68577" lon="6.03649">
        <ele>216.32</ele>
        <time>2017-10-04T07:46:24Z</time>
      </trkpt>
      <trkpt lat="47.68568" lon="6.0365">
        <ele>216.04</ele>
        <time>2017-10-04T07:46:26Z</time>
      </trkpt>
      <trkpt lat="47.68563" lon="6.0365">
        <ele>215.92</ele>
        <time>2017-10-04T07:46:27Z</time>
      </trkpt>
      <trkpt lat="47.68558" lon="6.0365">
        <ele>215.81</ele>
        <time>2017-10-04T07:46:28Z</time>
      </trkpt>
      <trkpt lat="47.68553" lon="6.0365">
        <ele>215.7</ele>
        <time>2017-10-04T07:46:29Z</time>
      </trkpt>
      <trkpt lat="47.68546" lon="6.03648">
        <ele>215.48</ele>
        <time>2017-10-04T07:46:31Z</time>
      </trkpt>
      <trkpt lat="47.68537" lon="6.03644">
        <ele>215.27</ele>
        <time>2017-10-04T07:46:33Z</time>
      </trkpt>
      <trkpt lat="47.68533" lon="6.03642">
        <ele>215.16</ele>
        <time>2017-10-04T07:46:34Z</time>
      </trkpt>
      <trkpt lat="47.68528" lon="6.0364">
        <ele>215.07</ele>
        <time>2017-10-04T07:46:35Z</time>
      </trkpt>
      <trkpt lat="47.68524" lon="6.03638">
        <ele>214.97</ele>
        <time>2017-10-04T07:46:36Z</time>
      </trkpt>
      <trkpt lat="47.68519" lon="6.03635">
        <ele>214.85</ele>
        <time>2017-10-04T07:46:37Z</time>
      </trkpt>
      <trkpt lat="47.68515" lon="6.03633">
        <ele>214.84</ele>
        <time>2017-10-04T07:46:38Z</time>
      </trkpt>
      <trkpt lat="47.6851" lon="6.03631">
        <ele>214.85</ele>
        <time>2017-10-04T07:46:39Z</time>
      </trkpt>
      <trkpt lat="47.68506" lon="6.03629">
        <ele>214.86</ele>
        <time>2017-10-04T07:46:40Z</time>
      </trkpt>
      <trkpt lat="47.68501" lon="6.03627">
        <ele>214.86</ele>
        <time>2017-10-04T07:46:41Z</time>
      </trkpt>
      <trkpt lat="47.68496" lon="6.03625">
        <ele>214.85</ele>
        <time>2017-10-04T07:46:42Z</time>
      </trkpt>
      <trkpt lat="47.68492" lon="6.03623">
        <ele>214.82</ele>
        <time>2017-10-04T07:46:43Z</time>
      </trkpt>
      <trkpt lat="47.68487" lon="6.0362">
        <ele>214.78</ele>
        <time>2017-10-04T07:46:44Z</time>
      </trkpt>
      <trkpt lat="47.68483" lon="6.03618">
        <ele>214.72</ele>
        <time>2017-10-04T07:46:45Z</time>
      </trkpt>
      <trkpt lat="47.68478" lon="6.03616">
        <ele>214.65</ele>
        <time>2017-10-04T07:46:46Z</time>
      </trkpt>
      <trkpt lat="47.68474" lon="6.03614">
        <ele>214.57</ele>
        <time>2017-10-04T07:46:47Z</time>
      </trkpt>
      <trkpt lat="47.68466" lon="6.03612">
        <ele>214.46</ele>
        <time>2017-10-04T07:46:49Z</time>
      </trkpt>
      <trkpt lat="47.68458" lon="6.03615">
        <ele>214.19</ele>
        <time>2017-10-04T07:46:51Z</time>
      </trkpt>
      <trkpt lat="47.68449" lon="6.03617">
        <ele>213.84</ele>
        <time>2017-10-04T07:46:53Z</time>
      </trkpt>
      <trkpt lat="47.6844" lon="6.0362">
        <ele>213.63</ele>
        <time>2017-10-04T07:46:55Z</time>
      </trkpt>
      <trkpt lat="47.68432" lon="6.03622">
        <ele>213.44</ele>
        <time>2017-10-04T07:46:57Z</time>
      </trkpt>
      <trkpt lat="47.68424" lon="6.03621">
        <ele>213.34</ele>
        <time>2017-10-04T07:46:59Z</time>
      </trkpt>
      <trkpt lat="47.68416" lon="6.03618">
        <ele>213.27</ele>
        <time>2017-10-04T07:47:01Z</time>
      </trkpt>
      <trkpt lat="47.68408" lon="6.03615">
        <ele>213.21</ele>
        <time>2017-10-04T07:47:03Z</time>
      </trkpt>
      <trkpt lat="47.68401" lon="6.0361">
        <ele>213.17</ele>
        <time>2017-10-04T07:47:05Z</time>
      </trkpt>
      <trkpt lat="47.68393" lon="6.03606">
        <ele>213.16</ele>
        <time>2017-10-04T07:47:07Z</time>
      </trkpt>
      <trkpt lat="47.68385" lon="6.03602">
        <ele>213.21</ele>
        <time>2017-10-04T07:47:09Z</time>
      </trkpt>
      <trkpt lat="47.68377" lon="6.03598">
        <ele>213.27</ele>
        <time>2017-10-04T07:47:11Z</time>
      </trkpt>
      <trkpt lat="47.68368" lon="6.03594">
        <ele>213.32</ele>
        <time>2017-10-04T07:47:13Z</time>
      </trkpt>
      <trkpt lat="47.6836" lon="6.03591">
        <ele>213.34</ele>
        <time>2017-10-04T07:47:15Z</time>
      </trkpt>
      <trkpt lat="47.68351" lon="6.03588">
        <ele>213.35</ele>
        <time>2017-10-04T07:47:17Z</time>
      </trkpt>
      <trkpt lat="47.68343" lon="6.03585">
        <ele>213.35</ele>
        <time>2017-10-04T07:47:19Z</time>
      </trkpt>
      <trkpt lat="47.68334" lon="6.03583">
        <ele>213.35</ele>
        <time>2017-10-04T07:47:21Z</time>
      </trkpt>
      <trkpt lat="47.68326" lon="6.03581">
        <ele>213.36</ele>
        <time>2017-10-04T07:47:23Z</time>
      </trkpt>
      <trkpt lat="47.68322" lon="6.0358">
        <ele>213.36</ele>
        <time>2017-10-04T07:47:24Z</time>
      </trkpt>
      <trkpt lat="47.68317" lon="6.03579">
        <ele>213.36</ele>
        <time>2017-10-04T07:47:25Z</time>
      </trkpt>
      <trkpt lat="47.68313" lon="6.03577">
        <ele>213.35</ele>
        <time>2017-10-04T07:47:26Z</time>
      </trkpt>
      <trkpt lat="47.68308" lon="6.03576">
        <ele>213.34</ele>
        <time>2017-10-04T07:47:27Z</time>
      </trkpt>
      <trkpt lat="47.683" lon="6.03574">
        <ele>213.32</ele>
        <time>2017-10-04T07:47:29Z</time>
      </trkpt>
      <trkpt lat="47.68292" lon="6.03573">
        <ele>213.3</ele>
        <time>2017-10-04T07:47:31Z</time>
      </trkpt>
      <trkpt lat="47.68287" lon="6.03573">
        <ele>213.29</ele>
        <time>2017-10-04T07:47:32Z</time>
      </trkpt>
      <trkpt lat="47.68283" lon="6.03572">
        <ele>213.29</ele>
        <time>2017-10-04T07:47:33Z</time>
      </trkpt>
      <trkpt lat="47.68274" lon="6.03571">
        <ele>213.27</ele>
        <time>2017-10-04T07:47:35Z</time>
      </trkpt>
      <trkpt lat="47.68265" lon="6.0357">
        <ele>213.25</ele>
        <time>2017-10-04T07:47:37Z</time>
      </trkpt>
      <trkpt lat="47.68256" lon="6.03569">
        <ele>213.23</ele>
        <time>2017-10-04T07:47:39Z</time>
      </trkpt>
      <trkpt lat="47.68247" lon="6.03568">
        <ele>213.21</ele>
        <time>2017-10-04T07:47:41Z</time>
      </trkpt>
      <trkpt lat="47.68238" lon="6.03568">
        <ele>213.19</ele>
        <time>2017-10-04T07:47:43Z</time>
      </trkpt>
      <trkpt lat="47.6823" lon="6.03567">
        <ele>213.17</ele>
        <time>2017-10-04T07:47:45Z</time>
      </trkpt>
      <trkpt lat="47.68223" lon="6.03567">
        <ele>213.19</ele>
        <time>2017-10-04T07:47:47Z</time>
      </trkpt>
      <trkpt lat="47.68214" lon="6.03567">
        <ele>213.22</ele>
        <time>2017-10-04T07:47:49Z</time>
      </trkpt>
      <trkpt lat="47.68205" lon="6.03568">
        <ele>213.24</ele>
        <time>2017-10-04T07:47:51Z</time>
      </trkpt>
      <trkpt lat="47.68201" lon="6.03568">
        <ele>213.25</ele>
        <time>2017-10-04T07:47:52Z</time>
      </trkpt>
      <trkpt lat="47.68192" lon="6.0357">
        <ele>213.27</ele>
        <time>2017-10-04T07:47:54Z</time>
      </trkpt>
      <trkpt lat="47.68183" lon="6.03571">
        <ele>213.29</ele>
        <time>2017-10-04T07:47:56Z</time>
      </trkpt>
      <trkpt lat="47.68179" lon="6.03572">
        <ele>213.3</ele>
        <time>2017-10-04T07:47:57Z</time>
      </trkpt>
      <trkpt lat="47.68171" lon="6.03574">
        <ele>213.32</ele>
        <time>2017-10-04T07:47:59Z</time>
      </trkpt>
      <trkpt lat="47.68166" lon="6.03575">
        <ele>213.33</ele>
        <time>2017-10-04T07:48:00Z</time>
      </trkpt>
      <trkpt lat="47.68161" lon="6.03576">
        <ele>213.34</ele>
        <time>2017-10-04T07:48:01Z</time>
      </trkpt>
      <trkpt lat="47.68157" lon="6.03577">
        <ele>213.35</ele>
        <time>2017-10-04T07:48:02Z</time>
      </trkpt>
      <trkpt lat="47.68152" lon="6.03578">
        <ele>213.35</ele>
        <time>2017-10-04T07:48:03Z</time>
      </trkpt>
      <trkpt lat="47.68148" lon="6.03579">
        <ele>213.35</ele>
        <time>2017-10-04T07:48:04Z</time>
      </trkpt>
      <trkpt lat="47.68139" lon="6.03581">
        <ele>213.34</ele>
        <time>2017-10-04T07:48:06Z</time>
      </trkpt>
      <trkpt lat="47.6813" lon="6.03582">
        <ele>213.34</ele>
        <time>2017-10-04T07:48:08Z</time>
      </trkpt>
      <trkpt lat="47.68121" lon="6.03582">
        <ele>213.34</ele>
        <time>2017-10-04T07:48:10Z</time>
      </trkpt>
      <trkpt lat="47.68116" lon="6.03582">
        <ele>213.33</ele>
        <time>2017-10-04T07:48:11Z</time>
      </trkpt>
      <trkpt lat="47.68109" lon="6.03582">
        <ele>213.33</ele>
        <time>2017-10-04T07:48:13Z</time>
      </trkpt>
      <trkpt lat="47.68101" lon="6.0358">
        <ele>213.32</ele>
        <time>2017-10-04T07:48:15Z</time>
      </trkpt>
      <trkpt lat="47.68096" lon="6.03579">
        <ele>213.31</ele>
        <time>2017-10-04T07:48:16Z</time>
      </trkpt>
      <trkpt lat="47.68087" lon="6.03577">
        <ele>213.3</ele>
        <time>2017-10-04T07:48:18Z</time>
      </trkpt>
      <trkpt lat="47.68079" lon="6.03576">
        <ele>213.3</ele>
        <time>2017-10-04T07:48:20Z</time>
      </trkpt>
      <trkpt lat="47.68074" lon="6.03575">
        <ele>213.3</ele>
        <time>2017-10-04T07:48:21Z</time>
      </trkpt>
      <trkpt lat="47.6807" lon="6.03574">
        <ele>213.3</ele>
        <time>2017-10-04T07:48:22Z</time>
      </trkpt>
      <trkpt lat="47.68065" lon="6.03573">
        <ele>213.29</ele>
        <time>2017-10-04T07:48:23Z</time>
      </trkpt>
      <trkpt lat="47.68061" lon="6.03573">
        <ele>213.29</ele>
        <time>2017-10-04T07:48:24Z</time>
      </trkpt>
      <trkpt lat="47.68056" lon="6.03573">
        <ele>213.28</ele>
        <time>2017-10-04T07:48:25Z</time>
      </trkpt>
      <trkpt lat="47.68051" lon="6.03572">
        <ele>213.28</ele>
        <time>2017-10-04T07:48:26Z</time>
      </trkpt>
      <trkpt lat="47.68046" lon="6.03571">
        <ele>213.27</ele>
        <time>2017-10-04T07:48:27Z</time>
      </trkpt>
      <trkpt lat="47.68038" lon="6.03572">
        <ele>213.26</ele>
        <time>2017-10-04T07:48:29Z</time>
      </trkpt>
      <trkpt lat="47.68031" lon="6.03576">
        <ele>213.26</ele>
        <time>2017-10-04T07:48:31Z</time>
      </trkpt>
      <trkpt lat="47.68025" lon="6.03582">
        <ele>213.26</ele>
        <time>2017-10-04T07:48:33Z</time>
      </trkpt>
      <trkpt lat="47.6802" lon="6.03589">
        <ele>213.24</ele>
        <time>2017-10-04T07:48:35Z</time>
      </trkpt>
      <trkpt lat="47.68014" lon="6.03595">
        <ele>213.21</ele>
        <time>2017-10-04T07:48:37Z</time>
      </trkpt>
      <trkpt lat="47.68007" lon="6.03601">
        <ele>213.18</ele>
        <time>2017-10-04T07:48:39Z</time>
      </trkpt>
      <trkpt lat="47.68" lon="6.03606">
        <ele>213.16</ele>
        <time>2017-10-04T07:48:41Z</time>
      </trkpt>
      <trkpt lat="47.67993" lon="6.03612">
        <ele>213.15</ele>
        <time>2017-10-04T07:48:43Z</time>
      </trkpt>
      <trkpt lat="47.67985" lon="6.03617">
        <ele>213.14</ele>
        <time>2017-10-04T07:48:45Z</time>
      </trkpt>
      <trkpt lat="47.67978" lon="6.03622">
        <ele>213.14</ele>
        <time>2017-10-04T07:48:47Z</time>
      </trkpt>
      <trkpt lat="47.6797" lon="6.03626">
        <ele>213.14</ele>
        <time>2017-10-04T07:48:49Z</time>
      </trkpt>
      <trkpt lat="47.67963" lon="6.03632">
        <ele>213.16</ele>
        <time>2017-10-04T07:48:51Z</time>
      </trkpt>
      <trkpt lat="47.67955" lon="6.03636">
        <ele>213.18</ele>
        <time>2017-10-04T07:48:53Z</time>
      </trkpt>
      <trkpt lat="47.67947" lon="6.03641">
        <ele>213.21</ele>
        <time>2017-10-04T07:48:55Z</time>
      </trkpt>
      <trkpt lat="47.67941" lon="6.03645">
        <ele>213.25</ele>
        <time>2017-10-04T07:48:57Z</time>
      </trkpt>
      <trkpt lat="47.67933" lon="6.03649">
        <ele>213.28</ele>
        <time>2017-10-04T07:48:59Z</time>
      </trkpt>
      <trkpt lat="47.67925" lon="6.03653">
        <ele>213.31</ele>
        <time>2017-10-04T07:49:01Z</time>
      </trkpt>
      <trkpt lat="47.67917" lon="6.03658">
        <ele>213.35</ele>
        <time>2017-10-04T07:49:03Z</time>
      </trkpt>
      <trkpt lat="47.67909" lon="6.03663">
        <ele>213.39</ele>
        <time>2017-10-04T07:49:05Z</time>
      </trkpt>
      <trkpt lat="47.67901" lon="6.03667">
        <ele>213.43</ele>
        <time>2017-10-04T07:49:07Z</time>
      </trkpt>
      <trkpt lat="47.67893" lon="6.03672">
        <ele>213.46</ele>
        <time>2017-10-04T07:49:09Z</time>
      </trkpt>
      <trkpt lat="47.67885" lon="6.03676">
        <ele>213.49</ele>
        <time>2017-10-04T07:49:11Z</time>
      </trkpt>
      <trkpt lat="47.67877" lon="6.0368">
        <ele>213.52</ele>
        <time>2017-10-04T07:49:13Z</time>
      </trkpt>
      <trkpt lat="47.67869" lon="6.03684">
        <ele>213.53</ele>
        <time>2017-10-04T07:49:15Z</time>
      </trkpt>
      <trkpt lat="47.67861" lon="6.03688">
        <ele>213.54</ele>
        <time>2017-10-04T07:49:16Z</time>
      </trkpt>
      <trkpt lat="47.67854" lon="6.03693">
        <ele>213.55</ele>
        <time>2017-10-04T07:49:18Z</time>
      </trkpt>
      <trkpt lat="47.67847" lon="6.03698">
        <ele>213.57</ele>
        <time>2017-10-04T07:49:20Z</time>
      </trkpt>
      <trkpt lat="47.67839" lon="6.03703">
        <ele>213.58</ele>
        <time>2017-10-04T07:49:22Z</time>
      </trkpt>
      <trkpt lat="47.67832" lon="6.03708">
        <ele>213.59</ele>
        <time>2017-10-04T07:49:24Z</time>
      </trkpt>
      <trkpt lat="47.67824" lon="6.03714">
        <ele>213.59</ele>
        <time>2017-10-04T07:49:26Z</time>
      </trkpt>
      <trkpt lat="47.6782" lon="6.03718">
        <ele>213.59</ele>
        <time>2017-10-04T07:49:27Z</time>
      </trkpt>
      <trkpt lat="47.67816" lon="6.03722">
        <ele>213.59</ele>
        <time>2017-10-04T07:49:28Z</time>
      </trkpt>
      <trkpt lat="47.67812" lon="6.03726">
        <ele>213.59</ele>
        <time>2017-10-04T07:49:29Z</time>
      </trkpt>
      <trkpt lat="47.67808" lon="6.0373">
        <ele>213.6</ele>
        <time>2017-10-04T07:49:30Z</time>
      </trkpt>
      <trkpt lat="47.67804" lon="6.03733">
        <ele>213.61</ele>
        <time>2017-10-04T07:49:31Z</time>
      </trkpt>
      <trkpt lat="47.67796" lon="6.0374">
        <ele>213.62</ele>
        <time>2017-10-04T07:49:33Z</time>
      </trkpt>
      <trkpt lat="47.67789" lon="6.03747">
        <ele>213.64</ele>
        <time>2017-10-04T07:49:35Z</time>
      </trkpt>
      <trkpt lat="47.67785" lon="6.0375">
        <ele>213.65</ele>
        <time>2017-10-04T07:49:36Z</time>
      </trkpt>
      <trkpt lat="47.67781" lon="6.03754">
        <ele>213.67</ele>
        <time>2017-10-04T07:49:37Z</time>
      </trkpt>
      <trkpt lat="47.67777" lon="6.03758">
        <ele>213.68</ele>
        <time>2017-10-04T07:49:38Z</time>
      </trkpt>
      <trkpt lat="47.6777" lon="6.03765">
        <ele>213.72</ele>
        <time>2017-10-04T07:49:40Z</time>
      </trkpt>
      <trkpt lat="47.67766" lon="6.03769">
        <ele>213.74</ele>
        <time>2017-10-04T07:49:41Z</time>
      </trkpt>
      <trkpt lat="47.67762" lon="6.03773">
        <ele>213.76</ele>
        <time>2017-10-04T07:49:42Z</time>
      </trkpt>
      <trkpt lat="47.67758" lon="6.03777">
        <ele>213.77</ele>
        <time>2017-10-04T07:49:43Z</time>
      </trkpt>
      <trkpt lat="47.67751" lon="6.03784">
        <ele>213.8</ele>
        <time>2017-10-04T07:49:45Z</time>
      </trkpt>
      <trkpt lat="47.67744" lon="6.03791">
        <ele>213.82</ele>
        <time>2017-10-04T07:49:47Z</time>
      </trkpt>
      <trkpt lat="47.6774" lon="6.03795">
        <ele>213.83</ele>
        <time>2017-10-04T07:49:48Z</time>
      </trkpt>
      <trkpt lat="47.67736" lon="6.03799">
        <ele>213.83</ele>
        <time>2017-10-04T07:49:49Z</time>
      </trkpt>
      <trkpt lat="47.67729" lon="6.03807">
        <ele>213.85</ele>
        <time>2017-10-04T07:49:51Z</time>
      </trkpt>
      <trkpt lat="47.67725" lon="6.0381">
        <ele>213.87</ele>
        <time>2017-10-04T07:49:52Z</time>
      </trkpt>
      <trkpt lat="47.67718" lon="6.03818">
        <ele>213.89</ele>
        <time>2017-10-04T07:49:54Z</time>
      </trkpt>
      <trkpt lat="47.67711" lon="6.03825">
        <ele>213.92</ele>
        <time>2017-10-04T07:49:56Z</time>
      </trkpt>
      <trkpt lat="47.67704" lon="6.03832">
        <ele>213.95</ele>
        <time>2017-10-04T07:49:58Z</time>
      </trkpt>
      <trkpt lat="47.67699" lon="6.03835">
        <ele>213.96</ele>
        <time>2017-10-04T07:49:59Z</time>
      </trkpt>
      <trkpt lat="47.67695" lon="6.03838">
        <ele>213.97</ele>
        <time>2017-10-04T07:50:00Z</time>
      </trkpt>
      <trkpt lat="47.67688" lon="6.03846">
        <ele>213.99</ele>
        <time>2017-10-04T07:50:02Z</time>
      </trkpt>
      <trkpt lat="47.67681" lon="6.03855">
        <ele>214.01</ele>
        <time>2017-10-04T07:50:04Z</time>
      </trkpt>
      <trkpt lat="47.67675" lon="6.03863">
        <ele>214.04</ele>
        <time>2017-10-04T07:50:06Z</time>
      </trkpt>
      <trkpt lat="47.6767" lon="6.03871">
        <ele>214.06</ele>
        <time>2017-10-04T07:50:08Z</time>
      </trkpt>
      <trkpt lat="47.67664" lon="6.03879">
        <ele>214.09</ele>
        <time>2017-10-04T07:50:10Z</time>
      </trkpt>
      <trkpt lat="47.67658" lon="6.03888">
        <ele>214.11</ele>
        <time>2017-10-04T07:50:12Z</time>
      </trkpt>
      <trkpt lat="47.6765" lon="6.03897">
        <ele>214.12</ele>
        <time>2017-10-04T07:50:14Z</time>
      </trkpt>
      <trkpt lat="47.67646" lon="6.039">
        <ele>214.12</ele>
        <time>2017-10-04T07:50:15Z</time>
      </trkpt>
      <trkpt lat="47.67639" lon="6.03907">
        <ele>214.14</ele>
        <time>2017-10-04T07:50:17Z</time>
      </trkpt>
      <trkpt lat="47.67635" lon="6.03912">
        <ele>214.15</ele>
        <time>2017-10-04T07:50:18Z</time>
      </trkpt>
      <trkpt lat="47.67631" lon="6.03916">
        <ele>214.16</ele>
        <time>2017-10-04T07:50:19Z</time>
      </trkpt>
      <trkpt lat="47.67628" lon="6.03921">
        <ele>214.17</ele>
        <time>2017-10-04T07:50:20Z</time>
      </trkpt>
      <trkpt lat="47.67624" lon="6.03925">
        <ele>214.18</ele>
        <time>2017-10-04T07:50:21Z</time>
      </trkpt>
      <trkpt lat="47.67619" lon="6.03929">
        <ele>214.2</ele>
        <time>2017-10-04T07:50:22Z</time>
      </trkpt>
      <trkpt lat="47.67615" lon="6.03934">
        <ele>214.21</ele>
        <time>2017-10-04T07:50:23Z</time>
      </trkpt>
      <trkpt lat="47.67611" lon="6.03938">
        <ele>214.22</ele>
        <time>2017-10-04T07:50:24Z</time>
      </trkpt>
      <trkpt lat="47.67607" lon="6.03942">
        <ele>214.24</ele>
        <time>2017-10-04T07:50:25Z</time>
      </trkpt>
      <trkpt lat="47.67599" lon="6.0395">
        <ele>214.27</ele>
        <time>2017-10-04T07:50:27Z</time>
      </trkpt>
      <trkpt lat="47.67595" lon="6.03955">
        <ele>214.28</ele>
        <time>2017-10-04T07:50:28Z</time>
      </trkpt>
      <trkpt lat="47.67592" lon="6.03959">
        <ele>214.3</ele>
        <time>2017-10-04T07:50:29Z</time>
      </trkpt>
      <trkpt lat="47.67588" lon="6.03963">
        <ele>214.32</ele>
        <time>2017-10-04T07:50:30Z</time>
      </trkpt>
      <trkpt lat="47.67582" lon="6.0397">
        <ele>214.35</ele>
        <time>2017-10-04T07:50:32Z</time>
      </trkpt>
      <trkpt lat="47.67576" lon="6.03978">
        <ele>214.38</ele>
        <time>2017-10-04T07:50:34Z</time>
      </trkpt>
      <trkpt lat="47.67572" lon="6.03981">
        <ele>214.41</ele>
        <time>2017-10-04T07:50:35Z</time>
      </trkpt>
      <trkpt lat="47.67567" lon="6.03984">
        <ele>214.44</ele>
        <time>2017-10-04T07:50:36Z</time>
      </trkpt>
      <trkpt lat="47.67563" lon="6.03987">
        <ele>214.47</ele>
        <time>2017-10-04T07:50:37Z</time>
      </trkpt>
      <trkpt lat="47.67558" lon="6.0399">
        <ele>214.49</ele>
        <time>2017-10-04T07:50:38Z</time>
      </trkpt>
      <trkpt lat="47.67553" lon="6.03991">
        <ele>214.53</ele>
        <time>2017-10-04T07:50:39Z</time>
      </trkpt>
      <trkpt lat="47.67547" lon="6.03994">
        <ele>214.55</ele>
        <time>2017-10-04T07:50:40Z</time>
      </trkpt>
      <trkpt lat="47.67543" lon="6.03996">
        <ele>214.58</ele>
        <time>2017-10-04T07:50:41Z</time>
      </trkpt>
      <trkpt lat="47.67533" lon="6.03995">
        <ele>214.62</ele>
        <time>2017-10-04T07:50:43Z</time>
      </trkpt>
      <trkpt lat="47.67529" lon="6.03994">
        <ele>214.64</ele>
        <time>2017-10-04T07:50:44Z</time>
      </trkpt>
      <trkpt lat="47.67524" lon="6.03992">
        <ele>214.65</ele>
        <time>2017-10-04T07:50:45Z</time>
      </trkpt>
      <trkpt lat="47.6752" lon="6.03989">
        <ele>214.66</ele>
        <time>2017-10-04T07:50:46Z</time>
      </trkpt>
      <trkpt lat="47.67517" lon="6.03985">
        <ele>214.67</ele>
        <time>2017-10-04T07:50:47Z</time>
      </trkpt>
      <trkpt lat="47.67513" lon="6.0398">
        <ele>214.68</ele>
        <time>2017-10-04T07:50:48Z</time>
      </trkpt>
      <trkpt lat="47.6751" lon="6.03975">
        <ele>214.68</ele>
        <time>2017-10-04T07:50:49Z</time>
      </trkpt>
      <trkpt lat="47.67506" lon="6.0397">
        <ele>214.69</ele>
        <time>2017-10-04T07:50:50Z</time>
      </trkpt>
      <trkpt lat="47.67504" lon="6.03964">
        <ele>214.69</ele>
        <time>2017-10-04T07:50:51Z</time>
      </trkpt>
      <trkpt lat="47.675" lon="6.03957">
        <ele>214.69</ele>
        <time>2017-10-04T07:50:52Z</time>
      </trkpt>
      <trkpt lat="47.67498" lon="6.03952">
        <ele>214.69</ele>
        <time>2017-10-04T07:50:53Z</time>
      </trkpt>
      <trkpt lat="47.67492" lon="6.03941">
        <ele>214.68</ele>
        <time>2017-10-04T07:50:55Z</time>
      </trkpt>
      <trkpt lat="47.67489" lon="6.03935">
        <ele>214.67</ele>
        <time>2017-10-04T07:50:56Z</time>
      </trkpt>
      <trkpt lat="47.67486" lon="6.0393">
        <ele>214.66</ele>
        <time>2017-10-04T07:50:57Z</time>
      </trkpt>
      <trkpt lat="47.67483" lon="6.03924">
        <ele>214.65</ele>
        <time>2017-10-04T07:50:58Z</time>
      </trkpt>
      <trkpt lat="47.6748" lon="6.03919">
        <ele>214.64</ele>
        <time>2017-10-04T07:50:59Z</time>
      </trkpt>
      <trkpt lat="47.67477" lon="6.03914">
        <ele>214.62</ele>
        <time>2017-10-04T07:51:00Z</time>
      </trkpt>
      <trkpt lat="47.67471" lon="6.03905">
        <ele>214.58</ele>
        <time>2017-10-04T07:51:02Z</time>
      </trkpt>
      <trkpt lat="47.67466" lon="6.03897">
        <ele>214.56</ele>
        <time>2017-10-04T07:51:04Z</time>
      </trkpt>
      <trkpt lat="47.67462" lon="6.03888">
        <ele>214.52</ele>
        <time>2017-10-04T07:51:06Z</time>
      </trkpt>
      <trkpt lat="47.67456" lon="6.03879">
        <ele>214.49</ele>
        <time>2017-10-04T07:51:08Z</time>
      </trkpt>
      <trkpt lat="47.67451" lon="6.0387">
        <ele>214.47</ele>
        <time>2017-10-04T07:51:10Z</time>
      </trkpt>
      <trkpt lat="47.67446" lon="6.03861">
        <ele>214.45</ele>
        <time>2017-10-04T07:51:12Z</time>
      </trkpt>
      <trkpt lat="47.67441" lon="6.03852">
        <ele>214.44</ele>
        <time>2017-10-04T07:51:14Z</time>
      </trkpt>
      <trkpt lat="47.67437" lon="6.03844">
        <ele>214.43</ele>
        <time>2017-10-04T07:51:16Z</time>
      </trkpt>
      <trkpt lat="47.67432" lon="6.03836">
        <ele>214.42</ele>
        <time>2017-10-04T07:51:18Z</time>
      </trkpt>
      <trkpt lat="47.67429" lon="6.0383">
        <ele>214.41</ele>
        <time>2017-10-04T07:51:19Z</time>
      </trkpt>
      <trkpt lat="47.67423" lon="6.0382">
        <ele>214.39</ele>
        <time>2017-10-04T07:51:21Z</time>
      </trkpt>
      <trkpt lat="47.67418" lon="6.0381">
        <ele>214.39</ele>
        <time>2017-10-04T07:51:23Z</time>
      </trkpt>
      <trkpt lat="47.67413" lon="6.038">
        <ele>214.38</ele>
        <time>2017-10-04T07:51:25Z</time>
      </trkpt>
      <trkpt lat="47.67408" lon="6.03791">
        <ele>214.37</ele>
        <time>2017-10-04T07:51:27Z</time>
      </trkpt>
      <trkpt lat="47.67405" lon="6.03785">
        <ele>214.37</ele>
        <time>2017-10-04T07:51:28Z</time>
      </trkpt>
      <trkpt lat="47.67402" lon="6.0378">
        <ele>214.36</ele>
        <time>2017-10-04T07:51:29Z</time>
      </trkpt>
      <trkpt lat="47.67399" lon="6.03774">
        <ele>214.36</ele>
        <time>2017-10-04T07:51:30Z</time>
      </trkpt>
      <trkpt lat="47.67395" lon="6.03769">
        <ele>214.36</ele>
        <time>2017-10-04T07:51:31Z</time>
      </trkpt>
      <trkpt lat="47.67392" lon="6.03764">
        <ele>214.36</ele>
        <time>2017-10-04T07:51:32Z</time>
      </trkpt>
      <trkpt lat="47.67389" lon="6.03758">
        <ele>214.37</ele>
        <time>2017-10-04T07:51:33Z</time>
      </trkpt>
      <trkpt lat="47.67384" lon="6.03749">
        <ele>214.38</ele>
        <time>2017-10-04T07:51:35Z</time>
      </trkpt>
      <trkpt lat="47.67379" lon="6.03738">
        <ele>214.39</ele>
        <time>2017-10-04T07:51:37Z</time>
      </trkpt>
      <trkpt lat="47.67376" lon="6.03733">
        <ele>214.4</ele>
        <time>2017-10-04T07:51:38Z</time>
      </trkpt>
      <trkpt lat="47.67372" lon="6.03727">
        <ele>214.4</ele>
        <time>2017-10-04T07:51:39Z</time>
      </trkpt>
      <trkpt lat="47.6737" lon="6.03721">
        <ele>214.41</ele>
        <time>2017-10-04T07:51:40Z</time>
      </trkpt>
      <trkpt lat="47.67367" lon="6.03715">
        <ele>214.41</ele>
        <time>2017-10-04T07:51:41Z</time>
      </trkpt>
      <trkpt lat="47.67365" lon="6.03709">
        <ele>214.42</ele>
        <time>2017-10-04T07:51:42Z</time>
      </trkpt>
      <trkpt lat="47.67362" lon="6.03702">
        <ele>214.42</ele>
        <time>2017-10-04T07:51:43Z</time>
      </trkpt>
      <trkpt lat="47.6736" lon="6.03696">
        <ele>214.43</ele>
        <time>2017-10-04T07:51:44Z</time>
      </trkpt>
      <trkpt lat="47.67358" lon="6.0369">
        <ele>214.43</ele>
        <time>2017-10-04T07:51:45Z</time>
      </trkpt>
      <trkpt lat="47.67356" lon="6.03683">
        <ele>214.44</ele>
        <time>2017-10-04T07:51:46Z</time>
      </trkpt>
      <trkpt lat="47.67354" lon="6.03677">
        <ele>214.45</ele>
        <time>2017-10-04T07:51:47Z</time>
      </trkpt>
      <trkpt lat="47.67352" lon="6.03671">
        <ele>214.46</ele>
        <time>2017-10-04T07:51:48Z</time>
      </trkpt>
      <trkpt lat="47.6735" lon="6.03664">
        <ele>214.47</ele>
        <time>2017-10-04T07:51:49Z</time>
      </trkpt>
      <trkpt lat="47.67347" lon="6.03654">
        <ele>214.47</ele>
        <time>2017-10-04T07:51:51Z</time>
      </trkpt>
      <trkpt lat="47.67344" lon="6.03643">
        <ele>214.49</ele>
        <time>2017-10-04T07:51:53Z</time>
      </trkpt>
      <trkpt lat="47.67341" lon="6.03631">
        <ele>214.51</ele>
        <time>2017-10-04T07:51:55Z</time>
      </trkpt>
      <trkpt lat="47.67338" lon="6.0362">
        <ele>214.51</ele>
        <time>2017-10-04T07:51:57Z</time>
      </trkpt>
      <trkpt lat="47.67335" lon="6.03611">
        <ele>214.51</ele>
        <time>2017-10-04T07:51:59Z</time>
      </trkpt>
      <trkpt lat="47.67332" lon="6.03601">
        <ele>214.51</ele>
        <time>2017-10-04T07:52:01Z</time>
      </trkpt>
      <trkpt lat="47.67329" lon="6.03592">
        <ele>214.51</ele>
        <time>2017-10-04T07:52:03Z</time>
      </trkpt>
      <trkpt lat="47.67327" lon="6.03581">
        <ele>214.5</ele>
        <time>2017-10-04T07:52:05Z</time>
      </trkpt>
      <trkpt lat="47.67325" lon="6.03574">
        <ele>214.5</ele>
        <time>2017-10-04T07:52:07Z</time>
      </trkpt>
      <trkpt lat="47.67322" lon="6.03563">
        <ele>214.45</ele>
        <time>2017-10-04T07:52:09Z</time>
      </trkpt>
      <trkpt lat="47.67321" lon="6.03555">
        <ele>214.4</ele>
        <time>2017-10-04T07:52:10Z</time>
      </trkpt>
      <trkpt lat="47.67319" lon="6.03548">
        <ele>214.38</ele>
        <time>2017-10-04T07:52:11Z</time>
      </trkpt>
      <trkpt lat="47.67318" lon="6.03541">
        <ele>214.37</ele>
        <time>2017-10-04T07:52:12Z</time>
      </trkpt>
      <trkpt lat="47.67316" lon="6.03532">
        <ele>214.32</ele>
        <time>2017-10-04T07:52:13Z</time>
      </trkpt>
      <trkpt lat="47.67314" lon="6.03522">
        <ele>214.28</ele>
        <time>2017-10-04T07:52:14Z</time>
      </trkpt>
      <trkpt lat="47.67312" lon="6.03514">
        <ele>214.24</ele>
        <time>2017-10-04T07:52:15Z</time>
      </trkpt>
      <trkpt lat="47.67311" lon="6.03506">
        <ele>214.21</ele>
        <time>2017-10-04T07:52:16Z</time>
      </trkpt>
      <trkpt lat="47.67309" lon="6.03497">
        <ele>214.19</ele>
        <time>2017-10-04T07:52:17Z</time>
      </trkpt>
      <trkpt lat="47.67307" lon="6.03489">
        <ele>214.17</ele>
        <time>2017-10-04T07:52:18Z</time>
      </trkpt>
      <trkpt lat="47.67306" lon="6.03481">
        <ele>214.16</ele>
        <time>2017-10-04T07:52:19Z</time>
      </trkpt>
      <trkpt lat="47.67304" lon="6.03475">
        <ele>214.16</ele>
        <time>2017-10-04T07:52:20Z</time>
      </trkpt>
      <trkpt lat="47.67302" lon="6.03467">
        <ele>214.15</ele>
        <time>2017-10-04T07:52:21Z</time>
      </trkpt>
      <trkpt lat="47.673" lon="6.03459">
        <ele>214.15</ele>
        <time>2017-10-04T07:52:22Z</time>
      </trkpt>
      <trkpt lat="47.67299" lon="6.03452">
        <ele>214.16</ele>
        <time>2017-10-04T07:52:23Z</time>
      </trkpt>
      <trkpt lat="47.67297" lon="6.03445">
        <ele>214.16</ele>
        <time>2017-10-04T07:52:24Z</time>
      </trkpt>
      <trkpt lat="47.67296" lon="6.03438">
        <ele>214.17</ele>
        <time>2017-10-04T07:52:25Z</time>
      </trkpt>
      <trkpt lat="47.67294" lon="6.03432">
        <ele>214.18</ele>
        <time>2017-10-04T07:52:26Z</time>
      </trkpt>
      <trkpt lat="47.67293" lon="6.03425">
        <ele>214.18</ele>
        <time>2017-10-04T07:52:27Z</time>
      </trkpt>
      <trkpt lat="47.67289" lon="6.03414">
        <ele>214.19</ele>
        <time>2017-10-04T07:52:29Z</time>
      </trkpt>
      <trkpt lat="47.67286" lon="6.03401">
        <ele>214.19</ele>
        <time>2017-10-04T07:52:31Z</time>
      </trkpt>
      <trkpt lat="47.67285" lon="6.03395">
        <ele>214.19</ele>
        <time>2017-10-04T07:52:32Z</time>
      </trkpt>
      <trkpt lat="47.67283" lon="6.03388">
        <ele>214.19</ele>
        <time>2017-10-04T07:52:33Z</time>
      </trkpt>
      <trkpt lat="47.67279" lon="6.03375">
        <ele>214.2</ele>
        <time>2017-10-04T07:52:35Z</time>
      </trkpt>
      <trkpt lat="47.67277" lon="6.03368">
        <ele>214.21</ele>
        <time>2017-10-04T07:52:36Z</time>
      </trkpt>
      <trkpt lat="47.67275" lon="6.0336">
        <ele>214.22</ele>
        <time>2017-10-04T07:52:37Z</time>
      </trkpt>
      <trkpt lat="47.67273" lon="6.03353">
        <ele>214.24</ele>
        <time>2017-10-04T07:52:38Z</time>
      </trkpt>
      <trkpt lat="47.6727" lon="6.03341">
        <ele>214.28</ele>
        <time>2017-10-04T07:52:40Z</time>
      </trkpt>
      <trkpt lat="47.67266" lon="6.0333">
        <ele>214.31</ele>
        <time>2017-10-04T07:52:42Z</time>
      </trkpt>
      <trkpt lat="47.67263" lon="6.03324">
        <ele>214.32</ele>
        <time>2017-10-04T07:52:43Z</time>
      </trkpt>
      <trkpt lat="47.6726" lon="6.03313">
        <ele>214.34</ele>
        <time>2017-10-04T07:52:45Z</time>
      </trkpt>
      <trkpt lat="47.67256" lon="6.03301">
        <ele>214.35</ele>
        <time>2017-10-04T07:52:47Z</time>
      </trkpt>
      <trkpt lat="47.67255" lon="6.03294">
        <ele>214.34</ele>
        <time>2017-10-04T07:52:48Z</time>
      </trkpt>
      <trkpt lat="47.67253" lon="6.03288">
        <ele>214.34</ele>
        <time>2017-10-04T07:52:49Z</time>
      </trkpt>
      <trkpt lat="47.67251" lon="6.03282">
        <ele>214.34</ele>
        <time>2017-10-04T07:52:50Z</time>
      </trkpt>
      <trkpt lat="47.67249" lon="6.03275">
        <ele>214.34</ele>
        <time>2017-10-04T07:52:51Z</time>
      </trkpt>
      <trkpt lat="47.67246" lon="6.03263">
        <ele>214.32</ele>
        <time>2017-10-04T07:52:53Z</time>
      </trkpt>
      <trkpt lat="47.67244" lon="6.03257">
        <ele>214.31</ele>
        <time>2017-10-04T07:52:54Z</time>
      </trkpt>
      <trkpt lat="47.67243" lon="6.0325">
        <ele>214.3</ele>
        <time>2017-10-04T07:52:55Z</time>
      </trkpt>
      <trkpt lat="47.67242" lon="6.03243">
        <ele>214.29</ele>
        <time>2017-10-04T07:52:56Z</time>
      </trkpt>
      <trkpt lat="47.67241" lon="6.03236">
        <ele>214.28</ele>
        <time>2017-10-04T07:52:57Z</time>
      </trkpt>
      <trkpt lat="47.6724" lon="6.0323">
        <ele>214.27</ele>
        <time>2017-10-04T07:52:58Z</time>
      </trkpt>
      <trkpt lat="47.67239" lon="6.03223">
        <ele>214.26</ele>
        <time>2017-10-04T07:52:59Z</time>
      </trkpt>
      <trkpt lat="47.67238" lon="6.03216">
        <ele>214.25</ele>
        <time>2017-10-04T07:53:00Z</time>
      </trkpt>
      <trkpt lat="47.67237" lon="6.03203">
        <ele>214.23</ele>
        <time>2017-10-04T07:53:02Z</time>
      </trkpt>
      <trkpt lat="47.67235" lon="6.0319">
        <ele>214.2</ele>
        <time>2017-10-04T07:53:04Z</time>
      </trkpt>
      <trkpt lat="47.67234" lon="6.03184">
        <ele>214.19</ele>
        <time>2017-10-04T07:53:05Z</time>
      </trkpt>
      <trkpt lat="47.67233" lon="6.03171">
        <ele>214.16</ele>
        <time>2017-10-04T07:53:07Z</time>
      </trkpt>
      <trkpt lat="47.67232" lon="6.03158">
        <ele>214.14</ele>
        <time>2017-10-04T07:53:09Z</time>
      </trkpt>
      <trkpt lat="47.67231" lon="6.03151">
        <ele>214.14</ele>
        <time>2017-10-04T07:53:10Z</time>
      </trkpt>
      <trkpt lat="47.6723" lon="6.03144">
        <ele>214.13</ele>
        <time>2017-10-04T07:53:11Z</time>
      </trkpt>
      <trkpt lat="47.6723" lon="6.03138">
        <ele>214.12</ele>
        <time>2017-10-04T07:53:12Z</time>
      </trkpt>
      <trkpt lat="47.67229" lon="6.03131">
        <ele>214.12</ele>
        <time>2017-10-04T07:53:13Z</time>
      </trkpt>
      <trkpt lat="47.67228" lon="6.03124">
        <ele>214.11</ele>
        <time>2017-10-04T07:53:14Z</time>
      </trkpt>
      <trkpt lat="47.67227" lon="6.03111">
        <ele>214.1</ele>
        <time>2017-10-04T07:53:16Z</time>
      </trkpt>
      <trkpt lat="47.67225" lon="6.03099">
        <ele>214.08</ele>
        <time>2017-10-04T07:53:18Z</time>
      </trkpt>
      <trkpt lat="47.67224" lon="6.03087">
        <ele>214.06</ele>
        <time>2017-10-04T07:53:20Z</time>
      </trkpt>
      <trkpt lat="47.67223" lon="6.03074">
        <ele>214.03</ele>
        <time>2017-10-04T07:53:22Z</time>
      </trkpt>
      <trkpt lat="47.67221" lon="6.03061">
        <ele>214</ele>
        <time>2017-10-04T07:53:24Z</time>
      </trkpt>
      <trkpt lat="47.67221" lon="6.03054">
        <ele>213.99</ele>
        <time>2017-10-04T07:53:25Z</time>
      </trkpt>
      <trkpt lat="47.6722" lon="6.03046">
        <ele>213.97</ele>
        <time>2017-10-04T07:53:26Z</time>
      </trkpt>
      <trkpt lat="47.67219" lon="6.03039">
        <ele>213.97</ele>
        <time>2017-10-04T07:53:27Z</time>
      </trkpt>
      <trkpt lat="47.67218" lon="6.03031">
        <ele>213.96</ele>
        <time>2017-10-04T07:53:28Z</time>
      </trkpt>
      <trkpt lat="47.67218" lon="6.03025">
        <ele>213.95</ele>
        <time>2017-10-04T07:53:29Z</time>
      </trkpt>
      <trkpt lat="47.67217" lon="6.03018">
        <ele>213.94</ele>
        <time>2017-10-04T07:53:30Z</time>
      </trkpt>
      <trkpt lat="47.67214" lon="6.03005">
        <ele>213.92</ele>
        <time>2017-10-04T07:53:32Z</time>
      </trkpt>
      <trkpt lat="47.67212" lon="6.02993">
        <ele>213.9</ele>
        <time>2017-10-04T07:53:34Z</time>
      </trkpt>
      <trkpt lat="47.67209" lon="6.02981">
        <ele>213.88</ele>
        <time>2017-10-04T07:53:36Z</time>
      </trkpt>
      <trkpt lat="47.67207" lon="6.02975">
        <ele>213.86</ele>
        <time>2017-10-04T07:53:37Z</time>
      </trkpt>
      <trkpt lat="47.67204" lon="6.02964">
        <ele>213.86</ele>
        <time>2017-10-04T07:53:39Z</time>
      </trkpt>
      <trkpt lat="47.67201" lon="6.02954">
        <ele>213.84</ele>
        <time>2017-10-04T07:53:41Z</time>
      </trkpt>
      <trkpt lat="47.67198" lon="6.02948">
        <ele>213.83</ele>
        <time>2017-10-04T07:53:42Z</time>
      </trkpt>
      <trkpt lat="47.67196" lon="6.02936">
        <ele>213.83</ele>
        <time>2017-10-04T07:53:44Z</time>
      </trkpt>
      <trkpt lat="47.67193" lon="6.02924">
        <ele>213.82</ele>
        <time>2017-10-04T07:53:46Z</time>
      </trkpt>
      <trkpt lat="47.67191" lon="6.02916">
        <ele>213.81</ele>
        <time>2017-10-04T07:53:47Z</time>
      </trkpt>
      <trkpt lat="47.67187" lon="6.02905">
        <ele>213.82</ele>
        <time>2017-10-04T07:53:49Z</time>
      </trkpt>
      <trkpt lat="47.67184" lon="6.02898">
        <ele>213.83</ele>
        <time>2017-10-04T07:53:50Z</time>
      </trkpt>
      <trkpt lat="47.67181" lon="6.02892">
        <ele>213.84</ele>
        <time>2017-10-04T07:53:51Z</time>
      </trkpt>
      <trkpt lat="47.67178" lon="6.02885">
        <ele>213.86</ele>
        <time>2017-10-04T07:53:52Z</time>
      </trkpt>
      <trkpt lat="47.67175" lon="6.02879">
        <ele>213.87</ele>
        <time>2017-10-04T07:53:53Z</time>
      </trkpt>
      <trkpt lat="47.67172" lon="6.02873">
        <ele>213.88</ele>
        <time>2017-10-04T07:53:54Z</time>
      </trkpt>
      <trkpt lat="47.6717" lon="6.02867">
        <ele>213.9</ele>
        <time>2017-10-04T07:53:55Z</time>
      </trkpt>
      <trkpt lat="47.67167" lon="6.02861">
        <ele>213.91</ele>
        <time>2017-10-04T07:53:56Z</time>
      </trkpt>
      <trkpt lat="47.67164" lon="6.02856">
        <ele>213.93</ele>
        <time>2017-10-04T07:53:57Z</time>
      </trkpt>
      <trkpt lat="47.67161" lon="6.02851">
        <ele>213.94</ele>
        <time>2017-10-04T07:53:58Z</time>
      </trkpt>
      <trkpt lat="47.67155" lon="6.0284">
        <ele>213.97</ele>
        <time>2017-10-04T07:54:00Z</time>
      </trkpt>
      <trkpt lat="47.67152" lon="6.02835">
        <ele>213.98</ele>
        <time>2017-10-04T07:54:01Z</time>
      </trkpt>
      <trkpt lat="47.67149" lon="6.0283">
        <ele>214</ele>
        <time>2017-10-04T07:54:02Z</time>
      </trkpt>
      <trkpt lat="47.67145" lon="6.02825">
        <ele>214.01</ele>
        <time>2017-10-04T07:54:03Z</time>
      </trkpt>
      <trkpt lat="47.67142" lon="6.0282">
        <ele>214.02</ele>
        <time>2017-10-04T07:54:04Z</time>
      </trkpt>
      <trkpt lat="47.67136" lon="6.02811">
        <ele>214.04</ele>
        <time>2017-10-04T07:54:06Z</time>
      </trkpt>
      <trkpt lat="47.67129" lon="6.02802">
        <ele>214.05</ele>
        <time>2017-10-04T07:54:08Z</time>
      </trkpt>
      <trkpt lat="47.67124" lon="6.02794">
        <ele>214.05</ele>
        <time>2017-10-04T07:54:10Z</time>
      </trkpt>
      <trkpt lat="47.67118" lon="6.02786">
        <ele>214.06</ele>
        <time>2017-10-04T07:54:12Z</time>
      </trkpt>
      <trkpt lat="47.67114" lon="6.02782">
        <ele>214.06</ele>
        <time>2017-10-04T07:54:13Z</time>
      </trkpt>
      <trkpt lat="47.6711" lon="6.02777">
        <ele>214.07</ele>
        <time>2017-10-04T07:54:14Z</time>
      </trkpt>
      <trkpt lat="47.67107" lon="6.02773">
        <ele>214.07</ele>
        <time>2017-10-04T07:54:15Z</time>
      </trkpt>
      <trkpt lat="47.67103" lon="6.02768">
        <ele>214.07</ele>
        <time>2017-10-04T07:54:16Z</time>
      </trkpt>
      <trkpt lat="47.67097" lon="6.02761">
        <ele>214.07</ele>
        <time>2017-10-04T07:54:18Z</time>
      </trkpt>
      <trkpt lat="47.67093" lon="6.02756">
        <ele>214.07</ele>
        <time>2017-10-04T07:54:20Z</time>
      </trkpt>
      <trkpt lat="47.67088" lon="6.02749">
        <ele>214.07</ele>
        <time>2017-10-04T07:54:22Z</time>
      </trkpt>
      <trkpt lat="47.67082" lon="6.02741">
        <ele>214.08</ele>
        <time>2017-10-04T07:54:24Z</time>
      </trkpt>
      <trkpt lat="47.67078" lon="6.02737">
        <ele>214.08</ele>
        <time>2017-10-04T07:54:25Z</time>
      </trkpt>
      <trkpt lat="47.67074" lon="6.02732">
        <ele>214.08</ele>
        <time>2017-10-04T07:54:26Z</time>
      </trkpt>
      <trkpt lat="47.67068" lon="6.02726">
        <ele>214.08</ele>
        <time>2017-10-04T07:54:28Z</time>
      </trkpt>
      <trkpt lat="47.67063" lon="6.0272">
        <ele>214.07</ele>
        <time>2017-10-04T07:54:30Z</time>
      </trkpt>
      <trkpt lat="47.67058" lon="6.02715">
        <ele>214.07</ele>
        <time>2017-10-04T07:54:32Z</time>
      </trkpt>
      <trkpt lat="47.67052" lon="6.02708">
        <ele>214.06</ele>
        <time>2017-10-04T07:54:34Z</time>
      </trkpt>
      <trkpt lat="47.67045" lon="6.027">
        <ele>214.06</ele>
        <time>2017-10-04T07:54:36Z</time>
      </trkpt>
      <trkpt lat="47.67039" lon="6.02692">
        <ele>214.05</ele>
        <time>2017-10-04T07:54:38Z</time>
      </trkpt>
      <trkpt lat="47.67035" lon="6.02687">
        <ele>214.04</ele>
        <time>2017-10-04T07:54:39Z</time>
      </trkpt>
      <trkpt lat="47.67032" lon="6.02682">
        <ele>214.03</ele>
        <time>2017-10-04T07:54:40Z</time>
      </trkpt>
      <trkpt lat="47.67029" lon="6.02678">
        <ele>214.03</ele>
        <time>2017-10-04T07:54:41Z</time>
      </trkpt>
      <trkpt lat="47.67022" lon="6.02668">
        <ele>214.01</ele>
        <time>2017-10-04T07:54:43Z</time>
      </trkpt>
      <trkpt lat="47.67019" lon="6.02663">
        <ele>214</ele>
        <time>2017-10-04T07:54:44Z</time>
      </trkpt>
      <trkpt lat="47.67016" lon="6.02658">
        <ele>213.98</ele>
        <time>2017-10-04T07:54:45Z</time>
      </trkpt>
      <trkpt lat="47.67013" lon="6.02653">
        <ele>213.97</ele>
        <time>2017-10-04T07:54:46Z</time>
      </trkpt>
      <trkpt lat="47.67007" lon="6.02644">
        <ele>213.96</ele>
        <time>2017-10-04T07:54:48Z</time>
      </trkpt>
      <trkpt lat="47.67002" lon="6.02635">
        <ele>213.95</ele>
        <time>2017-10-04T07:54:50Z</time>
      </trkpt>
      <trkpt lat="47.66997" lon="6.02627">
        <ele>213.95</ele>
        <time>2017-10-04T07:54:52Z</time>
      </trkpt>
      <trkpt lat="47.66992" lon="6.02618">
        <ele>213.94</ele>
        <time>2017-10-04T07:54:54Z</time>
      </trkpt>
      <trkpt lat="47.66989" lon="6.02613">
        <ele>213.94</ele>
        <time>2017-10-04T07:54:55Z</time>
      </trkpt>
      <trkpt lat="47.66984" lon="6.02603">
        <ele>213.94</ele>
        <time>2017-10-04T07:54:57Z</time>
      </trkpt>
      <trkpt lat="47.66981" lon="6.02598">
        <ele>213.94</ele>
        <time>2017-10-04T07:54:58Z</time>
      </trkpt>
      <trkpt lat="47.66977" lon="6.02592">
        <ele>213.94</ele>
        <time>2017-10-04T07:54:59Z</time>
      </trkpt>
      <trkpt lat="47.66974" lon="6.02587">
        <ele>213.94</ele>
        <time>2017-10-04T07:55:00Z</time>
      </trkpt>
      <trkpt lat="47.66971" lon="6.02582">
        <ele>213.95</ele>
        <time>2017-10-04T07:55:01Z</time>
      </trkpt>
      <trkpt lat="47.66968" lon="6.02577">
        <ele>213.95</ele>
        <time>2017-10-04T07:55:02Z</time>
      </trkpt>
      <trkpt lat="47.66965" lon="6.02572">
        <ele>213.96</ele>
        <time>2017-10-04T07:55:03Z</time>
      </trkpt>
      <trkpt lat="47.66961" lon="6.02566">
        <ele>213.97</ele>
        <time>2017-10-04T07:55:04Z</time>
      </trkpt>
      <trkpt lat="47.66956" lon="6.02558">
        <ele>213.97</ele>
        <time>2017-10-04T07:55:06Z</time>
      </trkpt>
      <trkpt lat="47.66951" lon="6.02548">
        <ele>213.98</ele>
        <time>2017-10-04T07:55:08Z</time>
      </trkpt>
      <trkpt lat="47.66947" lon="6.02543">
        <ele>213.98</ele>
        <time>2017-10-04T07:55:09Z</time>
      </trkpt>
      <trkpt lat="47.66944" lon="6.02537">
        <ele>213.99</ele>
        <time>2017-10-04T07:55:10Z</time>
      </trkpt>
      <trkpt lat="47.6694" lon="6.02531">
        <ele>213.99</ele>
        <time>2017-10-04T07:55:11Z</time>
      </trkpt>
      <trkpt lat="47.66937" lon="6.02526">
        <ele>213.98</ele>
        <time>2017-10-04T07:55:12Z</time>
      </trkpt>
      <trkpt lat="47.66934" lon="6.02521">
        <ele>213.98</ele>
        <time>2017-10-04T07:55:13Z</time>
      </trkpt>
      <trkpt lat="47.66931" lon="6.02516">
        <ele>213.97</ele>
        <time>2017-10-04T07:55:14Z</time>
      </trkpt>
      <trkpt lat="47.66927" lon="6.0251">
        <ele>213.96</ele>
        <time>2017-10-04T07:55:15Z</time>
      </trkpt>
      <trkpt lat="47.66924" lon="6.02504">
        <ele>213.95</ele>
        <time>2017-10-04T07:55:16Z</time>
      </trkpt>
      <trkpt lat="47.66921" lon="6.02498">
        <ele>213.93</ele>
        <time>2017-10-04T07:55:17Z</time>
      </trkpt>
      <trkpt lat="47.66917" lon="6.02493">
        <ele>213.92</ele>
        <time>2017-10-04T07:55:18Z</time>
      </trkpt>
      <trkpt lat="47.66914" lon="6.02487">
        <ele>213.9</ele>
        <time>2017-10-04T07:55:19Z</time>
      </trkpt>
      <trkpt lat="47.66911" lon="6.02482">
        <ele>213.88</ele>
        <time>2017-10-04T07:55:20Z</time>
      </trkpt>
      <trkpt lat="47.66907" lon="6.02476">
        <ele>213.86</ele>
        <time>2017-10-04T07:55:21Z</time>
      </trkpt>
      <trkpt lat="47.66905" lon="6.02471">
        <ele>213.85</ele>
        <time>2017-10-04T07:55:22Z</time>
      </trkpt>
      <trkpt lat="47.66901" lon="6.02465">
        <ele>213.83</ele>
        <time>2017-10-04T07:55:23Z</time>
      </trkpt>
      <trkpt lat="47.66898" lon="6.0246">
        <ele>213.81</ele>
        <time>2017-10-04T07:55:24Z</time>
      </trkpt>
      <trkpt lat="47.66893" lon="6.02451">
        <ele>213.78</ele>
        <time>2017-10-04T07:55:26Z</time>
      </trkpt>
      <trkpt lat="47.66887" lon="6.0244">
        <ele>213.74</ele>
        <time>2017-10-04T07:55:28Z</time>
      </trkpt>
      <trkpt lat="47.66882" lon="6.0243">
        <ele>213.7</ele>
        <time>2017-10-04T07:55:30Z</time>
      </trkpt>
      <trkpt lat="47.6688" lon="6.02425">
        <ele>213.67</ele>
        <time>2017-10-04T07:55:31Z</time>
      </trkpt>
      <trkpt lat="47.66877" lon="6.02419">
        <ele>213.65</ele>
        <time>2017-10-04T07:55:32Z</time>
      </trkpt>
      <trkpt lat="47.66874" lon="6.02413">
        <ele>213.63</ele>
        <time>2017-10-04T07:55:33Z</time>
      </trkpt>
      <trkpt lat="47.66871" lon="6.02407">
        <ele>213.61</ele>
        <time>2017-10-04T07:55:34Z</time>
      </trkpt>
      <trkpt lat="47.66868" lon="6.02402">
        <ele>213.59</ele>
        <time>2017-10-04T07:55:35Z</time>
      </trkpt>
      <trkpt lat="47.66865" lon="6.02396">
        <ele>213.57</ele>
        <time>2017-10-04T07:55:36Z</time>
      </trkpt>
      <trkpt lat="47.66861" lon="6.02386">
        <ele>213.53</ele>
        <time>2017-10-04T07:55:38Z</time>
      </trkpt>
      <trkpt lat="47.66855" lon="6.02376">
        <ele>213.51</ele>
        <time>2017-10-04T07:55:40Z</time>
      </trkpt>
      <trkpt lat="47.66851" lon="6.02367">
        <ele>213.5</ele>
        <time>2017-10-04T07:55:42Z</time>
      </trkpt>
      <trkpt lat="47.66846" lon="6.02357">
        <ele>213.49</ele>
        <time>2017-10-04T07:55:44Z</time>
      </trkpt>
      <trkpt lat="47.66843" lon="6.02348">
        <ele>213.48</ele>
        <time>2017-10-04T07:55:46Z</time>
      </trkpt>
      <trkpt lat="47.66838" lon="6.0234">
        <ele>213.48</ele>
        <time>2017-10-04T07:55:48Z</time>
      </trkpt>
      <trkpt lat="47.66834" lon="6.0233">
        <ele>213.47</ele>
        <time>2017-10-04T07:55:50Z</time>
      </trkpt>
      <trkpt lat="47.66831" lon="6.0232">
        <ele>213.46</ele>
        <time>2017-10-04T07:55:52Z</time>
      </trkpt>
      <trkpt lat="47.66826" lon="6.02311">
        <ele>213.45</ele>
        <time>2017-10-04T07:55:54Z</time>
      </trkpt>
      <trkpt lat="47.66823" lon="6.02302">
        <ele>213.44</ele>
        <time>2017-10-04T07:55:56Z</time>
      </trkpt>
      <trkpt lat="47.6682" lon="6.02291">
        <ele>213.42</ele>
        <time>2017-10-04T07:55:58Z</time>
      </trkpt>
      <trkpt lat="47.66819" lon="6.02284">
        <ele>213.41</ele>
        <time>2017-10-04T07:55:59Z</time>
      </trkpt>
      <trkpt lat="47.66817" lon="6.02277">
        <ele>213.34</ele>
        <time>2017-10-04T07:56:00Z</time>
      </trkpt>
      <trkpt lat="47.66815" lon="6.0227">
        <ele>213.31</ele>
        <time>2017-10-04T07:56:01Z</time>
      </trkpt>
      <trkpt lat="47.66812" lon="6.02259">
        <ele>213.29</ele>
        <time>2017-10-04T07:56:03Z</time>
      </trkpt>
      <trkpt lat="47.6681" lon="6.02246">
        <ele>213.28</ele>
        <time>2017-10-04T07:56:04Z</time>
      </trkpt>
      <trkpt lat="47.66807" lon="6.02237">
        <ele>213.24</ele>
        <time>2017-10-04T07:56:05Z</time>
      </trkpt>
      <trkpt lat="47.66803" lon="6.02227">
        <ele>213.22</ele>
        <time>2017-10-04T07:56:07Z</time>
      </trkpt>
      <trkpt lat="47.668" lon="6.0222">
        <ele>213.21</ele>
        <time>2017-10-04T07:56:08Z</time>
      </trkpt>
      <trkpt lat="47.66798" lon="6.02212">
        <ele>213.21</ele>
        <time>2017-10-04T07:56:09Z</time>
      </trkpt>
      <trkpt lat="47.66794" lon="6.02201">
        <ele>213.17</ele>
        <time>2017-10-04T07:56:11Z</time>
      </trkpt>
      <trkpt lat="47.66791" lon="6.02193">
        <ele>213.16</ele>
        <time>2017-10-04T07:56:13Z</time>
      </trkpt>
      <trkpt lat="47.66789" lon="6.02182">
        <ele>213.15</ele>
        <time>2017-10-04T07:56:15Z</time>
      </trkpt>
      <trkpt lat="47.66787" lon="6.02176">
        <ele>213.13</ele>
        <time>2017-10-04T07:56:16Z</time>
      </trkpt>
      <trkpt lat="47.66785" lon="6.02167">
        <ele>213.11</ele>
        <time>2017-10-04T07:56:17Z</time>
      </trkpt>
      <trkpt lat="47.66784" lon="6.02158">
        <ele>213.1</ele>
        <time>2017-10-04T07:56:18Z</time>
      </trkpt>
      <trkpt lat="47.66781" lon="6.02149">
        <ele>213.09</ele>
        <time>2017-10-04T07:56:20Z</time>
      </trkpt>
      <trkpt lat="47.66779" lon="6.02137">
        <ele>213.09</ele>
        <time>2017-10-04T07:56:22Z</time>
      </trkpt>
      <trkpt lat="47.66777" lon="6.02125">
        <ele>213.09</ele>
        <time>2017-10-04T07:56:24Z</time>
      </trkpt>
      <trkpt lat="47.66774" lon="6.02113">
        <ele>213.1</ele>
        <time>2017-10-04T07:56:26Z</time>
      </trkpt>
      <trkpt lat="47.6677" lon="6.021">
        <ele>213.12</ele>
        <time>2017-10-04T07:56:28Z</time>
      </trkpt>
      <trkpt lat="47.66769" lon="6.02093">
        <ele>213.13</ele>
        <time>2017-10-04T07:56:29Z</time>
      </trkpt>
      <trkpt lat="47.66766" lon="6.02087">
        <ele>213.16</ele>
        <time>2017-10-04T07:56:30Z</time>
      </trkpt>
      <trkpt lat="47.66765" lon="6.0208">
        <ele>213.18</ele>
        <time>2017-10-04T07:56:31Z</time>
      </trkpt>
      <trkpt lat="47.66763" lon="6.02074">
        <ele>213.19</ele>
        <time>2017-10-04T07:56:32Z</time>
      </trkpt>
      <trkpt lat="47.6676" lon="6.02061">
        <ele>213.23</ele>
        <time>2017-10-04T07:56:34Z</time>
      </trkpt>
      <trkpt lat="47.66758" lon="6.02055">
        <ele>213.25</ele>
        <time>2017-10-04T07:56:35Z</time>
      </trkpt>
      <trkpt lat="47.66757" lon="6.02048">
        <ele>213.26</ele>
        <time>2017-10-04T07:56:36Z</time>
      </trkpt>
      <trkpt lat="47.66755" lon="6.02041">
        <ele>213.27</ele>
        <time>2017-10-04T07:56:37Z</time>
      </trkpt>
      <trkpt lat="47.66752" lon="6.02029">
        <ele>213.28</ele>
        <time>2017-10-04T07:56:39Z</time>
      </trkpt>
      <trkpt lat="47.6675" lon="6.02022">
        <ele>213.28</ele>
        <time>2017-10-04T07:56:40Z</time>
      </trkpt>
      <trkpt lat="47.66748" lon="6.02015">
        <ele>213.29</ele>
        <time>2017-10-04T07:56:41Z</time>
      </trkpt>
      <trkpt lat="47.66746" lon="6.02003">
        <ele>213.32</ele>
        <time>2017-10-04T07:56:43Z</time>
      </trkpt>
      <trkpt lat="47.66742" lon="6.01991">
        <ele>213.32</ele>
        <time>2017-10-04T07:56:45Z</time>
      </trkpt>
      <trkpt lat="47.66741" lon="6.01984">
        <ele>213.33</ele>
        <time>2017-10-04T07:56:46Z</time>
      </trkpt>
      <trkpt lat="47.66739" lon="6.01977">
        <ele>213.33</ele>
        <time>2017-10-04T07:56:47Z</time>
      </trkpt>
      <trkpt lat="47.66738" lon="6.0197">
        <ele>213.33</ele>
        <time>2017-10-04T07:56:48Z</time>
      </trkpt>
      <trkpt lat="47.66733" lon="6.01961">
        <ele>213.34</ele>
        <time>2017-10-04T07:56:50Z</time>
      </trkpt>
      <trkpt lat="47.6673" lon="6.01951">
        <ele>213.43</ele>
        <time>2017-10-04T07:56:52Z</time>
      </trkpt>
      <trkpt lat="47.66727" lon="6.01943">
        <ele>213.47</ele>
        <time>2017-10-04T07:56:53Z</time>
      </trkpt>
      <trkpt lat="47.66725" lon="6.01937">
        <ele>213.49</ele>
        <time>2017-10-04T07:56:54Z</time>
      </trkpt>
      <trkpt lat="47.6672" lon="6.01928">
        <ele>213.5</ele>
        <time>2017-10-04T07:56:56Z</time>
      </trkpt>
      <trkpt lat="47.66718" lon="6.01921">
        <ele>213.5</ele>
        <time>2017-10-04T07:56:57Z</time>
      </trkpt>
      <trkpt lat="47.66715" lon="6.01916">
        <ele>213.51</ele>
        <time>2017-10-04T07:56:58Z</time>
      </trkpt>
      <trkpt lat="47.6671" lon="6.01907">
        <ele>213.52</ele>
        <time>2017-10-04T07:57:00Z</time>
      </trkpt>
      <trkpt lat="47.66705" lon="6.01895">
        <ele>213.53</ele>
        <time>2017-10-04T07:57:02Z</time>
      </trkpt>
      <trkpt lat="47.66702" lon="6.0189">
        <ele>213.57</ele>
        <time>2017-10-04T07:57:03Z</time>
      </trkpt>
      <trkpt lat="47.66699" lon="6.01884">
        <ele>213.59</ele>
        <time>2017-10-04T07:57:04Z</time>
      </trkpt>
      <trkpt lat="47.66694" lon="6.01874">
        <ele>213.64</ele>
        <time>2017-10-04T07:57:06Z</time>
      </trkpt>
      <trkpt lat="47.66688" lon="6.01865">
        <ele>213.7</ele>
        <time>2017-10-04T07:57:08Z</time>
      </trkpt>
      <trkpt lat="47.66683" lon="6.01855">
        <ele>213.75</ele>
        <time>2017-10-04T07:57:10Z</time>
      </trkpt>
      <trkpt lat="47.6668" lon="6.01849">
        <ele>213.78</ele>
        <time>2017-10-04T07:57:11Z</time>
      </trkpt>
      <trkpt lat="47.66676" lon="6.01843">
        <ele>213.81</ele>
        <time>2017-10-04T07:57:12Z</time>
      </trkpt>
      <trkpt lat="47.66671" lon="6.01833">
        <ele>213.86</ele>
        <time>2017-10-04T07:57:14Z</time>
      </trkpt>
      <trkpt lat="47.66667" lon="6.01828">
        <ele>213.88</ele>
        <time>2017-10-04T07:57:15Z</time>
      </trkpt>
      <trkpt lat="47.66662" lon="6.01817">
        <ele>213.92</ele>
        <time>2017-10-04T07:57:17Z</time>
      </trkpt>
      <trkpt lat="47.66659" lon="6.01806">
        <ele>213.94</ele>
        <time>2017-10-04T07:57:19Z</time>
      </trkpt>
      <trkpt lat="47.66654" lon="6.01797">
        <ele>213.96</ele>
        <time>2017-10-04T07:57:21Z</time>
      </trkpt>
      <trkpt lat="47.66648" lon="6.01787">
        <ele>213.98</ele>
        <time>2017-10-04T07:57:23Z</time>
      </trkpt>
      <trkpt lat="47.66645" lon="6.01782">
        <ele>214</ele>
        <time>2017-10-04T07:57:24Z</time>
      </trkpt>
      <trkpt lat="47.66642" lon="6.01777">
        <ele>214.01</ele>
        <time>2017-10-04T07:57:25Z</time>
      </trkpt>
      <trkpt lat="47.66638" lon="6.01772">
        <ele>214.03</ele>
        <time>2017-10-04T07:57:26Z</time>
      </trkpt>
      <trkpt lat="47.66635" lon="6.01767">
        <ele>214.04</ele>
        <time>2017-10-04T07:57:27Z</time>
      </trkpt>
      <trkpt lat="47.66631" lon="6.01762">
        <ele>214.06</ele>
        <time>2017-10-04T07:57:28Z</time>
      </trkpt>
      <trkpt lat="47.66628" lon="6.01757">
        <ele>214.08</ele>
        <time>2017-10-04T07:57:29Z</time>
      </trkpt>
      <trkpt lat="47.66624" lon="6.01752">
        <ele>214.1</ele>
        <time>2017-10-04T07:57:30Z</time>
      </trkpt>
      <trkpt lat="47.66621" lon="6.01747">
        <ele>214.12</ele>
        <time>2017-10-04T07:57:31Z</time>
      </trkpt>
      <trkpt lat="47.66617" lon="6.01743">
        <ele>214.15</ele>
        <time>2017-10-04T07:57:32Z</time>
      </trkpt>
      <trkpt lat="47.66613" lon="6.01739">
        <ele>214.17</ele>
        <time>2017-10-04T07:57:33Z</time>
      </trkpt>
      <trkpt lat="47.6661" lon="6.01734">
        <ele>214.19</ele>
        <time>2017-10-04T07:57:34Z</time>
      </trkpt>
      <trkpt lat="47.66606" lon="6.01729">
        <ele>214.21</ele>
        <time>2017-10-04T07:57:35Z</time>
      </trkpt>
      <trkpt lat="47.66602" lon="6.01725">
        <ele>214.23</ele>
        <time>2017-10-04T07:57:36Z</time>
      </trkpt>
      <trkpt lat="47.66595" lon="6.01719">
        <ele>214.26</ele>
        <time>2017-10-04T07:57:38Z</time>
      </trkpt>
      <trkpt lat="47.66589" lon="6.01713">
        <ele>214.29</ele>
        <time>2017-10-04T07:57:40Z</time>
      </trkpt>
      <trkpt lat="47.66582" lon="6.01707">
        <ele>214.34</ele>
        <time>2017-10-04T07:57:42Z</time>
      </trkpt>
      <trkpt lat="47.66575" lon="6.017">
        <ele>214.35</ele>
        <time>2017-10-04T07:57:44Z</time>
      </trkpt>
      <trkpt lat="47.66568" lon="6.01694">
        <ele>214.36</ele>
        <time>2017-10-04T07:57:46Z</time>
      </trkpt>
      <trkpt lat="47.66561" lon="6.01687">
        <ele>214.39</ele>
        <time>2017-10-04T07:57:48Z</time>
      </trkpt>
      <trkpt lat="47.66557" lon="6.01684">
        <ele>214.42</ele>
        <time>2017-10-04T07:57:49Z</time>
      </trkpt>
      <trkpt lat="47.66553" lon="6.01679">
        <ele>214.45</ele>
        <time>2017-10-04T07:57:50Z</time>
      </trkpt>
      <trkpt lat="47.66549" lon="6.01675">
        <ele>214.48</ele>
        <time>2017-10-04T07:57:51Z</time>
      </trkpt>
      <trkpt lat="47.66545" lon="6.0167">
        <ele>214.5</ele>
        <time>2017-10-04T07:57:52Z</time>
      </trkpt>
      <trkpt lat="47.6654" lon="6.01665">
        <ele>214.53</ele>
        <time>2017-10-04T07:57:53Z</time>
      </trkpt>
      <trkpt lat="47.66536" lon="6.01661">
        <ele>214.55</ele>
        <time>2017-10-04T07:57:54Z</time>
      </trkpt>
      <trkpt lat="47.66532" lon="6.01657">
        <ele>214.57</ele>
        <time>2017-10-04T07:57:55Z</time>
      </trkpt>
      <trkpt lat="47.66528" lon="6.01653">
        <ele>214.59</ele>
        <time>2017-10-04T07:57:56Z</time>
      </trkpt>
      <trkpt lat="47.66524" lon="6.01649">
        <ele>214.61</ele>
        <time>2017-10-04T07:57:57Z</time>
      </trkpt>
      <trkpt lat="47.6652" lon="6.01645">
        <ele>214.62</ele>
        <time>2017-10-04T07:57:58Z</time>
      </trkpt>
      <trkpt lat="47.66516" lon="6.01641">
        <ele>214.63</ele>
        <time>2017-10-04T07:57:59Z</time>
      </trkpt>
      <trkpt lat="47.66512" lon="6.01637">
        <ele>214.64</ele>
        <time>2017-10-04T07:58:00Z</time>
      </trkpt>
      <trkpt lat="47.66508" lon="6.01633">
        <ele>214.65</ele>
        <time>2017-10-04T07:58:01Z</time>
      </trkpt>
      <trkpt lat="47.66504" lon="6.0163">
        <ele>214.66</ele>
        <time>2017-10-04T07:58:02Z</time>
      </trkpt>
      <trkpt lat="47.665" lon="6.01626">
        <ele>214.66</ele>
        <time>2017-10-04T07:58:03Z</time>
      </trkpt>
      <trkpt lat="47.66496" lon="6.01622">
        <ele>214.66</ele>
        <time>2017-10-04T07:58:04Z</time>
      </trkpt>
      <trkpt lat="47.66492" lon="6.01619">
        <ele>214.66</ele>
        <time>2017-10-04T07:58:05Z</time>
      </trkpt>
      <trkpt lat="47.66488" lon="6.01616">
        <ele>214.66</ele>
        <time>2017-10-04T07:58:06Z</time>
      </trkpt>
      <trkpt lat="47.66484" lon="6.01612">
        <ele>214.66</ele>
        <time>2017-10-04T07:58:07Z</time>
      </trkpt>
      <trkpt lat="47.66476" lon="6.01607">
        <ele>214.65</ele>
        <time>2017-10-04T07:58:09Z</time>
      </trkpt>
      <trkpt lat="47.66468" lon="6.016">
        <ele>214.63</ele>
        <time>2017-10-04T07:58:11Z</time>
      </trkpt>
      <trkpt lat="47.66463" lon="6.01597">
        <ele>214.62</ele>
        <time>2017-10-04T07:58:12Z</time>
      </trkpt>
      <trkpt lat="47.66456" lon="6.01591">
        <ele>214.6</ele>
        <time>2017-10-04T07:58:14Z</time>
      </trkpt>
      <trkpt lat="47.66448" lon="6.01585">
        <ele>214.58</ele>
        <time>2017-10-04T07:58:16Z</time>
      </trkpt>
      <trkpt lat="47.66444" lon="6.01581">
        <ele>214.58</ele>
        <time>2017-10-04T07:58:17Z</time>
      </trkpt>
      <trkpt lat="47.66436" lon="6.01575">
        <ele>214.57</ele>
        <time>2017-10-04T07:58:19Z</time>
      </trkpt>
      <trkpt lat="47.66428" lon="6.01568">
        <ele>214.56</ele>
        <time>2017-10-04T07:58:21Z</time>
      </trkpt>
      <trkpt lat="47.6642" lon="6.01562">
        <ele>214.55</ele>
        <time>2017-10-04T07:58:23Z</time>
      </trkpt>
      <trkpt lat="47.66416" lon="6.01559">
        <ele>214.56</ele>
        <time>2017-10-04T07:58:24Z</time>
      </trkpt>
      <trkpt lat="47.66412" lon="6.01556">
        <ele>214.56</ele>
        <time>2017-10-04T07:58:25Z</time>
      </trkpt>
      <trkpt lat="47.66407" lon="6.01554">
        <ele>214.56</ele>
        <time>2017-10-04T07:58:26Z</time>
      </trkpt>
      <trkpt lat="47.66403" lon="6.01551">
        <ele>214.56</ele>
        <time>2017-10-04T07:58:27Z</time>
      </trkpt>
      <trkpt lat="47.66399" lon="6.01548">
        <ele>214.57</ele>
        <time>2017-10-04T07:58:28Z</time>
      </trkpt>
      <trkpt lat="47.66395" lon="6.01546">
        <ele>214.57</ele>
        <time>2017-10-04T07:58:29Z</time>
      </trkpt>
      <trkpt lat="47.6639" lon="6.01543">
        <ele>214.57</ele>
        <time>2017-10-04T07:58:30Z</time>
      </trkpt>
      <trkpt lat="47.66382" lon="6.01539">
        <ele>214.58</ele>
        <time>2017-10-04T07:58:32Z</time>
      </trkpt>
      <trkpt lat="47.66377" lon="6.01536">
        <ele>214.58</ele>
        <time>2017-10-04T07:58:33Z</time>
      </trkpt>
      <trkpt lat="47.66373" lon="6.01534">
        <ele>214.59</ele>
        <time>2017-10-04T07:58:34Z</time>
      </trkpt>
      <trkpt lat="47.66368" lon="6.01531">
        <ele>214.59</ele>
        <time>2017-10-04T07:58:35Z</time>
      </trkpt>
      <trkpt lat="47.6636" lon="6.01526">
        <ele>214.59</ele>
        <time>2017-10-04T07:58:37Z</time>
      </trkpt>
      <trkpt lat="47.66351" lon="6.01522">
        <ele>214.59</ele>
        <time>2017-10-04T07:58:39Z</time>
      </trkpt>
      <trkpt lat="47.66347" lon="6.01519">
        <ele>214.58</ele>
        <time>2017-10-04T07:58:40Z</time>
      </trkpt>
      <trkpt lat="47.66342" lon="6.01516">
        <ele>214.58</ele>
        <time>2017-10-04T07:58:41Z</time>
      </trkpt>
      <trkpt lat="47.66334" lon="6.01512">
        <ele>214.56</ele>
        <time>2017-10-04T07:58:43Z</time>
      </trkpt>
      <trkpt lat="47.66329" lon="6.0151">
        <ele>214.55</ele>
        <time>2017-10-04T07:58:44Z</time>
      </trkpt>
      <trkpt lat="47.66324" lon="6.01507">
        <ele>214.55</ele>
        <time>2017-10-04T07:58:45Z</time>
      </trkpt>
      <trkpt lat="47.66316" lon="6.01503">
        <ele>214.53</ele>
        <time>2017-10-04T07:58:47Z</time>
      </trkpt>
      <trkpt lat="47.66308" lon="6.015">
        <ele>214.52</ele>
        <time>2017-10-04T07:58:49Z</time>
      </trkpt>
      <trkpt lat="47.663" lon="6.01497">
        <ele>214.52</ele>
        <time>2017-10-04T07:58:51Z</time>
      </trkpt>
      <trkpt lat="47.66292" lon="6.01494">
        <ele>214.53</ele>
        <time>2017-10-04T07:58:53Z</time>
      </trkpt>
      <trkpt lat="47.66283" lon="6.01491">
        <ele>214.54</ele>
        <time>2017-10-04T07:58:55Z</time>
      </trkpt>
      <trkpt lat="47.66279" lon="6.0149">
        <ele>214.55</ele>
        <time>2017-10-04T07:58:56Z</time>
      </trkpt>
      <trkpt lat="47.66274" lon="6.01489">
        <ele>214.55</ele>
        <time>2017-10-04T07:58:57Z</time>
      </trkpt>
      <trkpt lat="47.6627" lon="6.01487">
        <ele>214.56</ele>
        <time>2017-10-04T07:58:58Z</time>
      </trkpt>
      <trkpt lat="47.66265" lon="6.01486">
        <ele>214.57</ele>
        <time>2017-10-04T07:58:59Z</time>
      </trkpt>
      <trkpt lat="47.66256" lon="6.01484">
        <ele>214.58</ele>
        <time>2017-10-04T07:59:01Z</time>
      </trkpt>
      <trkpt lat="47.66248" lon="6.01482">
        <ele>214.59</ele>
        <time>2017-10-04T07:59:03Z</time>
      </trkpt>
      <trkpt lat="47.6624" lon="6.0148">
        <ele>214.6</ele>
        <time>2017-10-04T07:59:05Z</time>
      </trkpt>
      <trkpt lat="47.66233" lon="6.01479">
        <ele>214.6</ele>
        <time>2017-10-04T07:59:07Z</time>
      </trkpt>
      <trkpt lat="47.66225" lon="6.01477">
        <ele>214.61</ele>
        <time>2017-10-04T07:59:09Z</time>
      </trkpt>
      <trkpt lat="47.66217" lon="6.01477">
        <ele>214.61</ele>
        <time>2017-10-04T07:59:11Z</time>
      </trkpt>
      <trkpt lat="47.66209" lon="6.01476">
        <ele>214.61</ele>
        <time>2017-10-04T07:59:13Z</time>
      </trkpt>
      <trkpt lat="47.66202" lon="6.01475">
        <ele>214.61</ele>
        <time>2017-10-04T07:59:15Z</time>
      </trkpt>
      <trkpt lat="47.66194" lon="6.01475">
        <ele>214.6</ele>
        <time>2017-10-04T07:59:17Z</time>
      </trkpt>
      <trkpt lat="47.66187" lon="6.01476">
        <ele>214.6</ele>
        <time>2017-10-04T07:59:19Z</time>
      </trkpt>
      <trkpt lat="47.66181" lon="6.01474">
        <ele>214.6</ele>
        <time>2017-10-04T07:59:20Z</time>
      </trkpt>
      <trkpt lat="47.66176" lon="6.01473">
        <ele>214.6</ele>
        <time>2017-10-04T07:59:21Z</time>
      </trkpt>
      <trkpt lat="47.66171" lon="6.01473">
        <ele>214.6</ele>
        <time>2017-10-04T07:59:22Z</time>
      </trkpt>
      <trkpt lat="47.66165" lon="6.01472">
        <ele>214.6</ele>
        <time>2017-10-04T07:59:23Z</time>
      </trkpt>
      <trkpt lat="47.66161" lon="6.01472">
        <ele>214.6</ele>
        <time>2017-10-04T07:59:24Z</time>
      </trkpt>
      <trkpt lat="47.66154" lon="6.01471">
        <ele>214.6</ele>
        <time>2017-10-04T07:59:26Z</time>
      </trkpt>
      <trkpt lat="47.66145" lon="6.01472">
        <ele>214.6</ele>
        <time>2017-10-04T07:59:28Z</time>
      </trkpt>
      <trkpt lat="47.66139" lon="6.01474">
        <ele>214.61</ele>
        <time>2017-10-04T07:59:30Z</time>
      </trkpt>
      <trkpt lat="47.66132" lon="6.01476">
        <ele>214.62</ele>
        <time>2017-10-04T07:59:32Z</time>
      </trkpt>
      <trkpt lat="47.66124" lon="6.01476">
        <ele>214.63</ele>
        <time>2017-10-04T07:59:34Z</time>
      </trkpt>
      <trkpt lat="47.66116" lon="6.01477">
        <ele>214.64</ele>
        <time>2017-10-04T07:59:36Z</time>
      </trkpt>
      <trkpt lat="47.66111" lon="6.01477">
        <ele>214.65</ele>
        <time>2017-10-04T07:59:37Z</time>
      </trkpt>
      <trkpt lat="47.66106" lon="6.01478">
        <ele>214.65</ele>
        <time>2017-10-04T07:59:38Z</time>
      </trkpt>
      <trkpt lat="47.66098" lon="6.0148">
        <ele>214.67</ele>
        <time>2017-10-04T07:59:40Z</time>
      </trkpt>
      <trkpt lat="47.66089" lon="6.01481">
        <ele>214.68</ele>
        <time>2017-10-04T07:59:42Z</time>
      </trkpt>
      <trkpt lat="47.66084" lon="6.01481">
        <ele>214.69</ele>
        <time>2017-10-04T07:59:43Z</time>
      </trkpt>
      <trkpt lat="47.66079" lon="6.01482">
        <ele>214.69</ele>
        <time>2017-10-04T07:59:44Z</time>
      </trkpt>
      <trkpt lat="47.6607" lon="6.01483">
        <ele>214.71</ele>
        <time>2017-10-04T07:59:46Z</time>
      </trkpt>
      <trkpt lat="47.66062" lon="6.01484">
        <ele>214.72</ele>
        <time>2017-10-04T07:59:48Z</time>
      </trkpt>
      <trkpt lat="47.66055" lon="6.01486">
        <ele>214.73</ele>
        <time>2017-10-04T07:59:50Z</time>
      </trkpt>
      <trkpt lat="47.66049" lon="6.01488">
        <ele>214.75</ele>
        <time>2017-10-04T07:59:52Z</time>
      </trkpt>
      <trkpt lat="47.66042" lon="6.0149">
        <ele>214.76</ele>
        <time>2017-10-04T07:59:54Z</time>
      </trkpt>
      <trkpt lat="47.66031" lon="6.01494">
        <ele>214.78</ele>
        <time>2017-10-04T07:59:56Z</time>
      </trkpt>
      <trkpt lat="47.66026" lon="6.01496">
        <ele>214.79</ele>
        <time>2017-10-04T07:59:57Z</time>
      </trkpt>
      <trkpt lat="47.6602" lon="6.01498">
        <ele>214.8</ele>
        <time>2017-10-04T07:59:58Z</time>
      </trkpt>
      <trkpt lat="47.66016" lon="6.015">
        <ele>214.8</ele>
        <time>2017-10-04T07:59:59Z</time>
      </trkpt>
      <trkpt lat="47.66008" lon="6.01503">
        <ele>214.83</ele>
        <time>2017-10-04T08:00:01Z</time>
      </trkpt>
      <trkpt lat="47.66" lon="6.01505">
        <ele>214.85</ele>
        <time>2017-10-04T08:00:03Z</time>
      </trkpt>
      <trkpt lat="47.65992" lon="6.01506">
        <ele>214.87</ele>
        <time>2017-10-04T08:00:05Z</time>
      </trkpt>
      <trkpt lat="47.65984" lon="6.01508">
        <ele>214.9</ele>
        <time>2017-10-04T08:00:07Z</time>
      </trkpt>
      <trkpt lat="47.65979" lon="6.01509">
        <ele>214.91</ele>
        <time>2017-10-04T08:00:08Z</time>
      </trkpt>
      <trkpt lat="47.65974" lon="6.01511">
        <ele>214.93</ele>
        <time>2017-10-04T08:00:09Z</time>
      </trkpt>
      <trkpt lat="47.65968" lon="6.01513">
        <ele>215.03</ele>
        <time>2017-10-04T08:00:10Z</time>
      </trkpt>
      <trkpt lat="47.65962" lon="6.01516">
        <ele>215.08</ele>
        <time>2017-10-04T08:00:11Z</time>
      </trkpt>
      <trkpt lat="47.65957" lon="6.01519">
        <ele>215.18</ele>
        <time>2017-10-04T08:00:12Z</time>
      </trkpt>
      <trkpt lat="47.65952" lon="6.01522">
        <ele>215.22</ele>
        <time>2017-10-04T08:00:13Z</time>
      </trkpt>
      <trkpt lat="47.65945" lon="6.01526">
        <ele>215.25</ele>
        <time>2017-10-04T08:00:15Z</time>
      </trkpt>
      <trkpt lat="47.65939" lon="6.01528">
        <ele>215.28</ele>
        <time>2017-10-04T08:00:17Z</time>
      </trkpt>
      <trkpt lat="47.65931" lon="6.01531">
        <ele>215.3</ele>
        <time>2017-10-04T08:00:19Z</time>
      </trkpt>
      <trkpt lat="47.65923" lon="6.01535">
        <ele>215.33</ele>
        <time>2017-10-04T08:00:21Z</time>
      </trkpt>
      <trkpt lat="47.65918" lon="6.01539">
        <ele>215.34</ele>
        <time>2017-10-04T08:00:22Z</time>
      </trkpt>
      <trkpt lat="47.65914" lon="6.01541">
        <ele>215.36</ele>
        <time>2017-10-04T08:00:23Z</time>
      </trkpt>
      <trkpt lat="47.65906" lon="6.01544">
        <ele>215.39</ele>
        <time>2017-10-04T08:00:25Z</time>
      </trkpt>
      <trkpt lat="47.65898" lon="6.01546">
        <ele>215.41</ele>
        <time>2017-10-04T08:00:27Z</time>
      </trkpt>
      <trkpt lat="47.65894" lon="6.01548">
        <ele>215.43</ele>
        <time>2017-10-04T08:00:28Z</time>
      </trkpt>
      <trkpt lat="47.65885" lon="6.01552">
        <ele>215.46</ele>
        <time>2017-10-04T08:00:30Z</time>
      </trkpt>
      <trkpt lat="47.65877" lon="6.01556">
        <ele>215.49</ele>
        <time>2017-10-04T08:00:32Z</time>
      </trkpt>
      <trkpt lat="47.65872" lon="6.01559">
        <ele>215.5</ele>
        <time>2017-10-04T08:00:33Z</time>
      </trkpt>
      <trkpt lat="47.65865" lon="6.01564">
        <ele>215.53</ele>
        <time>2017-10-04T08:00:35Z</time>
      </trkpt>
      <trkpt lat="47.65858" lon="6.01569">
        <ele>215.56</ele>
        <time>2017-10-04T08:00:37Z</time>
      </trkpt>
      <trkpt lat="47.65852" lon="6.01575">
        <ele>215.59</ele>
        <time>2017-10-04T08:00:39Z</time>
      </trkpt>
      <trkpt lat="47.65845" lon="6.01582">
        <ele>215.62</ele>
        <time>2017-10-04T08:00:41Z</time>
      </trkpt>
      <trkpt lat="47.65841" lon="6.01586">
        <ele>215.63</ele>
        <time>2017-10-04T08:00:42Z</time>
      </trkpt>
      <trkpt lat="47.65834" lon="6.0159">
        <ele>215.66</ele>
        <time>2017-10-04T08:00:44Z</time>
      </trkpt>
      <trkpt lat="47.65828" lon="6.01595">
        <ele>215.68</ele>
        <time>2017-10-04T08:00:46Z</time>
      </trkpt>
      <trkpt lat="47.6582" lon="6.01601">
        <ele>215.71</ele>
        <time>2017-10-04T08:00:48Z</time>
      </trkpt>
      <trkpt lat="47.65816" lon="6.01604">
        <ele>215.72</ele>
        <time>2017-10-04T08:00:49Z</time>
      </trkpt>
      <trkpt lat="47.65812" lon="6.01608">
        <ele>215.73</ele>
        <time>2017-10-04T08:00:50Z</time>
      </trkpt>
      <trkpt lat="47.65808" lon="6.01613">
        <ele>215.74</ele>
        <time>2017-10-04T08:00:51Z</time>
      </trkpt>
      <trkpt lat="47.658" lon="6.01619">
        <ele>215.75</ele>
        <time>2017-10-04T08:00:53Z</time>
      </trkpt>
      <trkpt lat="47.65796" lon="6.01623">
        <ele>215.76</ele>
        <time>2017-10-04T08:00:54Z</time>
      </trkpt>
      <trkpt lat="47.65792" lon="6.01627">
        <ele>215.77</ele>
        <time>2017-10-04T08:00:55Z</time>
      </trkpt>
      <trkpt lat="47.65788" lon="6.01631">
        <ele>215.81</ele>
        <time>2017-10-04T08:00:56Z</time>
      </trkpt>
      <trkpt lat="47.65783" lon="6.01633">
        <ele>215.86</ele>
        <time>2017-10-04T08:00:57Z</time>
      </trkpt>
      <trkpt lat="47.65778" lon="6.01637">
        <ele>215.9</ele>
        <time>2017-10-04T08:00:58Z</time>
      </trkpt>
      <trkpt lat="47.65774" lon="6.01641">
        <ele>215.93</ele>
        <time>2017-10-04T08:00:59Z</time>
      </trkpt>
      <trkpt lat="47.6577" lon="6.01645">
        <ele>215.96</ele>
        <time>2017-10-04T08:01:00Z</time>
      </trkpt>
      <trkpt lat="47.65762" lon="6.01651">
        <ele>215.99</ele>
        <time>2017-10-04T08:01:02Z</time>
      </trkpt>
      <trkpt lat="47.65755" lon="6.01656">
        <ele>216</ele>
        <time>2017-10-04T08:01:04Z</time>
      </trkpt>
      <trkpt lat="47.65748" lon="6.01661">
        <ele>216</ele>
        <time>2017-10-04T08:01:06Z</time>
      </trkpt>
      <trkpt lat="47.65741" lon="6.01665">
        <ele>216</ele>
        <time>2017-10-04T08:01:08Z</time>
      </trkpt>
      <trkpt lat="47.65733" lon="6.0167">
        <ele>216</ele>
        <time>2017-10-04T08:01:10Z</time>
      </trkpt>
      <trkpt lat="47.65729" lon="6.01672">
        <ele>216</ele>
        <time>2017-10-04T08:01:11Z</time>
      </trkpt>
      <trkpt lat="47.65725" lon="6.01675">
        <ele>215.99</ele>
        <time>2017-10-04T08:01:12Z</time>
      </trkpt>
      <trkpt lat="47.6572" lon="6.01678">
        <ele>215.99</ele>
        <time>2017-10-04T08:01:13Z</time>
      </trkpt>
      <trkpt lat="47.65716" lon="6.01681">
        <ele>215.99</ele>
        <time>2017-10-04T08:01:14Z</time>
      </trkpt>
      <trkpt lat="47.65711" lon="6.01684">
        <ele>215.98</ele>
        <time>2017-10-04T08:01:15Z</time>
      </trkpt>
      <trkpt lat="47.65707" lon="6.01687">
        <ele>215.98</ele>
        <time>2017-10-04T08:01:16Z</time>
      </trkpt>
      <trkpt lat="47.65702" lon="6.0169">
        <ele>215.97</ele>
        <time>2017-10-04T08:01:17Z</time>
      </trkpt>
      <trkpt lat="47.65698" lon="6.01693">
        <ele>215.97</ele>
        <time>2017-10-04T08:01:18Z</time>
      </trkpt>
      <trkpt lat="47.65693" lon="6.01696">
        <ele>215.96</ele>
        <time>2017-10-04T08:01:19Z</time>
      </trkpt>
      <trkpt lat="47.65689" lon="6.01699">
        <ele>215.96</ele>
        <time>2017-10-04T08:01:20Z</time>
      </trkpt>
      <trkpt lat="47.65685" lon="6.01701">
        <ele>215.96</ele>
        <time>2017-10-04T08:01:21Z</time>
      </trkpt>
      <trkpt lat="47.6568" lon="6.01702">
        <ele>215.95</ele>
        <time>2017-10-04T08:01:22Z</time>
      </trkpt>
      <trkpt lat="47.65675" lon="6.01701">
        <ele>215.95</ele>
        <time>2017-10-04T08:01:23Z</time>
      </trkpt>
      <trkpt lat="47.65669" lon="6.01693">
        <ele>215.94</ele>
        <time>2017-10-04T08:01:25Z</time>
      </trkpt>
      <trkpt lat="47.65667" lon="6.01687">
        <ele>215.94</ele>
        <time>2017-10-04T08:01:26Z</time>
      </trkpt>
      <trkpt lat="47.65664" lon="6.01677">
        <ele>215.94</ele>
        <time>2017-10-04T08:01:28Z</time>
      </trkpt>
      <trkpt lat="47.6566" lon="6.01673">
        <ele>215.94</ele>
        <time>2017-10-04T08:01:30Z</time>
      </trkpt>
      <trkpt lat="47.65655" lon="6.01677">
        <ele>215.94</ele>
        <time>2017-10-04T08:01:32Z</time>
      </trkpt>
      <trkpt lat="47.6565" lon="6.01683">
        <ele>215.94</ele>
        <time>2017-10-04T08:01:34Z</time>
      </trkpt>
      <trkpt lat="47.65645" lon="6.01689">
        <ele>215.93</ele>
        <time>2017-10-04T08:01:36Z</time>
      </trkpt>
      <trkpt lat="47.65639" lon="6.01694">
        <ele>215.93</ele>
        <time>2017-10-04T08:01:38Z</time>
      </trkpt>
      <trkpt lat="47.65632" lon="6.017">
        <ele>215.9</ele>
        <time>2017-10-04T08:01:40Z</time>
      </trkpt>
      <trkpt lat="47.65625" lon="6.01705">
        <ele>215.85</ele>
        <time>2017-10-04T08:01:42Z</time>
      </trkpt>
      <trkpt lat="47.65618" lon="6.01712">
        <ele>215.81</ele>
        <time>2017-10-04T08:01:44Z</time>
      </trkpt>
      <trkpt lat="47.65615" lon="6.01717">
        <ele>215.79</ele>
        <time>2017-10-04T08:01:45Z</time>
      </trkpt>
      <trkpt lat="47.65612" lon="6.01721">
        <ele>215.78</ele>
        <time>2017-10-04T08:01:46Z</time>
      </trkpt>
      <trkpt lat="47.65608" lon="6.01726">
        <ele>215.76</ele>
        <time>2017-10-04T08:01:47Z</time>
      </trkpt>
      <trkpt lat="47.65602" lon="6.01736">
        <ele>215.73</ele>
        <time>2017-10-04T08:01:49Z</time>
      </trkpt>
      <trkpt lat="47.65599" lon="6.01741">
        <ele>215.72</ele>
        <time>2017-10-04T08:01:50Z</time>
      </trkpt>
      <trkpt lat="47.65597" lon="6.01746">
        <ele>215.71</ele>
        <time>2017-10-04T08:01:51Z</time>
      </trkpt>
      <trkpt lat="47.65594" lon="6.01752">
        <ele>215.7</ele>
        <time>2017-10-04T08:01:52Z</time>
      </trkpt>
      <trkpt lat="47.65591" lon="6.01757">
        <ele>215.7</ele>
        <time>2017-10-04T08:01:53Z</time>
      </trkpt>
      <trkpt lat="47.65588" lon="6.01762">
        <ele>215.69</ele>
        <time>2017-10-04T08:01:54Z</time>
      </trkpt>
      <trkpt lat="47.65585" lon="6.01768">
        <ele>215.69</ele>
        <time>2017-10-04T08:01:55Z</time>
      </trkpt>
      <trkpt lat="47.65582" lon="6.01774">
        <ele>215.69</ele>
        <time>2017-10-04T08:01:56Z</time>
      </trkpt>
      <trkpt lat="47.65579" lon="6.01779">
        <ele>215.69</ele>
        <time>2017-10-04T08:01:57Z</time>
      </trkpt>
      <trkpt lat="47.65573" lon="6.01789">
        <ele>215.69</ele>
        <time>2017-10-04T08:01:59Z</time>
      </trkpt>
      <trkpt lat="47.6557" lon="6.01794">
        <ele>215.69</ele>
        <time>2017-10-04T08:02:00Z</time>
      </trkpt>
      <trkpt lat="47.65563" lon="6.01802">
        <ele>215.69</ele>
        <time>2017-10-04T08:02:02Z</time>
      </trkpt>
      <trkpt lat="47.65557" lon="6.01809">
        <ele>215.7</ele>
        <time>2017-10-04T08:02:04Z</time>
      </trkpt>
      <trkpt lat="47.6555" lon="6.01815">
        <ele>215.7</ele>
        <time>2017-10-04T08:02:06Z</time>
      </trkpt>
      <trkpt lat="47.65543" lon="6.01821">
        <ele>215.7</ele>
        <time>2017-10-04T08:02:08Z</time>
      </trkpt>
      <trkpt lat="47.65536" lon="6.01825">
        <ele>215.7</ele>
        <time>2017-10-04T08:02:10Z</time>
      </trkpt>
      <trkpt lat="47.6553" lon="6.0183">
        <ele>215.7</ele>
        <time>2017-10-04T08:02:12Z</time>
      </trkpt>
      <trkpt lat="47.65525" lon="6.01836">
        <ele>215.7</ele>
        <time>2017-10-04T08:02:14Z</time>
      </trkpt>
      <trkpt lat="47.6552" lon="6.01841">
        <ele>215.7</ele>
        <time>2017-10-04T08:02:16Z</time>
      </trkpt>
      <trkpt lat="47.65516" lon="6.01849">
        <ele>215.71</ele>
        <time>2017-10-04T08:02:18Z</time>
      </trkpt>
      <trkpt lat="47.65513" lon="6.0186">
        <ele>215.71</ele>
        <time>2017-10-04T08:02:20Z</time>
      </trkpt>
      <trkpt lat="47.65513" lon="6.01869">
        <ele>215.72</ele>
        <time>2017-10-04T08:02:22Z</time>
      </trkpt>
      <trkpt lat="47.65515" lon="6.01877">
        <ele>215.72</ele>
        <time>2017-10-04T08:02:24Z</time>
      </trkpt>
      <trkpt lat="47.65517" lon="6.01884">
        <ele>215.73</ele>
        <time>2017-10-04T08:02:26Z</time>
      </trkpt>
      <trkpt lat="47.65521" lon="6.01891">
        <ele>215.74</ele>
        <time>2017-10-04T08:02:29Z</time>
      </trkpt>
      <trkpt lat="47.65523" lon="6.01897">
        <ele>215.75</ele>
        <time>2017-10-04T08:02:38Z</time>
      </trkpt>
      <trkpt lat="47.65526" lon="6.01904">
        <ele>215.77</ele>
        <time>2017-10-04T08:02:42Z</time>
      </trkpt>
      <trkpt lat="47.65528" lon="6.01912">
        <ele>215.79</ele>
        <time>2017-10-04T08:02:45Z</time>
      </trkpt>
      <trkpt lat="47.65531" lon="6.01921">
        <ele>215.8</ele>
        <time>2017-10-04T08:02:48Z</time>
      </trkpt>
      <trkpt lat="47.6553" lon="6.0193">
        <ele>215.81</ele>
        <time>2017-10-04T08:02:50Z</time>
      </trkpt>
      <trkpt lat="47.65525" lon="6.01937">
        <ele>215.81</ele>
        <time>2017-10-04T08:02:52Z</time>
      </trkpt>
      <trkpt lat="47.65518" lon="6.01945">
        <ele>215.86</ele>
        <time>2017-10-04T08:02:54Z</time>
      </trkpt>
      <trkpt lat="47.65514" lon="6.01949">
        <ele>215.88</ele>
        <time>2017-10-04T08:02:55Z</time>
      </trkpt>
      <trkpt lat="47.65508" lon="6.01954">
        <ele>215.89</ele>
        <time>2017-10-04T08:02:57Z</time>
      </trkpt>
      <trkpt lat="47.65503" lon="6.01954">
        <ele>215.85</ele>
        <time>2017-10-04T08:04:09Z</time>
      </trkpt>
      <trkpt lat="47.65497" lon="6.01959">
        <ele>215.74</ele>
        <time>2017-10-04T08:04:28Z</time>
      </trkpt>
      <trkpt lat="47.65488" lon="6.01963">
        <ele>215.56</ele>
        <time>2017-10-04T08:04:30Z</time>
      </trkpt>
      <trkpt lat="47.65483" lon="6.01966">
        <ele>215.48</ele>
        <time>2017-10-04T08:04:31Z</time>
      </trkpt>
      <trkpt lat="47.65477" lon="6.0197">
        <ele>215.41</ele>
        <time>2017-10-04T08:04:32Z</time>
      </trkpt>
      <trkpt lat="47.65471" lon="6.01975">
        <ele>215.36</ele>
        <time>2017-10-04T08:04:33Z</time>
      </trkpt>
      <trkpt lat="47.65466" lon="6.0198">
        <ele>215.32</ele>
        <time>2017-10-04T08:04:34Z</time>
      </trkpt>
      <trkpt lat="47.6546" lon="6.01985">
        <ele>215.28</ele>
        <time>2017-10-04T08:04:35Z</time>
      </trkpt>
      <trkpt lat="47.65455" lon="6.0199">
        <ele>215.26</ele>
        <time>2017-10-04T08:04:36Z</time>
      </trkpt>
      <trkpt lat="47.65449" lon="6.01994">
        <ele>215.24</ele>
        <time>2017-10-04T08:04:37Z</time>
      </trkpt>
      <trkpt lat="47.65444" lon="6.01999">
        <ele>215.23</ele>
        <time>2017-10-04T08:04:38Z</time>
      </trkpt>
      <trkpt lat="47.65438" lon="6.02003">
        <ele>215.22</ele>
        <time>2017-10-04T08:04:39Z</time>
      </trkpt>
      <trkpt lat="47.65432" lon="6.02008">
        <ele>215.2</ele>
        <time>2017-10-04T08:04:40Z</time>
      </trkpt>
      <trkpt lat="47.65427" lon="6.02012">
        <ele>215.19</ele>
        <time>2017-10-04T08:04:41Z</time>
      </trkpt>
      <trkpt lat="47.65421" lon="6.02017">
        <ele>215.17</ele>
        <time>2017-10-04T08:04:42Z</time>
      </trkpt>
      <trkpt lat="47.65416" lon="6.02021">
        <ele>215.16</ele>
        <time>2017-10-04T08:04:43Z</time>
      </trkpt>
      <trkpt lat="47.65411" lon="6.02026">
        <ele>215.15</ele>
        <time>2017-10-04T08:04:44Z</time>
      </trkpt>
      <trkpt lat="47.65406" lon="6.02031">
        <ele>215.14</ele>
        <time>2017-10-04T08:04:45Z</time>
      </trkpt>
      <trkpt lat="47.65401" lon="6.02035">
        <ele>215.14</ele>
        <time>2017-10-04T08:04:46Z</time>
      </trkpt>
      <trkpt lat="47.65396" lon="6.02039">
        <ele>215.14</ele>
        <time>2017-10-04T08:04:47Z</time>
      </trkpt>
      <trkpt lat="47.65391" lon="6.02043">
        <ele>215.14</ele>
        <time>2017-10-04T08:04:48Z</time>
      </trkpt>
      <trkpt lat="47.65386" lon="6.02047">
        <ele>215.14</ele>
        <time>2017-10-04T08:04:49Z</time>
      </trkpt>
      <trkpt lat="47.65382" lon="6.0205">
        <ele>215.14</ele>
        <time>2017-10-04T08:04:50Z</time>
      </trkpt>
      <trkpt lat="47.65377" lon="6.02054">
        <ele>215.13</ele>
        <time>2017-10-04T08:04:51Z</time>
      </trkpt>
      <trkpt lat="47.65373" lon="6.02057">
        <ele>215.1</ele>
        <time>2017-10-04T08:04:52Z</time>
      </trkpt>
      <trkpt lat="47.65369" lon="6.0206">
        <ele>215.04</ele>
        <time>2017-10-04T08:04:53Z</time>
      </trkpt>
      <trkpt lat="47.65364" lon="6.02062">
        <ele>214.96</ele>
        <time>2017-10-04T08:04:54Z</time>
      </trkpt>
      <trkpt lat="47.6536" lon="6.02064">
        <ele>214.86</ele>
        <time>2017-10-04T08:04:55Z</time>
      </trkpt>
      <trkpt lat="47.65356" lon="6.02067">
        <ele>214.77</ele>
        <time>2017-10-04T08:04:56Z</time>
      </trkpt>
      <trkpt lat="47.65351" lon="6.02069">
        <ele>214.69</ele>
        <time>2017-10-04T08:04:57Z</time>
      </trkpt>
      <trkpt lat="47.65347" lon="6.02071">
        <ele>214.59</ele>
        <time>2017-10-04T08:04:58Z</time>
      </trkpt>
      <trkpt lat="47.65342" lon="6.02073">
        <ele>214.51</ele>
        <time>2017-10-04T08:04:59Z</time>
      </trkpt>
      <trkpt lat="47.65338" lon="6.02075">
        <ele>214.44</ele>
        <time>2017-10-04T08:05:00Z</time>
      </trkpt>
      <trkpt lat="47.65333" lon="6.02077">
        <ele>214.36</ele>
        <time>2017-10-04T08:05:01Z</time>
      </trkpt>
      <trkpt lat="47.65329" lon="6.02079">
        <ele>214.31</ele>
        <time>2017-10-04T08:05:02Z</time>
      </trkpt>
      <trkpt lat="47.65324" lon="6.02081">
        <ele>214.25</ele>
        <time>2017-10-04T08:05:03Z</time>
      </trkpt>
      <trkpt lat="47.6532" lon="6.02083">
        <ele>214.21</ele>
        <time>2017-10-04T08:05:04Z</time>
      </trkpt>
      <trkpt lat="47.65311" lon="6.02086">
        <ele>214.12</ele>
        <time>2017-10-04T08:05:06Z</time>
      </trkpt>
      <trkpt lat="47.65303" lon="6.02089">
        <ele>214.03</ele>
        <time>2017-10-04T08:05:08Z</time>
      </trkpt>
      <trkpt lat="47.65294" lon="6.02091">
        <ele>213.9</ele>
        <time>2017-10-04T08:05:10Z</time>
      </trkpt>
      <trkpt lat="47.65289" lon="6.02092">
        <ele>213.81</ele>
        <time>2017-10-04T08:05:11Z</time>
      </trkpt>
      <trkpt lat="47.65285" lon="6.02093">
        <ele>213.72</ele>
        <time>2017-10-04T08:05:12Z</time>
      </trkpt>
      <trkpt lat="47.6528" lon="6.02095">
        <ele>213.63</ele>
        <time>2017-10-04T08:05:13Z</time>
      </trkpt>
      <trkpt lat="47.65275" lon="6.02095">
        <ele>213.54</ele>
        <time>2017-10-04T08:05:14Z</time>
      </trkpt>
      <trkpt lat="47.65266" lon="6.02097">
        <ele>213.37</ele>
        <time>2017-10-04T08:05:16Z</time>
      </trkpt>
      <trkpt lat="47.65262" lon="6.02097">
        <ele>213.27</ele>
        <time>2017-10-04T08:05:17Z</time>
      </trkpt>
      <trkpt lat="47.65257" lon="6.02098">
        <ele>213.17</ele>
        <time>2017-10-04T08:05:18Z</time>
      </trkpt>
      <trkpt lat="47.65253" lon="6.02098">
        <ele>213.05</ele>
        <time>2017-10-04T08:05:19Z</time>
      </trkpt>
      <trkpt lat="47.65248" lon="6.02099">
        <ele>212.92</ele>
        <time>2017-10-04T08:05:20Z</time>
      </trkpt>
      <trkpt lat="47.65243" lon="6.021">
        <ele>212.78</ele>
        <time>2017-10-04T08:05:21Z</time>
      </trkpt>
      <trkpt lat="47.65239" lon="6.021">
        <ele>212.64</ele>
        <time>2017-10-04T08:05:22Z</time>
      </trkpt>
      <trkpt lat="47.65234" lon="6.02101">
        <ele>212.48</ele>
        <time>2017-10-04T08:05:23Z</time>
      </trkpt>
      <trkpt lat="47.65229" lon="6.02101">
        <ele>212.31</ele>
        <time>2017-10-04T08:05:24Z</time>
      </trkpt>
      <trkpt lat="47.65225" lon="6.02101">
        <ele>212.14</ele>
        <time>2017-10-04T08:05:25Z</time>
      </trkpt>
      <trkpt lat="47.65216" lon="6.02101">
        <ele>211.85</ele>
        <time>2017-10-04T08:05:27Z</time>
      </trkpt>
      <trkpt lat="47.65212" lon="6.02101">
        <ele>211.7</ele>
        <time>2017-10-04T08:05:28Z</time>
      </trkpt>
      <trkpt lat="47.65203" lon="6.021">
        <ele>211.48</ele>
        <time>2017-10-04T08:05:30Z</time>
      </trkpt>
      <trkpt lat="47.65198" lon="6.02099">
        <ele>211.41</ele>
        <time>2017-10-04T08:05:31Z</time>
      </trkpt>
      <trkpt lat="47.65194" lon="6.02099">
        <ele>211.35</ele>
        <time>2017-10-04T08:05:32Z</time>
      </trkpt>
      <trkpt lat="47.65185" lon="6.02097">
        <ele>211.22</ele>
        <time>2017-10-04T08:05:34Z</time>
      </trkpt>
      <trkpt lat="47.6518" lon="6.02097">
        <ele>211.15</ele>
        <time>2017-10-04T08:05:35Z</time>
      </trkpt>
      <trkpt lat="47.65176" lon="6.02096">
        <ele>211.07</ele>
        <time>2017-10-04T08:05:36Z</time>
      </trkpt>
      <trkpt lat="47.65167" lon="6.02094">
        <ele>210.9</ele>
        <time>2017-10-04T08:05:38Z</time>
      </trkpt>
      <trkpt lat="47.65162" lon="6.02092">
        <ele>210.81</ele>
        <time>2017-10-04T08:05:39Z</time>
      </trkpt>
      <trkpt lat="47.65158" lon="6.02091">
        <ele>210.72</ele>
        <time>2017-10-04T08:05:40Z</time>
      </trkpt>
      <trkpt lat="47.65153" lon="6.02089">
        <ele>210.63</ele>
        <time>2017-10-04T08:05:41Z</time>
      </trkpt>
      <trkpt lat="47.65149" lon="6.02087">
        <ele>210.53</ele>
        <time>2017-10-04T08:05:42Z</time>
      </trkpt>
      <trkpt lat="47.65144" lon="6.02086">
        <ele>210.43</ele>
        <time>2017-10-04T08:05:43Z</time>
      </trkpt>
      <trkpt lat="47.65136" lon="6.02083">
        <ele>210.24</ele>
        <time>2017-10-04T08:05:45Z</time>
      </trkpt>
      <trkpt lat="47.65131" lon="6.0208">
        <ele>210.16</ele>
        <time>2017-10-04T08:05:46Z</time>
      </trkpt>
      <trkpt lat="47.65127" lon="6.02079">
        <ele>210.08</ele>
        <time>2017-10-04T08:05:47Z</time>
      </trkpt>
      <trkpt lat="47.65122" lon="6.02077">
        <ele>210</ele>
        <time>2017-10-04T08:05:48Z</time>
      </trkpt>
      <trkpt lat="47.65118" lon="6.02076">
        <ele>209.92</ele>
        <time>2017-10-04T08:05:49Z</time>
      </trkpt>
      <trkpt lat="47.65113" lon="6.02073">
        <ele>209.84</ele>
        <time>2017-10-04T08:05:50Z</time>
      </trkpt>
      <trkpt lat="47.65109" lon="6.02072">
        <ele>209.77</ele>
        <time>2017-10-04T08:05:51Z</time>
      </trkpt>
      <trkpt lat="47.65105" lon="6.0207">
        <ele>209.67</ele>
        <time>2017-10-04T08:05:52Z</time>
      </trkpt>
      <trkpt lat="47.651" lon="6.02069">
        <ele>209.54</ele>
        <time>2017-10-04T08:05:53Z</time>
      </trkpt>
      <trkpt lat="47.65096" lon="6.02067">
        <ele>209.42</ele>
        <time>2017-10-04T08:05:54Z</time>
      </trkpt>
      <trkpt lat="47.65091" lon="6.02066">
        <ele>209.3</ele>
        <time>2017-10-04T08:05:55Z</time>
      </trkpt>
      <trkpt lat="47.65087" lon="6.02064">
        <ele>209.19</ele>
        <time>2017-10-04T08:05:56Z</time>
      </trkpt>
      <trkpt lat="47.65082" lon="6.02062">
        <ele>209.09</ele>
        <time>2017-10-04T08:05:57Z</time>
      </trkpt>
      <trkpt lat="47.65074" lon="6.0206">
        <ele>208.9</ele>
        <time>2017-10-04T08:05:59Z</time>
      </trkpt>
      <trkpt lat="47.65069" lon="6.02058">
        <ele>208.81</ele>
        <time>2017-10-04T08:06:00Z</time>
      </trkpt>
      <trkpt lat="47.65064" lon="6.02056">
        <ele>208.72</ele>
        <time>2017-10-04T08:06:01Z</time>
      </trkpt>
      <trkpt lat="47.65059" lon="6.02054">
        <ele>208.64</ele>
        <time>2017-10-04T08:06:02Z</time>
      </trkpt>
      <trkpt lat="47.65055" lon="6.02052">
        <ele>208.55</ele>
        <time>2017-10-04T08:06:03Z</time>
      </trkpt>
      <trkpt lat="47.6505" lon="6.0205">
        <ele>208.47</ele>
        <time>2017-10-04T08:06:04Z</time>
      </trkpt>
      <trkpt lat="47.65045" lon="6.02047">
        <ele>208.41</ele>
        <time>2017-10-04T08:06:05Z</time>
      </trkpt>
      <trkpt lat="47.6504" lon="6.02045">
        <ele>208.36</ele>
        <time>2017-10-04T08:06:06Z</time>
      </trkpt>
      <trkpt lat="47.65035" lon="6.02043">
        <ele>208.32</ele>
        <time>2017-10-04T08:06:07Z</time>
      </trkpt>
      <trkpt lat="47.6503" lon="6.0204">
        <ele>208.28</ele>
        <time>2017-10-04T08:06:08Z</time>
      </trkpt>
      <trkpt lat="47.65025" lon="6.02037">
        <ele>208.24</ele>
        <time>2017-10-04T08:06:09Z</time>
      </trkpt>
      <trkpt lat="47.65021" lon="6.02033">
        <ele>208.21</ele>
        <time>2017-10-04T08:06:10Z</time>
      </trkpt>
      <trkpt lat="47.65016" lon="6.02028">
        <ele>208.17</ele>
        <time>2017-10-04T08:06:11Z</time>
      </trkpt>
      <trkpt lat="47.6501" lon="6.02027">
        <ele>208.13</ele>
        <time>2017-10-04T08:06:12Z</time>
      </trkpt>
      <trkpt lat="47.65005" lon="6.02025">
        <ele>208.1</ele>
        <time>2017-10-04T08:06:13Z</time>
      </trkpt>
      <trkpt lat="47.64999" lon="6.02024">
        <ele>208.06</ele>
        <time>2017-10-04T08:06:14Z</time>
      </trkpt>
      <trkpt lat="47.64994" lon="6.02024">
        <ele>208.01</ele>
        <time>2017-10-04T08:06:15Z</time>
      </trkpt>
      <trkpt lat="47.64988" lon="6.02025">
        <ele>207.98</ele>
        <time>2017-10-04T08:06:16Z</time>
      </trkpt>
      <trkpt lat="47.64984" lon="6.02026">
        <ele>207.96</ele>
        <time>2017-10-04T08:06:17Z</time>
      </trkpt>
      <trkpt lat="47.64978" lon="6.02033">
        <ele>207.93</ele>
        <time>2017-10-04T08:06:19Z</time>
      </trkpt>
      <trkpt lat="47.64972" lon="6.02036">
        <ele>207.92</ele>
        <time>2017-10-04T08:06:21Z</time>
      </trkpt>
      <trkpt lat="47.64967" lon="6.0204">
        <ele>207.92</ele>
        <time>2017-10-04T08:06:23Z</time>
      </trkpt>
      <trkpt lat="47.64962" lon="6.02044">
        <ele>207.91</ele>
        <time>2017-10-04T08:06:25Z</time>
      </trkpt>
      <trkpt lat="47.64958" lon="6.02047">
        <ele>207.89</ele>
        <time>2017-10-04T08:06:27Z</time>
      </trkpt>
      <trkpt lat="47.64953" lon="6.02051">
        <ele>207.86</ele>
        <time>2017-10-04T08:06:30Z</time>
      </trkpt>
      <trkpt lat="47.64948" lon="6.02055">
        <ele>207.83</ele>
        <time>2017-10-04T08:06:33Z</time>
      </trkpt>
      <trkpt lat="47.64942" lon="6.0206">
        <ele>207.82</ele>
        <time>2017-10-04T08:06:36Z</time>
      </trkpt>
      <trkpt lat="47.64938" lon="6.02063">
        <ele>207.82</ele>
        <time>2017-10-04T08:06:38Z</time>
      </trkpt>
      <trkpt lat="47.64934" lon="6.02066">
        <ele>207.82</ele>
        <time>2017-10-04T08:06:40Z</time>
      </trkpt>
      <trkpt lat="47.64929" lon="6.0207">
        <ele>207.83</ele>
        <time>2017-10-04T08:06:42Z</time>
      </trkpt>
      <trkpt lat="47.64923" lon="6.02075">
        <ele>207.83</ele>
        <time>2017-10-04T08:06:44Z</time>
      </trkpt>
      <trkpt lat="47.64917" lon="6.02081">
        <ele>207.83</ele>
        <time>2017-10-04T08:06:46Z</time>
      </trkpt>
      <trkpt lat="47.64911" lon="6.02086">
        <ele>207.83</ele>
        <time>2017-10-04T08:06:48Z</time>
      </trkpt>
      <trkpt lat="47.64905" lon="6.02092">
        <ele>207.83</ele>
        <time>2017-10-04T08:06:50Z</time>
      </trkpt>
      <trkpt lat="47.64901" lon="6.02095">
        <ele>207.83</ele>
        <time>2017-10-04T08:06:52Z</time>
      </trkpt>
      <trkpt lat="47.64895" lon="6.02093">
        <ele>207.85</ele>
        <time>2017-10-04T08:06:55Z</time>
      </trkpt>
      <trkpt lat="47.6489" lon="6.02088">
        <ele>207.87</ele>
        <time>2017-10-04T08:06:58Z</time>
      </trkpt>
      <trkpt lat="47.64888" lon="6.02082">
        <ele>207.88</ele>
        <time>2017-10-04T08:07:00Z</time>
      </trkpt>
      <trkpt lat="47.64886" lon="6.02075">
        <ele>207.88</ele>
        <time>2017-10-04T08:07:02Z</time>
      </trkpt>
      <trkpt lat="47.64887" lon="6.02066">
        <ele>207.87</ele>
        <time>2017-10-04T08:07:04Z</time>
      </trkpt>
      <trkpt lat="47.64891" lon="6.02073">
        <ele>207.87</ele>
        <time>2017-10-04T08:07:09Z</time>
      </trkpt>
      <trkpt lat="47.64895" lon="6.02081">
        <ele>207.87</ele>
        <time>2017-10-04T08:07:11Z</time>
      </trkpt>
      <trkpt lat="47.64899" lon="6.02087">
        <ele>207.88</ele>
        <time>2017-10-04T08:07:13Z</time>
      </trkpt>
      <trkpt lat="47.64899" lon="6.02098">
        <ele>207.88</ele>
        <time>2017-10-04T08:07:15Z</time>
      </trkpt>
      <trkpt lat="47.649" lon="6.02108">
        <ele>207.89</ele>
        <time>2017-10-04T08:07:17Z</time>
      </trkpt>
      <trkpt lat="47.64902" lon="6.02114">
        <ele>207.89</ele>
        <time>2017-10-04T08:07:18Z</time>
      </trkpt>
      <trkpt lat="47.64907" lon="6.02124">
        <ele>207.89</ele>
        <time>2017-10-04T08:07:19Z</time>
      </trkpt>
      <trkpt lat="47.6491" lon="6.02129">
        <ele>207.89</ele>
        <time>2017-10-04T08:07:20Z</time>
      </trkpt>
      <trkpt lat="47.64913" lon="6.02139">
        <ele>207.89</ele>
        <time>2017-10-04T08:07:22Z</time>
      </trkpt>
      <trkpt lat="47.64917" lon="6.02145">
        <ele>207.89</ele>
        <time>2017-10-04T08:07:23Z</time>
      </trkpt>
      <trkpt lat="47.64921" lon="6.02154">
        <ele>207.88</ele>
        <time>2017-10-04T08:07:25Z</time>
      </trkpt>
      <trkpt lat="47.64924" lon="6.02161">
        <ele>207.88</ele>
        <time>2017-10-04T08:07:27Z</time>
      </trkpt>
      <trkpt lat="47.64926" lon="6.02168">
        <ele>207.88</ele>
        <time>2017-10-04T08:07:28Z</time>
      </trkpt>
      <trkpt lat="47.6493" lon="6.02181">
        <ele>207.88</ele>
        <time>2017-10-04T08:07:30Z</time>
      </trkpt>
      <trkpt lat="47.64933" lon="6.02192">
        <ele>207.88</ele>
        <time>2017-10-04T08:07:32Z</time>
      </trkpt>
      <trkpt lat="47.64935" lon="6.02199">
        <ele>207.88</ele>
        <time>2017-10-04T08:07:33Z</time>
      </trkpt>
      <trkpt lat="47.64938" lon="6.02207">
        <ele>207.89</ele>
        <time>2017-10-04T08:07:34Z</time>
      </trkpt>
      <trkpt lat="47.64941" lon="6.02215">
        <ele>207.9</ele>
        <time>2017-10-04T08:07:35Z</time>
      </trkpt>
      <trkpt lat="47.64944" lon="6.02222">
        <ele>207.89</ele>
        <time>2017-10-04T08:07:36Z</time>
      </trkpt>
      <trkpt lat="47.64947" lon="6.02229">
        <ele>207.88</ele>
        <time>2017-10-04T08:07:37Z</time>
      </trkpt>
      <trkpt lat="47.6495" lon="6.02236">
        <ele>207.86</ele>
        <time>2017-10-04T08:07:38Z</time>
      </trkpt>
      <trkpt lat="47.64952" lon="6.02242">
        <ele>207.85</ele>
        <time>2017-10-04T08:07:39Z</time>
      </trkpt>
      <trkpt lat="47.64957" lon="6.02254">
        <ele>207.84</ele>
        <time>2017-10-04T08:07:41Z</time>
      </trkpt>
      <trkpt lat="47.6496" lon="6.02265">
        <ele>207.84</ele>
        <time>2017-10-04T08:07:43Z</time>
      </trkpt>
      <trkpt lat="47.64962" lon="6.02272">
        <ele>207.83</ele>
        <time>2017-10-04T08:07:44Z</time>
      </trkpt>
      <trkpt lat="47.64964" lon="6.02279">
        <ele>207.82</ele>
        <time>2017-10-04T08:07:45Z</time>
      </trkpt>
      <trkpt lat="47.64966" lon="6.02285">
        <ele>207.8</ele>
        <time>2017-10-04T08:07:46Z</time>
      </trkpt>
      <trkpt lat="47.64968" lon="6.02292">
        <ele>207.78</ele>
        <time>2017-10-04T08:07:47Z</time>
      </trkpt>
      <trkpt lat="47.64969" lon="6.02299">
        <ele>207.77</ele>
        <time>2017-10-04T08:07:48Z</time>
      </trkpt>
      <trkpt lat="47.64971" lon="6.02305">
        <ele>207.75</ele>
        <time>2017-10-04T08:07:49Z</time>
      </trkpt>
      <trkpt lat="47.64971" lon="6.02317">
        <ele>207.74</ele>
        <time>2017-10-04T08:07:51Z</time>
      </trkpt>
      <trkpt lat="47.6497" lon="6.02328">
        <ele>207.74</ele>
        <time>2017-10-04T08:07:53Z</time>
      </trkpt>
      <trkpt lat="47.64968" lon="6.02339">
        <ele>207.74</ele>
        <time>2017-10-04T08:07:55Z</time>
      </trkpt>
      <trkpt lat="47.64967" lon="6.02349">
        <ele>207.75</ele>
        <time>2017-10-04T08:07:57Z</time>
      </trkpt>
      <trkpt lat="47.64967" lon="6.02359">
        <ele>207.75</ele>
        <time>2017-10-04T08:07:59Z</time>
      </trkpt>
      <trkpt lat="47.64968" lon="6.02368">
        <ele>207.76</ele>
        <time>2017-10-04T08:08:01Z</time>
      </trkpt>
      <trkpt lat="47.64965" lon="6.02378">
        <ele>207.77</ele>
        <time>2017-10-04T08:08:03Z</time>
      </trkpt>
      <trkpt lat="47.64962" lon="6.02387">
        <ele>207.79</ele>
        <time>2017-10-04T08:08:05Z</time>
      </trkpt>
      <trkpt lat="47.64958" lon="6.02395">
        <ele>207.8</ele>
        <time>2017-10-04T08:08:07Z</time>
      </trkpt>
      <trkpt lat="47.64955" lon="6.024">
        <ele>207.82</ele>
        <time>2017-10-04T08:08:09Z</time>
      </trkpt>
      <trkpt lat="47.6495" lon="6.02404">
        <ele>207.86</ele>
        <time>2017-10-04T08:08:12Z</time>
      </trkpt>
      <trkpt lat="47.64946" lon="6.02409">
        <ele>207.91</ele>
        <time>2017-10-04T08:08:15Z</time>
      </trkpt>
      <trkpt lat="47.64941" lon="6.02413">
        <ele>207.97</ele>
        <time>2017-10-04T08:08:19Z</time>
      </trkpt>
      <trkpt lat="47.64937" lon="6.02419">
        <ele>208.06</ele>
        <time>2017-10-04T08:08:23Z</time>
      </trkpt>
      <trkpt lat="47.64936" lon="6.02428">
        <ele>208.13</ele>
        <time>2017-10-04T08:08:26Z</time>
      </trkpt>
      <trkpt lat="47.64937" lon="6.02437">
        <ele>208.18</ele>
        <time>2017-10-04T08:08:28Z</time>
      </trkpt>
      <trkpt lat="47.64938" lon="6.02445">
        <ele>208.23</ele>
        <time>2017-10-04T08:08:30Z</time>
      </trkpt>
      <trkpt lat="47.64939" lon="6.02455">
        <ele>208.29</ele>
        <time>2017-10-04T08:08:32Z</time>
      </trkpt>
      <trkpt lat="47.6494" lon="6.02465">
        <ele>208.34</ele>
        <time>2017-10-04T08:08:34Z</time>
      </trkpt>
      <trkpt lat="47.64942" lon="6.02475">
        <ele>208.4</ele>
        <time>2017-10-04T08:08:36Z</time>
      </trkpt>
      <trkpt lat="47.64943" lon="6.02484">
        <ele>208.45</ele>
        <time>2017-10-04T08:08:38Z</time>
      </trkpt>
      <trkpt lat="47.64945" lon="6.02493">
        <ele>208.51</ele>
        <time>2017-10-04T08:08:40Z</time>
      </trkpt>
      <trkpt lat="47.64949" lon="6.02499">
        <ele>208.57</ele>
        <time>2017-10-04T08:08:42Z</time>
      </trkpt>
      <trkpt lat="47.64953" lon="6.02507">
        <ele>208.64</ele>
        <time>2017-10-04T08:08:44Z</time>
      </trkpt>
      <trkpt lat="47.64955" lon="6.0252">
        <ele>209.1</ele>
        <time>2017-10-04T08:08:46Z</time>
      </trkpt>
      <trkpt lat="47.64956" lon="6.02527">
        <ele>209.32</ele>
        <time>2017-10-04T08:08:47Z</time>
      </trkpt>
      <trkpt lat="47.64958" lon="6.02536">
        <ele>209.5</ele>
        <time>2017-10-04T08:08:48Z</time>
      </trkpt>
      <trkpt lat="47.64959" lon="6.02544">
        <ele>209.64</ele>
        <time>2017-10-04T08:08:49Z</time>
      </trkpt>
      <trkpt lat="47.64959" lon="6.02552">
        <ele>209.76</ele>
        <time>2017-10-04T08:08:50Z</time>
      </trkpt>
      <trkpt lat="47.6496" lon="6.0256">
        <ele>209.86</ele>
        <time>2017-10-04T08:08:51Z</time>
      </trkpt>
      <trkpt lat="47.64961" lon="6.02568">
        <ele>209.95</ele>
        <time>2017-10-04T08:08:52Z</time>
      </trkpt>
      <trkpt lat="47.64961" lon="6.02576">
        <ele>210.04</ele>
        <time>2017-10-04T08:08:53Z</time>
      </trkpt>
      <trkpt lat="47.64962" lon="6.02583">
        <ele>210.12</ele>
        <time>2017-10-04T08:08:54Z</time>
      </trkpt>
      <trkpt lat="47.64963" lon="6.02591">
        <ele>210.2</ele>
        <time>2017-10-04T08:08:55Z</time>
      </trkpt>
      <trkpt lat="47.64963" lon="6.02598">
        <ele>210.27</ele>
        <time>2017-10-04T08:08:56Z</time>
      </trkpt>
      <trkpt lat="47.64964" lon="6.02605">
        <ele>210.33</ele>
        <time>2017-10-04T08:08:57Z</time>
      </trkpt>
      <trkpt lat="47.64965" lon="6.02612">
        <ele>210.4</ele>
        <time>2017-10-04T08:08:58Z</time>
      </trkpt>
      <trkpt lat="47.64965" lon="6.02619">
        <ele>210.46</ele>
        <time>2017-10-04T08:08:59Z</time>
      </trkpt>
      <trkpt lat="47.64966" lon="6.02626">
        <ele>210.52</ele>
        <time>2017-10-04T08:09:00Z</time>
      </trkpt>
      <trkpt lat="47.64967" lon="6.02633">
        <ele>210.58</ele>
        <time>2017-10-04T08:09:01Z</time>
      </trkpt>
      <trkpt lat="47.64967" lon="6.02641">
        <ele>210.64</ele>
        <time>2017-10-04T08:09:02Z</time>
      </trkpt>
      <trkpt lat="47.64968" lon="6.02648">
        <ele>210.68</ele>
        <time>2017-10-04T08:09:03Z</time>
      </trkpt>
      <trkpt lat="47.64968" lon="6.02655">
        <ele>210.73</ele>
        <time>2017-10-04T08:09:04Z</time>
      </trkpt>
      <trkpt lat="47.64969" lon="6.02662">
        <ele>210.77</ele>
        <time>2017-10-04T08:09:05Z</time>
      </trkpt>
      <trkpt lat="47.6497" lon="6.02669">
        <ele>210.8</ele>
        <time>2017-10-04T08:09:06Z</time>
      </trkpt>
      <trkpt lat="47.64971" lon="6.02682">
        <ele>210.87</ele>
        <time>2017-10-04T08:09:08Z</time>
      </trkpt>
      <trkpt lat="47.64973" lon="6.02694">
        <ele>210.93</ele>
        <time>2017-10-04T08:09:10Z</time>
      </trkpt>
      <trkpt lat="47.64974" lon="6.02702">
        <ele>210.96</ele>
        <time>2017-10-04T08:09:11Z</time>
      </trkpt>
      <trkpt lat="47.64975" lon="6.02708">
        <ele>210.99</ele>
        <time>2017-10-04T08:09:12Z</time>
      </trkpt>
      <trkpt lat="47.64975" lon="6.02715">
        <ele>211.01</ele>
        <time>2017-10-04T08:09:13Z</time>
      </trkpt>
      <trkpt lat="47.64976" lon="6.02722">
        <ele>211.03</ele>
        <time>2017-10-04T08:09:14Z</time>
      </trkpt>
      <trkpt lat="47.64977" lon="6.02729">
        <ele>211.05</ele>
        <time>2017-10-04T08:09:15Z</time>
      </trkpt>
      <trkpt lat="47.64979" lon="6.02741">
        <ele>211.08</ele>
        <time>2017-10-04T08:09:17Z</time>
      </trkpt>
      <trkpt lat="47.6498" lon="6.02748">
        <ele>211.09</ele>
        <time>2017-10-04T08:09:18Z</time>
      </trkpt>
      <trkpt lat="47.6498" lon="6.02755">
        <ele>211.11</ele>
        <time>2017-10-04T08:09:19Z</time>
      </trkpt>
      <trkpt lat="47.64982" lon="6.02768">
        <ele>211.13</ele>
        <time>2017-10-04T08:09:21Z</time>
      </trkpt>
      <trkpt lat="47.64983" lon="6.02775">
        <ele>211.13</ele>
        <time>2017-10-04T08:09:22Z</time>
      </trkpt>
      <trkpt lat="47.64984" lon="6.02781">
        <ele>211.14</ele>
        <time>2017-10-04T08:09:23Z</time>
      </trkpt>
      <trkpt lat="47.64986" lon="6.02794">
        <ele>211.15</ele>
        <time>2017-10-04T08:09:25Z</time>
      </trkpt>
      <trkpt lat="47.64987" lon="6.02806">
        <ele>211.18</ele>
        <time>2017-10-04T08:09:27Z</time>
      </trkpt>
      <trkpt lat="47.64989" lon="6.02819">
        <ele>211.21</ele>
        <time>2017-10-04T08:09:29Z</time>
      </trkpt>
      <trkpt lat="47.64991" lon="6.02832">
        <ele>211.23</ele>
        <time>2017-10-04T08:09:31Z</time>
      </trkpt>
      <trkpt lat="47.64992" lon="6.02844">
        <ele>211.27</ele>
        <time>2017-10-04T08:09:33Z</time>
      </trkpt>
      <trkpt lat="47.64993" lon="6.02851">
        <ele>211.28</ele>
        <time>2017-10-04T08:09:34Z</time>
      </trkpt>
      <trkpt lat="47.64994" lon="6.02857">
        <ele>211.3</ele>
        <time>2017-10-04T08:09:35Z</time>
      </trkpt>
      <trkpt lat="47.64995" lon="6.0287">
        <ele>211.32</ele>
        <time>2017-10-04T08:09:37Z</time>
      </trkpt>
      <trkpt lat="47.64997" lon="6.02877">
        <ele>211.33</ele>
        <time>2017-10-04T08:09:38Z</time>
      </trkpt>
      <trkpt lat="47.64999" lon="6.02889">
        <ele>211.35</ele>
        <time>2017-10-04T08:09:40Z</time>
      </trkpt>
      <trkpt lat="47.65001" lon="6.02902">
        <ele>211.35</ele>
        <time>2017-10-04T08:09:42Z</time>
      </trkpt>
      <trkpt lat="47.65004" lon="6.02914">
        <ele>211.36</ele>
        <time>2017-10-04T08:09:44Z</time>
      </trkpt>
      <trkpt lat="47.65007" lon="6.02926">
        <ele>211.35</ele>
        <time>2017-10-04T08:09:46Z</time>
      </trkpt>
      <trkpt lat="47.65011" lon="6.02937">
        <ele>211.34</ele>
        <time>2017-10-04T08:09:48Z</time>
      </trkpt>
      <trkpt lat="47.65015" lon="6.02948">
        <ele>211.34</ele>
        <time>2017-10-04T08:09:50Z</time>
      </trkpt>
      <trkpt lat="47.6502" lon="6.02958">
        <ele>211.33</ele>
        <time>2017-10-04T08:09:52Z</time>
      </trkpt>
      <trkpt lat="47.65025" lon="6.02968">
        <ele>211.32</ele>
        <time>2017-10-04T08:09:54Z</time>
      </trkpt>
      <trkpt lat="47.65031" lon="6.02977">
        <ele>211.32</ele>
        <time>2017-10-04T08:09:56Z</time>
      </trkpt>
      <trkpt lat="47.65037" lon="6.02986">
        <ele>211.32</ele>
        <time>2017-10-04T08:09:58Z</time>
      </trkpt>
      <trkpt lat="47.65042" lon="6.02995">
        <ele>211.33</ele>
        <time>2017-10-04T08:10:00Z</time>
      </trkpt>
      <trkpt lat="47.65048" lon="6.03003">
        <ele>211.34</ele>
        <time>2017-10-04T08:10:02Z</time>
      </trkpt>
      <trkpt lat="47.65053" lon="6.03012">
        <ele>211.34</ele>
        <time>2017-10-04T08:10:04Z</time>
      </trkpt>
      <trkpt lat="47.65058" lon="6.0302">
        <ele>211.35</ele>
        <time>2017-10-04T08:10:06Z</time>
      </trkpt>
      <trkpt lat="47.65062" lon="6.03026">
        <ele>211.35</ele>
        <time>2017-10-04T08:10:08Z</time>
      </trkpt>
      <trkpt lat="47.65066" lon="6.03032">
        <ele>211.35</ele>
        <time>2017-10-04T08:10:10Z</time>
      </trkpt>
      <trkpt lat="47.65067" lon="6.03039">
        <ele>211.35</ele>
        <time>2017-10-04T08:10:13Z</time>
      </trkpt>
      <trkpt lat="47.65065" lon="6.03048">
        <ele>211.35</ele>
        <time>2017-10-04T08:10:16Z</time>
      </trkpt>
      <trkpt lat="47.65065" lon="6.03055">
        <ele>211.35</ele>
        <time>2017-10-04T08:10:18Z</time>
      </trkpt>
      <trkpt lat="47.65067" lon="6.03062">
        <ele>211.35</ele>
        <time>2017-10-04T08:10:20Z</time>
      </trkpt>
      <trkpt lat="47.6507" lon="6.03068">
        <ele>211.35</ele>
        <time>2017-10-04T08:10:22Z</time>
      </trkpt>
      <trkpt lat="47.65072" lon="6.03075">
        <ele>211.35</ele>
        <time>2017-10-04T08:10:24Z</time>
      </trkpt>
      <trkpt lat="47.65075" lon="6.03083">
        <ele>211.34</ele>
        <time>2017-10-04T08:10:26Z</time>
      </trkpt>
      <trkpt lat="47.65076" lon="6.03091">
        <ele>211.33</ele>
        <time>2017-10-04T08:10:28Z</time>
      </trkpt>
      <trkpt lat="47.65079" lon="6.03099">
        <ele>211.32</ele>
        <time>2017-10-04T08:10:30Z</time>
      </trkpt>
      <trkpt lat="47.65081" lon="6.03108">
        <ele>211.31</ele>
        <time>2017-10-04T08:10:32Z</time>
      </trkpt>
      <trkpt lat="47.65081" lon="6.03117">
        <ele>211.3</ele>
        <time>2017-10-04T08:10:35Z</time>
      </trkpt>
      <trkpt lat="47.65084" lon="6.03122">
        <ele>211.29</ele>
        <time>2017-10-04T08:10:38Z</time>
      </trkpt>
      <trkpt lat="47.65088" lon="6.03118">
        <ele>211.27</ele>
        <time>2017-10-04T08:10:42Z</time>
      </trkpt>
      <trkpt lat="47.65092" lon="6.03113">
        <ele>211.25</ele>
        <time>2017-10-04T08:10:46Z</time>
      </trkpt>
      <trkpt lat="47.65087" lon="6.03121">
        <ele>211.18</ele>
        <time>2017-10-04T08:11:05Z</time>
      </trkpt>
      <trkpt lat="47.65083" lon="6.03126">
        <ele>211.17</ele>
        <time>2017-10-04T08:11:07Z</time>
      </trkpt>
      <trkpt lat="47.65079" lon="6.03133">
        <ele>211.16</ele>
        <time>2017-10-04T08:11:09Z</time>
      </trkpt>
      <trkpt lat="47.65075" lon="6.03141">
        <ele>211.15</ele>
        <time>2017-10-04T08:11:11Z</time>
      </trkpt>
      <trkpt lat="47.65072" lon="6.03148">
        <ele>211.15</ele>
        <time>2017-10-04T08:11:13Z</time>
      </trkpt>
      <trkpt lat="47.6507" lon="6.03155">
        <ele>211.14</ele>
        <time>2017-10-04T08:11:15Z</time>
      </trkpt>
      <trkpt lat="47.65068" lon="6.03162">
        <ele>211.14</ele>
        <time>2017-10-04T08:11:18Z</time>
      </trkpt>
      <trkpt lat="47.65065" lon="6.03168">
        <ele>211.14</ele>
        <time>2017-10-04T08:11:21Z</time>
      </trkpt>
      <trkpt lat="47.65062" lon="6.03174">
        <ele>211.15</ele>
        <time>2017-10-04T08:11:24Z</time>
      </trkpt>
      <trkpt lat="47.65059" lon="6.03181">
        <ele>211.17</ele>
        <time>2017-10-04T08:11:27Z</time>
      </trkpt>
      <trkpt lat="47.65055" lon="6.03188">
        <ele>211.2</ele>
        <time>2017-10-04T08:11:30Z</time>
      </trkpt>
      <trkpt lat="47.65052" lon="6.03195">
        <ele>211.24</ele>
        <time>2017-10-04T08:11:33Z</time>
      </trkpt>
      <trkpt lat="47.65047" lon="6.03201">
        <ele>211.28</ele>
        <time>2017-10-04T08:11:36Z</time>
      </trkpt>
      <trkpt lat="47.65043" lon="6.03208">
        <ele>211.34</ele>
        <time>2017-10-04T08:11:39Z</time>
      </trkpt>
      <trkpt lat="47.6504" lon="6.03213">
        <ele>211.38</ele>
        <time>2017-10-04T08:11:41Z</time>
      </trkpt>
      <trkpt lat="47.65036" lon="6.03219">
        <ele>211.45</ele>
        <time>2017-10-04T08:11:44Z</time>
      </trkpt>
      <trkpt lat="47.65033" lon="6.03223">
        <ele>211.5</ele>
        <time>2017-10-04T08:11:46Z</time>
      </trkpt>
      <trkpt lat="47.65028" lon="6.03228">
        <ele>211.57</ele>
        <time>2017-10-04T08:11:49Z</time>
      </trkpt>
      <trkpt lat="47.65023" lon="6.03234">
        <ele>211.65</ele>
        <time>2017-10-04T08:11:52Z</time>
      </trkpt>
      <trkpt lat="47.6502" lon="6.03239">
        <ele>211.74</ele>
        <time>2017-10-04T08:11:55Z</time>
      </trkpt>
      <trkpt lat="47.65016" lon="6.03245">
        <ele>211.79</ele>
        <time>2017-10-04T08:11:57Z</time>
      </trkpt>
      <trkpt lat="47.65009" lon="6.03251">
        <ele>211.88</ele>
        <time>2017-10-04T08:12:00Z</time>
      </trkpt>
      <trkpt lat="47.65003" lon="6.03256">
        <ele>211.94</ele>
        <time>2017-10-04T08:12:02Z</time>
      </trkpt>
      <trkpt lat="47.64995" lon="6.0326">
        <ele>212.18</ele>
        <time>2017-10-04T08:12:04Z</time>
      </trkpt>
      <trkpt lat="47.64991" lon="6.03262">
        <ele>212.41</ele>
        <time>2017-10-04T08:12:05Z</time>
      </trkpt>
      <trkpt lat="47.64986" lon="6.03264">
        <ele>212.62</ele>
        <time>2017-10-04T08:12:06Z</time>
      </trkpt>
      <trkpt lat="47.64982" lon="6.03266">
        <ele>212.7</ele>
        <time>2017-10-04T08:12:07Z</time>
      </trkpt>
      <trkpt lat="47.64977" lon="6.03269">
        <ele>212.74</ele>
        <time>2017-10-04T08:12:08Z</time>
      </trkpt>
      <trkpt lat="47.64973" lon="6.03272">
        <ele>212.76</ele>
        <time>2017-10-04T08:12:09Z</time>
      </trkpt>
      <trkpt lat="47.64966" lon="6.03275">
        <ele>212.8</ele>
        <time>2017-10-04T08:12:11Z</time>
      </trkpt>
      <trkpt lat="47.64961" lon="6.03277">
        <ele>212.83</ele>
        <time>2017-10-04T08:12:12Z</time>
      </trkpt>
      <trkpt lat="47.64957" lon="6.03281">
        <ele>212.99</ele>
        <time>2017-10-04T08:12:13Z</time>
      </trkpt>
      <trkpt lat="47.64952" lon="6.03284">
        <ele>213.16</ele>
        <time>2017-10-04T08:12:14Z</time>
      </trkpt>
      <trkpt lat="47.64948" lon="6.03286">
        <ele>213.33</ele>
        <time>2017-10-04T08:12:15Z</time>
      </trkpt>
      <trkpt lat="47.64943" lon="6.03289">
        <ele>213.47</ele>
        <time>2017-10-04T08:12:16Z</time>
      </trkpt>
      <trkpt lat="47.64938" lon="6.03292">
        <ele>213.59</ele>
        <time>2017-10-04T08:12:17Z</time>
      </trkpt>
      <trkpt lat="47.64934" lon="6.03295">
        <ele>213.69</ele>
        <time>2017-10-04T08:12:18Z</time>
      </trkpt>
      <trkpt lat="47.64926" lon="6.03301">
        <ele>213.86</ele>
        <time>2017-10-04T08:12:20Z</time>
      </trkpt>
      <trkpt lat="47.64922" lon="6.03304">
        <ele>213.93</ele>
        <time>2017-10-04T08:12:21Z</time>
      </trkpt>
      <trkpt lat="47.64917" lon="6.03305">
        <ele>213.99</ele>
        <time>2017-10-04T08:12:22Z</time>
      </trkpt>
      <trkpt lat="47.64912" lon="6.03308">
        <ele>214.05</ele>
        <time>2017-10-04T08:12:23Z</time>
      </trkpt>
      <trkpt lat="47.64907" lon="6.0331">
        <ele>214.1</ele>
        <time>2017-10-04T08:12:24Z</time>
      </trkpt>
      <trkpt lat="47.64903" lon="6.03313">
        <ele>214.15</ele>
        <time>2017-10-04T08:12:26Z</time>
      </trkpt>
      <trkpt lat="47.64898" lon="6.03315">
        <ele>214.2</ele>
        <time>2017-10-04T08:12:27Z</time>
      </trkpt>
      <trkpt lat="47.6489" lon="6.03321">
        <ele>214.28</ele>
        <time>2017-10-04T08:12:29Z</time>
      </trkpt>
      <trkpt lat="47.64882" lon="6.03325">
        <ele>214.35</ele>
        <time>2017-10-04T08:12:31Z</time>
      </trkpt>
      <trkpt lat="47.64874" lon="6.0333">
        <ele>214.42</ele>
        <time>2017-10-04T08:12:33Z</time>
      </trkpt>
      <trkpt lat="47.64866" lon="6.03334">
        <ele>214.48</ele>
        <time>2017-10-04T08:12:35Z</time>
      </trkpt>
      <trkpt lat="47.64858" lon="6.03339">
        <ele>214.55</ele>
        <time>2017-10-04T08:12:37Z</time>
      </trkpt>
      <trkpt lat="47.6485" lon="6.03344">
        <ele>214.61</ele>
        <time>2017-10-04T08:12:39Z</time>
      </trkpt>
      <trkpt lat="47.64842" lon="6.03348">
        <ele>214.65</ele>
        <time>2017-10-04T08:12:41Z</time>
      </trkpt>
      <trkpt lat="47.64835" lon="6.03352">
        <ele>214.66</ele>
        <time>2017-10-04T08:12:43Z</time>
      </trkpt>
      <trkpt lat="47.64828" lon="6.03356">
        <ele>214.67</ele>
        <time>2017-10-04T08:12:45Z</time>
      </trkpt>
      <trkpt lat="47.64821" lon="6.03359">
        <ele>214.69</ele>
        <time>2017-10-04T08:12:47Z</time>
      </trkpt>
      <trkpt lat="47.64815" lon="6.03363">
        <ele>214.7</ele>
        <time>2017-10-04T08:12:49Z</time>
      </trkpt>
      <trkpt lat="47.64809" lon="6.03367">
        <ele>214.72</ele>
        <time>2017-10-04T08:12:51Z</time>
      </trkpt>
      <trkpt lat="47.64804" lon="6.03373">
        <ele>214.74</ele>
        <time>2017-10-04T08:12:53Z</time>
      </trkpt>
      <trkpt lat="47.64798" lon="6.03378">
        <ele>214.76</ele>
        <time>2017-10-04T08:12:55Z</time>
      </trkpt>
      <trkpt lat="47.64791" lon="6.03383">
        <ele>214.78</ele>
        <time>2017-10-04T08:12:57Z</time>
      </trkpt>
      <trkpt lat="47.64784" lon="6.03386">
        <ele>214.81</ele>
        <time>2017-10-04T08:12:59Z</time>
      </trkpt>
      <trkpt lat="47.64776" lon="6.0339">
        <ele>214.92</ele>
        <time>2017-10-04T08:13:01Z</time>
      </trkpt>
      <trkpt lat="47.64771" lon="6.03392">
        <ele>215.04</ele>
        <time>2017-10-04T08:13:02Z</time>
      </trkpt>
      <trkpt lat="47.64763" lon="6.03397">
        <ele>215.25</ele>
        <time>2017-10-04T08:13:04Z</time>
      </trkpt>
      <trkpt lat="47.64758" lon="6.03399">
        <ele>215.34</ele>
        <time>2017-10-04T08:13:05Z</time>
      </trkpt>
      <trkpt lat="47.64754" lon="6.03403">
        <ele>215.43</ele>
        <time>2017-10-04T08:13:06Z</time>
      </trkpt>
      <trkpt lat="47.64749" lon="6.03406">
        <ele>215.51</ele>
        <time>2017-10-04T08:13:07Z</time>
      </trkpt>
      <trkpt lat="47.64745" lon="6.03408">
        <ele>215.59</ele>
        <time>2017-10-04T08:13:08Z</time>
      </trkpt>
      <trkpt lat="47.6474" lon="6.03411">
        <ele>215.66</ele>
        <time>2017-10-04T08:13:09Z</time>
      </trkpt>
      <trkpt lat="47.64736" lon="6.03414">
        <ele>215.72</ele>
        <time>2017-10-04T08:13:10Z</time>
      </trkpt>
      <trkpt lat="47.64732" lon="6.03417">
        <ele>215.79</ele>
        <time>2017-10-04T08:13:11Z</time>
      </trkpt>
      <trkpt lat="47.64728" lon="6.0342">
        <ele>215.85</ele>
        <time>2017-10-04T08:13:12Z</time>
      </trkpt>
      <trkpt lat="47.64723" lon="6.03423">
        <ele>215.91</ele>
        <time>2017-10-04T08:13:13Z</time>
      </trkpt>
      <trkpt lat="47.64719" lon="6.03426">
        <ele>215.97</ele>
        <time>2017-10-04T08:13:14Z</time>
      </trkpt>
      <trkpt lat="47.64711" lon="6.03432">
        <ele>216.07</ele>
        <time>2017-10-04T08:13:16Z</time>
      </trkpt>
      <trkpt lat="47.64703" lon="6.03438">
        <ele>216.18</ele>
        <time>2017-10-04T08:13:18Z</time>
      </trkpt>
      <trkpt lat="47.64695" lon="6.03443">
        <ele>216.27</ele>
        <time>2017-10-04T08:13:20Z</time>
      </trkpt>
      <trkpt lat="47.64691" lon="6.03446">
        <ele>216.31</ele>
        <time>2017-10-04T08:13:21Z</time>
      </trkpt>
      <trkpt lat="47.64684" lon="6.03452">
        <ele>216.4</ele>
        <time>2017-10-04T08:13:23Z</time>
      </trkpt>
      <trkpt lat="47.64677" lon="6.03458">
        <ele>216.48</ele>
        <time>2017-10-04T08:13:25Z</time>
      </trkpt>
      <trkpt lat="47.6467" lon="6.03465">
        <ele>216.56</ele>
        <time>2017-10-04T08:13:27Z</time>
      </trkpt>
      <trkpt lat="47.64663" lon="6.03472">
        <ele>216.6</ele>
        <time>2017-10-04T08:13:29Z</time>
      </trkpt>
      <trkpt lat="47.64657" lon="6.03481">
        <ele>216.67</ele>
        <time>2017-10-04T08:13:31Z</time>
      </trkpt>
      <trkpt lat="47.6465" lon="6.03489">
        <ele>216.72</ele>
        <time>2017-10-04T08:13:33Z</time>
      </trkpt>
      <trkpt lat="47.64645" lon="6.03496">
        <ele>216.76</ele>
        <time>2017-10-04T08:13:35Z</time>
      </trkpt>
      <trkpt lat="47.64638" lon="6.03504">
        <ele>216.81</ele>
        <time>2017-10-04T08:13:37Z</time>
      </trkpt>
      <trkpt lat="47.64631" lon="6.03512">
        <ele>216.86</ele>
        <time>2017-10-04T08:13:39Z</time>
      </trkpt>
      <trkpt lat="47.64625" lon="6.03519">
        <ele>216.89</ele>
        <time>2017-10-04T08:13:41Z</time>
      </trkpt>
      <trkpt lat="47.64618" lon="6.03527">
        <ele>216.92</ele>
        <time>2017-10-04T08:13:43Z</time>
      </trkpt>
      <trkpt lat="47.64613" lon="6.03534">
        <ele>216.95</ele>
        <time>2017-10-04T08:13:45Z</time>
      </trkpt>
      <trkpt lat="47.64607" lon="6.03542">
        <ele>216.97</ele>
        <time>2017-10-04T08:13:47Z</time>
      </trkpt>
      <trkpt lat="47.646" lon="6.0355">
        <ele>216.99</ele>
        <time>2017-10-04T08:13:49Z</time>
      </trkpt>
      <trkpt lat="47.64594" lon="6.03557">
        <ele>217</ele>
        <time>2017-10-04T08:13:51Z</time>
      </trkpt>
      <trkpt lat="47.64588" lon="6.03564">
        <ele>217.03</ele>
        <time>2017-10-04T08:13:53Z</time>
      </trkpt>
      <trkpt lat="47.64582" lon="6.03572">
        <ele>217.06</ele>
        <time>2017-10-04T08:13:55Z</time>
      </trkpt>
      <trkpt lat="47.64576" lon="6.0358">
        <ele>217.1</ele>
        <time>2017-10-04T08:13:57Z</time>
      </trkpt>
      <trkpt lat="47.6457" lon="6.03588">
        <ele>217.13</ele>
        <time>2017-10-04T08:13:59Z</time>
      </trkpt>
      <trkpt lat="47.64564" lon="6.03597">
        <ele>217.16</ele>
        <time>2017-10-04T08:14:01Z</time>
      </trkpt>
      <trkpt lat="47.64557" lon="6.03603">
        <ele>217.19</ele>
        <time>2017-10-04T08:14:03Z</time>
      </trkpt>
      <trkpt lat="47.6455" lon="6.03608">
        <ele>217.22</ele>
        <time>2017-10-04T08:14:05Z</time>
      </trkpt>
      <trkpt lat="47.64541" lon="6.03611">
        <ele>217.26</ele>
        <time>2017-10-04T08:14:07Z</time>
      </trkpt>
      <trkpt lat="47.64533" lon="6.03614">
        <ele>217.3</ele>
        <time>2017-10-04T08:14:09Z</time>
      </trkpt>
      <trkpt lat="47.64525" lon="6.03617">
        <ele>217.34</ele>
        <time>2017-10-04T08:14:11Z</time>
      </trkpt>
      <trkpt lat="47.6452" lon="6.03618">
        <ele>217.36</ele>
        <time>2017-10-04T08:14:12Z</time>
      </trkpt>
      <trkpt lat="47.64512" lon="6.03621">
        <ele>217.4</ele>
        <time>2017-10-04T08:14:14Z</time>
      </trkpt>
      <trkpt lat="47.64503" lon="6.03622">
        <ele>217.44</ele>
        <time>2017-10-04T08:14:16Z</time>
      </trkpt>
      <trkpt lat="47.64498" lon="6.03623">
        <ele>217.46</ele>
        <time>2017-10-04T08:14:17Z</time>
      </trkpt>
      <trkpt lat="47.64494" lon="6.03624">
        <ele>217.48</ele>
        <time>2017-10-04T08:14:18Z</time>
      </trkpt>
      <trkpt lat="47.64489" lon="6.03624">
        <ele>217.5</ele>
        <time>2017-10-04T08:14:19Z</time>
      </trkpt>
      <trkpt lat="47.64484" lon="6.03624">
        <ele>217.52</ele>
        <time>2017-10-04T08:14:20Z</time>
      </trkpt>
      <trkpt lat="47.64479" lon="6.03625">
        <ele>217.54</ele>
        <time>2017-10-04T08:14:21Z</time>
      </trkpt>
      <trkpt lat="47.64475" lon="6.03625">
        <ele>217.56</ele>
        <time>2017-10-04T08:14:22Z</time>
      </trkpt>
      <trkpt lat="47.64466" lon="6.03625">
        <ele>217.6</ele>
        <time>2017-10-04T08:14:24Z</time>
      </trkpt>
      <trkpt lat="47.64457" lon="6.03624">
        <ele>217.64</ele>
        <time>2017-10-04T08:14:26Z</time>
      </trkpt>
      <trkpt lat="47.64448" lon="6.03623">
        <ele>217.68</ele>
        <time>2017-10-04T08:14:28Z</time>
      </trkpt>
      <trkpt lat="47.64439" lon="6.03622">
        <ele>217.71</ele>
        <time>2017-10-04T08:14:30Z</time>
      </trkpt>
      <trkpt lat="47.64431" lon="6.0362">
        <ele>217.74</ele>
        <time>2017-10-04T08:14:32Z</time>
      </trkpt>
      <trkpt lat="47.64426" lon="6.03621">
        <ele>217.75</ele>
        <time>2017-10-04T08:14:33Z</time>
      </trkpt>
      <trkpt lat="47.64419" lon="6.03625">
        <ele>217.78</ele>
        <time>2017-10-04T08:14:35Z</time>
      </trkpt>
      <trkpt lat="47.64413" lon="6.03634">
        <ele>217.82</ele>
        <time>2017-10-04T08:14:37Z</time>
      </trkpt>
      <trkpt lat="47.64408" lon="6.03644">
        <ele>217.87</ele>
        <time>2017-10-04T08:14:39Z</time>
      </trkpt>
      <trkpt lat="47.64404" lon="6.03653">
        <ele>217.89</ele>
        <time>2017-10-04T08:14:41Z</time>
      </trkpt>
      <trkpt lat="47.64401" lon="6.03663">
        <ele>217.9</ele>
        <time>2017-10-04T08:14:43Z</time>
      </trkpt>
      <trkpt lat="47.64398" lon="6.03673">
        <ele>217.9</ele>
        <time>2017-10-04T08:14:45Z</time>
      </trkpt>
      <trkpt lat="47.64395" lon="6.03682">
        <ele>217.92</ele>
        <time>2017-10-04T08:14:47Z</time>
      </trkpt>
      <trkpt lat="47.64391" lon="6.03689">
        <ele>217.93</ele>
        <time>2017-10-04T08:14:49Z</time>
      </trkpt>
      <trkpt lat="47.64386" lon="6.03693">
        <ele>217.94</ele>
        <time>2017-10-04T08:14:51Z</time>
      </trkpt>
      <trkpt lat="47.64381" lon="6.03696">
        <ele>217.96</ele>
        <time>2017-10-04T08:14:53Z</time>
      </trkpt>
      <trkpt lat="47.64376" lon="6.03698">
        <ele>217.97</ele>
        <time>2017-10-04T08:14:55Z</time>
      </trkpt>
      <trkpt lat="47.64371" lon="6.037">
        <ele>218</ele>
        <time>2017-10-04T08:14:57Z</time>
      </trkpt>
      <trkpt lat="47.64365" lon="6.03701">
        <ele>218.02</ele>
        <time>2017-10-04T08:14:59Z</time>
      </trkpt>
      <trkpt lat="47.64358" lon="6.03703">
        <ele>218.13</ele>
        <time>2017-10-04T08:15:01Z</time>
      </trkpt>
      <trkpt lat="47.6435" lon="6.03706">
        <ele>218.29</ele>
        <time>2017-10-04T08:15:03Z</time>
      </trkpt>
      <trkpt lat="47.64344" lon="6.03706">
        <ele>218.33</ele>
        <time>2017-10-04T08:15:05Z</time>
      </trkpt>
      <trkpt lat="47.64337" lon="6.03707">
        <ele>218.36</ele>
        <time>2017-10-04T08:15:07Z</time>
      </trkpt>
      <trkpt lat="47.6433" lon="6.03708">
        <ele>218.39</ele>
        <time>2017-10-04T08:15:09Z</time>
      </trkpt>
      <trkpt lat="47.64324" lon="6.03709">
        <ele>218.42</ele>
        <time>2017-10-04T08:15:11Z</time>
      </trkpt>
      <trkpt lat="47.64317" lon="6.03709">
        <ele>218.45</ele>
        <time>2017-10-04T08:15:13Z</time>
      </trkpt>
      <trkpt lat="47.6431" lon="6.0371">
        <ele>218.49</ele>
        <time>2017-10-04T08:15:15Z</time>
      </trkpt>
      <trkpt lat="47.64303" lon="6.0371">
        <ele>218.53</ele>
        <time>2017-10-04T08:15:17Z</time>
      </trkpt>
      <trkpt lat="47.64296" lon="6.0371">
        <ele>218.57</ele>
        <time>2017-10-04T08:15:19Z</time>
      </trkpt>
      <trkpt lat="47.64289" lon="6.03709">
        <ele>218.62</ele>
        <time>2017-10-04T08:15:21Z</time>
      </trkpt>
      <trkpt lat="47.64282" lon="6.03707">
        <ele>218.99</ele>
        <time>2017-10-04T08:15:23Z</time>
      </trkpt>
      <trkpt lat="47.64274" lon="6.03705">
        <ele>219.33</ele>
        <time>2017-10-04T08:15:25Z</time>
      </trkpt>
      <trkpt lat="47.64265" lon="6.03703">
        <ele>219.58</ele>
        <time>2017-10-04T08:15:27Z</time>
      </trkpt>
      <trkpt lat="47.64257" lon="6.037">
        <ele>219.78</ele>
        <time>2017-10-04T08:15:29Z</time>
      </trkpt>
      <trkpt lat="47.64249" lon="6.03698">
        <ele>219.94</ele>
        <time>2017-10-04T08:15:31Z</time>
      </trkpt>
      <trkpt lat="47.64241" lon="6.03695">
        <ele>220.04</ele>
        <time>2017-10-04T08:15:33Z</time>
      </trkpt>
      <trkpt lat="47.64234" lon="6.03693">
        <ele>220.06</ele>
        <time>2017-10-04T08:15:35Z</time>
      </trkpt>
      <trkpt lat="47.64227" lon="6.03691">
        <ele>220.07</ele>
        <time>2017-10-04T08:15:37Z</time>
      </trkpt>
      <trkpt lat="47.6422" lon="6.03689">
        <ele>220.09</ele>
        <time>2017-10-04T08:15:39Z</time>
      </trkpt>
      <trkpt lat="47.64213" lon="6.03687">
        <ele>220.12</ele>
        <time>2017-10-04T08:15:41Z</time>
      </trkpt>
      <trkpt lat="47.64206" lon="6.03685">
        <ele>220.15</ele>
        <time>2017-10-04T08:15:43Z</time>
      </trkpt>
      <trkpt lat="47.64199" lon="6.03683">
        <ele>220.18</ele>
        <time>2017-10-04T08:15:45Z</time>
      </trkpt>
      <trkpt lat="47.64191" lon="6.03683">
        <ele>220.21</ele>
        <time>2017-10-04T08:15:47Z</time>
      </trkpt>
      <trkpt lat="47.64184" lon="6.03682">
        <ele>220.25</ele>
        <time>2017-10-04T08:15:49Z</time>
      </trkpt>
      <trkpt lat="47.64176" lon="6.03683">
        <ele>220.29</ele>
        <time>2017-10-04T08:15:51Z</time>
      </trkpt>
      <trkpt lat="47.64169" lon="6.03683">
        <ele>220.34</ele>
        <time>2017-10-04T08:15:53Z</time>
      </trkpt>
      <trkpt lat="47.64162" lon="6.03684">
        <ele>220.38</ele>
        <time>2017-10-04T08:15:55Z</time>
      </trkpt>
      <trkpt lat="47.64155" lon="6.03683">
        <ele>220.43</ele>
        <time>2017-10-04T08:15:57Z</time>
      </trkpt>
      <trkpt lat="47.64148" lon="6.03683">
        <ele>220.48</ele>
        <time>2017-10-04T08:15:59Z</time>
      </trkpt>
      <trkpt lat="47.64141" lon="6.03681">
        <ele>220.54</ele>
        <time>2017-10-04T08:16:01Z</time>
      </trkpt>
      <trkpt lat="47.64134" lon="6.0368">
        <ele>220.59</ele>
        <time>2017-10-04T08:16:03Z</time>
      </trkpt>
      <trkpt lat="47.64127" lon="6.03678">
        <ele>220.65</ele>
        <time>2017-10-04T08:16:05Z</time>
      </trkpt>
      <trkpt lat="47.64122" lon="6.03674">
        <ele>220.71</ele>
        <time>2017-10-04T08:16:07Z</time>
      </trkpt>
      <trkpt lat="47.64116" lon="6.03672">
        <ele>220.76</ele>
        <time>2017-10-04T08:16:09Z</time>
      </trkpt>
      <trkpt lat="47.6411" lon="6.03668">
        <ele>220.82</ele>
        <time>2017-10-04T08:16:11Z</time>
      </trkpt>
      <trkpt lat="47.64103" lon="6.03664">
        <ele>220.88</ele>
        <time>2017-10-04T08:16:13Z</time>
      </trkpt>
      <trkpt lat="47.64097" lon="6.03661">
        <ele>220.93</ele>
        <time>2017-10-04T08:16:15Z</time>
      </trkpt>
      <trkpt lat="47.64091" lon="6.03659">
        <ele>220.99</ele>
        <time>2017-10-04T08:16:17Z</time>
      </trkpt>
      <trkpt lat="47.64085" lon="6.03657">
        <ele>221.05</ele>
        <time>2017-10-04T08:16:19Z</time>
      </trkpt>
      <trkpt lat="47.6408" lon="6.03655">
        <ele>221.1</ele>
        <time>2017-10-04T08:16:21Z</time>
      </trkpt>
      <trkpt lat="47.64074" lon="6.03653">
        <ele>221.16</ele>
        <time>2017-10-04T08:16:23Z</time>
      </trkpt>
      <trkpt lat="47.64067" lon="6.03649">
        <ele>221.22</ele>
        <time>2017-10-04T08:16:25Z</time>
      </trkpt>
      <trkpt lat="47.64062" lon="6.03646">
        <ele>221.27</ele>
        <time>2017-10-04T08:16:27Z</time>
      </trkpt>
      <trkpt lat="47.64056" lon="6.03643">
        <ele>221.33</ele>
        <time>2017-10-04T08:16:29Z</time>
      </trkpt>
      <trkpt lat="47.64051" lon="6.03638">
        <ele>221.39</ele>
        <time>2017-10-04T08:16:31Z</time>
      </trkpt>
      <trkpt lat="47.64044" lon="6.03633">
        <ele>221.45</ele>
        <time>2017-10-04T08:16:33Z</time>
      </trkpt>
      <trkpt lat="47.64037" lon="6.03627">
        <ele>221.5</ele>
        <time>2017-10-04T08:16:35Z</time>
      </trkpt>
      <trkpt lat="47.6403" lon="6.03621">
        <ele>221.74</ele>
        <time>2017-10-04T08:16:37Z</time>
      </trkpt>
      <trkpt lat="47.64026" lon="6.03618">
        <ele>221.97</ele>
        <time>2017-10-04T08:16:38Z</time>
      </trkpt>
      <trkpt lat="47.64021" lon="6.03615">
        <ele>222.18</ele>
        <time>2017-10-04T08:16:39Z</time>
      </trkpt>
      <trkpt lat="47.64017" lon="6.03611">
        <ele>222.35</ele>
        <time>2017-10-04T08:16:40Z</time>
      </trkpt>
      <trkpt lat="47.64013" lon="6.03608">
        <ele>222.51</ele>
        <time>2017-10-04T08:16:41Z</time>
      </trkpt>
      <trkpt lat="47.64005" lon="6.03602">
        <ele>222.74</ele>
        <time>2017-10-04T08:16:43Z</time>
      </trkpt>
      <trkpt lat="47.64001" lon="6.036">
        <ele>222.83</ele>
        <time>2017-10-04T08:16:44Z</time>
      </trkpt>
      <trkpt lat="47.63997" lon="6.03597">
        <ele>222.9</ele>
        <time>2017-10-04T08:16:45Z</time>
      </trkpt>
      <trkpt lat="47.63992" lon="6.03593">
        <ele>222.96</ele>
        <time>2017-10-04T08:16:46Z</time>
      </trkpt>
      <trkpt lat="47.63987" lon="6.0359">
        <ele>223</ele>
        <time>2017-10-04T08:16:47Z</time>
      </trkpt>
      <trkpt lat="47.63983" lon="6.03587">
        <ele>223.04</ele>
        <time>2017-10-04T08:16:48Z</time>
      </trkpt>
      <trkpt lat="47.63978" lon="6.03585">
        <ele>223.07</ele>
        <time>2017-10-04T08:16:49Z</time>
      </trkpt>
      <trkpt lat="47.63969" lon="6.03583">
        <ele>223.11</ele>
        <time>2017-10-04T08:16:51Z</time>
      </trkpt>
      <trkpt lat="47.63962" lon="6.03582">
        <ele>223.12</ele>
        <time>2017-10-04T08:16:53Z</time>
      </trkpt>
      <trkpt lat="47.63955" lon="6.0358">
        <ele>223.12</ele>
        <time>2017-10-04T08:16:55Z</time>
      </trkpt>
      <trkpt lat="47.63947" lon="6.03576">
        <ele>223.16</ele>
        <time>2017-10-04T08:16:57Z</time>
      </trkpt>
      <trkpt lat="47.63943" lon="6.03574">
        <ele>223.17</ele>
        <time>2017-10-04T08:16:58Z</time>
      </trkpt>
      <trkpt lat="47.63934" lon="6.03572">
        <ele>223.18</ele>
        <time>2017-10-04T08:17:00Z</time>
      </trkpt>
      <trkpt lat="47.63929" lon="6.0357">
        <ele>223.19</ele>
        <time>2017-10-04T08:17:01Z</time>
      </trkpt>
      <trkpt lat="47.6392" lon="6.03568">
        <ele>223.25</ele>
        <time>2017-10-04T08:17:03Z</time>
      </trkpt>
      <trkpt lat="47.63916" lon="6.03566">
        <ele>223.29</ele>
        <time>2017-10-04T08:17:04Z</time>
      </trkpt>
      <trkpt lat="47.63911" lon="6.03564">
        <ele>223.34</ele>
        <time>2017-10-04T08:17:05Z</time>
      </trkpt>
      <trkpt lat="47.63905" lon="6.03561">
        <ele>223.39</ele>
        <time>2017-10-04T08:17:06Z</time>
      </trkpt>
      <trkpt lat="47.63899" lon="6.03557">
        <ele>223.43</ele>
        <time>2017-10-04T08:17:07Z</time>
      </trkpt>
      <trkpt lat="47.63894" lon="6.03553">
        <ele>223.47</ele>
        <time>2017-10-04T08:17:08Z</time>
      </trkpt>
      <trkpt lat="47.63889" lon="6.03551">
        <ele>223.5</ele>
        <time>2017-10-04T08:17:09Z</time>
      </trkpt>
      <trkpt lat="47.63884" lon="6.03549">
        <ele>223.54</ele>
        <time>2017-10-04T08:17:10Z</time>
      </trkpt>
      <trkpt lat="47.63878" lon="6.03546">
        <ele>223.56</ele>
        <time>2017-10-04T08:17:11Z</time>
      </trkpt>
      <trkpt lat="47.63872" lon="6.03545">
        <ele>223.58</ele>
        <time>2017-10-04T08:17:12Z</time>
      </trkpt>
      <trkpt lat="47.63865" lon="6.03542">
        <ele>223.6</ele>
        <time>2017-10-04T08:17:13Z</time>
      </trkpt>
      <trkpt lat="47.63858" lon="6.03539">
        <ele>223.61</ele>
        <time>2017-10-04T08:17:14Z</time>
      </trkpt>
      <trkpt lat="47.63851" lon="6.03536">
        <ele>223.62</ele>
        <time>2017-10-04T08:17:15Z</time>
      </trkpt>
      <trkpt lat="47.63845" lon="6.03533">
        <ele>223.64</ele>
        <time>2017-10-04T08:17:16Z</time>
      </trkpt>
      <trkpt lat="47.63839" lon="6.03533">
        <ele>223.65</ele>
        <time>2017-10-04T08:17:17Z</time>
      </trkpt>
      <trkpt lat="47.63832" lon="6.03531">
        <ele>223.66</ele>
        <time>2017-10-04T08:17:18Z</time>
      </trkpt>
      <trkpt lat="47.63825" lon="6.03529">
        <ele>223.67</ele>
        <time>2017-10-04T08:17:19Z</time>
      </trkpt>
      <trkpt lat="47.63818" lon="6.03528">
        <ele>223.69</ele>
        <time>2017-10-04T08:17:20Z</time>
      </trkpt>
      <trkpt lat="47.63812" lon="6.03525">
        <ele>223.7</ele>
        <time>2017-10-04T08:17:21Z</time>
      </trkpt>
      <trkpt lat="47.63806" lon="6.03523">
        <ele>223.71</ele>
        <time>2017-10-04T08:17:22Z</time>
      </trkpt>
      <trkpt lat="47.63799" lon="6.0352">
        <ele>223.73</ele>
        <time>2017-10-04T08:17:23Z</time>
      </trkpt>
      <trkpt lat="47.63793" lon="6.03517">
        <ele>223.74</ele>
        <time>2017-10-04T08:17:24Z</time>
      </trkpt>
      <trkpt lat="47.63786" lon="6.03514">
        <ele>223.76</ele>
        <time>2017-10-04T08:17:25Z</time>
      </trkpt>
      <trkpt lat="47.63778" lon="6.03512">
        <ele>223.77</ele>
        <time>2017-10-04T08:17:26Z</time>
      </trkpt>
      <trkpt lat="47.6377" lon="6.0351">
        <ele>223.78</ele>
        <time>2017-10-04T08:17:27Z</time>
      </trkpt>
      <trkpt lat="47.63763" lon="6.03509">
        <ele>223.79</ele>
        <time>2017-10-04T08:17:28Z</time>
      </trkpt>
      <trkpt lat="47.63757" lon="6.0351">
        <ele>223.8</ele>
        <time>2017-10-04T08:17:29Z</time>
      </trkpt>
      <trkpt lat="47.6375" lon="6.03512">
        <ele>223.8</ele>
        <time>2017-10-04T08:17:30Z</time>
      </trkpt>
      <trkpt lat="47.63743" lon="6.03516">
        <ele>223.81</ele>
        <time>2017-10-04T08:17:31Z</time>
      </trkpt>
      <trkpt lat="47.63737" lon="6.0352">
        <ele>223.81</ele>
        <time>2017-10-04T08:17:32Z</time>
      </trkpt>
      <trkpt lat="47.63729" lon="6.03524">
        <ele>223.81</ele>
        <time>2017-10-04T08:17:33Z</time>
      </trkpt>
      <trkpt lat="47.63723" lon="6.03526">
        <ele>223.81</ele>
        <time>2017-10-04T08:17:34Z</time>
      </trkpt>
      <trkpt lat="47.63716" lon="6.03528">
        <ele>223.82</ele>
        <time>2017-10-04T08:17:35Z</time>
      </trkpt>
      <trkpt lat="47.6371" lon="6.0353">
        <ele>223.82</ele>
        <time>2017-10-04T08:17:36Z</time>
      </trkpt>
      <trkpt lat="47.63705" lon="6.03532">
        <ele>223.82</ele>
        <time>2017-10-04T08:17:37Z</time>
      </trkpt>
      <trkpt lat="47.63698" lon="6.03531">
        <ele>223.82</ele>
        <time>2017-10-04T08:17:39Z</time>
      </trkpt>
      <trkpt lat="47.63692" lon="6.03525">
        <ele>223.82</ele>
        <time>2017-10-04T08:17:41Z</time>
      </trkpt>
      <trkpt lat="47.63689" lon="6.03515">
        <ele>223.82</ele>
        <time>2017-10-04T08:17:43Z</time>
      </trkpt>
      <trkpt lat="47.6369" lon="6.03508">
        <ele>223.8</ele>
        <time>2017-10-04T08:17:45Z</time>
      </trkpt>
      <trkpt lat="47.63687" lon="6.03499">
        <ele>223.76</ele>
        <time>2017-10-04T08:17:50Z</time>
      </trkpt>
      <trkpt lat="47.63684" lon="6.03493">
        <ele>223.75</ele>
        <time>2017-10-04T08:17:52Z</time>
      </trkpt>
      <trkpt lat="47.63681" lon="6.03485">
        <ele>223.73</ele>
        <time>2017-10-04T08:17:54Z</time>
      </trkpt>
      <trkpt lat="47.63678" lon="6.03478">
        <ele>223.7</ele>
        <time>2017-10-04T08:17:56Z</time>
      </trkpt>
      <trkpt lat="47.63673" lon="6.03472">
        <ele>223.67</ele>
        <time>2017-10-04T08:17:58Z</time>
      </trkpt>
      <trkpt lat="47.6367" lon="6.03467">
        <ele>223.63</ele>
        <time>2017-10-04T08:18:00Z</time>
      </trkpt>
      <trkpt lat="47.63665" lon="6.03459">
        <ele>223.56</ele>
        <time>2017-10-04T08:18:03Z</time>
      </trkpt>
      <trkpt lat="47.63661" lon="6.03453">
        <ele>223.5</ele>
        <time>2017-10-04T08:18:05Z</time>
      </trkpt>
      <trkpt lat="47.63658" lon="6.03447">
        <ele>223.43</ele>
        <time>2017-10-04T08:18:07Z</time>
      </trkpt>
      <trkpt lat="47.63655" lon="6.03441">
        <ele>223.36</ele>
        <time>2017-10-04T08:18:09Z</time>
      </trkpt>
      <trkpt lat="47.63651" lon="6.03435">
        <ele>223.28</ele>
        <time>2017-10-04T08:18:11Z</time>
      </trkpt>
      <trkpt lat="47.63648" lon="6.03431">
        <ele>223.19</ele>
        <time>2017-10-04T08:18:13Z</time>
      </trkpt>
      <trkpt lat="47.63645" lon="6.03425">
        <ele>223.1</ele>
        <time>2017-10-04T08:18:15Z</time>
      </trkpt>
      <trkpt lat="47.63641" lon="6.0342">
        <ele>223.01</ele>
        <time>2017-10-04T08:18:17Z</time>
      </trkpt>
      <trkpt lat="47.63637" lon="6.03414">
        <ele>222.91</ele>
        <time>2017-10-04T08:18:19Z</time>
      </trkpt>
      <trkpt lat="47.63633" lon="6.03408">
        <ele>222.8</ele>
        <time>2017-10-04T08:18:21Z</time>
      </trkpt>
      <trkpt lat="47.6363" lon="6.03402">
        <ele>222.69</ele>
        <time>2017-10-04T08:18:23Z</time>
      </trkpt>
      <trkpt lat="47.63626" lon="6.03397">
        <ele>222.57</ele>
        <time>2017-10-04T08:18:25Z</time>
      </trkpt>
      <trkpt lat="47.63623" lon="6.03392">
        <ele>222.45</ele>
        <time>2017-10-04T08:18:27Z</time>
      </trkpt>
      <trkpt lat="47.6362" lon="6.03386">
        <ele>222.32</ele>
        <time>2017-10-04T08:18:29Z</time>
      </trkpt>
      <trkpt lat="47.63617" lon="6.03381">
        <ele>222.19</ele>
        <time>2017-10-04T08:18:31Z</time>
      </trkpt>
      <trkpt lat="47.63613" lon="6.03376">
        <ele>222.05</ele>
        <time>2017-10-04T08:18:33Z</time>
      </trkpt>
      <trkpt lat="47.63609" lon="6.0337">
        <ele>221.91</ele>
        <time>2017-10-04T08:18:35Z</time>
      </trkpt>
      <trkpt lat="47.63603" lon="6.03361">
        <ele>221.76</ele>
        <time>2017-10-04T08:18:37Z</time>
      </trkpt>
      <trkpt lat="47.63598" lon="6.03353">
        <ele>220.59</ele>
        <time>2017-10-04T08:18:39Z</time>
      </trkpt>
      <trkpt lat="47.63595" lon="6.03348">
        <ele>220.05</ele>
        <time>2017-10-04T08:18:40Z</time>
      </trkpt>
      <trkpt lat="47.63592" lon="6.03342">
        <ele>219.58</ele>
        <time>2017-10-04T08:18:41Z</time>
      </trkpt>
      <trkpt lat="47.63586" lon="6.03333">
        <ele>218.85</ele>
        <time>2017-10-04T08:18:43Z</time>
      </trkpt>
      <trkpt lat="47.63581" lon="6.03325">
        <ele>218.68</ele>
        <time>2017-10-04T08:18:45Z</time>
      </trkpt>
      <trkpt lat="47.63578" lon="6.03318">
        <ele>218.64</ele>
        <time>2017-10-04T08:18:47Z</time>
      </trkpt>
      <trkpt lat="47.63574" lon="6.03311">
        <ele>218.6</ele>
        <time>2017-10-04T08:18:49Z</time>
      </trkpt>
      <trkpt lat="47.63571" lon="6.03305">
        <ele>218.57</ele>
        <time>2017-10-04T08:18:51Z</time>
      </trkpt>
      <trkpt lat="47.63568" lon="6.03299">
        <ele>218.52</ele>
        <time>2017-10-04T08:18:54Z</time>
      </trkpt>
      <trkpt lat="47.63563" lon="6.03292">
        <ele>218.47</ele>
        <time>2017-10-04T08:18:57Z</time>
      </trkpt>
      <trkpt lat="47.6356" lon="6.03286">
        <ele>218.44</ele>
        <time>2017-10-04T08:18:59Z</time>
      </trkpt>
      <trkpt lat="47.63556" lon="6.03279">
        <ele>218.4</ele>
        <time>2017-10-04T08:19:01Z</time>
      </trkpt>
      <trkpt lat="47.63552" lon="6.03271">
        <ele>218.37</ele>
        <time>2017-10-04T08:19:03Z</time>
      </trkpt>
      <trkpt lat="47.63548" lon="6.03264">
        <ele>218.32</ele>
        <time>2017-10-04T08:19:05Z</time>
      </trkpt>
      <trkpt lat="47.63545" lon="6.03257">
        <ele>218.28</ele>
        <time>2017-10-04T08:19:07Z</time>
      </trkpt>
      <trkpt lat="47.63542" lon="6.03247">
        <ele>218.23</ele>
        <time>2017-10-04T08:19:09Z</time>
      </trkpt>
      <trkpt lat="47.63538" lon="6.03241">
        <ele>218.18</ele>
        <time>2017-10-04T08:19:11Z</time>
      </trkpt>
      <trkpt lat="47.63534" lon="6.03231">
        <ele>218.13</ele>
        <time>2017-10-04T08:19:13Z</time>
      </trkpt>
      <trkpt lat="47.63531" lon="6.03225">
        <ele>218.08</ele>
        <time>2017-10-04T08:19:15Z</time>
      </trkpt>
      <trkpt lat="47.63528" lon="6.03217">
        <ele>218.02</ele>
        <time>2017-10-04T08:19:17Z</time>
      </trkpt>
      <trkpt lat="47.63525" lon="6.03208">
        <ele>217.97</ele>
        <time>2017-10-04T08:19:19Z</time>
      </trkpt>
      <trkpt lat="47.63522" lon="6.03198">
        <ele>217.92</ele>
        <time>2017-10-04T08:19:21Z</time>
      </trkpt>
      <trkpt lat="47.63519" lon="6.0319">
        <ele>217.86</ele>
        <time>2017-10-04T08:19:23Z</time>
      </trkpt>
      <trkpt lat="47.63516" lon="6.03181">
        <ele>217.81</ele>
        <time>2017-10-04T08:19:25Z</time>
      </trkpt>
      <trkpt lat="47.63512" lon="6.03173">
        <ele>217.76</ele>
        <time>2017-10-04T08:19:27Z</time>
      </trkpt>
      <trkpt lat="47.63505" lon="6.03167">
        <ele>217.72</ele>
        <time>2017-10-04T08:19:29Z</time>
      </trkpt>
      <trkpt lat="47.63499" lon="6.03161">
        <ele>217.68</ele>
        <time>2017-10-04T08:19:31Z</time>
      </trkpt>
      <trkpt lat="47.63493" lon="6.03156">
        <ele>217.64</ele>
        <time>2017-10-04T08:19:33Z</time>
      </trkpt>
      <trkpt lat="47.63487" lon="6.03151">
        <ele>217.61</ele>
        <time>2017-10-04T08:19:35Z</time>
      </trkpt>
      <trkpt lat="47.63482" lon="6.03147">
        <ele>217.57</ele>
        <time>2017-10-04T08:19:37Z</time>
      </trkpt>
      <trkpt lat="47.63475" lon="6.03142">
        <ele>217.54</ele>
        <time>2017-10-04T08:19:39Z</time>
      </trkpt>
      <trkpt lat="47.63469" lon="6.03139">
        <ele>217.51</ele>
        <time>2017-10-04T08:19:41Z</time>
      </trkpt>
      <trkpt lat="47.63463" lon="6.03135">
        <ele>217.49</ele>
        <time>2017-10-04T08:19:43Z</time>
      </trkpt>
      <trkpt lat="47.63458" lon="6.03131">
        <ele>217.46</ele>
        <time>2017-10-04T08:19:45Z</time>
      </trkpt>
      <trkpt lat="47.63451" lon="6.03128">
        <ele>217.45</ele>
        <time>2017-10-04T08:19:47Z</time>
      </trkpt>
      <trkpt lat="47.63446" lon="6.03124">
        <ele>217.43</ele>
        <time>2017-10-04T08:19:49Z</time>
      </trkpt>
      <trkpt lat="47.6344" lon="6.0312">
        <ele>217.41</ele>
        <time>2017-10-04T08:19:51Z</time>
      </trkpt>
      <trkpt lat="47.63435" lon="6.03116">
        <ele>217.41</ele>
        <time>2017-10-04T08:19:53Z</time>
      </trkpt>
      <trkpt lat="47.6343" lon="6.03112">
        <ele>217.4</ele>
        <time>2017-10-04T08:19:55Z</time>
      </trkpt>
      <trkpt lat="47.63425" lon="6.03109">
        <ele>217.4</ele>
        <time>2017-10-04T08:19:57Z</time>
      </trkpt>
      <trkpt lat="47.6342" lon="6.03106">
        <ele>217.39</ele>
        <time>2017-10-04T08:19:59Z</time>
      </trkpt>
      <trkpt lat="47.63414" lon="6.03101">
        <ele>217.4</ele>
        <time>2017-10-04T08:20:01Z</time>
      </trkpt>
      <trkpt lat="47.63408" lon="6.03097">
        <ele>217.4</ele>
        <time>2017-10-04T08:20:03Z</time>
      </trkpt>
      <trkpt lat="47.63403" lon="6.03092">
        <ele>217.41</ele>
        <time>2017-10-04T08:20:05Z</time>
      </trkpt>
      <trkpt lat="47.63397" lon="6.03089">
        <ele>217.42</ele>
        <time>2017-10-04T08:20:07Z</time>
      </trkpt>
      <trkpt lat="47.63391" lon="6.03086">
        <ele>217.44</ele>
        <time>2017-10-04T08:20:09Z</time>
      </trkpt>
      <trkpt lat="47.63385" lon="6.03082">
        <ele>217.46</ele>
        <time>2017-10-04T08:20:11Z</time>
      </trkpt>
      <trkpt lat="47.63379" lon="6.03078">
        <ele>217.49</ele>
        <time>2017-10-04T08:20:13Z</time>
      </trkpt>
      <trkpt lat="47.63372" lon="6.03074">
        <ele>217.51</ele>
        <time>2017-10-04T08:20:15Z</time>
      </trkpt>
      <trkpt lat="47.63365" lon="6.03069">
        <ele>217.54</ele>
        <time>2017-10-04T08:20:17Z</time>
      </trkpt>
      <trkpt lat="47.6336" lon="6.03065">
        <ele>217.57</ele>
        <time>2017-10-04T08:20:19Z</time>
      </trkpt>
      <trkpt lat="47.63355" lon="6.03061">
        <ele>217.61</ele>
        <time>2017-10-04T08:20:21Z</time>
      </trkpt>
      <trkpt lat="47.63349" lon="6.03057">
        <ele>217.64</ele>
        <time>2017-10-04T08:20:23Z</time>
      </trkpt>
      <trkpt lat="47.63343" lon="6.03054">
        <ele>217.68</ele>
        <time>2017-10-04T08:20:25Z</time>
      </trkpt>
      <trkpt lat="47.63337" lon="6.0305">
        <ele>217.73</ele>
        <time>2017-10-04T08:20:27Z</time>
      </trkpt>
      <trkpt lat="47.63331" lon="6.03046">
        <ele>217.77</ele>
        <time>2017-10-04T08:20:29Z</time>
      </trkpt>
      <trkpt lat="47.63325" lon="6.03042">
        <ele>217.82</ele>
        <time>2017-10-04T08:20:31Z</time>
      </trkpt>
      <trkpt lat="47.63319" lon="6.03038">
        <ele>217.87</ele>
        <time>2017-10-04T08:20:33Z</time>
      </trkpt>
      <trkpt lat="47.63313" lon="6.03034">
        <ele>217.93</ele>
        <time>2017-10-04T08:20:35Z</time>
      </trkpt>
      <trkpt lat="47.63306" lon="6.0303">
        <ele>217.98</ele>
        <time>2017-10-04T08:20:37Z</time>
      </trkpt>
      <trkpt lat="47.633" lon="6.03027">
        <ele>218.04</ele>
        <time>2017-10-04T08:20:39Z</time>
      </trkpt>
      <trkpt lat="47.63293" lon="6.03024">
        <ele>218.1</ele>
        <time>2017-10-04T08:20:41Z</time>
      </trkpt>
      <trkpt lat="47.63287" lon="6.03021">
        <ele>218.15</ele>
        <time>2017-10-04T08:20:43Z</time>
      </trkpt>
      <trkpt lat="47.6328" lon="6.0302">
        <ele>218.21</ele>
        <time>2017-10-04T08:20:45Z</time>
      </trkpt>
      <trkpt lat="47.63274" lon="6.03018">
        <ele>218.26</ele>
        <time>2017-10-04T08:20:47Z</time>
      </trkpt>
      <trkpt lat="47.63271" lon="6.03013">
        <ele>218.32</ele>
        <time>2017-10-04T08:20:49Z</time>
      </trkpt>
      <trkpt lat="47.63266" lon="6.03009">
        <ele>218.37</ele>
        <time>2017-10-04T08:20:51Z</time>
      </trkpt>
      <trkpt lat="47.6326" lon="6.03005">
        <ele>218.43</ele>
        <time>2017-10-04T08:20:53Z</time>
      </trkpt>
      <trkpt lat="47.63256" lon="6.03002">
        <ele>218.48</ele>
        <time>2017-10-04T08:20:55Z</time>
      </trkpt>
      <trkpt lat="47.6325" lon="6.02998">
        <ele>218.54</ele>
        <time>2017-10-04T08:20:57Z</time>
      </trkpt>
      <trkpt lat="47.63243" lon="6.02994">
        <ele>218.6</ele>
        <time>2017-10-04T08:20:59Z</time>
      </trkpt>
      <trkpt lat="47.63235" lon="6.0299">
        <ele>218.65</ele>
        <time>2017-10-04T08:21:01Z</time>
      </trkpt>
      <trkpt lat="47.63229" lon="6.02985">
        <ele>218.96</ele>
        <time>2017-10-04T08:21:03Z</time>
      </trkpt>
      <trkpt lat="47.63221" lon="6.0298">
        <ele>219.39</ele>
        <time>2017-10-04T08:21:05Z</time>
      </trkpt>
      <trkpt lat="47.63213" lon="6.02975">
        <ele>219.74</ele>
        <time>2017-10-04T08:21:07Z</time>
      </trkpt>
      <trkpt lat="47.63206" lon="6.02971">
        <ele>220.01</ele>
        <time>2017-10-04T08:21:09Z</time>
      </trkpt>
      <trkpt lat="47.63201" lon="6.02968">
        <ele>220.11</ele>
        <time>2017-10-04T08:21:10Z</time>
      </trkpt>
      <trkpt lat="47.63194" lon="6.02964">
        <ele>220.27</ele>
        <time>2017-10-04T08:21:12Z</time>
      </trkpt>
      <trkpt lat="47.6319" lon="6.02962">
        <ele>220.34</ele>
        <time>2017-10-04T08:21:13Z</time>
      </trkpt>
      <trkpt lat="47.63182" lon="6.02958">
        <ele>220.46</ele>
        <time>2017-10-04T08:21:15Z</time>
      </trkpt>
      <trkpt lat="47.63175" lon="6.02953">
        <ele>220.56</ele>
        <time>2017-10-04T08:21:17Z</time>
      </trkpt>
      <trkpt lat="47.63167" lon="6.02948">
        <ele>220.65</ele>
        <time>2017-10-04T08:21:19Z</time>
      </trkpt>
      <trkpt lat="47.63159" lon="6.02944">
        <ele>220.73</ele>
        <time>2017-10-04T08:21:21Z</time>
      </trkpt>
      <trkpt lat="47.63152" lon="6.0294">
        <ele>220.79</ele>
        <time>2017-10-04T08:21:23Z</time>
      </trkpt>
      <trkpt lat="47.63144" lon="6.02936">
        <ele>220.85</ele>
        <time>2017-10-04T08:21:25Z</time>
      </trkpt>
      <trkpt lat="47.63137" lon="6.02931">
        <ele>220.91</ele>
        <time>2017-10-04T08:21:27Z</time>
      </trkpt>
      <trkpt lat="47.63129" lon="6.02927">
        <ele>220.97</ele>
        <time>2017-10-04T08:21:29Z</time>
      </trkpt>
      <trkpt lat="47.63121" lon="6.02923">
        <ele>221.03</ele>
        <time>2017-10-04T08:21:31Z</time>
      </trkpt>
      <trkpt lat="47.63114" lon="6.02918">
        <ele>221.09</ele>
        <time>2017-10-04T08:21:33Z</time>
      </trkpt>
      <trkpt lat="47.63107" lon="6.02913">
        <ele>221.14</ele>
        <time>2017-10-04T08:21:35Z</time>
      </trkpt>
      <trkpt lat="47.631" lon="6.02909">
        <ele>221.19</ele>
        <time>2017-10-04T08:21:37Z</time>
      </trkpt>
      <trkpt lat="47.63092" lon="6.02905">
        <ele>221.24</ele>
        <time>2017-10-04T08:21:39Z</time>
      </trkpt>
      <trkpt lat="47.63084" lon="6.029">
        <ele>221.28</ele>
        <time>2017-10-04T08:21:41Z</time>
      </trkpt>
      <trkpt lat="47.63077" lon="6.02896">
        <ele>221.33</ele>
        <time>2017-10-04T08:21:43Z</time>
      </trkpt>
      <trkpt lat="47.63069" lon="6.0289">
        <ele>221.39</ele>
        <time>2017-10-04T08:21:45Z</time>
      </trkpt>
      <trkpt lat="47.63062" lon="6.02885">
        <ele>221.46</ele>
        <time>2017-10-04T08:21:47Z</time>
      </trkpt>
      <trkpt lat="47.63056" lon="6.02879">
        <ele>221.53</ele>
        <time>2017-10-04T08:21:49Z</time>
      </trkpt>
      <trkpt lat="47.6305" lon="6.02872">
        <ele>221.59</ele>
        <time>2017-10-04T08:21:51Z</time>
      </trkpt>
      <trkpt lat="47.63043" lon="6.02866">
        <ele>221.65</ele>
        <time>2017-10-04T08:21:53Z</time>
      </trkpt>
      <trkpt lat="47.63037" lon="6.0286">
        <ele>221.67</ele>
        <time>2017-10-04T08:21:55Z</time>
      </trkpt>
      <trkpt lat="47.63033" lon="6.02854">
        <ele>221.68</ele>
        <time>2017-10-04T08:21:57Z</time>
      </trkpt>
      <trkpt lat="47.63028" lon="6.02848">
        <ele>221.69</ele>
        <time>2017-10-04T08:21:59Z</time>
      </trkpt>
      <trkpt lat="47.63021" lon="6.02841">
        <ele>221.75</ele>
        <time>2017-10-04T08:22:01Z</time>
      </trkpt>
      <trkpt lat="47.63016" lon="6.02833">
        <ele>221.81</ele>
        <time>2017-10-04T08:22:03Z</time>
      </trkpt>
      <trkpt lat="47.63011" lon="6.02824">
        <ele>221.84</ele>
        <time>2017-10-04T08:22:05Z</time>
      </trkpt>
      <trkpt lat="47.63006" lon="6.02816">
        <ele>221.85</ele>
        <time>2017-10-04T08:22:07Z</time>
      </trkpt>
      <trkpt lat="47.63" lon="6.02809">
        <ele>221.86</ele>
        <time>2017-10-04T08:22:09Z</time>
      </trkpt>
      <trkpt lat="47.62995" lon="6.02804">
        <ele>221.87</ele>
        <time>2017-10-04T08:22:11Z</time>
      </trkpt>
      <trkpt lat="47.6299" lon="6.02799">
        <ele>221.89</ele>
        <time>2017-10-04T08:22:14Z</time>
      </trkpt>
      <trkpt lat="47.62985" lon="6.02796">
        <ele>221.92</ele>
        <time>2017-10-04T08:22:17Z</time>
      </trkpt>
      <trkpt lat="47.62981" lon="6.02792">
        <ele>221.99</ele>
        <time>2017-10-04T08:22:25Z</time>
      </trkpt>
      <trkpt lat="47.62977" lon="6.0279">
        <ele>222.01</ele>
        <time>2017-10-04T08:22:27Z</time>
      </trkpt>
      <trkpt lat="47.62971" lon="6.02788">
        <ele>222.03</ele>
        <time>2017-10-04T08:22:29Z</time>
      </trkpt>
      <trkpt lat="47.62966" lon="6.02783">
        <ele>222.06</ele>
        <time>2017-10-04T08:22:31Z</time>
      </trkpt>
      <trkpt lat="47.62964" lon="6.02777">
        <ele>222.08</ele>
        <time>2017-10-04T08:22:33Z</time>
      </trkpt>
      <trkpt lat="47.62961" lon="6.0277">
        <ele>222.1</ele>
        <time>2017-10-04T08:22:35Z</time>
      </trkpt>
      <trkpt lat="47.62959" lon="6.02763">
        <ele>222.12</ele>
        <time>2017-10-04T08:22:37Z</time>
      </trkpt>
      <trkpt lat="47.62957" lon="6.02754">
        <ele>222.15</ele>
        <time>2017-10-04T08:22:40Z</time>
      </trkpt>
      <trkpt lat="47.62955" lon="6.02747">
        <ele>222.17</ele>
        <time>2017-10-04T08:22:42Z</time>
      </trkpt>
      <trkpt lat="47.62953" lon="6.02741">
        <ele>222.2</ele>
        <time>2017-10-04T08:22:45Z</time>
      </trkpt>
      <trkpt lat="47.62952" lon="6.02732">
        <ele>222.23</ele>
        <time>2017-10-04T08:22:49Z</time>
      </trkpt>
      <trkpt lat="47.6295" lon="6.02725">
        <ele>222.26</ele>
        <time>2017-10-04T08:22:52Z</time>
      </trkpt>
      <trkpt lat="47.62948" lon="6.02717">
        <ele>222.29</ele>
        <time>2017-10-04T08:22:55Z</time>
      </trkpt>
      <trkpt lat="47.62945" lon="6.02711">
        <ele>222.33</ele>
        <time>2017-10-04T08:22:58Z</time>
      </trkpt>
      <trkpt lat="47.6294" lon="6.02705">
        <ele>222.38</ele>
        <time>2017-10-04T08:23:02Z</time>
      </trkpt>
      <trkpt lat="47.62935" lon="6.027">
        <ele>222.43</ele>
        <time>2017-10-04T08:23:05Z</time>
      </trkpt>
      <trkpt lat="47.62929" lon="6.02694">
        <ele>222.48</ele>
        <time>2017-10-04T08:23:08Z</time>
      </trkpt>
      <trkpt lat="47.62926" lon="6.0269">
        <ele>222.52</ele>
        <time>2017-10-04T08:23:10Z</time>
      </trkpt>
      <trkpt lat="47.62922" lon="6.02685">
        <ele>222.56</ele>
        <time>2017-10-04T08:23:12Z</time>
      </trkpt>
      <trkpt lat="47.62917" lon="6.0268">
        <ele>222.63</ele>
        <time>2017-10-04T08:23:15Z</time>
      </trkpt>
      <trkpt lat="47.62912" lon="6.02676">
        <ele>222.71</ele>
        <time>2017-10-04T08:23:18Z</time>
      </trkpt>
      <trkpt lat="47.62908" lon="6.02672">
        <ele>222.8</ele>
        <time>2017-10-04T08:23:21Z</time>
      </trkpt>
      <trkpt lat="47.62903" lon="6.02668">
        <ele>222.91</ele>
        <time>2017-10-04T08:23:25Z</time>
      </trkpt>
      <trkpt lat="47.62899" lon="6.02664">
        <ele>223.03</ele>
        <time>2017-10-04T08:23:29Z</time>
      </trkpt>
      <trkpt lat="47.62894" lon="6.02658">
        <ele>223.12</ele>
        <time>2017-10-04T08:23:32Z</time>
      </trkpt>
      <trkpt lat="47.62889" lon="6.02652">
        <ele>223.21</ele>
        <time>2017-10-04T08:23:35Z</time>
      </trkpt>
      <trkpt lat="47.62884" lon="6.02648">
        <ele>223.31</ele>
        <time>2017-10-04T08:23:38Z</time>
      </trkpt>
      <trkpt lat="47.62878" lon="6.02642">
        <ele>223.41</ele>
        <time>2017-10-04T08:23:41Z</time>
      </trkpt>
      <trkpt lat="47.62874" lon="6.02638">
        <ele>223.48</ele>
        <time>2017-10-04T08:23:43Z</time>
      </trkpt>
      <trkpt lat="47.6287" lon="6.02633">
        <ele>223.56</ele>
        <time>2017-10-04T08:23:45Z</time>
      </trkpt>
      <trkpt lat="47.62866" lon="6.02627">
        <ele>223.63</ele>
        <time>2017-10-04T08:23:47Z</time>
      </trkpt>
      <trkpt lat="47.62862" lon="6.02623">
        <ele>223.71</ele>
        <time>2017-10-04T08:23:49Z</time>
      </trkpt>
      <trkpt lat="47.62859" lon="6.02617">
        <ele>223.83</ele>
        <time>2017-10-04T08:23:52Z</time>
      </trkpt>
      <trkpt lat="47.62855" lon="6.02612">
        <ele>223.91</ele>
        <time>2017-10-04T08:23:54Z</time>
      </trkpt>
      <trkpt lat="47.62849" lon="6.02607">
        <ele>224.03</ele>
        <time>2017-10-04T08:23:57Z</time>
      </trkpt>
      <trkpt lat="47.62845" lon="6.02603">
        <ele>224.11</ele>
        <time>2017-10-04T08:23:59Z</time>
      </trkpt>
      <trkpt lat="47.6284" lon="6.02599">
        <ele>224.19</ele>
        <time>2017-10-04T08:24:01Z</time>
      </trkpt>
      <trkpt lat="47.62836" lon="6.02594">
        <ele>224.28</ele>
        <time>2017-10-04T08:24:03Z</time>
      </trkpt>
      <trkpt lat="47.62831" lon="6.02589">
        <ele>224.37</ele>
        <time>2017-10-04T08:24:05Z</time>
      </trkpt>
      <trkpt lat="47.62825" lon="6.02584">
        <ele>224.46</ele>
        <time>2017-10-04T08:24:07Z</time>
      </trkpt>
      <trkpt lat="47.62821" lon="6.02578">
        <ele>224.56</ele>
        <time>2017-10-04T08:24:09Z</time>
      </trkpt>
      <trkpt lat="47.62815" lon="6.02572">
        <ele>224.7</ele>
        <time>2017-10-04T08:24:12Z</time>
      </trkpt>
      <trkpt lat="47.6281" lon="6.02568">
        <ele>224.8</ele>
        <time>2017-10-04T08:24:14Z</time>
      </trkpt>
      <trkpt lat="47.62806" lon="6.02564">
        <ele>224.89</ele>
        <time>2017-10-04T08:24:16Z</time>
      </trkpt>
      <trkpt lat="47.628" lon="6.02559">
        <ele>224.98</ele>
        <time>2017-10-04T08:24:18Z</time>
      </trkpt>
      <trkpt lat="47.62794" lon="6.02554">
        <ele>225.68</ele>
        <time>2017-10-04T08:24:20Z</time>
      </trkpt>
      <trkpt lat="47.6279" lon="6.0255">
        <ele>226</ele>
        <time>2017-10-04T08:24:21Z</time>
      </trkpt>
      <trkpt lat="47.62783" lon="6.02545">
        <ele>226.5</ele>
        <time>2017-10-04T08:24:23Z</time>
      </trkpt>
      <trkpt lat="47.62776" lon="6.0254">
        <ele>226.84</ele>
        <time>2017-10-04T08:24:25Z</time>
      </trkpt>
      <trkpt lat="47.6277" lon="6.02534">
        <ele>227.08</ele>
        <time>2017-10-04T08:24:27Z</time>
      </trkpt>
      <trkpt lat="47.62763" lon="6.0253">
        <ele>227.25</ele>
        <time>2017-10-04T08:24:29Z</time>
      </trkpt>
      <trkpt lat="47.62758" lon="6.02527">
        <ele>227.32</ele>
        <time>2017-10-04T08:24:30Z</time>
      </trkpt>
      <trkpt lat="47.62754" lon="6.02524">
        <ele>227.37</ele>
        <time>2017-10-04T08:24:31Z</time>
      </trkpt>
      <trkpt lat="47.62746" lon="6.02518">
        <ele>227.47</ele>
        <time>2017-10-04T08:24:33Z</time>
      </trkpt>
      <trkpt lat="47.62742" lon="6.02515">
        <ele>227.52</ele>
        <time>2017-10-04T08:24:34Z</time>
      </trkpt>
      <trkpt lat="47.62737" lon="6.02513">
        <ele>227.56</ele>
        <time>2017-10-04T08:24:35Z</time>
      </trkpt>
      <trkpt lat="47.62733" lon="6.0251">
        <ele>227.6</ele>
        <time>2017-10-04T08:24:36Z</time>
      </trkpt>
      <trkpt lat="47.62728" lon="6.02507">
        <ele>227.64</ele>
        <time>2017-10-04T08:24:37Z</time>
      </trkpt>
      <trkpt lat="47.62723" lon="6.02504">
        <ele>227.68</ele>
        <time>2017-10-04T08:24:38Z</time>
      </trkpt>
      <trkpt lat="47.62718" lon="6.02502">
        <ele>227.72</ele>
        <time>2017-10-04T08:24:39Z</time>
      </trkpt>
      <trkpt lat="47.62713" lon="6.025">
        <ele>227.76</ele>
        <time>2017-10-04T08:24:40Z</time>
      </trkpt>
      <trkpt lat="47.62708" lon="6.02498">
        <ele>227.8</ele>
        <time>2017-10-04T08:24:41Z</time>
      </trkpt>
      <trkpt lat="47.62703" lon="6.02496">
        <ele>227.84</ele>
        <time>2017-10-04T08:24:42Z</time>
      </trkpt>
      <trkpt lat="47.62698" lon="6.02494">
        <ele>227.88</ele>
        <time>2017-10-04T08:24:43Z</time>
      </trkpt>
      <trkpt lat="47.62694" lon="6.02491">
        <ele>227.92</ele>
        <time>2017-10-04T08:24:44Z</time>
      </trkpt>
      <trkpt lat="47.62689" lon="6.02489">
        <ele>227.96</ele>
        <time>2017-10-04T08:24:45Z</time>
      </trkpt>
      <trkpt lat="47.62684" lon="6.02488">
        <ele>228</ele>
        <time>2017-10-04T08:24:46Z</time>
      </trkpt>
      <trkpt lat="47.62676" lon="6.02486">
        <ele>228.07</ele>
        <time>2017-10-04T08:24:48Z</time>
      </trkpt>
      <trkpt lat="47.62668" lon="6.02481">
        <ele>228.14</ele>
        <time>2017-10-04T08:24:50Z</time>
      </trkpt>
      <trkpt lat="47.62661" lon="6.02477">
        <ele>228.18</ele>
        <time>2017-10-04T08:24:52Z</time>
      </trkpt>
      <trkpt lat="47.62655" lon="6.02472">
        <ele>228.19</ele>
        <time>2017-10-04T08:24:54Z</time>
      </trkpt>
      <trkpt lat="47.62648" lon="6.02467">
        <ele>228.2</ele>
        <time>2017-10-04T08:24:56Z</time>
      </trkpt>
      <trkpt lat="47.62641" lon="6.02461">
        <ele>228.21</ele>
        <time>2017-10-04T08:24:58Z</time>
      </trkpt>
      <trkpt lat="47.62635" lon="6.02456">
        <ele>228.22</ele>
        <time>2017-10-04T08:25:00Z</time>
      </trkpt>
      <trkpt lat="47.62629" lon="6.02451">
        <ele>228.23</ele>
        <time>2017-10-04T08:25:02Z</time>
      </trkpt>
      <trkpt lat="47.62623" lon="6.02446">
        <ele>228.29</ele>
        <time>2017-10-04T08:25:04Z</time>
      </trkpt>
      <trkpt lat="47.62615" lon="6.0244">
        <ele>228.39</ele>
        <time>2017-10-04T08:25:06Z</time>
      </trkpt>
      <trkpt lat="47.62611" lon="6.02436">
        <ele>228.44</ele>
        <time>2017-10-04T08:25:07Z</time>
      </trkpt>
      <trkpt lat="47.62603" lon="6.0243">
        <ele>228.52</ele>
        <time>2017-10-04T08:25:09Z</time>
      </trkpt>
      <trkpt lat="47.62597" lon="6.02423">
        <ele>228.57</ele>
        <time>2017-10-04T08:25:11Z</time>
      </trkpt>
      <trkpt lat="47.62591" lon="6.02418">
        <ele>228.58</ele>
        <time>2017-10-04T08:25:13Z</time>
      </trkpt>
      <trkpt lat="47.62586" lon="6.02414">
        <ele>228.59</ele>
        <time>2017-10-04T08:25:15Z</time>
      </trkpt>
      <trkpt lat="47.62582" lon="6.02411">
        <ele>228.6</ele>
        <time>2017-10-04T08:25:17Z</time>
      </trkpt>
      <trkpt lat="47.62577" lon="6.02406">
        <ele>228.61</ele>
        <time>2017-10-04T08:25:19Z</time>
      </trkpt>
      <trkpt lat="47.62572" lon="6.02401">
        <ele>228.62</ele>
        <time>2017-10-04T08:25:21Z</time>
      </trkpt>
      <trkpt lat="47.62567" lon="6.02395">
        <ele>228.64</ele>
        <time>2017-10-04T08:25:23Z</time>
      </trkpt>
      <trkpt lat="47.62561" lon="6.0239">
        <ele>228.65</ele>
        <time>2017-10-04T08:25:25Z</time>
      </trkpt>
      <trkpt lat="47.62556" lon="6.02385">
        <ele>228.67</ele>
        <time>2017-10-04T08:25:27Z</time>
      </trkpt>
      <trkpt lat="47.62552" lon="6.02381">
        <ele>228.69</ele>
        <time>2017-10-04T08:25:29Z</time>
      </trkpt>
      <trkpt lat="47.62547" lon="6.02376">
        <ele>228.71</ele>
        <time>2017-10-04T08:25:31Z</time>
      </trkpt>
      <trkpt lat="47.62542" lon="6.02371">
        <ele>228.74</ele>
        <time>2017-10-04T08:25:33Z</time>
      </trkpt>
      <trkpt lat="47.62537" lon="6.02365">
        <ele>228.76</ele>
        <time>2017-10-04T08:25:35Z</time>
      </trkpt>
      <trkpt lat="47.62531" lon="6.02359">
        <ele>228.78</ele>
        <time>2017-10-04T08:25:37Z</time>
      </trkpt>
      <trkpt lat="47.62526" lon="6.02353">
        <ele>228.81</ele>
        <time>2017-10-04T08:25:39Z</time>
      </trkpt>
      <trkpt lat="47.62521" lon="6.02346">
        <ele>228.83</ele>
        <time>2017-10-04T08:25:41Z</time>
      </trkpt>
      <trkpt lat="47.62516" lon="6.02339">
        <ele>228.86</ele>
        <time>2017-10-04T08:25:43Z</time>
      </trkpt>
      <trkpt lat="47.6251" lon="6.02332">
        <ele>228.89</ele>
        <time>2017-10-04T08:25:45Z</time>
      </trkpt>
      <trkpt lat="47.62504" lon="6.02325">
        <ele>228.92</ele>
        <time>2017-10-04T08:25:47Z</time>
      </trkpt>
      <trkpt lat="47.62499" lon="6.02316">
        <ele>228.95</ele>
        <time>2017-10-04T08:25:49Z</time>
      </trkpt>
      <trkpt lat="47.62493" lon="6.02309">
        <ele>228.98</ele>
        <time>2017-10-04T08:25:51Z</time>
      </trkpt>
      <trkpt lat="47.62488" lon="6.02302">
        <ele>229.01</ele>
        <time>2017-10-04T08:25:53Z</time>
      </trkpt>
      <trkpt lat="47.62483" lon="6.02295">
        <ele>229.04</ele>
        <time>2017-10-04T08:25:55Z</time>
      </trkpt>
      <trkpt lat="47.62478" lon="6.02289">
        <ele>229.08</ele>
        <time>2017-10-04T08:25:57Z</time>
      </trkpt>
      <trkpt lat="47.62473" lon="6.02282">
        <ele>229.11</ele>
        <time>2017-10-04T08:25:59Z</time>
      </trkpt>
      <trkpt lat="47.62468" lon="6.02276">
        <ele>229.15</ele>
        <time>2017-10-04T08:26:01Z</time>
      </trkpt>
      <trkpt lat="47.62462" lon="6.02268">
        <ele>229.18</ele>
        <time>2017-10-04T08:26:03Z</time>
      </trkpt>
      <trkpt lat="47.62458" lon="6.02262">
        <ele>229.21</ele>
        <time>2017-10-04T08:26:05Z</time>
      </trkpt>
      <trkpt lat="47.62453" lon="6.02255">
        <ele>229.25</ele>
        <time>2017-10-04T08:26:07Z</time>
      </trkpt>
      <trkpt lat="47.62448" lon="6.02249">
        <ele>229.29</ele>
        <time>2017-10-04T08:26:09Z</time>
      </trkpt>
      <trkpt lat="47.62443" lon="6.02244">
        <ele>229.33</ele>
        <time>2017-10-04T08:26:11Z</time>
      </trkpt>
      <trkpt lat="47.62437" lon="6.02237">
        <ele>229.37</ele>
        <time>2017-10-04T08:26:13Z</time>
      </trkpt>
      <trkpt lat="47.62432" lon="6.02229">
        <ele>229.41</ele>
        <time>2017-10-04T08:26:15Z</time>
      </trkpt>
      <trkpt lat="47.62427" lon="6.02222">
        <ele>229.73</ele>
        <time>2017-10-04T08:26:17Z</time>
      </trkpt>
      <trkpt lat="47.6242" lon="6.02214">
        <ele>230.01</ele>
        <time>2017-10-04T08:26:19Z</time>
      </trkpt>
      <trkpt lat="47.62414" lon="6.02205">
        <ele>230.2</ele>
        <time>2017-10-04T08:26:21Z</time>
      </trkpt>
      <trkpt lat="47.6241" lon="6.022">
        <ele>230.27</ele>
        <time>2017-10-04T08:26:22Z</time>
      </trkpt>
      <trkpt lat="47.62406" lon="6.02196">
        <ele>230.33</ele>
        <time>2017-10-04T08:26:23Z</time>
      </trkpt>
      <trkpt lat="47.62402" lon="6.02191">
        <ele>230.37</ele>
        <time>2017-10-04T08:26:24Z</time>
      </trkpt>
      <trkpt lat="47.62396" lon="6.02183">
        <ele>230.44</ele>
        <time>2017-10-04T08:26:26Z</time>
      </trkpt>
      <trkpt lat="47.62389" lon="6.02175">
        <ele>230.51</ele>
        <time>2017-10-04T08:26:28Z</time>
      </trkpt>
      <trkpt lat="47.62385" lon="6.02171">
        <ele>230.54</ele>
        <time>2017-10-04T08:26:29Z</time>
      </trkpt>
      <trkpt lat="47.62382" lon="6.02167">
        <ele>230.57</ele>
        <time>2017-10-04T08:26:30Z</time>
      </trkpt>
      <trkpt lat="47.62378" lon="6.02163">
        <ele>230.6</ele>
        <time>2017-10-04T08:26:31Z</time>
      </trkpt>
      <trkpt lat="47.62373" lon="6.02158">
        <ele>230.63</ele>
        <time>2017-10-04T08:26:32Z</time>
      </trkpt>
      <trkpt lat="47.62369" lon="6.02155">
        <ele>230.65</ele>
        <time>2017-10-04T08:26:33Z</time>
      </trkpt>
      <trkpt lat="47.62365" lon="6.02151">
        <ele>230.67</ele>
        <time>2017-10-04T08:26:34Z</time>
      </trkpt>
      <trkpt lat="47.6236" lon="6.02146">
        <ele>230.69</ele>
        <time>2017-10-04T08:26:35Z</time>
      </trkpt>
      <trkpt lat="47.62356" lon="6.02143">
        <ele>230.71</ele>
        <time>2017-10-04T08:26:36Z</time>
      </trkpt>
      <trkpt lat="47.62352" lon="6.0214">
        <ele>230.73</ele>
        <time>2017-10-04T08:26:37Z</time>
      </trkpt>
      <trkpt lat="47.62348" lon="6.02136">
        <ele>230.75</ele>
        <time>2017-10-04T08:26:38Z</time>
      </trkpt>
      <trkpt lat="47.6234" lon="6.0213">
        <ele>230.79</ele>
        <time>2017-10-04T08:26:40Z</time>
      </trkpt>
      <trkpt lat="47.62336" lon="6.02126">
        <ele>230.8</ele>
        <time>2017-10-04T08:26:41Z</time>
      </trkpt>
      <trkpt lat="47.62331" lon="6.02122">
        <ele>230.82</ele>
        <time>2017-10-04T08:26:42Z</time>
      </trkpt>
      <trkpt lat="47.62324" lon="6.02115">
        <ele>230.85</ele>
        <time>2017-10-04T08:26:44Z</time>
      </trkpt>
      <trkpt lat="47.6232" lon="6.02112">
        <ele>230.87</ele>
        <time>2017-10-04T08:26:45Z</time>
      </trkpt>
      <trkpt lat="47.62315" lon="6.02108">
        <ele>230.89</ele>
        <time>2017-10-04T08:26:46Z</time>
      </trkpt>
      <trkpt lat="47.62308" lon="6.02101">
        <ele>230.92</ele>
        <time>2017-10-04T08:26:48Z</time>
      </trkpt>
      <trkpt lat="47.62304" lon="6.02097">
        <ele>230.94</ele>
        <time>2017-10-04T08:26:49Z</time>
      </trkpt>
      <trkpt lat="47.623" lon="6.02093">
        <ele>230.95</ele>
        <time>2017-10-04T08:26:50Z</time>
      </trkpt>
      <trkpt lat="47.62292" lon="6.02086">
        <ele>230.98</ele>
        <time>2017-10-04T08:26:52Z</time>
      </trkpt>
      <trkpt lat="47.62285" lon="6.0208">
        <ele>231.01</ele>
        <time>2017-10-04T08:26:54Z</time>
      </trkpt>
      <trkpt lat="47.62278" lon="6.02073">
        <ele>231.04</ele>
        <time>2017-10-04T08:26:56Z</time>
      </trkpt>
      <trkpt lat="47.6227" lon="6.02066">
        <ele>231.08</ele>
        <time>2017-10-04T08:26:58Z</time>
      </trkpt>
      <trkpt lat="47.62263" lon="6.02059">
        <ele>231.12</ele>
        <time>2017-10-04T08:27:00Z</time>
      </trkpt>
      <trkpt lat="47.62256" lon="6.02052">
        <ele>231.16</ele>
        <time>2017-10-04T08:27:02Z</time>
      </trkpt>
      <trkpt lat="47.6225" lon="6.02045">
        <ele>231.21</ele>
        <time>2017-10-04T08:27:04Z</time>
      </trkpt>
      <trkpt lat="47.62243" lon="6.02038">
        <ele>231.25</ele>
        <time>2017-10-04T08:27:06Z</time>
      </trkpt>
      <trkpt lat="47.62236" lon="6.02031">
        <ele>231.29</ele>
        <time>2017-10-04T08:27:08Z</time>
      </trkpt>
      <trkpt lat="47.62229" lon="6.02024">
        <ele>231.33</ele>
        <time>2017-10-04T08:27:10Z</time>
      </trkpt>
      <trkpt lat="47.62222" lon="6.02017">
        <ele>231.37</ele>
        <time>2017-10-04T08:27:12Z</time>
      </trkpt>
      <trkpt lat="47.62215" lon="6.02009">
        <ele>231.42</ele>
        <time>2017-10-04T08:27:14Z</time>
      </trkpt>
      <trkpt lat="47.62209" lon="6.02001">
        <ele>231.46</ele>
        <time>2017-10-04T08:27:16Z</time>
      </trkpt>
      <trkpt lat="47.62203" lon="6.01994">
        <ele>231.51</ele>
        <time>2017-10-04T08:27:18Z</time>
      </trkpt>
      <trkpt lat="47.62196" lon="6.01987">
        <ele>231.54</ele>
        <time>2017-10-04T08:27:20Z</time>
      </trkpt>
      <trkpt lat="47.6219" lon="6.01979">
        <ele>231.58</ele>
        <time>2017-10-04T08:27:22Z</time>
      </trkpt>
      <trkpt lat="47.62184" lon="6.01974">
        <ele>231.59</ele>
        <time>2017-10-04T08:27:24Z</time>
      </trkpt>
      <trkpt lat="47.62178" lon="6.01966">
        <ele>231.59</ele>
        <time>2017-10-04T08:27:26Z</time>
      </trkpt>
      <trkpt lat="47.62172" lon="6.01959">
        <ele>231.64</ele>
        <time>2017-10-04T08:27:28Z</time>
      </trkpt>
      <trkpt lat="47.62166" lon="6.01953">
        <ele>231.65</ele>
        <time>2017-10-04T08:27:30Z</time>
      </trkpt>
      <trkpt lat="47.6216" lon="6.01948">
        <ele>231.65</ele>
        <time>2017-10-04T08:27:32Z</time>
      </trkpt>
      <trkpt lat="47.62156" lon="6.01941">
        <ele>231.66</ele>
        <time>2017-10-04T08:27:34Z</time>
      </trkpt>
      <trkpt lat="47.6215" lon="6.01934">
        <ele>231.67</ele>
        <time>2017-10-04T08:27:36Z</time>
      </trkpt>
      <trkpt lat="47.62145" lon="6.01927">
        <ele>231.68</ele>
        <time>2017-10-04T08:27:38Z</time>
      </trkpt>
      <trkpt lat="47.62141" lon="6.01921">
        <ele>231.69</ele>
        <time>2017-10-04T08:27:40Z</time>
      </trkpt>
      <trkpt lat="47.62135" lon="6.01913">
        <ele>231.7</ele>
        <time>2017-10-04T08:27:42Z</time>
      </trkpt>
      <trkpt lat="47.62131" lon="6.01908">
        <ele>231.71</ele>
        <time>2017-10-04T08:27:44Z</time>
      </trkpt>
      <trkpt lat="47.62126" lon="6.01901">
        <ele>231.72</ele>
        <time>2017-10-04T08:27:46Z</time>
      </trkpt>
      <trkpt lat="47.62121" lon="6.01896">
        <ele>231.74</ele>
        <time>2017-10-04T08:27:48Z</time>
      </trkpt>
      <trkpt lat="47.62117" lon="6.01891">
        <ele>231.75</ele>
        <time>2017-10-04T08:27:50Z</time>
      </trkpt>
      <trkpt lat="47.62113" lon="6.01885">
        <ele>231.78</ele>
        <time>2017-10-04T08:27:53Z</time>
      </trkpt>
      <trkpt lat="47.62108" lon="6.01879">
        <ele>231.86</ele>
        <time>2017-10-04T08:28:19Z</time>
      </trkpt>
      <trkpt lat="47.62103" lon="6.01874">
        <ele>231.9</ele>
        <time>2017-10-04T08:28:21Z</time>
      </trkpt>
      <trkpt lat="47.62097" lon="6.01869">
        <ele>231.94</ele>
        <time>2017-10-04T08:28:23Z</time>
      </trkpt>
      <trkpt lat="47.62092" lon="6.01864">
        <ele>231.98</ele>
        <time>2017-10-04T08:28:25Z</time>
      </trkpt>
      <trkpt lat="47.62089" lon="6.01859">
        <ele>232.02</ele>
        <time>2017-10-04T08:28:27Z</time>
      </trkpt>
      <trkpt lat="47.62084" lon="6.01852">
        <ele>232.06</ele>
        <time>2017-10-04T08:28:29Z</time>
      </trkpt>
      <trkpt lat="47.62079" lon="6.01845">
        <ele>232.1</ele>
        <time>2017-10-04T08:28:31Z</time>
      </trkpt>
      <trkpt lat="47.62074" lon="6.01838">
        <ele>232.15</ele>
        <time>2017-10-04T08:28:33Z</time>
      </trkpt>
      <trkpt lat="47.62068" lon="6.0183">
        <ele>232.2</ele>
        <time>2017-10-04T08:28:35Z</time>
      </trkpt>
      <trkpt lat="47.62062" lon="6.01822">
        <ele>232.25</ele>
        <time>2017-10-04T08:28:37Z</time>
      </trkpt>
      <trkpt lat="47.62056" lon="6.01815">
        <ele>232.31</ele>
        <time>2017-10-04T08:28:39Z</time>
      </trkpt>
      <trkpt lat="47.62051" lon="6.01808">
        <ele>232.36</ele>
        <time>2017-10-04T08:28:41Z</time>
      </trkpt>
      <trkpt lat="47.62046" lon="6.01801">
        <ele>232.42</ele>
        <time>2017-10-04T08:28:43Z</time>
      </trkpt>
      <trkpt lat="47.62041" lon="6.01795">
        <ele>232.47</ele>
        <time>2017-10-04T08:28:45Z</time>
      </trkpt>
      <trkpt lat="47.62036" lon="6.01787">
        <ele>232.53</ele>
        <time>2017-10-04T08:28:47Z</time>
      </trkpt>
      <trkpt lat="47.6203" lon="6.01781">
        <ele>232.59</ele>
        <time>2017-10-04T08:28:49Z</time>
      </trkpt>
      <trkpt lat="47.62024" lon="6.01773">
        <ele>232.83</ele>
        <time>2017-10-04T08:28:51Z</time>
      </trkpt>
      <trkpt lat="47.62018" lon="6.01765">
        <ele>233.27</ele>
        <time>2017-10-04T08:28:53Z</time>
      </trkpt>
      <trkpt lat="47.62012" lon="6.01756">
        <ele>233.5</ele>
        <time>2017-10-04T08:28:55Z</time>
      </trkpt>
      <trkpt lat="47.62006" lon="6.01748">
        <ele>233.64</ele>
        <time>2017-10-04T08:28:57Z</time>
      </trkpt>
      <trkpt lat="47.62" lon="6.01739">
        <ele>233.85</ele>
        <time>2017-10-04T08:28:59Z</time>
      </trkpt>
      <trkpt lat="47.61994" lon="6.0173">
        <ele>234.02</ele>
        <time>2017-10-04T08:29:01Z</time>
      </trkpt>
      <trkpt lat="47.61988" lon="6.0172">
        <ele>234.15</ele>
        <time>2017-10-04T08:29:03Z</time>
      </trkpt>
      <trkpt lat="47.61984" lon="6.01716">
        <ele>234.2</ele>
        <time>2017-10-04T08:29:04Z</time>
      </trkpt>
      <trkpt lat="47.61978" lon="6.01707">
        <ele>234.31</ele>
        <time>2017-10-04T08:29:06Z</time>
      </trkpt>
      <trkpt lat="47.61972" lon="6.01698">
        <ele>234.4</ele>
        <time>2017-10-04T08:29:08Z</time>
      </trkpt>
      <trkpt lat="47.61967" lon="6.01689">
        <ele>234.47</ele>
        <time>2017-10-04T08:29:10Z</time>
      </trkpt>
      <trkpt lat="47.61962" lon="6.01681">
        <ele>234.49</ele>
        <time>2017-10-04T08:29:12Z</time>
      </trkpt>
      <trkpt lat="47.61957" lon="6.01672">
        <ele>234.62</ele>
        <time>2017-10-04T08:29:14Z</time>
      </trkpt>
      <trkpt lat="47.61953" lon="6.01663">
        <ele>234.77</ele>
        <time>2017-10-04T08:29:16Z</time>
      </trkpt>
      <trkpt lat="47.6195" lon="6.01651">
        <ele>234.9</ele>
        <time>2017-10-04T08:29:18Z</time>
      </trkpt>
      <trkpt lat="47.61947" lon="6.0164">
        <ele>234.99</ele>
        <time>2017-10-04T08:29:20Z</time>
      </trkpt>
      <trkpt lat="47.61946" lon="6.01629">
        <ele>235.13</ele>
        <time>2017-10-04T08:29:22Z</time>
      </trkpt>
      <trkpt lat="47.61945" lon="6.01617">
        <ele>235.23</ele>
        <time>2017-10-04T08:29:24Z</time>
      </trkpt>
      <trkpt lat="47.61944" lon="6.01607">
        <ele>235.25</ele>
        <time>2017-10-04T08:29:26Z</time>
      </trkpt>
      <trkpt lat="47.61943" lon="6.01598">
        <ele>235.27</ele>
        <time>2017-10-04T08:29:28Z</time>
      </trkpt>
      <trkpt lat="47.61942" lon="6.01589">
        <ele>235.29</ele>
        <time>2017-10-04T08:29:30Z</time>
      </trkpt>
      <trkpt lat="47.6194" lon="6.0158">
        <ele>235.31</ele>
        <time>2017-10-04T08:29:32Z</time>
      </trkpt>
      <trkpt lat="47.61939" lon="6.01571">
        <ele>235.33</ele>
        <time>2017-10-04T08:29:34Z</time>
      </trkpt>
      <trkpt lat="47.61936" lon="6.01565">
        <ele>235.36</ele>
        <time>2017-10-04T08:29:36Z</time>
      </trkpt>
      <trkpt lat="47.61933" lon="6.01558">
        <ele>235.39</ele>
        <time>2017-10-04T08:29:38Z</time>
      </trkpt>
      <trkpt lat="47.61929" lon="6.01552">
        <ele>235.43</ele>
        <time>2017-10-04T08:29:40Z</time>
      </trkpt>
      <trkpt lat="47.61925" lon="6.01545">
        <ele>235.46</ele>
        <time>2017-10-04T08:29:42Z</time>
      </trkpt>
      <trkpt lat="47.61921" lon="6.01539">
        <ele>235.5</ele>
        <time>2017-10-04T08:29:44Z</time>
      </trkpt>
      <trkpt lat="47.61918" lon="6.01533">
        <ele>235.55</ele>
        <time>2017-10-04T08:29:46Z</time>
      </trkpt>
      <trkpt lat="47.61914" lon="6.01527">
        <ele>235.6</ele>
        <time>2017-10-04T08:29:48Z</time>
      </trkpt>
      <trkpt lat="47.6191" lon="6.01522">
        <ele>235.65</ele>
        <time>2017-10-04T08:29:50Z</time>
      </trkpt>
      <trkpt lat="47.61906" lon="6.01515">
        <ele>235.7</ele>
        <time>2017-10-04T08:29:52Z</time>
      </trkpt>
      <trkpt lat="47.61902" lon="6.01509">
        <ele>235.76</ele>
        <time>2017-10-04T08:29:54Z</time>
      </trkpt>
      <trkpt lat="47.61899" lon="6.01503">
        <ele>235.82</ele>
        <time>2017-10-04T08:29:56Z</time>
      </trkpt>
      <trkpt lat="47.61895" lon="6.01497">
        <ele>235.89</ele>
        <time>2017-10-04T08:29:58Z</time>
      </trkpt>
      <trkpt lat="47.61892" lon="6.01492">
        <ele>235.96</ele>
        <time>2017-10-04T08:30:00Z</time>
      </trkpt>
      <trkpt lat="47.61888" lon="6.01487">
        <ele>236.03</ele>
        <time>2017-10-04T08:30:02Z</time>
      </trkpt>
      <trkpt lat="47.61885" lon="6.01481">
        <ele>236.1</ele>
        <time>2017-10-04T08:30:04Z</time>
      </trkpt>
      <trkpt lat="47.61881" lon="6.01474">
        <ele>236.21</ele>
        <time>2017-10-04T08:30:07Z</time>
      </trkpt>
      <trkpt lat="47.61877" lon="6.01467">
        <ele>236.33</ele>
        <time>2017-10-04T08:30:10Z</time>
      </trkpt>
      <trkpt lat="47.61874" lon="6.0146">
        <ele>236.41</ele>
        <time>2017-10-04T08:30:12Z</time>
      </trkpt>
      <trkpt lat="47.61872" lon="6.01453">
        <ele>236.49</ele>
        <time>2017-10-04T08:30:14Z</time>
      </trkpt>
      <trkpt lat="47.61868" lon="6.01445">
        <ele>236.61</ele>
        <time>2017-10-04T08:30:17Z</time>
      </trkpt>
      <trkpt lat="47.61866" lon="6.01439">
        <ele>236.7</ele>
        <time>2017-10-04T08:30:19Z</time>
      </trkpt>
      <trkpt lat="47.61864" lon="6.01432">
        <ele>236.78</ele>
        <time>2017-10-04T08:30:21Z</time>
      </trkpt>
      <trkpt lat="47.61862" lon="6.01422">
        <ele>236.91</ele>
        <time>2017-10-04T08:30:24Z</time>
      </trkpt>
      <trkpt lat="47.6186" lon="6.01413">
        <ele>237</ele>
        <time>2017-10-04T08:30:26Z</time>
      </trkpt>
      <trkpt lat="47.61858" lon="6.01405">
        <ele>237.09</ele>
        <time>2017-10-04T08:30:28Z</time>
      </trkpt>
      <trkpt lat="47.61856" lon="6.01396">
        <ele>237.45</ele>
        <time>2017-10-04T08:30:30Z</time>
      </trkpt>
      <trkpt lat="47.61853" lon="6.01386">
        <ele>238.12</ele>
        <time>2017-10-04T08:30:32Z</time>
      </trkpt>
      <trkpt lat="47.61851" lon="6.01376">
        <ele>238.61</ele>
        <time>2017-10-04T08:30:34Z</time>
      </trkpt>
      <trkpt lat="47.61848" lon="6.01364">
        <ele>238.96</ele>
        <time>2017-10-04T08:30:36Z</time>
      </trkpt>
      <trkpt lat="47.61844" lon="6.01352">
        <ele>239.21</ele>
        <time>2017-10-04T08:30:38Z</time>
      </trkpt>
      <trkpt lat="47.61842" lon="6.01346">
        <ele>239.32</ele>
        <time>2017-10-04T08:30:39Z</time>
      </trkpt>
      <trkpt lat="47.61838" lon="6.01334">
        <ele>239.49</ele>
        <time>2017-10-04T08:30:41Z</time>
      </trkpt>
      <trkpt lat="47.61835" lon="6.01328">
        <ele>239.56</ele>
        <time>2017-10-04T08:30:42Z</time>
      </trkpt>
      <trkpt lat="47.6183" lon="6.01318">
        <ele>239.68</ele>
        <time>2017-10-04T08:30:44Z</time>
      </trkpt>
      <trkpt lat="47.61828" lon="6.01312">
        <ele>239.73</ele>
        <time>2017-10-04T08:30:45Z</time>
      </trkpt>
      <trkpt lat="47.61822" lon="6.01301">
        <ele>239.83</ele>
        <time>2017-10-04T08:30:47Z</time>
      </trkpt>
      <trkpt lat="47.61819" lon="6.01295">
        <ele>239.87</ele>
        <time>2017-10-04T08:30:48Z</time>
      </trkpt>
      <trkpt lat="47.61816" lon="6.01289">
        <ele>239.92</ele>
        <time>2017-10-04T08:30:49Z</time>
      </trkpt>
      <trkpt lat="47.61812" lon="6.01284">
        <ele>239.97</ele>
        <time>2017-10-04T08:30:50Z</time>
      </trkpt>
      <trkpt lat="47.61809" lon="6.01279">
        <ele>240.01</ele>
        <time>2017-10-04T08:30:51Z</time>
      </trkpt>
      <trkpt lat="47.61806" lon="6.01274">
        <ele>240.05</ele>
        <time>2017-10-04T08:30:52Z</time>
      </trkpt>
      <trkpt lat="47.618" lon="6.01262">
        <ele>240.13</ele>
        <time>2017-10-04T08:30:54Z</time>
      </trkpt>
      <trkpt lat="47.61797" lon="6.01256">
        <ele>240.18</ele>
        <time>2017-10-04T08:30:55Z</time>
      </trkpt>
      <trkpt lat="47.61792" lon="6.01245">
        <ele>240.27</ele>
        <time>2017-10-04T08:30:57Z</time>
      </trkpt>
      <trkpt lat="47.61789" lon="6.01239">
        <ele>240.31</ele>
        <time>2017-10-04T08:30:58Z</time>
      </trkpt>
      <trkpt lat="47.61786" lon="6.01234">
        <ele>240.36</ele>
        <time>2017-10-04T08:30:59Z</time>
      </trkpt>
      <trkpt lat="47.61783" lon="6.01229">
        <ele>240.4</ele>
        <time>2017-10-04T08:31:00Z</time>
      </trkpt>
      <trkpt lat="47.61778" lon="6.01218">
        <ele>240.47</ele>
        <time>2017-10-04T08:31:02Z</time>
      </trkpt>
      <trkpt lat="47.61775" lon="6.01212">
        <ele>240.5</ele>
        <time>2017-10-04T08:31:03Z</time>
      </trkpt>
      <trkpt lat="47.61769" lon="6.01202">
        <ele>240.56</ele>
        <time>2017-10-04T08:31:05Z</time>
      </trkpt>
      <trkpt lat="47.61766" lon="6.01195">
        <ele>240.59</ele>
        <time>2017-10-04T08:31:06Z</time>
      </trkpt>
      <trkpt lat="47.61761" lon="6.01185">
        <ele>240.66</ele>
        <time>2017-10-04T08:31:08Z</time>
      </trkpt>
      <trkpt lat="47.61755" lon="6.01175">
        <ele>240.71</ele>
        <time>2017-10-04T08:31:10Z</time>
      </trkpt>
      <trkpt lat="47.61752" lon="6.01168">
        <ele>240.75</ele>
        <time>2017-10-04T08:31:11Z</time>
      </trkpt>
      <trkpt lat="47.61749" lon="6.01162">
        <ele>240.8</ele>
        <time>2017-10-04T08:31:12Z</time>
      </trkpt>
      <trkpt lat="47.61747" lon="6.01156">
        <ele>240.86</ele>
        <time>2017-10-04T08:31:13Z</time>
      </trkpt>
      <trkpt lat="47.61742" lon="6.01146">
        <ele>240.97</ele>
        <time>2017-10-04T08:31:15Z</time>
      </trkpt>
      <trkpt lat="47.61737" lon="6.01135">
        <ele>241.1</ele>
        <time>2017-10-04T08:31:17Z</time>
      </trkpt>
      <trkpt lat="47.61732" lon="6.01125">
        <ele>241.24</ele>
        <time>2017-10-04T08:31:19Z</time>
      </trkpt>
      <trkpt lat="47.61728" lon="6.01115">
        <ele>241.28</ele>
        <time>2017-10-04T08:31:21Z</time>
      </trkpt>
      <trkpt lat="47.61723" lon="6.01106">
        <ele>241.37</ele>
        <time>2017-10-04T08:31:23Z</time>
      </trkpt>
      <trkpt lat="47.61719" lon="6.01098">
        <ele>241.52</ele>
        <time>2017-10-04T08:31:25Z</time>
      </trkpt>
      <trkpt lat="47.61714" lon="6.01089">
        <ele>241.67</ele>
        <time>2017-10-04T08:31:27Z</time>
      </trkpt>
      <trkpt lat="47.61709" lon="6.01079">
        <ele>241.78</ele>
        <time>2017-10-04T08:31:29Z</time>
      </trkpt>
      <trkpt lat="47.61704" lon="6.01069">
        <ele>241.87</ele>
        <time>2017-10-04T08:31:31Z</time>
      </trkpt>
      <trkpt lat="47.61701" lon="6.01064">
        <ele>241.91</ele>
        <time>2017-10-04T08:31:32Z</time>
      </trkpt>
      <trkpt lat="47.61698" lon="6.01058">
        <ele>241.94</ele>
        <time>2017-10-04T08:31:33Z</time>
      </trkpt>
      <trkpt lat="47.61695" lon="6.01052">
        <ele>241.98</ele>
        <time>2017-10-04T08:31:34Z</time>
      </trkpt>
      <trkpt lat="47.61692" lon="6.01047">
        <ele>242.01</ele>
        <time>2017-10-04T08:31:35Z</time>
      </trkpt>
      <trkpt lat="47.6169" lon="6.01041">
        <ele>242.04</ele>
        <time>2017-10-04T08:31:36Z</time>
      </trkpt>
      <trkpt lat="47.61687" lon="6.01035">
        <ele>242.07</ele>
        <time>2017-10-04T08:31:37Z</time>
      </trkpt>
      <trkpt lat="47.61684" lon="6.01028">
        <ele>242.11</ele>
        <time>2017-10-04T08:31:38Z</time>
      </trkpt>
      <trkpt lat="47.61681" lon="6.01023">
        <ele>242.14</ele>
        <time>2017-10-04T08:31:39Z</time>
      </trkpt>
      <trkpt lat="47.61678" lon="6.01017">
        <ele>242.17</ele>
        <time>2017-10-04T08:31:40Z</time>
      </trkpt>
      <trkpt lat="47.61676" lon="6.01011">
        <ele>242.19</ele>
        <time>2017-10-04T08:31:41Z</time>
      </trkpt>
      <trkpt lat="47.61674" lon="6.01005">
        <ele>242.22</ele>
        <time>2017-10-04T08:31:42Z</time>
      </trkpt>
      <trkpt lat="47.61671" lon="6.00999">
        <ele>242.25</ele>
        <time>2017-10-04T08:31:43Z</time>
      </trkpt>
      <trkpt lat="47.61668" lon="6.00993">
        <ele>242.27</ele>
        <time>2017-10-04T08:31:44Z</time>
      </trkpt>
      <trkpt lat="47.61665" lon="6.00987">
        <ele>242.3</ele>
        <time>2017-10-04T08:31:45Z</time>
      </trkpt>
      <trkpt lat="47.61661" lon="6.00982">
        <ele>242.33</ele>
        <time>2017-10-04T08:31:46Z</time>
      </trkpt>
      <trkpt lat="47.61657" lon="6.00976">
        <ele>242.36</ele>
        <time>2017-10-04T08:31:47Z</time>
      </trkpt>
      <trkpt lat="47.61654" lon="6.0097">
        <ele>242.39</ele>
        <time>2017-10-04T08:31:48Z</time>
      </trkpt>
      <trkpt lat="47.61651" lon="6.00964">
        <ele>242.42</ele>
        <time>2017-10-04T08:31:49Z</time>
      </trkpt>
      <trkpt lat="47.61648" lon="6.00958">
        <ele>242.45</ele>
        <time>2017-10-04T08:31:50Z</time>
      </trkpt>
      <trkpt lat="47.61643" lon="6.00948">
        <ele>242.51</ele>
        <time>2017-10-04T08:31:52Z</time>
      </trkpt>
      <trkpt lat="47.61638" lon="6.00939">
        <ele>242.53</ele>
        <time>2017-10-04T08:31:54Z</time>
      </trkpt>
      <trkpt lat="47.61633" lon="6.0093">
        <ele>242.54</ele>
        <time>2017-10-04T08:31:56Z</time>
      </trkpt>
      <trkpt lat="47.61628" lon="6.00921">
        <ele>242.56</ele>
        <time>2017-10-04T08:31:58Z</time>
      </trkpt>
      <trkpt lat="47.61622" lon="6.00913">
        <ele>242.67</ele>
        <time>2017-10-04T08:32:00Z</time>
      </trkpt>
      <trkpt lat="47.61619" lon="6.00908">
        <ele>242.72</ele>
        <time>2017-10-04T08:32:01Z</time>
      </trkpt>
      <trkpt lat="47.61612" lon="6.009">
        <ele>242.82</ele>
        <time>2017-10-04T08:32:03Z</time>
      </trkpt>
      <trkpt lat="47.61608" lon="6.00895">
        <ele>242.86</ele>
        <time>2017-10-04T08:32:04Z</time>
      </trkpt>
      <trkpt lat="47.61605" lon="6.0089">
        <ele>242.9</ele>
        <time>2017-10-04T08:32:05Z</time>
      </trkpt>
      <trkpt lat="47.61601" lon="6.00886">
        <ele>242.93</ele>
        <time>2017-10-04T08:32:06Z</time>
      </trkpt>
      <trkpt lat="47.61598" lon="6.00881">
        <ele>242.95</ele>
        <time>2017-10-04T08:32:07Z</time>
      </trkpt>
      <trkpt lat="47.61592" lon="6.00872">
        <ele>243</ele>
        <time>2017-10-04T08:32:09Z</time>
      </trkpt>
      <trkpt lat="47.61584" lon="6.00863">
        <ele>243.05</ele>
        <time>2017-10-04T08:32:11Z</time>
      </trkpt>
      <trkpt lat="47.61581" lon="6.00858">
        <ele>243.07</ele>
        <time>2017-10-04T08:32:12Z</time>
      </trkpt>
      <trkpt lat="47.61578" lon="6.00853">
        <ele>243.09</ele>
        <time>2017-10-04T08:32:13Z</time>
      </trkpt>
      <trkpt lat="47.61574" lon="6.00848">
        <ele>243.11</ele>
        <time>2017-10-04T08:32:14Z</time>
      </trkpt>
      <trkpt lat="47.61571" lon="6.00843">
        <ele>243.13</ele>
        <time>2017-10-04T08:32:15Z</time>
      </trkpt>
      <trkpt lat="47.61568" lon="6.00838">
        <ele>243.15</ele>
        <time>2017-10-04T08:32:16Z</time>
      </trkpt>
      <trkpt lat="47.61564" lon="6.00833">
        <ele>243.16</ele>
        <time>2017-10-04T08:32:17Z</time>
      </trkpt>
      <trkpt lat="47.6156" lon="6.00828">
        <ele>243.17</ele>
        <time>2017-10-04T08:32:18Z</time>
      </trkpt>
      <trkpt lat="47.61557" lon="6.00823">
        <ele>243.19</ele>
        <time>2017-10-04T08:32:19Z</time>
      </trkpt>
      <trkpt lat="47.61554" lon="6.00818">
        <ele>243.2</ele>
        <time>2017-10-04T08:32:20Z</time>
      </trkpt>
      <trkpt lat="47.6155" lon="6.00813">
        <ele>243.21</ele>
        <time>2017-10-04T08:32:21Z</time>
      </trkpt>
      <trkpt lat="47.61547" lon="6.00808">
        <ele>243.22</ele>
        <time>2017-10-04T08:32:22Z</time>
      </trkpt>
      <trkpt lat="47.61544" lon="6.00803">
        <ele>243.23</ele>
        <time>2017-10-04T08:32:23Z</time>
      </trkpt>
      <trkpt lat="47.61541" lon="6.00798">
        <ele>243.24</ele>
        <time>2017-10-04T08:32:24Z</time>
      </trkpt>
      <trkpt lat="47.61535" lon="6.00789">
        <ele>243.26</ele>
        <time>2017-10-04T08:32:26Z</time>
      </trkpt>
      <trkpt lat="47.61529" lon="6.00779">
        <ele>243.28</ele>
        <time>2017-10-04T08:32:28Z</time>
      </trkpt>
      <trkpt lat="47.61526" lon="6.00774">
        <ele>243.28</ele>
        <time>2017-10-04T08:32:29Z</time>
      </trkpt>
      <trkpt lat="47.61522" lon="6.00769">
        <ele>243.29</ele>
        <time>2017-10-04T08:32:30Z</time>
      </trkpt>
      <trkpt lat="47.61519" lon="6.00764">
        <ele>243.3</ele>
        <time>2017-10-04T08:32:31Z</time>
      </trkpt>
      <trkpt lat="47.61516" lon="6.0076">
        <ele>243.3</ele>
        <time>2017-10-04T08:32:32Z</time>
      </trkpt>
      <trkpt lat="47.61509" lon="6.00751">
        <ele>243.31</ele>
        <time>2017-10-04T08:32:34Z</time>
      </trkpt>
      <trkpt lat="47.61504" lon="6.00743">
        <ele>243.31</ele>
        <time>2017-10-04T08:32:36Z</time>
      </trkpt>
      <trkpt lat="47.61497" lon="6.00734">
        <ele>243.32</ele>
        <time>2017-10-04T08:32:38Z</time>
      </trkpt>
      <trkpt lat="47.61491" lon="6.00726">
        <ele>243.33</ele>
        <time>2017-10-04T08:32:40Z</time>
      </trkpt>
      <trkpt lat="47.61487" lon="6.00721">
        <ele>243.33</ele>
        <time>2017-10-04T08:32:41Z</time>
      </trkpt>
      <trkpt lat="47.61484" lon="6.00716">
        <ele>243.33</ele>
        <time>2017-10-04T08:32:42Z</time>
      </trkpt>
      <trkpt lat="47.61477" lon="6.00707">
        <ele>243.33</ele>
        <time>2017-10-04T08:32:44Z</time>
      </trkpt>
      <trkpt lat="47.61473" lon="6.00703">
        <ele>243.32</ele>
        <time>2017-10-04T08:32:45Z</time>
      </trkpt>
      <trkpt lat="47.61469" lon="6.00698">
        <ele>243.32</ele>
        <time>2017-10-04T08:32:46Z</time>
      </trkpt>
      <trkpt lat="47.61466" lon="6.00693">
        <ele>243.32</ele>
        <time>2017-10-04T08:32:47Z</time>
      </trkpt>
      <trkpt lat="47.6146" lon="6.00685">
        <ele>243.32</ele>
        <time>2017-10-04T08:32:49Z</time>
      </trkpt>
      <trkpt lat="47.61454" lon="6.00676">
        <ele>243.32</ele>
        <time>2017-10-04T08:32:51Z</time>
      </trkpt>
      <trkpt lat="47.61451" lon="6.00671">
        <ele>243.31</ele>
        <time>2017-10-04T08:32:52Z</time>
      </trkpt>
      <trkpt lat="47.61444" lon="6.00663">
        <ele>243.3</ele>
        <time>2017-10-04T08:32:54Z</time>
      </trkpt>
      <trkpt lat="47.61438" lon="6.00655">
        <ele>243.3</ele>
        <time>2017-10-04T08:32:56Z</time>
      </trkpt>
      <trkpt lat="47.61434" lon="6.0065">
        <ele>243.3</ele>
        <time>2017-10-04T08:32:57Z</time>
      </trkpt>
      <trkpt lat="47.61428" lon="6.00641">
        <ele>243.29</ele>
        <time>2017-10-04T08:32:59Z</time>
      </trkpt>
      <trkpt lat="47.61425" lon="6.00636">
        <ele>243.29</ele>
        <time>2017-10-04T08:33:00Z</time>
      </trkpt>
      <trkpt lat="47.61418" lon="6.00628">
        <ele>243.28</ele>
        <time>2017-10-04T08:33:02Z</time>
      </trkpt>
      <trkpt lat="47.61414" lon="6.00623">
        <ele>243.28</ele>
        <time>2017-10-04T08:33:03Z</time>
      </trkpt>
      <trkpt lat="47.6141" lon="6.00617">
        <ele>243.29</ele>
        <time>2017-10-04T08:33:04Z</time>
      </trkpt>
      <trkpt lat="47.61406" lon="6.00611">
        <ele>243.29</ele>
        <time>2017-10-04T08:33:05Z</time>
      </trkpt>
      <trkpt lat="47.61403" lon="6.00605">
        <ele>243.29</ele>
        <time>2017-10-04T08:33:06Z</time>
      </trkpt>
      <trkpt lat="47.61399" lon="6.00598">
        <ele>243.3</ele>
        <time>2017-10-04T08:33:07Z</time>
      </trkpt>
      <trkpt lat="47.61396" lon="6.0059">
        <ele>243.3</ele>
        <time>2017-10-04T08:33:08Z</time>
      </trkpt>
      <trkpt lat="47.61394" lon="6.00582">
        <ele>243.3</ele>
        <time>2017-10-04T08:33:09Z</time>
      </trkpt>
      <trkpt lat="47.61391" lon="6.00573">
        <ele>243.29</ele>
        <time>2017-10-04T08:33:10Z</time>
      </trkpt>
      <trkpt lat="47.61389" lon="6.00563">
        <ele>243.29</ele>
        <time>2017-10-04T08:33:11Z</time>
      </trkpt>
      <trkpt lat="47.61387" lon="6.00554">
        <ele>243.29</ele>
        <time>2017-10-04T08:33:12Z</time>
      </trkpt>
      <trkpt lat="47.61386" lon="6.00544">
        <ele>243.29</ele>
        <time>2017-10-04T08:33:13Z</time>
      </trkpt>
      <trkpt lat="47.61384" lon="6.00535">
        <ele>243.3</ele>
        <time>2017-10-04T08:33:14Z</time>
      </trkpt>
      <trkpt lat="47.61383" lon="6.00526">
        <ele>243.31</ele>
        <time>2017-10-04T08:33:15Z</time>
      </trkpt>
      <trkpt lat="47.61381" lon="6.00516">
        <ele>243.3</ele>
        <time>2017-10-04T08:33:16Z</time>
      </trkpt>
      <trkpt lat="47.61379" lon="6.00507">
        <ele>243.31</ele>
        <time>2017-10-04T08:33:17Z</time>
      </trkpt>
      <trkpt lat="47.61377" lon="6.00499">
        <ele>243.32</ele>
        <time>2017-10-04T08:33:18Z</time>
      </trkpt>
      <trkpt lat="47.61374" lon="6.00491">
        <ele>243.28</ele>
        <time>2017-10-04T08:33:19Z</time>
      </trkpt>
      <trkpt lat="47.61371" lon="6.00483">
        <ele>243.22</ele>
        <time>2017-10-04T08:33:20Z</time>
      </trkpt>
      <trkpt lat="47.61368" lon="6.00475">
        <ele>243.17</ele>
        <time>2017-10-04T08:33:21Z</time>
      </trkpt>
      <trkpt lat="47.61364" lon="6.00468">
        <ele>243.12</ele>
        <time>2017-10-04T08:33:22Z</time>
      </trkpt>
      <trkpt lat="47.6136" lon="6.00462">
        <ele>243.05</ele>
        <time>2017-10-04T08:33:23Z</time>
      </trkpt>
      <trkpt lat="47.61356" lon="6.00454">
        <ele>243.02</ele>
        <time>2017-10-04T08:33:24Z</time>
      </trkpt>
      <trkpt lat="47.61351" lon="6.00447">
        <ele>243</ele>
        <time>2017-10-04T08:33:25Z</time>
      </trkpt>
      <trkpt lat="47.61346" lon="6.00439">
        <ele>242.99</ele>
        <time>2017-10-04T08:33:26Z</time>
      </trkpt>
      <trkpt lat="47.61341" lon="6.00432">
        <ele>242.97</ele>
        <time>2017-10-04T08:33:27Z</time>
      </trkpt>
      <trkpt lat="47.61337" lon="6.00426">
        <ele>242.94</ele>
        <time>2017-10-04T08:33:28Z</time>
      </trkpt>
      <trkpt lat="47.61332" lon="6.0042">
        <ele>242.93</ele>
        <time>2017-10-04T08:33:29Z</time>
      </trkpt>
      <trkpt lat="47.61326" lon="6.00414">
        <ele>242.88</ele>
        <time>2017-10-04T08:33:30Z</time>
      </trkpt>
      <trkpt lat="47.61321" lon="6.00407">
        <ele>242.83</ele>
        <time>2017-10-04T08:33:31Z</time>
      </trkpt>
      <trkpt lat="47.61316" lon="6.00401">
        <ele>242.76</ele>
        <time>2017-10-04T08:33:32Z</time>
      </trkpt>
      <trkpt lat="47.61311" lon="6.00394">
        <ele>242.68</ele>
        <time>2017-10-04T08:33:33Z</time>
      </trkpt>
      <trkpt lat="47.61306" lon="6.00387">
        <ele>242.59</ele>
        <time>2017-10-04T08:33:34Z</time>
      </trkpt>
      <trkpt lat="47.61301" lon="6.0038">
        <ele>242.49</ele>
        <time>2017-10-04T08:33:35Z</time>
      </trkpt>
      <trkpt lat="47.61295" lon="6.00374">
        <ele>242.4</ele>
        <time>2017-10-04T08:33:36Z</time>
      </trkpt>
      <trkpt lat="47.61289" lon="6.00367">
        <ele>242.27</ele>
        <time>2017-10-04T08:33:37Z</time>
      </trkpt>
      <trkpt lat="47.61284" lon="6.00361">
        <ele>242.12</ele>
        <time>2017-10-04T08:33:38Z</time>
      </trkpt>
      <trkpt lat="47.6128" lon="6.00357">
        <ele>241.98</ele>
        <time>2017-10-04T08:33:39Z</time>
      </trkpt>
      <trkpt lat="47.61276" lon="6.00353">
        <ele>241.85</ele>
        <time>2017-10-04T08:33:40Z</time>
      </trkpt>
      <trkpt lat="47.61271" lon="6.00347">
        <ele>241.78</ele>
        <time>2017-10-04T08:33:42Z</time>
      </trkpt>
      <trkpt lat="47.61266" lon="6.00343">
        <ele>241.75</ele>
        <time>2017-10-04T08:33:45Z</time>
      </trkpt>
      <trkpt lat="47.61261" lon="6.00342">
        <ele>241.76</ele>
        <time>2017-10-04T08:33:49Z</time>
      </trkpt>
      <trkpt lat="47.61255" lon="6.00341">
        <ele>242.24</ele>
        <time>2017-10-04T08:34:13Z</time>
      </trkpt>
      <trkpt lat="47.61249" lon="6.00336">
        <ele>242.5</ele>
        <time>2017-10-04T08:34:16Z</time>
      </trkpt>
      <trkpt lat="47.61245" lon="6.00332">
        <ele>242.64</ele>
        <time>2017-10-04T08:34:18Z</time>
      </trkpt>
      <trkpt lat="47.61239" lon="6.00327">
        <ele>242.77</ele>
        <time>2017-10-04T08:34:20Z</time>
      </trkpt>
      <trkpt lat="47.61233" lon="6.0032">
        <ele>242.87</ele>
        <time>2017-10-04T08:34:22Z</time>
      </trkpt>
      <trkpt lat="47.61231" lon="6.0031">
        <ele>243.24</ele>
        <time>2017-10-04T08:34:24Z</time>
      </trkpt>
      <trkpt lat="47.6123" lon="6.00303">
        <ele>243.57</ele>
        <time>2017-10-04T08:34:25Z</time>
      </trkpt>
      <trkpt lat="47.61229" lon="6.00296">
        <ele>243.83</ele>
        <time>2017-10-04T08:34:26Z</time>
      </trkpt>
      <trkpt lat="47.61228" lon="6.00289">
        <ele>244.01</ele>
        <time>2017-10-04T08:34:27Z</time>
      </trkpt>
      <trkpt lat="47.61226" lon="6.00278">
        <ele>244.11</ele>
        <time>2017-10-04T08:34:29Z</time>
      </trkpt>
      <trkpt lat="47.61225" lon="6.00271">
        <ele>244.12</ele>
        <time>2017-10-04T08:34:30Z</time>
      </trkpt>
      <trkpt lat="47.61223" lon="6.00259">
        <ele>244.07</ele>
        <time>2017-10-04T08:34:32Z</time>
      </trkpt>
      <trkpt lat="47.61221" lon="6.00246">
        <ele>243.94</ele>
        <time>2017-10-04T08:34:34Z</time>
      </trkpt>
      <trkpt lat="47.61218" lon="6.00234">
        <ele>243.75</ele>
        <time>2017-10-04T08:34:36Z</time>
      </trkpt>
      <trkpt lat="47.61216" lon="6.00221">
        <ele>243.54</ele>
        <time>2017-10-04T08:34:38Z</time>
      </trkpt>
      <trkpt lat="47.61216" lon="6.00208">
        <ele>243.36</ele>
        <time>2017-10-04T08:34:40Z</time>
      </trkpt>
      <trkpt lat="47.61218" lon="6.00198">
        <ele>243.32</ele>
        <time>2017-10-04T08:34:42Z</time>
      </trkpt>
      <trkpt lat="47.61223" lon="6.00192">
        <ele>243.3</ele>
        <time>2017-10-04T08:34:44Z</time>
      </trkpt>
      <trkpt lat="47.61228" lon="6.00188">
        <ele>243.27</ele>
        <time>2017-10-04T08:34:46Z</time>
      </trkpt>
      <trkpt lat="47.61233" lon="6.00186">
        <ele>243.23</ele>
        <time>2017-10-04T08:34:48Z</time>
      </trkpt>
      <trkpt lat="47.61238" lon="6.00184">
        <ele>243.17</ele>
        <time>2017-10-04T08:34:50Z</time>
      </trkpt>
      <trkpt lat="47.61244" lon="6.00183">
        <ele>243.06</ele>
        <time>2017-10-04T08:34:53Z</time>
      </trkpt>
      <trkpt lat="47.61249" lon="6.00183">
        <ele>242.99</ele>
        <time>2017-10-04T08:34:55Z</time>
      </trkpt>
      <trkpt lat="47.61254" lon="6.00182">
        <ele>242.91</ele>
        <time>2017-10-04T08:34:57Z</time>
      </trkpt>
      <trkpt lat="47.61259" lon="6.00181">
        <ele>242.83</ele>
        <time>2017-10-04T08:34:59Z</time>
      </trkpt>
      <trkpt lat="47.61264" lon="6.00181">
        <ele>242.74</ele>
        <time>2017-10-04T08:35:01Z</time>
      </trkpt>
      <trkpt lat="47.6127" lon="6.00182">
        <ele>242.66</ele>
        <time>2017-10-04T08:35:03Z</time>
      </trkpt>
      <trkpt lat="47.61275" lon="6.00183">
        <ele>242.58</ele>
        <time>2017-10-04T08:35:05Z</time>
      </trkpt>
      <trkpt lat="47.61282" lon="6.00184">
        <ele>242.5</ele>
        <time>2017-10-04T08:35:07Z</time>
      </trkpt>
      <trkpt lat="47.61287" lon="6.00185">
        <ele>242.43</ele>
        <time>2017-10-04T08:35:09Z</time>
      </trkpt>
      <trkpt lat="47.61294" lon="6.00183">
        <ele>242.35</ele>
        <time>2017-10-04T08:35:11Z</time>
      </trkpt>
      <trkpt lat="47.613" lon="6.00184">
        <ele>242.28</ele>
        <time>2017-10-04T08:35:13Z</time>
      </trkpt>
      <trkpt lat="47.61307" lon="6.00186">
        <ele>242.21</ele>
        <time>2017-10-04T08:35:15Z</time>
      </trkpt>
      <trkpt lat="47.61312" lon="6.00188">
        <ele>242.14</ele>
        <time>2017-10-04T08:35:17Z</time>
      </trkpt>
      <trkpt lat="47.61318" lon="6.00189">
        <ele>242.06</ele>
        <time>2017-10-04T08:35:19Z</time>
      </trkpt>
      <trkpt lat="47.61326" lon="6.0019">
        <ele>241.76</ele>
        <time>2017-10-04T08:35:21Z</time>
      </trkpt>
      <trkpt lat="47.61335" lon="6.00192">
        <ele>241.22</ele>
        <time>2017-10-04T08:35:23Z</time>
      </trkpt>
      <trkpt lat="47.6134" lon="6.00193">
        <ele>240.98</ele>
        <time>2017-10-04T08:35:24Z</time>
      </trkpt>
      <trkpt lat="47.61345" lon="6.00194">
        <ele>240.77</ele>
        <time>2017-10-04T08:35:25Z</time>
      </trkpt>
      <trkpt lat="47.61354" lon="6.00195">
        <ele>240.45</ele>
        <time>2017-10-04T08:35:27Z</time>
      </trkpt>
      <trkpt lat="47.61361" lon="6.00197">
        <ele>240.26</ele>
        <time>2017-10-04T08:35:29Z</time>
      </trkpt>
      <trkpt lat="47.61369" lon="6.00198">
        <ele>240.22</ele>
        <time>2017-10-04T08:35:31Z</time>
      </trkpt>
      <trkpt lat="47.61376" lon="6.002">
        <ele>240.22</ele>
        <time>2017-10-04T08:35:33Z</time>
      </trkpt>
      <trkpt lat="47.61383" lon="6.00201">
        <ele>240.23</ele>
        <time>2017-10-04T08:35:35Z</time>
      </trkpt>
      <trkpt lat="47.61389" lon="6.00203">
        <ele>240.25</ele>
        <time>2017-10-04T08:35:37Z</time>
      </trkpt>
      <trkpt lat="47.61394" lon="6.00204">
        <ele>240.27</ele>
        <time>2017-10-04T08:35:39Z</time>
      </trkpt>
      <trkpt lat="47.614" lon="6.00202">
        <ele>240.29</ele>
        <time>2017-10-04T08:35:41Z</time>
      </trkpt>
      <trkpt lat="47.61405" lon="6.00202">
        <ele>240.32</ele>
        <time>2017-10-04T08:35:43Z</time>
      </trkpt>
      <trkpt lat="47.6141" lon="6.00203">
        <ele>240.35</ele>
        <time>2017-10-04T08:35:45Z</time>
      </trkpt>
      <trkpt lat="47.61415" lon="6.00206">
        <ele>240.38</ele>
        <time>2017-10-04T08:35:47Z</time>
      </trkpt>
      <trkpt lat="47.6142" lon="6.00207">
        <ele>240.42</ele>
        <time>2017-10-04T08:35:49Z</time>
      </trkpt>
      <trkpt lat="47.61426" lon="6.00208">
        <ele>240.47</ele>
        <time>2017-10-04T08:35:51Z</time>
      </trkpt>
      <trkpt lat="47.61431" lon="6.00208">
        <ele>240.51</ele>
        <time>2017-10-04T08:35:53Z</time>
      </trkpt>
      <trkpt lat="47.61436" lon="6.00208">
        <ele>240.56</ele>
        <time>2017-10-04T08:35:55Z</time>
      </trkpt>
      <trkpt lat="47.61441" lon="6.00208">
        <ele>240.6</ele>
        <time>2017-10-04T08:35:57Z</time>
      </trkpt>
      <trkpt lat="47.61446" lon="6.00208">
        <ele>240.66</ele>
        <time>2017-10-04T08:35:59Z</time>
      </trkpt>
      <trkpt lat="47.61451" lon="6.00209">
        <ele>240.73</ele>
        <time>2017-10-04T08:36:02Z</time>
      </trkpt>
      <trkpt lat="47.61456" lon="6.0021">
        <ele>240.8</ele>
        <time>2017-10-04T08:36:05Z</time>
      </trkpt>
      <trkpt lat="47.61461" lon="6.00212">
        <ele>240.87</ele>
        <time>2017-10-04T08:36:08Z</time>
      </trkpt>
      <trkpt lat="47.61466" lon="6.00216">
        <ele>240.94</ele>
        <time>2017-10-04T08:36:11Z</time>
      </trkpt>
      <trkpt lat="47.61471" lon="6.00218">
        <ele>241.01</ele>
        <time>2017-10-04T08:36:14Z</time>
      </trkpt>
      <trkpt lat="47.61476" lon="6.00218">
        <ele>241.08</ele>
        <time>2017-10-04T08:36:17Z</time>
      </trkpt>
      <trkpt lat="47.61482" lon="6.00219">
        <ele>241.16</ele>
        <time>2017-10-04T08:36:21Z</time>
      </trkpt>
      <trkpt lat="47.61488" lon="6.00219">
        <ele>241.22</ele>
        <time>2017-10-04T08:36:24Z</time>
      </trkpt>
      <trkpt lat="47.61494" lon="6.00219">
        <ele>241.27</ele>
        <time>2017-10-04T08:36:26Z</time>
      </trkpt>
      <trkpt lat="47.61499" lon="6.00222">
        <ele>241.31</ele>
        <time>2017-10-04T08:36:28Z</time>
      </trkpt>
      <trkpt lat="47.61504" lon="6.00223">
        <ele>241.35</ele>
        <time>2017-10-04T08:36:30Z</time>
      </trkpt>
      <trkpt lat="47.61509" lon="6.00222">
        <ele>241.39</ele>
        <time>2017-10-04T08:36:32Z</time>
      </trkpt>
      <trkpt lat="47.61514" lon="6.00222">
        <ele>241.43</ele>
        <time>2017-10-04T08:36:34Z</time>
      </trkpt>
      <trkpt lat="47.61519" lon="6.00224">
        <ele>241.47</ele>
        <time>2017-10-04T08:36:36Z</time>
      </trkpt>
      <trkpt lat="47.61525" lon="6.00225">
        <ele>241.5</ele>
        <time>2017-10-04T08:36:38Z</time>
      </trkpt>
      <trkpt lat="47.61531" lon="6.00226">
        <ele>241.54</ele>
        <time>2017-10-04T08:36:40Z</time>
      </trkpt>
      <trkpt lat="47.61537" lon="6.00228">
        <ele>241.57</ele>
        <time>2017-10-04T08:36:42Z</time>
      </trkpt>
      <trkpt lat="47.61542" lon="6.00229">
        <ele>241.6</ele>
        <time>2017-10-04T08:36:44Z</time>
      </trkpt>
      <trkpt lat="47.61548" lon="6.00232">
        <ele>241.65</ele>
        <time>2017-10-04T08:36:47Z</time>
      </trkpt>
      <trkpt lat="47.61554" lon="6.00234">
        <ele>241.69</ele>
        <time>2017-10-04T08:36:50Z</time>
      </trkpt>
      <trkpt lat="47.6156" lon="6.00231">
        <ele>241.74</ele>
        <time>2017-10-04T08:36:52Z</time>
      </trkpt>
      <trkpt lat="47.61565" lon="6.00227">
        <ele>241.78</ele>
        <time>2017-10-04T08:36:55Z</time>
      </trkpt>
      <trkpt lat="47.61569" lon="6.00228">
        <ele>241.81</ele>
        <time>2017-10-04T08:36:57Z</time>
      </trkpt>
      <trkpt lat="47.61573" lon="6.00232">
        <ele>241.84</ele>
        <time>2017-10-04T08:36:59Z</time>
      </trkpt>
      <trkpt lat="47.61579" lon="6.00236">
        <ele>241.87</ele>
        <time>2017-10-04T08:37:02Z</time>
      </trkpt>
      <trkpt lat="47.61584" lon="6.00239">
        <ele>241.89</ele>
        <time>2017-10-04T08:37:04Z</time>
      </trkpt>
      <trkpt lat="47.61589" lon="6.00242">
        <ele>241.91</ele>
        <time>2017-10-04T08:37:06Z</time>
      </trkpt>
      <trkpt lat="47.61595" lon="6.00244">
        <ele>241.92</ele>
        <time>2017-10-04T08:37:08Z</time>
      </trkpt>
      <trkpt lat="47.61599" lon="6.00247">
        <ele>241.93</ele>
        <time>2017-10-04T08:37:10Z</time>
      </trkpt>
      <trkpt lat="47.61603" lon="6.0025">
        <ele>241.93</ele>
        <time>2017-10-04T08:37:12Z</time>
      </trkpt>
      <trkpt lat="47.61607" lon="6.00253">
        <ele>241.94</ele>
        <time>2017-10-04T08:37:14Z</time>
      </trkpt>
      <trkpt lat="47.61613" lon="6.00254">
        <ele>241.94</ele>
        <time>2017-10-04T08:37:16Z</time>
      </trkpt>
      <trkpt lat="47.61619" lon="6.00256">
        <ele>241.95</ele>
        <time>2017-10-04T08:37:18Z</time>
      </trkpt>
      <trkpt lat="47.61626" lon="6.00257">
        <ele>241.95</ele>
        <time>2017-10-04T08:37:20Z</time>
      </trkpt>
      <trkpt lat="47.61632" lon="6.00258">
        <ele>241.96</ele>
        <time>2017-10-04T08:37:22Z</time>
      </trkpt>
      <trkpt lat="47.61638" lon="6.0026">
        <ele>241.96</ele>
        <time>2017-10-04T08:37:24Z</time>
      </trkpt>
      <trkpt lat="47.61644" lon="6.00262">
        <ele>241.97</ele>
        <time>2017-10-04T08:37:26Z</time>
      </trkpt>
      <trkpt lat="47.6165" lon="6.00264">
        <ele>241.98</ele>
        <time>2017-10-04T08:37:28Z</time>
      </trkpt>
      <trkpt lat="47.61657" lon="6.00265">
        <ele>241.99</ele>
        <time>2017-10-04T08:37:30Z</time>
      </trkpt>
      <trkpt lat="47.61663" lon="6.00267">
        <ele>242</ele>
        <time>2017-10-04T08:37:32Z</time>
      </trkpt>
      <trkpt lat="47.6167" lon="6.0027">
        <ele>242.01</ele>
        <time>2017-10-04T08:37:34Z</time>
      </trkpt>
      <trkpt lat="47.61676" lon="6.00271">
        <ele>242.02</ele>
        <time>2017-10-04T08:37:36Z</time>
      </trkpt>
      <trkpt lat="47.61683" lon="6.00272">
        <ele>242.04</ele>
        <time>2017-10-04T08:37:38Z</time>
      </trkpt>
      <trkpt lat="47.6169" lon="6.00274">
        <ele>242.05</ele>
        <time>2017-10-04T08:37:40Z</time>
      </trkpt>
      <trkpt lat="47.61697" lon="6.00275">
        <ele>242.06</ele>
        <time>2017-10-04T08:37:42Z</time>
      </trkpt>
      <trkpt lat="47.61703" lon="6.00277">
        <ele>242.08</ele>
        <time>2017-10-04T08:37:44Z</time>
      </trkpt>
      <trkpt lat="47.6171" lon="6.00278">
        <ele>242.09</ele>
        <time>2017-10-04T08:37:46Z</time>
      </trkpt>
      <trkpt lat="47.61717" lon="6.0028">
        <ele>242.11</ele>
        <time>2017-10-04T08:37:48Z</time>
      </trkpt>
      <trkpt lat="47.61724" lon="6.00282">
        <ele>242.13</ele>
        <time>2017-10-04T08:37:50Z</time>
      </trkpt>
      <trkpt lat="47.6173" lon="6.00284">
        <ele>242.15</ele>
        <time>2017-10-04T08:37:52Z</time>
      </trkpt>
      <trkpt lat="47.61737" lon="6.00286">
        <ele>242.17</ele>
        <time>2017-10-04T08:37:54Z</time>
      </trkpt>
      <trkpt lat="47.61743" lon="6.00287">
        <ele>242.19</ele>
        <time>2017-10-04T08:37:56Z</time>
      </trkpt>
      <trkpt lat="47.6175" lon="6.00289">
        <ele>242.21</ele>
        <time>2017-10-04T08:37:58Z</time>
      </trkpt>
      <trkpt lat="47.61757" lon="6.00291">
        <ele>242.23</ele>
        <time>2017-10-04T08:38:00Z</time>
      </trkpt>
      <trkpt lat="47.61764" lon="6.00293">
        <ele>242.25</ele>
        <time>2017-10-04T08:38:02Z</time>
      </trkpt>
      <trkpt lat="47.61771" lon="6.00295">
        <ele>242.27</ele>
        <time>2017-10-04T08:38:04Z</time>
      </trkpt>
      <trkpt lat="47.61778" lon="6.00297">
        <ele>242.3</ele>
        <time>2017-10-04T08:38:06Z</time>
      </trkpt>
      <trkpt lat="47.61785" lon="6.00298">
        <ele>242.39</ele>
        <time>2017-10-04T08:38:08Z</time>
      </trkpt>
      <trkpt lat="47.61793" lon="6.003">
        <ele>242.55</ele>
        <time>2017-10-04T08:38:10Z</time>
      </trkpt>
      <trkpt lat="47.61801" lon="6.00303">
        <ele>242.66</ele>
        <time>2017-10-04T08:38:12Z</time>
      </trkpt>
      <trkpt lat="47.61806" lon="6.00304">
        <ele>242.7</ele>
        <time>2017-10-04T08:38:13Z</time>
      </trkpt>
      <trkpt lat="47.61811" lon="6.00305">
        <ele>242.74</ele>
        <time>2017-10-04T08:38:14Z</time>
      </trkpt>
      <trkpt lat="47.61816" lon="6.00306">
        <ele>242.76</ele>
        <time>2017-10-04T08:38:15Z</time>
      </trkpt>
      <trkpt lat="47.61821" lon="6.00308">
        <ele>242.79</ele>
        <time>2017-10-04T08:38:16Z</time>
      </trkpt>
      <trkpt lat="47.61826" lon="6.00309">
        <ele>242.8</ele>
        <time>2017-10-04T08:38:17Z</time>
      </trkpt>
      <trkpt lat="47.61832" lon="6.00309">
        <ele>242.82</ele>
        <time>2017-10-04T08:38:18Z</time>
      </trkpt>
      <trkpt lat="47.61837" lon="6.00309">
        <ele>242.83</ele>
        <time>2017-10-04T08:38:19Z</time>
      </trkpt>
      <trkpt lat="47.61842" lon="6.0031">
        <ele>242.85</ele>
        <time>2017-10-04T08:38:20Z</time>
      </trkpt>
      <trkpt lat="47.61847" lon="6.00311">
        <ele>242.86</ele>
        <time>2017-10-04T08:38:21Z</time>
      </trkpt>
      <trkpt lat="47.61852" lon="6.00313">
        <ele>242.87</ele>
        <time>2017-10-04T08:38:22Z</time>
      </trkpt>
      <trkpt lat="47.6186" lon="6.00316">
        <ele>242.92</ele>
        <time>2017-10-04T08:38:24Z</time>
      </trkpt>
      <trkpt lat="47.61868" lon="6.00317">
        <ele>242.95</ele>
        <time>2017-10-04T08:38:26Z</time>
      </trkpt>
      <trkpt lat="47.61874" lon="6.00319">
        <ele>242.96</ele>
        <time>2017-10-04T08:38:28Z</time>
      </trkpt>
      <trkpt lat="47.61882" lon="6.00321">
        <ele>242.97</ele>
        <time>2017-10-04T08:38:30Z</time>
      </trkpt>
      <trkpt lat="47.61889" lon="6.00323">
        <ele>242.98</ele>
        <time>2017-10-04T08:38:32Z</time>
      </trkpt>
      <trkpt lat="47.61894" lon="6.00325">
        <ele>242.98</ele>
        <time>2017-10-04T08:38:34Z</time>
      </trkpt>
      <trkpt lat="47.61899" lon="6.00326">
        <ele>242.99</ele>
        <time>2017-10-04T08:38:36Z</time>
      </trkpt>
      <trkpt lat="47.61903" lon="6.00323">
        <ele>243.01</ele>
        <time>2017-10-04T08:38:40Z</time>
      </trkpt>
      <trkpt lat="47.61907" lon="6.00325">
        <ele>243.05</ele>
        <time>2017-10-04T08:38:58Z</time>
      </trkpt>
      <trkpt lat="47.61902" lon="6.00328">
        <ele>243.08</ele>
        <time>2017-10-04T08:39:15Z</time>
      </trkpt>
      <trkpt lat="47.61904" lon="6.00322">
        <ele>243.25</ele>
        <time>2017-10-04T08:41:00Z</time>
      </trkpt>
      <trkpt lat="47.61907" lon="6.00317">
        <ele>244.08</ele>
        <time>2017-10-04T08:43:41Z</time>
      </trkpt>
      <trkpt lat="47.61908" lon="6.00324">
        <ele>244.72</ele>
        <time>2017-10-04T08:44:05Z</time>
      </trkpt>
      <trkpt lat="47.61908" lon="6.00331">
        <ele>245</ele>
        <time>2017-10-04T08:44:40Z</time>
      </trkpt>
      <trkpt lat="47.6191" lon="6.00338">
        <ele>245.1</ele>
        <time>2017-10-04T08:44:43Z</time>
      </trkpt>
      <trkpt lat="47.61914" lon="6.00341">
        <ele>245.19</ele>
        <time>2017-10-04T08:44:46Z</time>
      </trkpt>
      <trkpt lat="47.61919" lon="6.00344">
        <ele>245.31</ele>
        <time>2017-10-04T08:44:50Z</time>
      </trkpt>
      <trkpt lat="47.61925" lon="6.00348">
        <ele>245.42</ele>
        <time>2017-10-04T08:44:54Z</time>
      </trkpt>
      <trkpt lat="47.61928" lon="6.00355">
        <ele>245.5</ele>
        <time>2017-10-04T08:44:57Z</time>
      </trkpt>
      <trkpt lat="47.61932" lon="6.00361">
        <ele>245.55</ele>
        <time>2017-10-04T08:44:59Z</time>
      </trkpt>
      <trkpt lat="47.61936" lon="6.00366">
        <ele>245.6</ele>
        <time>2017-10-04T08:45:01Z</time>
      </trkpt>
      <trkpt lat="47.6194" lon="6.00371">
        <ele>245.65</ele>
        <time>2017-10-04T08:45:03Z</time>
      </trkpt>
      <trkpt lat="47.61944" lon="6.00376">
        <ele>245.7</ele>
        <time>2017-10-04T08:45:05Z</time>
      </trkpt>
      <trkpt lat="47.61947" lon="6.00382">
        <ele>245.75</ele>
        <time>2017-10-04T08:45:07Z</time>
      </trkpt>
      <trkpt lat="47.61952" lon="6.00387">
        <ele>245.8</ele>
        <time>2017-10-04T08:45:09Z</time>
      </trkpt>
      <trkpt lat="47.61956" lon="6.00393">
        <ele>245.85</ele>
        <time>2017-10-04T08:45:11Z</time>
      </trkpt>
      <trkpt lat="47.6196" lon="6.00398">
        <ele>245.89</ele>
        <time>2017-10-04T08:45:13Z</time>
      </trkpt>
      <trkpt lat="47.61964" lon="6.00402">
        <ele>245.94</ele>
        <time>2017-10-04T08:45:15Z</time>
      </trkpt>
      <trkpt lat="47.6197" lon="6.0041">
        <ele>245.98</ele>
        <time>2017-10-04T08:45:17Z</time>
      </trkpt>
      <trkpt lat="47.61975" lon="6.00416">
        <ele>246.02</ele>
        <time>2017-10-04T08:45:19Z</time>
      </trkpt>
      <trkpt lat="47.61978" lon="6.00421">
        <ele>246.07</ele>
        <time>2017-10-04T08:45:21Z</time>
      </trkpt>
      <trkpt lat="47.61983" lon="6.00425">
        <ele>246.11</ele>
        <time>2017-10-04T08:45:23Z</time>
      </trkpt>
      <trkpt lat="47.6199" lon="6.0043">
        <ele>246.15</ele>
        <time>2017-10-04T08:45:25Z</time>
      </trkpt>
      <trkpt lat="47.61995" lon="6.00433">
        <ele>246.17</ele>
        <time>2017-10-04T08:45:26Z</time>
      </trkpt>
      <trkpt lat="47.62003" lon="6.00437">
        <ele>246.21</ele>
        <time>2017-10-04T08:45:28Z</time>
      </trkpt>
      <trkpt lat="47.62006" lon="6.00443">
        <ele>246.26</ele>
        <time>2017-10-04T08:45:30Z</time>
      </trkpt>
      <trkpt lat="47.62009" lon="6.00449">
        <ele>246.34</ele>
        <time>2017-10-04T08:45:33Z</time>
      </trkpt>
      <trkpt lat="47.62012" lon="6.00456">
        <ele>246.42</ele>
        <time>2017-10-04T08:45:36Z</time>
      </trkpt>
      <trkpt lat="47.62017" lon="6.00462">
        <ele>246.51</ele>
        <time>2017-10-04T08:45:39Z</time>
      </trkpt>
      <trkpt lat="47.62023" lon="6.0047">
        <ele>246.57</ele>
        <time>2017-10-04T08:45:41Z</time>
      </trkpt>
      <trkpt lat="47.62026" lon="6.00477">
        <ele>246.66</ele>
        <time>2017-10-04T08:45:44Z</time>
      </trkpt>
      <trkpt lat="47.62029" lon="6.00486">
        <ele>246.72</ele>
        <time>2017-10-04T08:45:46Z</time>
      </trkpt>
      <trkpt lat="47.62033" lon="6.00492">
        <ele>246.79</ele>
        <time>2017-10-04T08:45:48Z</time>
      </trkpt>
      <trkpt lat="47.62037" lon="6.00499">
        <ele>246.86</ele>
        <time>2017-10-04T08:45:50Z</time>
      </trkpt>
      <trkpt lat="47.62043" lon="6.00504">
        <ele>246.93</ele>
        <time>2017-10-04T08:45:52Z</time>
      </trkpt>
      <trkpt lat="47.62048" lon="6.00511">
        <ele>247.01</ele>
        <time>2017-10-04T08:45:54Z</time>
      </trkpt>
      <trkpt lat="47.62052" lon="6.00521">
        <ele>247.09</ele>
        <time>2017-10-04T08:45:56Z</time>
      </trkpt>
      <trkpt lat="47.62055" lon="6.00526">
        <ele>247.17</ele>
        <time>2017-10-04T08:45:58Z</time>
      </trkpt>
      <trkpt lat="47.6206" lon="6.00531">
        <ele>247.26</ele>
        <time>2017-10-04T08:46:00Z</time>
      </trkpt>
      <trkpt lat="47.62065" lon="6.00536">
        <ele>247.35</ele>
        <time>2017-10-04T08:46:02Z</time>
      </trkpt>
      <trkpt lat="47.62068" lon="6.00541">
        <ele>247.43</ele>
        <time>2017-10-04T08:46:04Z</time>
      </trkpt>
      <trkpt lat="47.62071" lon="6.00549">
        <ele>247.52</ele>
        <time>2017-10-04T08:46:06Z</time>
      </trkpt>
      <trkpt lat="47.62074" lon="6.00556">
        <ele>247.6</ele>
        <time>2017-10-04T08:46:08Z</time>
      </trkpt>
      <trkpt lat="47.62078" lon="6.00562">
        <ele>247.68</ele>
        <time>2017-10-04T08:46:10Z</time>
      </trkpt>
      <trkpt lat="47.62082" lon="6.00568">
        <ele>247.8</ele>
        <time>2017-10-04T08:46:13Z</time>
      </trkpt>
      <trkpt lat="47.62082" lon="6.00577">
        <ele>247.89</ele>
        <time>2017-10-04T08:46:15Z</time>
      </trkpt>
      <trkpt lat="47.62085" lon="6.00584">
        <ele>247.97</ele>
        <time>2017-10-04T08:46:17Z</time>
      </trkpt>
      <trkpt lat="47.62087" lon="6.00591">
        <ele>248.06</ele>
        <time>2017-10-04T08:46:19Z</time>
      </trkpt>
      <trkpt lat="47.62092" lon="6.00598">
        <ele>248.18</ele>
        <time>2017-10-04T08:46:22Z</time>
      </trkpt>
      <trkpt lat="47.62097" lon="6.00608">
        <ele>248.26</ele>
        <time>2017-10-04T08:46:24Z</time>
      </trkpt>
      <trkpt lat="47.62101" lon="6.0062">
        <ele>248.34</ele>
        <time>2017-10-04T08:46:26Z</time>
      </trkpt>
      <trkpt lat="47.62106" lon="6.0063">
        <ele>248.41</ele>
        <time>2017-10-04T08:46:28Z</time>
      </trkpt>
      <trkpt lat="47.62109" lon="6.00637">
        <ele>248.48</ele>
        <time>2017-10-04T08:46:30Z</time>
      </trkpt>
      <trkpt lat="47.62115" lon="6.00645">
        <ele>248.55</ele>
        <time>2017-10-04T08:46:32Z</time>
      </trkpt>
      <trkpt lat="47.6212" lon="6.00654">
        <ele>248.61</ele>
        <time>2017-10-04T08:46:34Z</time>
      </trkpt>
      <trkpt lat="47.62126" lon="6.00663">
        <ele>248.68</ele>
        <time>2017-10-04T08:46:36Z</time>
      </trkpt>
      <trkpt lat="47.62131" lon="6.0067">
        <ele>248.73</ele>
        <time>2017-10-04T08:46:38Z</time>
      </trkpt>
      <trkpt lat="47.62136" lon="6.00679">
        <ele>248.79</ele>
        <time>2017-10-04T08:46:40Z</time>
      </trkpt>
      <trkpt lat="47.62139" lon="6.00685">
        <ele>248.85</ele>
        <time>2017-10-04T08:46:42Z</time>
      </trkpt>
      <trkpt lat="47.62145" lon="6.00693">
        <ele>248.91</ele>
        <time>2017-10-04T08:46:44Z</time>
      </trkpt>
      <trkpt lat="47.62151" lon="6.00699">
        <ele>248.96</ele>
        <time>2017-10-04T08:46:46Z</time>
      </trkpt>
      <trkpt lat="47.62157" lon="6.00704">
        <ele>248.99</ele>
        <time>2017-10-04T08:46:47Z</time>
      </trkpt>
      <trkpt lat="47.62161" lon="6.00709">
        <ele>249.02</ele>
        <time>2017-10-04T08:46:48Z</time>
      </trkpt>
      <trkpt lat="47.62166" lon="6.00713">
        <ele>249.05</ele>
        <time>2017-10-04T08:46:49Z</time>
      </trkpt>
      <trkpt lat="47.62173" lon="6.00716">
        <ele>249.1</ele>
        <time>2017-10-04T08:46:51Z</time>
      </trkpt>
      <trkpt lat="47.62181" lon="6.00721">
        <ele>249.16</ele>
        <time>2017-10-04T08:46:53Z</time>
      </trkpt>
      <trkpt lat="47.62186" lon="6.00725">
        <ele>249.21</ele>
        <time>2017-10-04T08:46:55Z</time>
      </trkpt>
      <trkpt lat="47.62191" lon="6.00731">
        <ele>249.26</ele>
        <time>2017-10-04T08:46:57Z</time>
      </trkpt>
      <trkpt lat="47.62197" lon="6.00736">
        <ele>249.32</ele>
        <time>2017-10-04T08:46:59Z</time>
      </trkpt>
      <trkpt lat="47.62205" lon="6.0074">
        <ele>249.37</ele>
        <time>2017-10-04T08:47:01Z</time>
      </trkpt>
      <trkpt lat="47.6221" lon="6.00741">
        <ele>249.39</ele>
        <time>2017-10-04T08:47:02Z</time>
      </trkpt>
      <trkpt lat="47.62216" lon="6.00744">
        <ele>249.44</ele>
        <time>2017-10-04T08:47:04Z</time>
      </trkpt>
      <trkpt lat="47.62223" lon="6.00743">
        <ele>249.52</ele>
        <time>2017-10-04T08:47:07Z</time>
      </trkpt>
      <trkpt lat="47.62227" lon="6.00741">
        <ele>249.57</ele>
        <time>2017-10-04T08:47:09Z</time>
      </trkpt>
      <trkpt lat="47.62233" lon="6.00739">
        <ele>249.64</ele>
        <time>2017-10-04T08:47:12Z</time>
      </trkpt>
      <trkpt lat="47.62237" lon="6.00736">
        <ele>249.68</ele>
        <time>2017-10-04T08:47:14Z</time>
      </trkpt>
      <trkpt lat="47.62243" lon="6.00732">
        <ele>249.73</ele>
        <time>2017-10-04T08:47:16Z</time>
      </trkpt>
      <trkpt lat="47.62247" lon="6.00726">
        <ele>249.79</ele>
        <time>2017-10-04T08:47:19Z</time>
      </trkpt>
      <trkpt lat="47.62249" lon="6.00718">
        <ele>249.84</ele>
        <time>2017-10-04T08:47:21Z</time>
      </trkpt>
      <trkpt lat="47.6225" lon="6.00708">
        <ele>249.9</ele>
        <time>2017-10-04T08:47:24Z</time>
      </trkpt>
      <trkpt lat="47.62253" lon="6.00703">
        <ele>249.93</ele>
        <time>2017-10-04T08:47:26Z</time>
      </trkpt>
      <trkpt lat="47.62256" lon="6.00698">
        <ele>250.06</ele>
        <time>2017-10-04T08:47:27Z</time>
      </trkpt>
      <trkpt lat="47.62261" lon="6.00697">
        <ele>250.19</ele>
        <time>2017-10-04T08:47:28Z</time>
      </trkpt>
      <trkpt lat="47.62268" lon="6.00689">
        <ele>250.3</ele>
        <time>2017-10-04T08:47:29Z</time>
      </trkpt>
      <trkpt lat="47.62281" lon="6.0068">
        <ele>250.38</ele>
        <time>2017-10-04T08:47:30Z</time>
      </trkpt>
      <trkpt lat="47.62295" lon="6.00676">
        <ele>250.44</ele>
        <time>2017-10-04T08:47:31Z</time>
      </trkpt>
      <trkpt lat="47.62305" lon="6.00673">
        <ele>250.48</ele>
        <time>2017-10-04T08:47:32Z</time>
      </trkpt>
      <trkpt lat="47.62314" lon="6.00666">
        <ele>250.5</ele>
        <time>2017-10-04T08:47:33Z</time>
      </trkpt>
      <trkpt lat="47.62327" lon="6.00662">
        <ele>250.51</ele>
        <time>2017-10-04T08:47:35Z</time>
      </trkpt>
      <trkpt lat="47.62359" lon="6.00664">
        <ele>250.53</ele>
        <time>2017-10-04T08:47:36Z</time>
      </trkpt>
      <trkpt lat="47.62374" lon="6.00662">
        <ele>250.55</ele>
        <time>2017-10-04T08:47:37Z</time>
      </trkpt>
      <trkpt lat="47.62385" lon="6.00659">
        <ele>250.56</ele>
        <time>2017-10-04T08:47:38Z</time>
      </trkpt>
      <trkpt lat="47.62392" lon="6.00658">
        <ele>250.58</ele>
        <time>2017-10-04T08:47:39Z</time>
      </trkpt>
      <trkpt lat="47.624" lon="6.00656">
        <ele>250.59</ele>
        <time>2017-10-04T08:47:40Z</time>
      </trkpt>
      <trkpt lat="47.62406" lon="6.00654">
        <ele>250.59</ele>
        <time>2017-10-04T08:47:41Z</time>
      </trkpt>
      <trkpt lat="47.62414" lon="6.00651">
        <ele>250.59</ele>
        <time>2017-10-04T08:47:43Z</time>
      </trkpt>
      <trkpt lat="47.62422" lon="6.00647">
        <ele>250.6</ele>
        <time>2017-10-04T08:47:45Z</time>
      </trkpt>
      <trkpt lat="47.62428" lon="6.00646">
        <ele>250.6</ele>
        <time>2017-10-04T08:47:47Z</time>
      </trkpt>
      <trkpt lat="47.62433" lon="6.00644">
        <ele>250.61</ele>
        <time>2017-10-04T08:47:49Z</time>
      </trkpt>
      <trkpt lat="47.6244" lon="6.00639">
        <ele>250.61</ele>
        <time>2017-10-04T08:47:51Z</time>
      </trkpt>
      <trkpt lat="47.62446" lon="6.00633">
        <ele>250.62</ele>
        <time>2017-10-04T08:47:53Z</time>
      </trkpt>
      <trkpt lat="47.6245" lon="6.00629">
        <ele>250.62</ele>
        <time>2017-10-04T08:47:54Z</time>
      </trkpt>
      <trkpt lat="47.62455" lon="6.00628">
        <ele>250.62</ele>
        <time>2017-10-04T08:47:55Z</time>
      </trkpt>
      <trkpt lat="47.6246" lon="6.00627">
        <ele>250.63</ele>
        <time>2017-10-04T08:47:56Z</time>
      </trkpt>
      <trkpt lat="47.62465" lon="6.00627">
        <ele>250.63</ele>
        <time>2017-10-04T08:47:57Z</time>
      </trkpt>
      <trkpt lat="47.62475" lon="6.00623">
        <ele>250.63</ele>
        <time>2017-10-04T08:47:59Z</time>
      </trkpt>
      <trkpt lat="47.62479" lon="6.00621">
        <ele>250.64</ele>
        <time>2017-10-04T08:48:00Z</time>
      </trkpt>
      <trkpt lat="47.62486" lon="6.00619">
        <ele>250.64</ele>
        <time>2017-10-04T08:48:02Z</time>
      </trkpt>
      <trkpt lat="47.62491" lon="6.00617">
        <ele>250.65</ele>
        <time>2017-10-04T08:48:04Z</time>
      </trkpt>
      <trkpt lat="47.62495" lon="6.00613">
        <ele>250.65</ele>
        <time>2017-10-04T08:48:05Z</time>
      </trkpt>
      <trkpt lat="47.62501" lon="6.0061">
        <ele>250.66</ele>
        <time>2017-10-04T08:48:06Z</time>
      </trkpt>
      <trkpt lat="47.62508" lon="6.00606">
        <ele>250.67</ele>
        <time>2017-10-04T08:48:08Z</time>
      </trkpt>
      <trkpt lat="47.62515" lon="6.00603">
        <ele>250.67</ele>
        <time>2017-10-04T08:48:10Z</time>
      </trkpt>
      <trkpt lat="47.62519" lon="6.00599">
        <ele>250.68</ele>
        <time>2017-10-04T08:48:12Z</time>
      </trkpt>
      <trkpt lat="47.62524" lon="6.00591">
        <ele>250.69</ele>
        <time>2017-10-04T08:48:14Z</time>
      </trkpt>
      <trkpt lat="47.62531" lon="6.00588">
        <ele>250.69</ele>
        <time>2017-10-04T08:48:16Z</time>
      </trkpt>
      <trkpt lat="47.62535" lon="6.00584">
        <ele>250.7</ele>
        <time>2017-10-04T08:48:17Z</time>
      </trkpt>
      <trkpt lat="47.6254" lon="6.00577">
        <ele>250.71</ele>
        <time>2017-10-04T08:48:20Z</time>
      </trkpt>
      <trkpt lat="47.62545" lon="6.00573">
        <ele>250.71</ele>
        <time>2017-10-04T08:48:22Z</time>
      </trkpt>
      <trkpt lat="47.6255" lon="6.00568">
        <ele>250.72</ele>
        <time>2017-10-04T08:48:24Z</time>
      </trkpt>
      <trkpt lat="47.62555" lon="6.00562">
        <ele>250.72</ele>
        <time>2017-10-04T08:48:26Z</time>
      </trkpt>
      <trkpt lat="47.62561" lon="6.00557">
        <ele>250.72</ele>
        <time>2017-10-04T08:48:27Z</time>
      </trkpt>
      <trkpt lat="47.62567" lon="6.00553">
        <ele>250.72</ele>
        <time>2017-10-04T08:48:28Z</time>
      </trkpt>
      <trkpt lat="47.62574" lon="6.00551">
        <ele>250.73</ele>
        <time>2017-10-04T08:48:29Z</time>
      </trkpt>
      <trkpt lat="47.62583" lon="6.0055">
        <ele>250.74</ele>
        <time>2017-10-04T08:48:30Z</time>
      </trkpt>
      <trkpt lat="47.62609" lon="6.00543">
        <ele>250.74</ele>
        <time>2017-10-04T08:48:31Z</time>
      </trkpt>
      <trkpt lat="47.62618" lon="6.00543">
        <ele>250.74</ele>
        <time>2017-10-04T08:48:32Z</time>
      </trkpt>
      <trkpt lat="47.62626" lon="6.00544">
        <ele>250.74</ele>
        <time>2017-10-04T08:48:33Z</time>
      </trkpt>
      <trkpt lat="47.62632" lon="6.00544">
        <ele>250.74</ele>
        <time>2017-10-04T08:48:34Z</time>
      </trkpt>
      <trkpt lat="47.62639" lon="6.00541">
        <ele>250.74</ele>
        <time>2017-10-04T08:48:35Z</time>
      </trkpt>
      <trkpt lat="47.62644" lon="6.00541">
        <ele>250.75</ele>
        <time>2017-10-04T08:48:36Z</time>
      </trkpt>
      <trkpt lat="47.62651" lon="6.0054">
        <ele>250.75</ele>
        <time>2017-10-04T08:48:39Z</time>
      </trkpt>
      <trkpt lat="47.6266" lon="6.00536">
        <ele>250.76</ele>
        <time>2017-10-04T08:48:41Z</time>
      </trkpt>
      <trkpt lat="47.62667" lon="6.00533">
        <ele>250.76</ele>
        <time>2017-10-04T08:48:43Z</time>
      </trkpt>
      <trkpt lat="47.62674" lon="6.0053">
        <ele>250.77</ele>
        <time>2017-10-04T08:48:45Z</time>
      </trkpt>
      <trkpt lat="47.6268" lon="6.00526">
        <ele>250.78</ele>
        <time>2017-10-04T08:48:47Z</time>
      </trkpt>
      <trkpt lat="47.62685" lon="6.00522">
        <ele>250.78</ele>
        <time>2017-10-04T08:48:49Z</time>
      </trkpt>
      <trkpt lat="47.62691" lon="6.00519">
        <ele>250.79</ele>
        <time>2017-10-04T08:48:51Z</time>
      </trkpt>
      <trkpt lat="47.62696" lon="6.00517">
        <ele>250.8</ele>
        <time>2017-10-04T08:48:53Z</time>
      </trkpt>
      <trkpt lat="47.62702" lon="6.00514">
        <ele>250.81</ele>
        <time>2017-10-04T08:48:56Z</time>
      </trkpt>
      <trkpt lat="47.62707" lon="6.0051">
        <ele>250.82</ele>
        <time>2017-10-04T08:48:57Z</time>
      </trkpt>
      <trkpt lat="47.62713" lon="6.00507">
        <ele>250.82</ele>
        <time>2017-10-04T08:48:59Z</time>
      </trkpt>
      <trkpt lat="47.6272" lon="6.00504">
        <ele>250.83</ele>
        <time>2017-10-04T08:49:01Z</time>
      </trkpt>
      <trkpt lat="47.62725" lon="6.00502">
        <ele>250.83</ele>
        <time>2017-10-04T08:49:02Z</time>
      </trkpt>
      <trkpt lat="47.6273" lon="6.00501">
        <ele>250.84</ele>
        <time>2017-10-04T08:49:04Z</time>
      </trkpt>
      <trkpt lat="47.62734" lon="6.005">
        <ele>250.84</ele>
        <time>2017-10-04T08:49:06Z</time>
      </trkpt>
      <trkpt lat="47.62739" lon="6.005">
        <ele>250.85</ele>
        <time>2017-10-04T08:49:09Z</time>
      </trkpt>
      <trkpt lat="47.62746" lon="6.005">
        <ele>250.86</ele>
        <time>2017-10-04T08:49:11Z</time>
      </trkpt>
      <trkpt lat="47.62754" lon="6.00499">
        <ele>250.87</ele>
        <time>2017-10-04T08:49:13Z</time>
      </trkpt>
      <trkpt lat="47.62759" lon="6.00498">
        <ele>250.88</ele>
        <time>2017-10-04T08:49:15Z</time>
      </trkpt>
      <trkpt lat="47.62767" lon="6.00498">
        <ele>250.89</ele>
        <time>2017-10-04T08:49:17Z</time>
      </trkpt>
      <trkpt lat="47.62774" lon="6.00498">
        <ele>250.9</ele>
        <time>2017-10-04T08:49:19Z</time>
      </trkpt>
      <trkpt lat="47.6278" lon="6.00497">
        <ele>250.92</ele>
        <time>2017-10-04T08:49:21Z</time>
      </trkpt>
      <trkpt lat="47.62786" lon="6.00496">
        <ele>250.94</ele>
        <time>2017-10-04T08:49:24Z</time>
      </trkpt>
      <trkpt lat="47.62791" lon="6.00494">
        <ele>250.97</ele>
        <time>2017-10-04T08:49:27Z</time>
      </trkpt>
      <trkpt lat="47.62797" lon="6.00493">
        <ele>251.01</ele>
        <time>2017-10-04T08:49:31Z</time>
      </trkpt>
      <trkpt lat="47.62801" lon="6.0049">
        <ele>251.03</ele>
        <time>2017-10-04T08:49:33Z</time>
      </trkpt>
      <trkpt lat="47.62807" lon="6.00485">
        <ele>251.06</ele>
        <time>2017-10-04T08:49:36Z</time>
      </trkpt>
      <trkpt lat="47.62812" lon="6.00483">
        <ele>251.09</ele>
        <time>2017-10-04T08:49:38Z</time>
      </trkpt>
      <trkpt lat="47.62818" lon="6.0048">
        <ele>251.11</ele>
        <time>2017-10-04T08:49:40Z</time>
      </trkpt>
      <trkpt lat="47.62822" lon="6.00476">
        <ele>251.14</ele>
        <time>2017-10-04T08:49:43Z</time>
      </trkpt>
      <trkpt lat="47.62827" lon="6.00474">
        <ele>251.16</ele>
        <time>2017-10-04T08:49:45Z</time>
      </trkpt>
      <trkpt lat="47.62836" lon="6.00469">
        <ele>251.18</ele>
        <time>2017-10-04T08:49:47Z</time>
      </trkpt>
      <trkpt lat="47.6284" lon="6.00466">
        <ele>251.2</ele>
        <time>2017-10-04T08:49:49Z</time>
      </trkpt>
      <trkpt lat="47.62847" lon="6.00461">
        <ele>251.22</ele>
        <time>2017-10-04T08:49:52Z</time>
      </trkpt>
      <trkpt lat="47.62853" lon="6.00455">
        <ele>251.23</ele>
        <time>2017-10-04T08:49:54Z</time>
      </trkpt>
      <trkpt lat="47.62861" lon="6.00452">
        <ele>251.25</ele>
        <time>2017-10-04T08:49:56Z</time>
      </trkpt>
      <trkpt lat="47.62865" lon="6.00447">
        <ele>251.26</ele>
        <time>2017-10-04T08:49:57Z</time>
      </trkpt>
      <trkpt lat="47.62869" lon="6.0044">
        <ele>251.27</ele>
        <time>2017-10-04T08:49:59Z</time>
      </trkpt>
      <trkpt lat="47.62876" lon="6.00435">
        <ele>251.29</ele>
        <time>2017-10-04T08:50:01Z</time>
      </trkpt>
      <trkpt lat="47.62881" lon="6.00433">
        <ele>251.29</ele>
        <time>2017-10-04T08:50:02Z</time>
      </trkpt>
      <trkpt lat="47.62895" lon="6.00431">
        <ele>251.3</ele>
        <time>2017-10-04T08:50:03Z</time>
      </trkpt>
      <trkpt lat="47.62908" lon="6.00429">
        <ele>251.31</ele>
        <time>2017-10-04T08:50:04Z</time>
      </trkpt>
      <trkpt lat="47.62913" lon="6.00426">
        <ele>251.33</ele>
        <time>2017-10-04T08:50:06Z</time>
      </trkpt>
      <trkpt lat="47.62919" lon="6.00422">
        <ele>251.34</ele>
        <time>2017-10-04T08:50:08Z</time>
      </trkpt>
      <trkpt lat="47.62926" lon="6.00417">
        <ele>251.36</ele>
        <time>2017-10-04T08:50:10Z</time>
      </trkpt>
      <trkpt lat="47.62933" lon="6.00414">
        <ele>251.38</ele>
        <time>2017-10-04T08:50:12Z</time>
      </trkpt>
      <trkpt lat="47.62939" lon="6.00411">
        <ele>251.38</ele>
        <time>2017-10-04T08:50:13Z</time>
      </trkpt>
      <trkpt lat="47.62943" lon="6.00407">
        <ele>251.39</ele>
        <time>2017-10-04T08:50:14Z</time>
      </trkpt>
      <trkpt lat="47.62949" lon="6.00402">
        <ele>251.4</ele>
        <time>2017-10-04T08:50:16Z</time>
      </trkpt>
      <trkpt lat="47.62961" lon="6.00396">
        <ele>251.42</ele>
        <time>2017-10-04T08:50:18Z</time>
      </trkpt>
      <trkpt lat="47.62968" lon="6.00392">
        <ele>251.46</ele>
        <time>2017-10-04T08:50:19Z</time>
      </trkpt>
      <trkpt lat="47.62978" lon="6.00392">
        <ele>251.47</ele>
        <time>2017-10-04T08:50:20Z</time>
      </trkpt>
      <trkpt lat="47.62991" lon="6.00389">
        <ele>251.5</ele>
        <time>2017-10-04T08:50:21Z</time>
      </trkpt>
      <trkpt lat="47.63011" lon="6.0038">
        <ele>251.54</ele>
        <time>2017-10-04T08:50:22Z</time>
      </trkpt>
      <trkpt lat="47.63021" lon="6.00377">
        <ele>251.58</ele>
        <time>2017-10-04T08:50:23Z</time>
      </trkpt>
      <trkpt lat="47.63031" lon="6.00374">
        <ele>251.59</ele>
        <time>2017-10-04T08:50:24Z</time>
      </trkpt>
      <trkpt lat="47.63036" lon="6.00372">
        <ele>251.6</ele>
        <time>2017-10-04T08:50:25Z</time>
      </trkpt>
      <trkpt lat="47.63042" lon="6.00371">
        <ele>251.63</ele>
        <time>2017-10-04T08:50:26Z</time>
      </trkpt>
      <trkpt lat="47.63048" lon="6.00369">
        <ele>251.65</ele>
        <time>2017-10-04T08:50:27Z</time>
      </trkpt>
      <trkpt lat="47.63052" lon="6.00366">
        <ele>251.66</ele>
        <time>2017-10-04T08:50:28Z</time>
      </trkpt>
      <trkpt lat="47.63058" lon="6.00365">
        <ele>251.66</ele>
        <time>2017-10-04T08:50:29Z</time>
      </trkpt>
      <trkpt lat="47.63065" lon="6.00363">
        <ele>251.67</ele>
        <time>2017-10-04T08:50:31Z</time>
      </trkpt>
      <trkpt lat="47.6307" lon="6.00362">
        <ele>251.67</ele>
        <time>2017-10-04T08:50:32Z</time>
      </trkpt>
      <trkpt lat="47.63076" lon="6.00361">
        <ele>251.68</ele>
        <time>2017-10-04T08:50:33Z</time>
      </trkpt>
      <trkpt lat="47.6308" lon="6.00359">
        <ele>251.68</ele>
        <time>2017-10-04T08:50:34Z</time>
      </trkpt>
      <trkpt lat="47.63085" lon="6.00357">
        <ele>251.68</ele>
        <time>2017-10-04T08:50:35Z</time>
      </trkpt>
      <trkpt lat="47.63091" lon="6.00353">
        <ele>251.68</ele>
        <time>2017-10-04T08:50:37Z</time>
      </trkpt>
      <trkpt lat="47.63097" lon="6.00349">
        <ele>251.68</ele>
        <time>2017-10-04T08:50:39Z</time>
      </trkpt>
      <trkpt lat="47.63103" lon="6.00347">
        <ele>251.69</ele>
        <time>2017-10-04T08:50:41Z</time>
      </trkpt>
      <trkpt lat="47.63109" lon="6.00345">
        <ele>251.69</ele>
        <time>2017-10-04T08:50:43Z</time>
      </trkpt>
      <trkpt lat="47.63113" lon="6.00342">
        <ele>251.69</ele>
        <time>2017-10-04T08:50:45Z</time>
      </trkpt>
      <trkpt lat="47.6312" lon="6.0034">
        <ele>251.69</ele>
        <time>2017-10-04T08:50:47Z</time>
      </trkpt>
      <trkpt lat="47.63125" lon="6.00337">
        <ele>251.69</ele>
        <time>2017-10-04T08:50:49Z</time>
      </trkpt>
      <trkpt lat="47.6313" lon="6.00335">
        <ele>251.69</ele>
        <time>2017-10-04T08:50:52Z</time>
      </trkpt>
      <trkpt lat="47.63135" lon="6.00333">
        <ele>251.7</ele>
        <time>2017-10-04T08:50:55Z</time>
      </trkpt>
      <trkpt lat="47.63141" lon="6.0033">
        <ele>251.71</ele>
        <time>2017-10-04T08:50:57Z</time>
      </trkpt>
      <trkpt lat="47.63147" lon="6.00329">
        <ele>251.71</ele>
        <time>2017-10-04T08:50:59Z</time>
      </trkpt>
      <trkpt lat="47.63153" lon="6.00327">
        <ele>251.72</ele>
        <time>2017-10-04T08:51:01Z</time>
      </trkpt>
      <trkpt lat="47.6316" lon="6.00323">
        <ele>251.72</ele>
        <time>2017-10-04T08:51:03Z</time>
      </trkpt>
      <trkpt lat="47.63165" lon="6.0032">
        <ele>251.73</ele>
        <time>2017-10-04T08:51:04Z</time>
      </trkpt>
      <trkpt lat="47.63173" lon="6.00317">
        <ele>251.74</ele>
        <time>2017-10-04T08:51:07Z</time>
      </trkpt>
      <trkpt lat="47.63178" lon="6.00312">
        <ele>251.76</ele>
        <time>2017-10-04T08:51:10Z</time>
      </trkpt>
      <trkpt lat="47.63182" lon="6.00309">
        <ele>251.77</ele>
        <time>2017-10-04T08:51:12Z</time>
      </trkpt>
      <trkpt lat="47.63187" lon="6.00306">
        <ele>251.8</ele>
        <time>2017-10-04T08:51:15Z</time>
      </trkpt>
      <trkpt lat="47.63192" lon="6.00304">
        <ele>251.82</ele>
        <time>2017-10-04T08:51:18Z</time>
      </trkpt>
      <trkpt lat="47.63196" lon="6.00302">
        <ele>251.83</ele>
        <time>2017-10-04T08:51:20Z</time>
      </trkpt>
      <trkpt lat="47.63203" lon="6.00298">
        <ele>251.84</ele>
        <time>2017-10-04T08:51:22Z</time>
      </trkpt>
      <trkpt lat="47.63208" lon="6.00295">
        <ele>251.86</ele>
        <time>2017-10-04T08:51:24Z</time>
      </trkpt>
      <trkpt lat="47.63211" lon="6.00289">
        <ele>251.87</ele>
        <time>2017-10-04T08:51:26Z</time>
      </trkpt>
      <trkpt lat="47.63214" lon="6.00281">
        <ele>251.9</ele>
        <time>2017-10-04T08:51:30Z</time>
      </trkpt>
      <trkpt lat="47.63218" lon="6.00276">
        <ele>251.92</ele>
        <time>2017-10-04T08:51:34Z</time>
      </trkpt>
      <trkpt lat="47.63221" lon="6.0027">
        <ele>251.94</ele>
        <time>2017-10-04T08:51:37Z</time>
      </trkpt>
      <trkpt lat="47.63224" lon="6.00265">
        <ele>251.95</ele>
        <time>2017-10-04T08:51:40Z</time>
      </trkpt>
      <trkpt lat="47.63228" lon="6.00261">
        <ele>251.95</ele>
        <time>2017-10-04T08:51:43Z</time>
      </trkpt>
      <trkpt lat="47.63234" lon="6.00256">
        <ele>251.95</ele>
        <time>2017-10-04T08:51:47Z</time>
      </trkpt>
      <trkpt lat="47.63239" lon="6.00255">
        <ele>251.94</ele>
        <time>2017-10-04T08:51:49Z</time>
      </trkpt>
      <trkpt lat="47.63244" lon="6.00252">
        <ele>251.93</ele>
        <time>2017-10-04T08:51:50Z</time>
      </trkpt>
      <trkpt lat="47.6325" lon="6.00245">
        <ele>251.91</ele>
        <time>2017-10-04T08:51:52Z</time>
      </trkpt>
      <trkpt lat="47.63256" lon="6.00242">
        <ele>251.89</ele>
        <time>2017-10-04T08:51:54Z</time>
      </trkpt>
      <trkpt lat="47.6326" lon="6.0024">
        <ele>251.87</ele>
        <time>2017-10-04T08:51:56Z</time>
      </trkpt>
      <trkpt lat="47.63265" lon="6.00233">
        <ele>251.83</ele>
        <time>2017-10-04T08:51:59Z</time>
      </trkpt>
      <trkpt lat="47.63269" lon="6.00228">
        <ele>251.82</ele>
        <time>2017-10-04T08:52:00Z</time>
      </trkpt>
      <trkpt lat="47.63275" lon="6.00221">
        <ele>251.78</ele>
        <time>2017-10-04T08:52:02Z</time>
      </trkpt>
      <trkpt lat="47.63283" lon="6.00221">
        <ele>251.75</ele>
        <time>2017-10-04T08:52:04Z</time>
      </trkpt>
      <trkpt lat="47.6329" lon="6.0022">
        <ele>251.71</ele>
        <time>2017-10-04T08:52:06Z</time>
      </trkpt>
      <trkpt lat="47.63296" lon="6.00217">
        <ele>251.67</ele>
        <time>2017-10-04T08:52:08Z</time>
      </trkpt>
      <trkpt lat="47.63301" lon="6.00218">
        <ele>251.65</ele>
        <time>2017-10-04T08:52:09Z</time>
      </trkpt>
      <trkpt lat="47.63307" lon="6.00218">
        <ele>251.61</ele>
        <time>2017-10-04T08:52:11Z</time>
      </trkpt>
      <trkpt lat="47.63311" lon="6.00221">
        <ele>251.54</ele>
        <time>2017-10-04T08:52:14Z</time>
      </trkpt>
      <trkpt lat="47.63317" lon="6.00226">
        <ele>251.43</ele>
        <time>2017-10-04T08:52:24Z</time>
      </trkpt>
      <trkpt lat="47.63319" lon="6.00231">
        <ele>251.19</ele>
        <time>2017-10-04T08:52:33Z</time>
      </trkpt>
      <trkpt lat="47.63323" lon="6.00236">
        <ele>250.99</ele>
        <time>2017-10-04T08:52:41Z</time>
      </trkpt>
      <trkpt lat="47.63327" lon="6.00237">
        <ele>250.84</ele>
        <time>2017-10-04T08:53:00Z</time>
      </trkpt>
      <trkpt lat="47.63329" lon="6.00246">
        <ele>250.72</ele>
        <time>2017-10-04T08:53:04Z</time>
      </trkpt>
      <trkpt lat="47.63332" lon="6.00252">
        <ele>250.67</ele>
        <time>2017-10-04T08:53:06Z</time>
      </trkpt>
      <trkpt lat="47.63333" lon="6.0026">
        <ele>250.63</ele>
        <time>2017-10-04T08:53:08Z</time>
      </trkpt>
      <trkpt lat="47.63339" lon="6.00269">
        <ele>250.58</ele>
        <time>2017-10-04T08:53:10Z</time>
      </trkpt>
      <trkpt lat="47.63343" lon="6.00279">
        <ele>250.54</ele>
        <time>2017-10-04T08:53:12Z</time>
      </trkpt>
      <trkpt lat="47.63347" lon="6.00287">
        <ele>250.49</ele>
        <time>2017-10-04T08:53:14Z</time>
      </trkpt>
      <trkpt lat="47.63349" lon="6.00295">
        <ele>250.43</ele>
        <time>2017-10-04T08:53:17Z</time>
      </trkpt>
      <trkpt lat="47.63351" lon="6.00305">
        <ele>250.36</ele>
        <time>2017-10-04T08:53:20Z</time>
      </trkpt>
      <trkpt lat="47.63349" lon="6.00314">
        <ele>250.32</ele>
        <time>2017-10-04T08:53:22Z</time>
      </trkpt>
      <trkpt lat="47.6335" lon="6.00326">
        <ele>250.28</ele>
        <time>2017-10-04T08:53:24Z</time>
      </trkpt>
      <trkpt lat="47.63352" lon="6.00335">
        <ele>250.23</ele>
        <time>2017-10-04T08:53:27Z</time>
      </trkpt>
      <trkpt lat="47.63354" lon="6.00344">
        <ele>250.2</ele>
        <time>2017-10-04T08:53:29Z</time>
      </trkpt>
      <trkpt lat="47.63353" lon="6.00353">
        <ele>250.16</ele>
        <time>2017-10-04T08:53:32Z</time>
      </trkpt>
      <trkpt lat="47.63355" lon="6.00361">
        <ele>250.13</ele>
        <time>2017-10-04T08:53:35Z</time>
      </trkpt>
      <trkpt lat="47.63356" lon="6.00371">
        <ele>250.11</ele>
        <time>2017-10-04T08:53:38Z</time>
      </trkpt>
      <trkpt lat="47.63359" lon="6.00376">
        <ele>250.09</ele>
        <time>2017-10-04T08:53:41Z</time>
      </trkpt>
      <trkpt lat="47.63361" lon="6.00382">
        <ele>250.08</ele>
        <time>2017-10-04T08:53:44Z</time>
      </trkpt>
      <trkpt lat="47.63364" lon="6.0039">
        <ele>250.05</ele>
        <time>2017-10-04T08:53:48Z</time>
      </trkpt>
      <trkpt lat="47.63365" lon="6.00397">
        <ele>250.04</ele>
        <time>2017-10-04T08:53:51Z</time>
      </trkpt>
      <trkpt lat="47.63365" lon="6.00404">
        <ele>250.02</ele>
        <time>2017-10-04T08:53:53Z</time>
      </trkpt>
      <trkpt lat="47.63366" lon="6.00411">
        <ele>250.01</ele>
        <time>2017-10-04T08:53:56Z</time>
      </trkpt>
      <trkpt lat="47.63367" lon="6.0042">
        <ele>249.99</ele>
        <time>2017-10-04T08:53:59Z</time>
      </trkpt>
      <trkpt lat="47.63367" lon="6.00428">
        <ele>249.98</ele>
        <time>2017-10-04T08:54:02Z</time>
      </trkpt>
      <trkpt lat="47.63367" lon="6.00438">
        <ele>249.98</ele>
        <time>2017-10-04T08:54:05Z</time>
      </trkpt>
      <trkpt lat="47.63371" lon="6.00445">
        <ele>249.97</ele>
        <time>2017-10-04T08:54:07Z</time>
      </trkpt>
      <trkpt lat="47.63372" lon="6.00451">
        <ele>249.97</ele>
        <time>2017-10-04T08:54:09Z</time>
      </trkpt>
      <trkpt lat="47.63373" lon="6.00459">
        <ele>249.97</ele>
        <time>2017-10-04T08:54:11Z</time>
      </trkpt>
      <trkpt lat="47.63373" lon="6.00466">
        <ele>249.97</ele>
        <time>2017-10-04T08:54:13Z</time>
      </trkpt>
      <trkpt lat="47.63373" lon="6.00476">
        <ele>249.96</ele>
        <time>2017-10-04T08:54:15Z</time>
      </trkpt>
      <trkpt lat="47.63373" lon="6.00486">
        <ele>249.96</ele>
        <time>2017-10-04T08:54:17Z</time>
      </trkpt>
      <trkpt lat="47.63373" lon="6.00496">
        <ele>249.95</ele>
        <time>2017-10-04T08:54:19Z</time>
      </trkpt>
      <trkpt lat="47.63372" lon="6.00506">
        <ele>249.95</ele>
        <time>2017-10-04T08:54:21Z</time>
      </trkpt>
      <trkpt lat="47.63371" lon="6.00515">
        <ele>249.94</ele>
        <time>2017-10-04T08:54:24Z</time>
      </trkpt>
      <trkpt lat="47.63371" lon="6.00524">
        <ele>249.93</ele>
        <time>2017-10-04T08:54:27Z</time>
      </trkpt>
      <trkpt lat="47.6337" lon="6.00531">
        <ele>249.92</ele>
        <time>2017-10-04T08:54:29Z</time>
      </trkpt>
      <trkpt lat="47.63367" lon="6.00538">
        <ele>249.92</ele>
        <time>2017-10-04T08:54:31Z</time>
      </trkpt>
      <trkpt lat="47.63364" lon="6.00545">
        <ele>249.9</ele>
        <time>2017-10-04T08:54:34Z</time>
      </trkpt>
      <trkpt lat="47.63361" lon="6.00552">
        <ele>249.88</ele>
        <time>2017-10-04T08:54:37Z</time>
      </trkpt>
      <trkpt lat="47.63358" lon="6.00558">
        <ele>249.87</ele>
        <time>2017-10-04T08:54:39Z</time>
      </trkpt>
      <trkpt lat="47.63357" lon="6.00566">
        <ele>249.85</ele>
        <time>2017-10-04T08:54:41Z</time>
      </trkpt>
      <trkpt lat="47.63361" lon="6.00577">
        <ele>249.84</ele>
        <time>2017-10-04T08:54:43Z</time>
      </trkpt>
      <trkpt lat="47.63363" lon="6.00585">
        <ele>249.83</ele>
        <time>2017-10-04T08:54:45Z</time>
      </trkpt>
      <trkpt lat="47.63364" lon="6.00597">
        <ele>249.82</ele>
        <time>2017-10-04T08:54:47Z</time>
      </trkpt>
      <trkpt lat="47.63366" lon="6.00604">
        <ele>249.82</ele>
        <time>2017-10-04T08:54:49Z</time>
      </trkpt>
      <trkpt lat="47.63366" lon="6.00611">
        <ele>249.8</ele>
        <time>2017-10-04T08:54:52Z</time>
      </trkpt>
      <trkpt lat="47.63366" lon="6.0062">
        <ele>249.79</ele>
        <time>2017-10-04T08:54:55Z</time>
      </trkpt>
      <trkpt lat="47.63365" lon="6.0063">
        <ele>249.77</ele>
        <time>2017-10-04T08:54:57Z</time>
      </trkpt>
      <trkpt lat="47.63364" lon="6.00638">
        <ele>249.76</ele>
        <time>2017-10-04T08:54:59Z</time>
      </trkpt>
      <trkpt lat="47.63365" lon="6.00648">
        <ele>249.74</ele>
        <time>2017-10-04T08:55:01Z</time>
      </trkpt>
      <trkpt lat="47.63366" lon="6.00654">
        <ele>249.73</ele>
        <time>2017-10-04T08:55:03Z</time>
      </trkpt>
      <trkpt lat="47.63367" lon="6.00664">
        <ele>249.71</ele>
        <time>2017-10-04T08:55:06Z</time>
      </trkpt>
      <trkpt lat="47.63367" lon="6.00674">
        <ele>249.7</ele>
        <time>2017-10-04T08:55:09Z</time>
      </trkpt>
      <trkpt lat="47.63369" lon="6.00681">
        <ele>249.69</ele>
        <time>2017-10-04T08:55:11Z</time>
      </trkpt>
      <trkpt lat="47.63372" lon="6.00688">
        <ele>249.67</ele>
        <time>2017-10-04T08:55:13Z</time>
      </trkpt>
      <trkpt lat="47.6337" lon="6.00695">
        <ele>249.67</ele>
        <time>2017-10-04T08:55:14Z</time>
      </trkpt>
      <trkpt lat="47.63369" lon="6.00701">
        <ele>249.67</ele>
        <time>2017-10-04T08:55:15Z</time>
      </trkpt>
      <trkpt lat="47.63367" lon="6.00709">
        <ele>249.66</ele>
        <time>2017-10-04T08:55:17Z</time>
      </trkpt>
      <trkpt lat="47.63365" lon="6.00718">
        <ele>249.66</ele>
        <time>2017-10-04T08:55:20Z</time>
      </trkpt>
      <trkpt lat="47.6336" lon="6.00725">
        <ele>249.65</ele>
        <time>2017-10-04T08:55:23Z</time>
      </trkpt>
      <trkpt lat="47.63356" lon="6.0073">
        <ele>249.65</ele>
        <time>2017-10-04T08:55:25Z</time>
      </trkpt>
      <trkpt lat="47.63352" lon="6.00736">
        <ele>249.64</ele>
        <time>2017-10-04T08:55:30Z</time>
      </trkpt>
      <trkpt lat="47.6335" lon="6.00743">
        <ele>249.63</ele>
        <time>2017-10-04T08:55:33Z</time>
      </trkpt>
      <trkpt lat="47.63355" lon="6.00741">
        <ele>249.61</ele>
        <time>2017-10-04T08:55:42Z</time>
      </trkpt>
      <trkpt lat="47.63359" lon="6.00737">
        <ele>249.61</ele>
        <time>2017-10-04T08:55:44Z</time>
      </trkpt>
      <trkpt lat="47.63363" lon="6.00732">
        <ele>249.6</ele>
        <time>2017-10-04T08:55:46Z</time>
      </trkpt>
      <trkpt lat="47.63366" lon="6.00726">
        <ele>249.59</ele>
        <time>2017-10-04T08:55:48Z</time>
      </trkpt>
      <trkpt lat="47.6337" lon="6.0072">
        <ele>249.59</ele>
        <time>2017-10-04T08:55:50Z</time>
      </trkpt>
      <trkpt lat="47.63376" lon="6.00716">
        <ele>249.58</ele>
        <time>2017-10-04T08:55:52Z</time>
      </trkpt>
      <trkpt lat="47.63382" lon="6.00708">
        <ele>249.57</ele>
        <time>2017-10-04T08:55:55Z</time>
      </trkpt>
      <trkpt lat="47.63385" lon="6.00703">
        <ele>249.56</ele>
        <time>2017-10-04T08:55:57Z</time>
      </trkpt>
      <trkpt lat="47.63388" lon="6.00696">
        <ele>249.54</ele>
        <time>2017-10-04T08:56:00Z</time>
      </trkpt>
      <trkpt lat="47.63392" lon="6.00691">
        <ele>249.52</ele>
        <time>2017-10-04T08:56:03Z</time>
      </trkpt>
      <trkpt lat="47.63395" lon="6.00686">
        <ele>249.51</ele>
        <time>2017-10-04T08:56:05Z</time>
      </trkpt>
      <trkpt lat="47.63399" lon="6.00679">
        <ele>249.5</ele>
        <time>2017-10-04T08:56:07Z</time>
      </trkpt>
      <trkpt lat="47.634" lon="6.00667">
        <ele>249.47</ele>
        <time>2017-10-04T08:56:10Z</time>
      </trkpt>
      <trkpt lat="47.63402" lon="6.00659">
        <ele>249.46</ele>
        <time>2017-10-04T08:56:13Z</time>
      </trkpt>
      <trkpt lat="47.63405" lon="6.00652">
        <ele>249.44</ele>
        <time>2017-10-04T08:56:16Z</time>
      </trkpt>
      <trkpt lat="47.63406" lon="6.00644">
        <ele>249.42</ele>
        <time>2017-10-04T08:56:38Z</time>
      </trkpt>
      <trkpt lat="47.63402" lon="6.00641">
        <ele>249.4</ele>
        <time>2017-10-04T08:56:43Z</time>
      </trkpt>
      <trkpt lat="47.63397" lon="6.00639">
        <ele>249.38</ele>
        <time>2017-10-04T08:56:45Z</time>
      </trkpt>
      <trkpt lat="47.63392" lon="6.00642">
        <ele>249.36</ele>
        <time>2017-10-04T08:56:48Z</time>
      </trkpt>
      <trkpt lat="47.63388" lon="6.00647">
        <ele>249.33</ele>
        <time>2017-10-04T08:56:52Z</time>
      </trkpt>
      <trkpt lat="47.63384" lon="6.00654">
        <ele>249.3</ele>
        <time>2017-10-04T08:56:54Z</time>
      </trkpt>
      <trkpt lat="47.63381" lon="6.00664">
        <ele>249.28</ele>
        <time>2017-10-04T08:56:56Z</time>
      </trkpt>
      <trkpt lat="47.63377" lon="6.00671">
        <ele>249.26</ele>
        <time>2017-10-04T08:56:58Z</time>
      </trkpt>
      <trkpt lat="47.63373" lon="6.00682">
        <ele>249.23</ele>
        <time>2017-10-04T08:57:00Z</time>
      </trkpt>
      <trkpt lat="47.63369" lon="6.0069">
        <ele>249.21</ele>
        <time>2017-10-04T08:57:02Z</time>
      </trkpt>
      <trkpt lat="47.63365" lon="6.00698">
        <ele>249.18</ele>
        <time>2017-10-04T08:57:04Z</time>
      </trkpt>
      <trkpt lat="47.63358" lon="6.00711">
        <ele>249.16</ele>
        <time>2017-10-04T08:57:06Z</time>
      </trkpt>
      <trkpt lat="47.63355" lon="6.00722">
        <ele>249.14</ele>
        <time>2017-10-04T08:57:08Z</time>
      </trkpt>
      <trkpt lat="47.63354" lon="6.0073">
        <ele>249.13</ele>
        <time>2017-10-04T08:57:09Z</time>
      </trkpt>
      <trkpt lat="47.63354" lon="6.0074">
        <ele>249.11</ele>
        <time>2017-10-04T08:57:10Z</time>
      </trkpt>
      <trkpt lat="47.63354" lon="6.00748">
        <ele>249.04</ele>
        <time>2017-10-04T08:57:11Z</time>
      </trkpt>
      <trkpt lat="47.63355" lon="6.00757">
        <ele>248.95</ele>
        <time>2017-10-04T08:57:12Z</time>
      </trkpt>
      <trkpt lat="47.63355" lon="6.00766">
        <ele>248.88</ele>
        <time>2017-10-04T08:57:13Z</time>
      </trkpt>
      <trkpt lat="47.63355" lon="6.00774">
        <ele>248.81</ele>
        <time>2017-10-04T08:57:14Z</time>
      </trkpt>
      <trkpt lat="47.63354" lon="6.00781">
        <ele>248.75</ele>
        <time>2017-10-04T08:57:15Z</time>
      </trkpt>
      <trkpt lat="47.63353" lon="6.00791">
        <ele>248.7</ele>
        <time>2017-10-04T08:57:16Z</time>
      </trkpt>
      <trkpt lat="47.63353" lon="6.00799">
        <ele>248.65</ele>
        <time>2017-10-04T08:57:17Z</time>
      </trkpt>
      <trkpt lat="47.63353" lon="6.00809">
        <ele>248.6</ele>
        <time>2017-10-04T08:57:18Z</time>
      </trkpt>
      <trkpt lat="47.63354" lon="6.00818">
        <ele>248.56</ele>
        <time>2017-10-04T08:57:19Z</time>
      </trkpt>
      <trkpt lat="47.63355" lon="6.00827">
        <ele>248.52</ele>
        <time>2017-10-04T08:57:20Z</time>
      </trkpt>
      <trkpt lat="47.63355" lon="6.00837">
        <ele>248.49</ele>
        <time>2017-10-04T08:57:21Z</time>
      </trkpt>
      <trkpt lat="47.63356" lon="6.00849">
        <ele>248.47</ele>
        <time>2017-10-04T08:57:22Z</time>
      </trkpt>
      <trkpt lat="47.63358" lon="6.00857">
        <ele>248.44</ele>
        <time>2017-10-04T08:57:23Z</time>
      </trkpt>
      <trkpt lat="47.6336" lon="6.00869">
        <ele>248.42</ele>
        <time>2017-10-04T08:57:24Z</time>
      </trkpt>
      <trkpt lat="47.63363" lon="6.00879">
        <ele>248.41</ele>
        <time>2017-10-04T08:57:25Z</time>
      </trkpt>
      <trkpt lat="47.63366" lon="6.00887">
        <ele>248.4</ele>
        <time>2017-10-04T08:57:26Z</time>
      </trkpt>
      <trkpt lat="47.63368" lon="6.00894">
        <ele>248.4</ele>
        <time>2017-10-04T08:57:27Z</time>
      </trkpt>
      <trkpt lat="47.63372" lon="6.00905">
        <ele>248.39</ele>
        <time>2017-10-04T08:57:29Z</time>
      </trkpt>
      <trkpt lat="47.63375" lon="6.00911">
        <ele>248.38</ele>
        <time>2017-10-04T08:57:30Z</time>
      </trkpt>
      <trkpt lat="47.63378" lon="6.00924">
        <ele>248.38</ele>
        <time>2017-10-04T08:57:32Z</time>
      </trkpt>
      <trkpt lat="47.63379" lon="6.00931">
        <ele>248.37</ele>
        <time>2017-10-04T08:57:33Z</time>
      </trkpt>
      <trkpt lat="47.63381" lon="6.00938">
        <ele>248.37</ele>
        <time>2017-10-04T08:57:34Z</time>
      </trkpt>
      <trkpt lat="47.63382" lon="6.00946">
        <ele>248.37</ele>
        <time>2017-10-04T08:57:35Z</time>
      </trkpt>
      <trkpt lat="47.63383" lon="6.00956">
        <ele>248.37</ele>
        <time>2017-10-04T08:57:37Z</time>
      </trkpt>
      <trkpt lat="47.63382" lon="6.00963">
        <ele>248.37</ele>
        <time>2017-10-04T08:57:38Z</time>
      </trkpt>
      <trkpt lat="47.63382" lon="6.00971">
        <ele>248.37</ele>
        <time>2017-10-04T08:57:39Z</time>
      </trkpt>
      <trkpt lat="47.63383" lon="6.00979">
        <ele>248.37</ele>
        <time>2017-10-04T08:57:40Z</time>
      </trkpt>
      <trkpt lat="47.63383" lon="6.0099">
        <ele>248.37</ele>
        <time>2017-10-04T08:57:42Z</time>
      </trkpt>
      <trkpt lat="47.63383" lon="6.00997">
        <ele>248.37</ele>
        <time>2017-10-04T08:57:43Z</time>
      </trkpt>
      <trkpt lat="47.63383" lon="6.01008">
        <ele>248.38</ele>
        <time>2017-10-04T08:57:45Z</time>
      </trkpt>
      <trkpt lat="47.63384" lon="6.01018">
        <ele>248.38</ele>
        <time>2017-10-04T08:57:47Z</time>
      </trkpt>
      <trkpt lat="47.63384" lon="6.0103">
        <ele>248.38</ele>
        <time>2017-10-04T08:57:49Z</time>
      </trkpt>
      <trkpt lat="47.63383" lon="6.0104">
        <ele>248.38</ele>
        <time>2017-10-04T08:57:51Z</time>
      </trkpt>
      <trkpt lat="47.63384" lon="6.0105">
        <ele>248.38</ele>
        <time>2017-10-04T08:57:53Z</time>
      </trkpt>
      <trkpt lat="47.63384" lon="6.01059">
        <ele>248.38</ele>
        <time>2017-10-04T08:57:55Z</time>
      </trkpt>
      <trkpt lat="47.63385" lon="6.01069">
        <ele>248.38</ele>
        <time>2017-10-04T08:57:57Z</time>
      </trkpt>
      <trkpt lat="47.63384" lon="6.01077">
        <ele>248.38</ele>
        <time>2017-10-04T08:57:58Z</time>
      </trkpt>
      <trkpt lat="47.63384" lon="6.01087">
        <ele>248.37</ele>
        <time>2017-10-04T08:58:00Z</time>
      </trkpt>
      <trkpt lat="47.63384" lon="6.01096">
        <ele>248.37</ele>
        <time>2017-10-04T08:58:01Z</time>
      </trkpt>
      <trkpt lat="47.63387" lon="6.01106">
        <ele>248.37</ele>
        <time>2017-10-04T08:58:03Z</time>
      </trkpt>
      <trkpt lat="47.6339" lon="6.01114">
        <ele>248.37</ele>
        <time>2017-10-04T08:58:05Z</time>
      </trkpt>
      <trkpt lat="47.63392" lon="6.01121">
        <ele>248.37</ele>
        <time>2017-10-04T08:58:07Z</time>
      </trkpt>
      <trkpt lat="47.63395" lon="6.01129">
        <ele>248.37</ele>
        <time>2017-10-04T08:58:09Z</time>
      </trkpt>
      <trkpt lat="47.63399" lon="6.01139">
        <ele>248.37</ele>
        <time>2017-10-04T08:58:11Z</time>
      </trkpt>
      <trkpt lat="47.63402" lon="6.01146">
        <ele>248.37</ele>
        <time>2017-10-04T08:58:13Z</time>
      </trkpt>
      <trkpt lat="47.63405" lon="6.01156">
        <ele>248.36</ele>
        <time>2017-10-04T08:58:15Z</time>
      </trkpt>
      <trkpt lat="47.63409" lon="6.01166">
        <ele>248.36</ele>
        <time>2017-10-04T08:58:17Z</time>
      </trkpt>
      <trkpt lat="47.63413" lon="6.01176">
        <ele>248.36</ele>
        <time>2017-10-04T08:58:19Z</time>
      </trkpt>
      <trkpt lat="47.63418" lon="6.01183">
        <ele>248.35</ele>
        <time>2017-10-04T08:58:21Z</time>
      </trkpt>
      <trkpt lat="47.63423" lon="6.01193">
        <ele>248.35</ele>
        <time>2017-10-04T08:58:23Z</time>
      </trkpt>
      <trkpt lat="47.63426" lon="6.01201">
        <ele>248.35</ele>
        <time>2017-10-04T08:58:25Z</time>
      </trkpt>
      <trkpt lat="47.63429" lon="6.01207">
        <ele>248.35</ele>
        <time>2017-10-04T08:58:27Z</time>
      </trkpt>
      <trkpt lat="47.63431" lon="6.01214">
        <ele>248.35</ele>
        <time>2017-10-04T08:58:29Z</time>
      </trkpt>
      <trkpt lat="47.63434" lon="6.01221">
        <ele>248.34</ele>
        <time>2017-10-04T08:58:31Z</time>
      </trkpt>
      <trkpt lat="47.63439" lon="6.01229">
        <ele>248.34</ele>
        <time>2017-10-04T08:58:33Z</time>
      </trkpt>
      <trkpt lat="47.63443" lon="6.01236">
        <ele>248.34</ele>
        <time>2017-10-04T08:58:35Z</time>
      </trkpt>
      <trkpt lat="47.63448" lon="6.01244">
        <ele>248.34</ele>
        <time>2017-10-04T08:58:37Z</time>
      </trkpt>
      <trkpt lat="47.63451" lon="6.01251">
        <ele>248.33</ele>
        <time>2017-10-04T08:58:39Z</time>
      </trkpt>
      <trkpt lat="47.63456" lon="6.01259">
        <ele>248.33</ele>
        <time>2017-10-04T08:58:41Z</time>
      </trkpt>
      <trkpt lat="47.6346" lon="6.01264">
        <ele>248.32</ele>
        <time>2017-10-04T08:58:43Z</time>
      </trkpt>
      <trkpt lat="47.63463" lon="6.0127">
        <ele>248.32</ele>
        <time>2017-10-04T08:58:45Z</time>
      </trkpt>
      <trkpt lat="47.63467" lon="6.01277">
        <ele>248.31</ele>
        <time>2017-10-04T08:58:48Z</time>
      </trkpt>
      <trkpt lat="47.6347" lon="6.01282">
        <ele>248.31</ele>
        <time>2017-10-04T08:58:50Z</time>
      </trkpt>
      <trkpt lat="47.63474" lon="6.01289">
        <ele>248.31</ele>
        <time>2017-10-04T08:58:52Z</time>
      </trkpt>
      <trkpt lat="47.63477" lon="6.01296">
        <ele>248.31</ele>
        <time>2017-10-04T08:58:54Z</time>
      </trkpt>
      <trkpt lat="47.63482" lon="6.01301">
        <ele>248.31</ele>
        <time>2017-10-04T08:58:57Z</time>
      </trkpt>
      <trkpt lat="47.63487" lon="6.01303">
        <ele>248.31</ele>
        <time>2017-10-04T08:59:01Z</time>
      </trkpt>
      <trkpt lat="47.63492" lon="6.013">
        <ele>248.33</ele>
        <time>2017-10-04T08:59:04Z</time>
      </trkpt>
      <trkpt lat="47.63498" lon="6.01294">
        <ele>248.34</ele>
        <time>2017-10-04T08:59:07Z</time>
      </trkpt>
      <trkpt lat="47.63502" lon="6.01289">
        <ele>248.36</ele>
        <time>2017-10-04T08:59:10Z</time>
      </trkpt>
      <trkpt lat="47.63506" lon="6.01283">
        <ele>248.37</ele>
        <time>2017-10-04T08:59:12Z</time>
      </trkpt>
      <trkpt lat="47.6351" lon="6.01278">
        <ele>248.38</ele>
        <time>2017-10-04T08:59:14Z</time>
      </trkpt>
      <trkpt lat="47.63514" lon="6.01273">
        <ele>248.39</ele>
        <time>2017-10-04T08:59:16Z</time>
      </trkpt>
      <trkpt lat="47.63517" lon="6.01266">
        <ele>248.4</ele>
        <time>2017-10-04T08:59:18Z</time>
      </trkpt>
      <trkpt lat="47.63519" lon="6.01258">
        <ele>248.41</ele>
        <time>2017-10-04T08:59:20Z</time>
      </trkpt>
      <trkpt lat="47.63523" lon="6.01252">
        <ele>248.42</ele>
        <time>2017-10-04T08:59:22Z</time>
      </trkpt>
      <trkpt lat="47.63528" lon="6.01247">
        <ele>248.43</ele>
        <time>2017-10-04T08:59:23Z</time>
      </trkpt>
      <trkpt lat="47.63531" lon="6.01243">
        <ele>248.43</ele>
        <time>2017-10-04T08:59:24Z</time>
      </trkpt>
      <trkpt lat="47.63536" lon="6.01236">
        <ele>248.44</ele>
        <time>2017-10-04T08:59:27Z</time>
      </trkpt>
      <trkpt lat="47.63543" lon="6.01227">
        <ele>248.44</ele>
        <time>2017-10-04T08:59:29Z</time>
      </trkpt>
      <trkpt lat="47.63548" lon="6.01221">
        <ele>248.45</ele>
        <time>2017-10-04T08:59:31Z</time>
      </trkpt>
      <trkpt lat="47.63551" lon="6.01214">
        <ele>248.45</ele>
        <time>2017-10-04T08:59:33Z</time>
      </trkpt>
      <trkpt lat="47.63554" lon="6.01207">
        <ele>248.45</ele>
        <time>2017-10-04T08:59:36Z</time>
      </trkpt>
      <trkpt lat="47.63561" lon="6.01199">
        <ele>248.44</ele>
        <time>2017-10-04T08:59:39Z</time>
      </trkpt>
      <trkpt lat="47.63568" lon="6.01188">
        <ele>248.42</ele>
        <time>2017-10-04T08:59:41Z</time>
      </trkpt>
      <trkpt lat="47.63572" lon="6.01181">
        <ele>248.41</ele>
        <time>2017-10-04T08:59:42Z</time>
      </trkpt>
      <trkpt lat="47.63579" lon="6.01174">
        <ele>248.4</ele>
        <time>2017-10-04T08:59:44Z</time>
      </trkpt>
      <trkpt lat="47.63585" lon="6.01168">
        <ele>248.39</ele>
        <time>2017-10-04T08:59:46Z</time>
      </trkpt>
      <trkpt lat="47.6359" lon="6.0116">
        <ele>248.39</ele>
        <time>2017-10-04T08:59:48Z</time>
      </trkpt>
      <trkpt lat="47.63593" lon="6.01151">
        <ele>248.39</ele>
        <time>2017-10-04T08:59:50Z</time>
      </trkpt>
      <trkpt lat="47.63596" lon="6.01142">
        <ele>248.38</ele>
        <time>2017-10-04T08:59:52Z</time>
      </trkpt>
      <trkpt lat="47.63597" lon="6.01133">
        <ele>248.38</ele>
        <time>2017-10-04T08:59:54Z</time>
      </trkpt>
      <trkpt lat="47.636" lon="6.01125">
        <ele>248.38</ele>
        <time>2017-10-04T08:59:57Z</time>
      </trkpt>
      <trkpt lat="47.636" lon="6.01113">
        <ele>248.37</ele>
        <time>2017-10-04T08:59:59Z</time>
      </trkpt>
      <trkpt lat="47.63601" lon="6.01104">
        <ele>248.37</ele>
        <time>2017-10-04T09:00:01Z</time>
      </trkpt>
      <trkpt lat="47.63604" lon="6.01096">
        <ele>248.37</ele>
        <time>2017-10-04T09:00:04Z</time>
      </trkpt>
      <trkpt lat="47.63609" lon="6.01089">
        <ele>248.36</ele>
        <time>2017-10-04T09:00:06Z</time>
      </trkpt>
      <trkpt lat="47.63613" lon="6.01083">
        <ele>248.36</ele>
        <time>2017-10-04T09:00:08Z</time>
      </trkpt>
      <trkpt lat="47.63618" lon="6.01077">
        <ele>248.36</ele>
        <time>2017-10-04T09:00:10Z</time>
      </trkpt>
      <trkpt lat="47.63623" lon="6.0107">
        <ele>248.35</ele>
        <time>2017-10-04T09:00:12Z</time>
      </trkpt>
      <trkpt lat="47.63629" lon="6.01065">
        <ele>248.35</ele>
        <time>2017-10-04T09:00:14Z</time>
      </trkpt>
      <trkpt lat="47.63632" lon="6.01057">
        <ele>248.35</ele>
        <time>2017-10-04T09:00:16Z</time>
      </trkpt>
      <trkpt lat="47.63635" lon="6.0105">
        <ele>248.35</ele>
        <time>2017-10-04T09:00:19Z</time>
      </trkpt>
      <trkpt lat="47.63639" lon="6.01044">
        <ele>248.36</ele>
        <time>2017-10-04T09:00:22Z</time>
      </trkpt>
      <trkpt lat="47.63643" lon="6.01037">
        <ele>248.36</ele>
        <time>2017-10-04T09:00:25Z</time>
      </trkpt>
      <trkpt lat="47.63646" lon="6.01031">
        <ele>248.37</ele>
        <time>2017-10-04T09:00:28Z</time>
      </trkpt>
      <trkpt lat="47.63649" lon="6.01025">
        <ele>248.38</ele>
        <time>2017-10-04T09:00:30Z</time>
      </trkpt>
      <trkpt lat="47.63653" lon="6.01019">
        <ele>248.39</ele>
        <time>2017-10-04T09:00:33Z</time>
      </trkpt>
      <trkpt lat="47.63655" lon="6.01012">
        <ele>248.41</ele>
        <time>2017-10-04T09:00:36Z</time>
      </trkpt>
      <trkpt lat="47.6366" lon="6.01005">
        <ele>248.42</ele>
        <time>2017-10-04T09:00:38Z</time>
      </trkpt>
      <trkpt lat="47.63662" lon="6.00999">
        <ele>248.43</ele>
        <time>2017-10-04T09:00:40Z</time>
      </trkpt>
      <trkpt lat="47.63667" lon="6.00992">
        <ele>248.44</ele>
        <time>2017-10-04T09:00:42Z</time>
      </trkpt>
      <trkpt lat="47.63671" lon="6.00987">
        <ele>248.46</ele>
        <time>2017-10-04T09:00:45Z</time>
      </trkpt>
      <trkpt lat="47.63677" lon="6.00981">
        <ele>248.47</ele>
        <time>2017-10-04T09:00:47Z</time>
      </trkpt>
      <trkpt lat="47.63683" lon="6.00973">
        <ele>248.48</ele>
        <time>2017-10-04T09:00:49Z</time>
      </trkpt>
      <trkpt lat="47.63687" lon="6.00964">
        <ele>248.49</ele>
        <time>2017-10-04T09:00:51Z</time>
      </trkpt>
      <trkpt lat="47.6369" lon="6.00956">
        <ele>248.51</ele>
        <time>2017-10-04T09:00:54Z</time>
      </trkpt>
      <trkpt lat="47.63694" lon="6.0095">
        <ele>248.52</ele>
        <time>2017-10-04T09:00:57Z</time>
      </trkpt>
      <trkpt lat="47.63698" lon="6.00943">
        <ele>248.54</ele>
        <time>2017-10-04T09:01:00Z</time>
      </trkpt>
      <trkpt lat="47.63702" lon="6.00938">
        <ele>248.55</ele>
        <time>2017-10-04T09:01:04Z</time>
      </trkpt>
      <trkpt lat="47.63705" lon="6.00932">
        <ele>248.57</ele>
        <time>2017-10-04T09:01:07Z</time>
      </trkpt>
      <trkpt lat="47.63709" lon="6.00926">
        <ele>248.58</ele>
        <time>2017-10-04T09:01:10Z</time>
      </trkpt>
      <trkpt lat="47.63713" lon="6.00921">
        <ele>248.58</ele>
        <time>2017-10-04T09:01:12Z</time>
      </trkpt>
      <trkpt lat="47.63717" lon="6.00917">
        <ele>248.59</ele>
        <time>2017-10-04T09:01:14Z</time>
      </trkpt>
      <trkpt lat="47.63719" lon="6.00908">
        <ele>248.59</ele>
        <time>2017-10-04T09:01:17Z</time>
      </trkpt>
      <trkpt lat="47.63721" lon="6.00901">
        <ele>248.6</ele>
        <time>2017-10-04T09:01:21Z</time>
      </trkpt>
      <trkpt lat="47.63725" lon="6.00895">
        <ele>248.61</ele>
        <time>2017-10-04T09:01:25Z</time>
      </trkpt>
      <trkpt lat="47.63731" lon="6.00886">
        <ele>248.62</ele>
        <time>2017-10-04T09:01:27Z</time>
      </trkpt>
      <trkpt lat="47.63734" lon="6.0088">
        <ele>248.62</ele>
        <time>2017-10-04T09:01:30Z</time>
      </trkpt>
      <trkpt lat="47.63736" lon="6.00873">
        <ele>248.63</ele>
        <time>2017-10-04T09:01:32Z</time>
      </trkpt>
      <trkpt lat="47.63738" lon="6.00864">
        <ele>248.64</ele>
        <time>2017-10-04T09:01:34Z</time>
      </trkpt>
      <trkpt lat="47.6374" lon="6.00856">
        <ele>248.66</ele>
        <time>2017-10-04T09:01:38Z</time>
      </trkpt>
      <trkpt lat="47.63742" lon="6.0085">
        <ele>248.68</ele>
        <time>2017-10-04T09:01:41Z</time>
      </trkpt>
      <trkpt lat="47.63745" lon="6.00845">
        <ele>248.7</ele>
        <time>2017-10-04T09:01:44Z</time>
      </trkpt>
      <trkpt lat="47.6375" lon="6.00836">
        <ele>248.72</ele>
        <time>2017-10-04T09:01:47Z</time>
      </trkpt>
      <trkpt lat="47.63755" lon="6.00832">
        <ele>248.73</ele>
        <time>2017-10-04T09:01:49Z</time>
      </trkpt>
      <trkpt lat="47.63763" lon="6.00827">
        <ele>248.75</ele>
        <time>2017-10-04T09:01:52Z</time>
      </trkpt>
      <trkpt lat="47.6377" lon="6.00824">
        <ele>248.76</ele>
        <time>2017-10-04T09:01:54Z</time>
      </trkpt>
      <trkpt lat="47.63775" lon="6.00817">
        <ele>248.78</ele>
        <time>2017-10-04T09:01:56Z</time>
      </trkpt>
      <trkpt lat="47.6378" lon="6.00809">
        <ele>248.79</ele>
        <time>2017-10-04T09:01:58Z</time>
      </trkpt>
      <trkpt lat="47.63785" lon="6.00802">
        <ele>248.81</ele>
        <time>2017-10-04T09:02:00Z</time>
      </trkpt>
      <trkpt lat="47.6379" lon="6.00795">
        <ele>248.82</ele>
        <time>2017-10-04T09:02:02Z</time>
      </trkpt>
      <trkpt lat="47.63794" lon="6.00789">
        <ele>248.84</ele>
        <time>2017-10-04T09:02:04Z</time>
      </trkpt>
      <trkpt lat="47.63799" lon="6.00782">
        <ele>248.86</ele>
        <time>2017-10-04T09:02:06Z</time>
      </trkpt>
      <trkpt lat="47.63803" lon="6.00775">
        <ele>248.88</ele>
        <time>2017-10-04T09:02:09Z</time>
      </trkpt>
      <trkpt lat="47.63807" lon="6.00769">
        <ele>248.91</ele>
        <time>2017-10-04T09:02:12Z</time>
      </trkpt>
      <trkpt lat="47.63811" lon="6.00764">
        <ele>248.94</ele>
        <time>2017-10-04T09:02:15Z</time>
      </trkpt>
      <trkpt lat="47.63815" lon="6.00759">
        <ele>248.96</ele>
        <time>2017-10-04T09:02:18Z</time>
      </trkpt>
      <trkpt lat="47.63821" lon="6.00757">
        <ele>248.98</ele>
        <time>2017-10-04T09:02:20Z</time>
      </trkpt>
      <trkpt lat="47.63827" lon="6.00753">
        <ele>249</ele>
        <time>2017-10-04T09:02:22Z</time>
      </trkpt>
      <trkpt lat="47.63832" lon="6.00748">
        <ele>249.01</ele>
        <time>2017-10-04T09:02:24Z</time>
      </trkpt>
      <trkpt lat="47.63837" lon="6.00744">
        <ele>249.02</ele>
        <time>2017-10-04T09:02:26Z</time>
      </trkpt>
      <trkpt lat="47.63842" lon="6.0074">
        <ele>249.07</ele>
        <time>2017-10-04T09:02:31Z</time>
      </trkpt>
      <trkpt lat="47.63846" lon="6.00734">
        <ele>249.1</ele>
        <time>2017-10-04T09:02:34Z</time>
      </trkpt>
      <trkpt lat="47.63852" lon="6.00732">
        <ele>249.13</ele>
        <time>2017-10-04T09:02:37Z</time>
      </trkpt>
      <trkpt lat="47.63856" lon="6.00729">
        <ele>249.15</ele>
        <time>2017-10-04T09:02:39Z</time>
      </trkpt>
      <trkpt lat="47.63862" lon="6.00727">
        <ele>249.18</ele>
        <time>2017-10-04T09:02:42Z</time>
      </trkpt>
      <trkpt lat="47.63868" lon="6.00726">
        <ele>249.21</ele>
        <time>2017-10-04T09:02:45Z</time>
      </trkpt>
      <trkpt lat="47.63872" lon="6.00725">
        <ele>249.24</ele>
        <time>2017-10-04T09:02:48Z</time>
      </trkpt>
      <trkpt lat="47.63878" lon="6.00723">
        <ele>249.29</ele>
        <time>2017-10-04T09:02:52Z</time>
      </trkpt>
      <trkpt lat="47.63882" lon="6.00718">
        <ele>249.32</ele>
        <time>2017-10-04T09:02:55Z</time>
      </trkpt>
      <trkpt lat="47.63887" lon="6.00712">
        <ele>249.35</ele>
        <time>2017-10-04T09:02:58Z</time>
      </trkpt>
      <trkpt lat="47.63892" lon="6.00706">
        <ele>249.38</ele>
        <time>2017-10-04T09:03:01Z</time>
      </trkpt>
      <trkpt lat="47.63897" lon="6.00703">
        <ele>249.43</ele>
        <time>2017-10-04T09:03:05Z</time>
      </trkpt>
      <trkpt lat="47.63901" lon="6.007">
        <ele>249.47</ele>
        <time>2017-10-04T09:03:13Z</time>
      </trkpt>
      <trkpt lat="47.63905" lon="6.00703">
        <ele>249.54</ele>
        <time>2017-10-04T09:03:33Z</time>
      </trkpt>
      <trkpt lat="47.639" lon="6.00703">
        <ele>249.66</ele>
        <time>2017-10-04T09:03:50Z</time>
      </trkpt>
      <trkpt lat="47.63895" lon="6.00706">
        <ele>249.7</ele>
        <time>2017-10-04T09:03:53Z</time>
      </trkpt>
      <trkpt lat="47.6389" lon="6.00708">
        <ele>249.76</ele>
        <time>2017-10-04T09:03:57Z</time>
      </trkpt>
      <trkpt lat="47.63886" lon="6.00712">
        <ele>249.85</ele>
        <time>2017-10-04T09:04:05Z</time>
      </trkpt>
      <trkpt lat="47.63881" lon="6.00716">
        <ele>249.89</ele>
        <time>2017-10-04T09:04:08Z</time>
      </trkpt>
      <trkpt lat="47.63877" lon="6.00721">
        <ele>249.92</ele>
        <time>2017-10-04T09:04:11Z</time>
      </trkpt>
      <trkpt lat="47.63872" lon="6.00723">
        <ele>249.97</ele>
        <time>2017-10-04T09:04:14Z</time>
      </trkpt>
      <trkpt lat="47.63867" lon="6.00724">
        <ele>250.01</ele>
        <time>2017-10-04T09:04:17Z</time>
      </trkpt>
      <trkpt lat="47.63862" lon="6.00725">
        <ele>250.03</ele>
        <time>2017-10-04T09:04:19Z</time>
      </trkpt>
      <trkpt lat="47.63855" lon="6.0073">
        <ele>250.08</ele>
        <time>2017-10-04T09:04:22Z</time>
      </trkpt>
      <trkpt lat="47.63851" lon="6.00734">
        <ele>250.12</ele>
        <time>2017-10-04T09:04:25Z</time>
      </trkpt>
      <trkpt lat="47.63846" lon="6.00732">
        <ele>250.19</ele>
        <time>2017-10-04T09:04:29Z</time>
      </trkpt>
      <trkpt lat="47.63841" lon="6.00735">
        <ele>250.24</ele>
        <time>2017-10-04T09:04:32Z</time>
      </trkpt>
      <trkpt lat="47.63836" lon="6.00738">
        <ele>250.32</ele>
        <time>2017-10-04T09:04:37Z</time>
      </trkpt>
      <trkpt lat="47.63831" lon="6.0074">
        <ele>250.35</ele>
        <time>2017-10-04T09:04:39Z</time>
      </trkpt>
      <trkpt lat="47.63825" lon="6.00739">
        <ele>250.39</ele>
        <time>2017-10-04T09:04:41Z</time>
      </trkpt>
      <trkpt lat="47.6382" lon="6.00739">
        <ele>250.41</ele>
        <time>2017-10-04T09:04:43Z</time>
      </trkpt>
      <trkpt lat="47.63815" lon="6.00747">
        <ele>250.44</ele>
        <time>2017-10-04T09:04:45Z</time>
      </trkpt>
      <trkpt lat="47.6381" lon="6.00752">
        <ele>250.47</ele>
        <time>2017-10-04T09:04:47Z</time>
      </trkpt>
      <trkpt lat="47.63809" lon="6.00759">
        <ele>250.51</ele>
        <time>2017-10-04T09:04:50Z</time>
      </trkpt>
      <trkpt lat="47.63813" lon="6.00764">
        <ele>250.63</ele>
        <time>2017-10-04T09:05:06Z</time>
      </trkpt>
      <trkpt lat="47.63817" lon="6.00766">
        <ele>250.69</ele>
        <time>2017-10-04T09:05:15Z</time>
      </trkpt>
      <trkpt lat="47.63822" lon="6.00766">
        <ele>250.76</ele>
        <time>2017-10-04T09:05:19Z</time>
      </trkpt>
      <trkpt lat="47.63827" lon="6.00766">
        <ele>250.82</ele>
        <time>2017-10-04T09:05:22Z</time>
      </trkpt>
      <trkpt lat="47.63833" lon="6.00767">
        <ele>250.85</ele>
        <time>2017-10-04T09:05:24Z</time>
      </trkpt>
      <trkpt lat="47.63837" lon="6.0077">
        <ele>250.9</ele>
        <time>2017-10-04T09:05:27Z</time>
      </trkpt>
      <trkpt lat="47.63841" lon="6.00776">
        <ele>250.96</ele>
        <time>2017-10-04T09:05:31Z</time>
      </trkpt>
      <trkpt lat="47.63844" lon="6.00781">
        <ele>251.01</ele>
        <time>2017-10-04T09:05:34Z</time>
      </trkpt>
      <trkpt lat="47.63848" lon="6.00787">
        <ele>251.05</ele>
        <time>2017-10-04T09:05:37Z</time>
      </trkpt>
      <trkpt lat="47.63852" lon="6.00794">
        <ele>251.09</ele>
        <time>2017-10-04T09:05:40Z</time>
      </trkpt>
      <trkpt lat="47.63856" lon="6.00798">
        <ele>251.11</ele>
        <time>2017-10-04T09:05:42Z</time>
      </trkpt>
      <trkpt lat="47.63861" lon="6.00804">
        <ele>251.15</ele>
        <time>2017-10-04T09:05:45Z</time>
      </trkpt>
      <trkpt lat="47.63865" lon="6.00809">
        <ele>251.2</ele>
        <time>2017-10-04T09:05:49Z</time>
      </trkpt>
      <trkpt lat="47.63867" lon="6.00816">
        <ele>251.26</ele>
        <time>2017-10-04T09:05:53Z</time>
      </trkpt>
      <trkpt lat="47.63868" lon="6.00824">
        <ele>251.33</ele>
        <time>2017-10-04T09:05:58Z</time>
      </trkpt>
      <trkpt lat="47.63871" lon="6.0083">
        <ele>251.38</ele>
        <time>2017-10-04T09:06:03Z</time>
      </trkpt>
      <trkpt lat="47.63876" lon="6.00835">
        <ele>251.41</ele>
        <time>2017-10-04T09:06:05Z</time>
      </trkpt>
      <trkpt lat="47.63881" lon="6.00843">
        <ele>251.46</ele>
        <time>2017-10-04T09:06:09Z</time>
      </trkpt>
      <trkpt lat="47.63884" lon="6.00848">
        <ele>251.5</ele>
        <time>2017-10-04T09:06:12Z</time>
      </trkpt>
      <trkpt lat="47.63887" lon="6.00853">
        <ele>251.54</ele>
        <time>2017-10-04T09:06:16Z</time>
      </trkpt>
      <trkpt lat="47.63891" lon="6.00859">
        <ele>251.59</ele>
        <time>2017-10-04T09:06:20Z</time>
      </trkpt>
      <trkpt lat="47.63896" lon="6.00861">
        <ele>251.64</ele>
        <time>2017-10-04T09:06:24Z</time>
      </trkpt>
      <trkpt lat="47.63901" lon="6.00865">
        <ele>251.66</ele>
        <time>2017-10-04T09:06:26Z</time>
      </trkpt>
      <trkpt lat="47.63906" lon="6.00869">
        <ele>251.69</ele>
        <time>2017-10-04T09:06:28Z</time>
      </trkpt>
      <trkpt lat="47.6391" lon="6.00873">
        <ele>251.72</ele>
        <time>2017-10-04T09:06:31Z</time>
      </trkpt>
      <trkpt lat="47.63914" lon="6.00876">
        <ele>251.75</ele>
        <time>2017-10-04T09:06:34Z</time>
      </trkpt>
      <trkpt lat="47.63917" lon="6.00882">
        <ele>251.81</ele>
        <time>2017-10-04T09:06:39Z</time>
      </trkpt>
      <trkpt lat="47.63921" lon="6.00887">
        <ele>251.86</ele>
        <time>2017-10-04T09:06:43Z</time>
      </trkpt>
      <trkpt lat="47.63925" lon="6.00891">
        <ele>251.91</ele>
        <time>2017-10-04T09:06:47Z</time>
      </trkpt>
      <trkpt lat="47.6393" lon="6.00896">
        <ele>251.96</ele>
        <time>2017-10-04T09:06:51Z</time>
      </trkpt>
      <trkpt lat="47.63933" lon="6.00901">
        <ele>252.02</ele>
        <time>2017-10-04T09:06:55Z</time>
      </trkpt>
      <trkpt lat="47.63938" lon="6.00905">
        <ele>252.05</ele>
        <time>2017-10-04T09:06:57Z</time>
      </trkpt>
      <trkpt lat="47.63944" lon="6.00909">
        <ele>252.09</ele>
        <time>2017-10-04T09:07:00Z</time>
      </trkpt>
      <trkpt lat="47.63948" lon="6.00914">
        <ele>252.16</ele>
        <time>2017-10-04T09:07:05Z</time>
      </trkpt>
      <trkpt lat="47.63953" lon="6.00918">
        <ele>252.18</ele>
        <time>2017-10-04T09:07:07Z</time>
      </trkpt>
      <trkpt lat="47.63958" lon="6.00921">
        <ele>252.22</ele>
        <time>2017-10-04T09:07:10Z</time>
      </trkpt>
      <trkpt lat="47.63962" lon="6.00926">
        <ele>252.32</ele>
        <time>2017-10-04T09:07:17Z</time>
      </trkpt>
      <trkpt lat="47.63966" lon="6.0093">
        <ele>252.36</ele>
        <time>2017-10-04T09:07:20Z</time>
      </trkpt>
      <trkpt lat="47.63972" lon="6.00935">
        <ele>252.41</ele>
        <time>2017-10-04T09:07:23Z</time>
      </trkpt>
      <trkpt lat="47.63976" lon="6.00937">
        <ele>252.45</ele>
        <time>2017-10-04T09:07:26Z</time>
      </trkpt>
      <trkpt lat="47.63981" lon="6.00941">
        <ele>252.5</ele>
        <time>2017-10-04T09:07:29Z</time>
      </trkpt>
      <trkpt lat="47.63984" lon="6.00947">
        <ele>252.58</ele>
        <time>2017-10-04T09:07:34Z</time>
      </trkpt>
      <trkpt lat="47.63988" lon="6.00952">
        <ele>252.65</ele>
        <time>2017-10-04T09:07:38Z</time>
      </trkpt>
      <trkpt lat="47.63993" lon="6.00957">
        <ele>252.7</ele>
        <time>2017-10-04T09:07:41Z</time>
      </trkpt>
      <trkpt lat="47.63997" lon="6.00965">
        <ele>252.8</ele>
        <time>2017-10-04T09:07:48Z</time>
      </trkpt>
      <trkpt lat="47.64001" lon="6.0097">
        <ele>252.85</ele>
        <time>2017-10-04T09:07:51Z</time>
      </trkpt>
      <trkpt lat="47.64006" lon="6.00975">
        <ele>252.91</ele>
        <time>2017-10-04T09:07:55Z</time>
      </trkpt>
      <trkpt lat="47.64009" lon="6.0098">
        <ele>252.98</ele>
        <time>2017-10-04T09:07:59Z</time>
      </trkpt>
      <trkpt lat="47.64013" lon="6.00984">
        <ele>253.02</ele>
        <time>2017-10-04T09:08:02Z</time>
      </trkpt>
      <trkpt lat="47.64018" lon="6.00987">
        <ele>253.07</ele>
        <time>2017-10-04T09:08:05Z</time>
      </trkpt>
      <trkpt lat="47.64022" lon="6.00991">
        <ele>253.11</ele>
        <time>2017-10-04T09:08:07Z</time>
      </trkpt>
      <trkpt lat="47.64026" lon="6.00995">
        <ele>253.14</ele>
        <time>2017-10-04T09:08:09Z</time>
      </trkpt>
      <trkpt lat="47.6403" lon="6.01002">
        <ele>253.19</ele>
        <time>2017-10-04T09:08:12Z</time>
      </trkpt>
      <trkpt lat="47.64035" lon="6.01008">
        <ele>253.25</ele>
        <time>2017-10-04T09:08:15Z</time>
      </trkpt>
      <trkpt lat="47.64038" lon="6.01014">
        <ele>253.3</ele>
        <time>2017-10-04T09:08:18Z</time>
      </trkpt>
      <trkpt lat="47.64043" lon="6.01019">
        <ele>253.36</ele>
        <time>2017-10-04T09:08:21Z</time>
      </trkpt>
      <trkpt lat="47.64047" lon="6.01024">
        <ele>253.39</ele>
        <time>2017-10-04T09:08:23Z</time>
      </trkpt>
      <trkpt lat="47.64051" lon="6.01029">
        <ele>253.45</ele>
        <time>2017-10-04T09:08:26Z</time>
      </trkpt>
      <trkpt lat="47.64055" lon="6.01035">
        <ele>253.51</ele>
        <time>2017-10-04T09:08:29Z</time>
      </trkpt>
      <trkpt lat="47.64058" lon="6.0104">
        <ele>253.57</ele>
        <time>2017-10-04T09:08:32Z</time>
      </trkpt>
      <trkpt lat="47.6406" lon="6.01047">
        <ele>253.61</ele>
        <time>2017-10-04T09:08:34Z</time>
      </trkpt>
      <trkpt lat="47.6406" lon="6.01055">
        <ele>253.66</ele>
        <time>2017-10-04T09:08:37Z</time>
      </trkpt>
      <trkpt lat="47.64066" lon="6.01061">
        <ele>253.7</ele>
        <time>2017-10-04T09:08:40Z</time>
      </trkpt>
      <trkpt lat="47.64071" lon="6.01066">
        <ele>253.73</ele>
        <time>2017-10-04T09:08:42Z</time>
      </trkpt>
      <trkpt lat="47.64074" lon="6.01072">
        <ele>253.76</ele>
        <time>2017-10-04T09:08:44Z</time>
      </trkpt>
      <trkpt lat="47.64078" lon="6.01077">
        <ele>253.78</ele>
        <time>2017-10-04T09:08:46Z</time>
      </trkpt>
      <trkpt lat="47.64082" lon="6.01081">
        <ele>253.81</ele>
        <time>2017-10-04T09:08:48Z</time>
      </trkpt>
      <trkpt lat="47.64086" lon="6.01085">
        <ele>253.84</ele>
        <time>2017-10-04T09:08:51Z</time>
      </trkpt>
      <trkpt lat="47.6409" lon="6.01089">
        <ele>253.9</ele>
        <time>2017-10-04T09:08:56Z</time>
      </trkpt>
      <trkpt lat="47.64094" lon="6.01091">
        <ele>253.93</ele>
        <time>2017-10-04T09:08:59Z</time>
      </trkpt>
      <trkpt lat="47.64101" lon="6.01093">
        <ele>253.95</ele>
        <time>2017-10-04T09:09:02Z</time>
      </trkpt>
      <trkpt lat="47.64107" lon="6.01093">
        <ele>253.97</ele>
        <time>2017-10-04T09:09:04Z</time>
      </trkpt>
      <trkpt lat="47.64114" lon="6.01093">
        <ele>254</ele>
        <time>2017-10-04T09:09:07Z</time>
      </trkpt>
      <trkpt lat="47.6412" lon="6.01096">
        <ele>254.01</ele>
        <time>2017-10-04T09:09:09Z</time>
      </trkpt>
      <trkpt lat="47.64125" lon="6.01097">
        <ele>254.03</ele>
        <time>2017-10-04T09:09:11Z</time>
      </trkpt>
      <trkpt lat="47.64129" lon="6.011">
        <ele>254.04</ele>
        <time>2017-10-04T09:09:13Z</time>
      </trkpt>
      <trkpt lat="47.64135" lon="6.01104">
        <ele>254.05</ele>
        <time>2017-10-04T09:09:15Z</time>
      </trkpt>
      <trkpt lat="47.64139" lon="6.01109">
        <ele>254.07</ele>
        <time>2017-10-04T09:09:18Z</time>
      </trkpt>
      <trkpt lat="47.64145" lon="6.01116">
        <ele>254.08</ele>
        <time>2017-10-04T09:09:21Z</time>
      </trkpt>
      <trkpt lat="47.64148" lon="6.01122">
        <ele>254.08</ele>
        <time>2017-10-04T09:09:23Z</time>
      </trkpt>
      <trkpt lat="47.64153" lon="6.01124">
        <ele>254.08</ele>
        <time>2017-10-04T09:09:24Z</time>
      </trkpt>
      <trkpt lat="47.64161" lon="6.01129">
        <ele>254.08</ele>
        <time>2017-10-04T09:09:26Z</time>
      </trkpt>
      <trkpt lat="47.64169" lon="6.01136">
        <ele>254.08</ele>
        <time>2017-10-04T09:09:28Z</time>
      </trkpt>
      <trkpt lat="47.64173" lon="6.01139">
        <ele>254.07</ele>
        <time>2017-10-04T09:09:29Z</time>
      </trkpt>
      <trkpt lat="47.64178" lon="6.01142">
        <ele>254.07</ele>
        <time>2017-10-04T09:09:30Z</time>
      </trkpt>
      <trkpt lat="47.64182" lon="6.01145">
        <ele>254.07</ele>
        <time>2017-10-04T09:09:31Z</time>
      </trkpt>
      <trkpt lat="47.64187" lon="6.01149">
        <ele>254.07</ele>
        <time>2017-10-04T09:09:32Z</time>
      </trkpt>
      <trkpt lat="47.64197" lon="6.01156">
        <ele>254.08</ele>
        <time>2017-10-04T09:09:34Z</time>
      </trkpt>
      <trkpt lat="47.64203" lon="6.01161">
        <ele>254.09</ele>
        <time>2017-10-04T09:09:36Z</time>
      </trkpt>
      <trkpt lat="47.64207" lon="6.01166">
        <ele>254.09</ele>
        <time>2017-10-04T09:09:37Z</time>
      </trkpt>
      <trkpt lat="47.6421" lon="6.01172">
        <ele>254.1</ele>
        <time>2017-10-04T09:09:39Z</time>
      </trkpt>
      <trkpt lat="47.64216" lon="6.01177">
        <ele>254.11</ele>
        <time>2017-10-04T09:09:41Z</time>
      </trkpt>
      <trkpt lat="47.64223" lon="6.01178">
        <ele>254.13</ele>
        <time>2017-10-04T09:09:43Z</time>
      </trkpt>
      <trkpt lat="47.64229" lon="6.01182">
        <ele>254.15</ele>
        <time>2017-10-04T09:09:45Z</time>
      </trkpt>
      <trkpt lat="47.64233" lon="6.01187">
        <ele>254.17</ele>
        <time>2017-10-04T09:09:47Z</time>
      </trkpt>
      <trkpt lat="47.64235" lon="6.01195">
        <ele>254.18</ele>
        <time>2017-10-04T09:09:49Z</time>
      </trkpt>
      <trkpt lat="47.64239" lon="6.01203">
        <ele>254.2</ele>
        <time>2017-10-04T09:09:51Z</time>
      </trkpt>
      <trkpt lat="47.64242" lon="6.01212">
        <ele>254.22</ele>
        <time>2017-10-04T09:09:53Z</time>
      </trkpt>
      <trkpt lat="47.64247" lon="6.01223">
        <ele>254.23</ele>
        <time>2017-10-04T09:09:55Z</time>
      </trkpt>
      <trkpt lat="47.64252" lon="6.01232">
        <ele>254.24</ele>
        <time>2017-10-04T09:09:57Z</time>
      </trkpt>
      <trkpt lat="47.64256" lon="6.01237">
        <ele>254.25</ele>
        <time>2017-10-04T09:09:58Z</time>
      </trkpt>
      <trkpt lat="47.64259" lon="6.01242">
        <ele>254.25</ele>
        <time>2017-10-04T09:09:59Z</time>
      </trkpt>
      <trkpt lat="47.64263" lon="6.01251">
        <ele>254.26</ele>
        <time>2017-10-04T09:10:01Z</time>
      </trkpt>
      <trkpt lat="47.64268" lon="6.01258">
        <ele>254.27</ele>
        <time>2017-10-04T09:10:03Z</time>
      </trkpt>
      <trkpt lat="47.64271" lon="6.01264">
        <ele>254.28</ele>
        <time>2017-10-04T09:10:05Z</time>
      </trkpt>
      <trkpt lat="47.64277" lon="6.01269">
        <ele>254.28</ele>
        <time>2017-10-04T09:10:07Z</time>
      </trkpt>
      <trkpt lat="47.6428" lon="6.01274">
        <ele>254.3</ele>
        <time>2017-10-04T09:10:08Z</time>
      </trkpt>
      <trkpt lat="47.64283" lon="6.0128">
        <ele>254.31</ele>
        <time>2017-10-04T09:10:09Z</time>
      </trkpt>
      <trkpt lat="47.64288" lon="6.0129">
        <ele>254.31</ele>
        <time>2017-10-04T09:10:11Z</time>
      </trkpt>
      <trkpt lat="47.64294" lon="6.01297">
        <ele>254.31</ele>
        <time>2017-10-04T09:10:13Z</time>
      </trkpt>
      <trkpt lat="47.64299" lon="6.01304">
        <ele>254.31</ele>
        <time>2017-10-04T09:10:15Z</time>
      </trkpt>
      <trkpt lat="47.64303" lon="6.01309">
        <ele>254.31</ele>
        <time>2017-10-04T09:10:17Z</time>
      </trkpt>
      <trkpt lat="47.64305" lon="6.01319">
        <ele>254.3</ele>
        <time>2017-10-04T09:10:20Z</time>
      </trkpt>
      <trkpt lat="47.6431" lon="6.01324">
        <ele>254.29</ele>
        <time>2017-10-04T09:10:22Z</time>
      </trkpt>
      <trkpt lat="47.64314" lon="6.01331">
        <ele>254.28</ele>
        <time>2017-10-04T09:10:24Z</time>
      </trkpt>
      <trkpt lat="47.64318" lon="6.01337">
        <ele>254.27</ele>
        <time>2017-10-04T09:10:26Z</time>
      </trkpt>
      <trkpt lat="47.6432" lon="6.01343">
        <ele>254.26</ele>
        <time>2017-10-04T09:10:28Z</time>
      </trkpt>
      <trkpt lat="47.64326" lon="6.01349">
        <ele>254.24</ele>
        <time>2017-10-04T09:10:30Z</time>
      </trkpt>
      <trkpt lat="47.64331" lon="6.01355">
        <ele>254.23</ele>
        <time>2017-10-04T09:10:32Z</time>
      </trkpt>
      <trkpt lat="47.64335" lon="6.0136">
        <ele>254.21</ele>
        <time>2017-10-04T09:10:34Z</time>
      </trkpt>
      <trkpt lat="47.64339" lon="6.01367">
        <ele>254.2</ele>
        <time>2017-10-04T09:10:36Z</time>
      </trkpt>
      <trkpt lat="47.64344" lon="6.01375">
        <ele>254.18</ele>
        <time>2017-10-04T09:10:38Z</time>
      </trkpt>
      <trkpt lat="47.64346" lon="6.01381">
        <ele>254.16</ele>
        <time>2017-10-04T09:10:41Z</time>
      </trkpt>
      <trkpt lat="47.64348" lon="6.01388">
        <ele>254.15</ele>
        <time>2017-10-04T09:10:43Z</time>
      </trkpt>
      <trkpt lat="47.64353" lon="6.01394">
        <ele>254.13</ele>
        <time>2017-10-04T09:10:45Z</time>
      </trkpt>
      <trkpt lat="47.64357" lon="6.01403">
        <ele>254.11</ele>
        <time>2017-10-04T09:10:47Z</time>
      </trkpt>
      <trkpt lat="47.64362" lon="6.0141">
        <ele>254.09</ele>
        <time>2017-10-04T09:10:49Z</time>
      </trkpt>
      <trkpt lat="47.64366" lon="6.01416">
        <ele>254.06</ele>
        <time>2017-10-04T09:10:51Z</time>
      </trkpt>
      <trkpt lat="47.6437" lon="6.01422">
        <ele>254.03</ele>
        <time>2017-10-04T09:10:54Z</time>
      </trkpt>
      <trkpt lat="47.64374" lon="6.01428">
        <ele>254</ele>
        <time>2017-10-04T09:10:56Z</time>
      </trkpt>
      <trkpt lat="47.64379" lon="6.01435">
        <ele>253.98</ele>
        <time>2017-10-04T09:10:58Z</time>
      </trkpt>
      <trkpt lat="47.64383" lon="6.01444">
        <ele>253.95</ele>
        <time>2017-10-04T09:11:00Z</time>
      </trkpt>
      <trkpt lat="47.64388" lon="6.01452">
        <ele>253.91</ele>
        <time>2017-10-04T09:11:03Z</time>
      </trkpt>
      <trkpt lat="47.64391" lon="6.01461">
        <ele>253.89</ele>
        <time>2017-10-04T09:11:05Z</time>
      </trkpt>
      <trkpt lat="47.64394" lon="6.01468">
        <ele>253.86</ele>
        <time>2017-10-04T09:11:07Z</time>
      </trkpt>
      <trkpt lat="47.64398" lon="6.01476">
        <ele>253.83</ele>
        <time>2017-10-04T09:11:09Z</time>
      </trkpt>
      <trkpt lat="47.64401" lon="6.01481">
        <ele>253.82</ele>
        <time>2017-10-04T09:11:10Z</time>
      </trkpt>
      <trkpt lat="47.64405" lon="6.01488">
        <ele>253.81</ele>
        <time>2017-10-04T09:11:11Z</time>
      </trkpt>
      <trkpt lat="47.64408" lon="6.01493">
        <ele>253.79</ele>
        <time>2017-10-04T09:11:12Z</time>
      </trkpt>
      <trkpt lat="47.64413" lon="6.01503">
        <ele>253.76</ele>
        <time>2017-10-04T09:11:14Z</time>
      </trkpt>
      <trkpt lat="47.64419" lon="6.01512">
        <ele>253.74</ele>
        <time>2017-10-04T09:11:16Z</time>
      </trkpt>
      <trkpt lat="47.64425" lon="6.01522">
        <ele>253.71</ele>
        <time>2017-10-04T09:11:18Z</time>
      </trkpt>
      <trkpt lat="47.64429" lon="6.01528">
        <ele>253.6</ele>
        <time>2017-10-04T09:11:19Z</time>
      </trkpt>
      <trkpt lat="47.64434" lon="6.01535">
        <ele>253.49</ele>
        <time>2017-10-04T09:11:20Z</time>
      </trkpt>
      <trkpt lat="47.6444" lon="6.01541">
        <ele>253.45</ele>
        <time>2017-10-04T09:11:21Z</time>
      </trkpt>
      <trkpt lat="47.64443" lon="6.01546">
        <ele>253.43</ele>
        <time>2017-10-04T09:11:22Z</time>
      </trkpt>
      <trkpt lat="47.64446" lon="6.01552">
        <ele>253.4</ele>
        <time>2017-10-04T09:11:24Z</time>
      </trkpt>
      <trkpt lat="47.64452" lon="6.01559">
        <ele>253.38</ele>
        <time>2017-10-04T09:11:26Z</time>
      </trkpt>
      <trkpt lat="47.64456" lon="6.01565">
        <ele>253.37</ele>
        <time>2017-10-04T09:11:28Z</time>
      </trkpt>
      <trkpt lat="47.6446" lon="6.0157">
        <ele>253.35</ele>
        <time>2017-10-04T09:11:30Z</time>
      </trkpt>
      <trkpt lat="47.64465" lon="6.01577">
        <ele>253.32</ele>
        <time>2017-10-04T09:11:33Z</time>
      </trkpt>
      <trkpt lat="47.64466" lon="6.01584">
        <ele>253.3</ele>
        <time>2017-10-04T09:11:36Z</time>
      </trkpt>
      <trkpt lat="47.64471" lon="6.01587">
        <ele>253.24</ele>
        <time>2017-10-04T09:11:41Z</time>
      </trkpt>
      <trkpt lat="47.64475" lon="6.01584">
        <ele>253.16</ele>
        <time>2017-10-04T09:11:51Z</time>
      </trkpt>
      <trkpt lat="47.64479" lon="6.0159">
        <ele>253.06</ele>
        <time>2017-10-04T09:11:59Z</time>
      </trkpt>
      <trkpt lat="47.64483" lon="6.01595">
        <ele>253.01</ele>
        <time>2017-10-04T09:12:01Z</time>
      </trkpt>
      <trkpt lat="47.64487" lon="6.01602">
        <ele>252.97</ele>
        <time>2017-10-04T09:12:03Z</time>
      </trkpt>
      <trkpt lat="47.64494" lon="6.01611">
        <ele>252.92</ele>
        <time>2017-10-04T09:12:05Z</time>
      </trkpt>
      <trkpt lat="47.64499" lon="6.01618">
        <ele>252.87</ele>
        <time>2017-10-04T09:12:07Z</time>
      </trkpt>
      <trkpt lat="47.64503" lon="6.01623">
        <ele>252.82</ele>
        <time>2017-10-04T09:12:09Z</time>
      </trkpt>
      <trkpt lat="47.64506" lon="6.0163">
        <ele>252.75</ele>
        <time>2017-10-04T09:12:12Z</time>
      </trkpt>
      <trkpt lat="47.64509" lon="6.01639">
        <ele>252.69</ele>
        <time>2017-10-04T09:12:14Z</time>
      </trkpt>
      <trkpt lat="47.6451" lon="6.01647">
        <ele>252.63</ele>
        <time>2017-10-04T09:12:16Z</time>
      </trkpt>
      <trkpt lat="47.64509" lon="6.01656">
        <ele>252.51</ele>
        <time>2017-10-04T09:12:19Z</time>
      </trkpt>
      <trkpt lat="47.64506" lon="6.01662">
        <ele>252.37</ele>
        <time>2017-10-04T09:12:22Z</time>
      </trkpt>
      <trkpt lat="47.64502" lon="6.01667">
        <ele>252.23</ele>
        <time>2017-10-04T09:12:25Z</time>
      </trkpt>
      <trkpt lat="47.64499" lon="6.01672">
        <ele>252.13</ele>
        <time>2017-10-04T09:12:27Z</time>
      </trkpt>
      <trkpt lat="47.64495" lon="6.01676">
        <ele>252.02</ele>
        <time>2017-10-04T09:12:29Z</time>
      </trkpt>
      <trkpt lat="47.6449" lon="6.0168">
        <ele>251.92</ele>
        <time>2017-10-04T09:12:31Z</time>
      </trkpt>
      <trkpt lat="47.64485" lon="6.01685">
        <ele>251.76</ele>
        <time>2017-10-04T09:12:34Z</time>
      </trkpt>
      <trkpt lat="47.64481" lon="6.0169">
        <ele>251.55</ele>
        <time>2017-10-04T09:12:38Z</time>
      </trkpt>
      <trkpt lat="47.64476" lon="6.01694">
        <ele>251.38</ele>
        <time>2017-10-04T09:12:41Z</time>
      </trkpt>
      <trkpt lat="47.64472" lon="6.01699">
        <ele>251.26</ele>
        <time>2017-10-04T09:12:43Z</time>
      </trkpt>
      <trkpt lat="47.64468" lon="6.01704">
        <ele>251.15</ele>
        <time>2017-10-04T09:12:45Z</time>
      </trkpt>
      <trkpt lat="47.64463" lon="6.01709">
        <ele>251.03</ele>
        <time>2017-10-04T09:12:47Z</time>
      </trkpt>
      <trkpt lat="47.64459" lon="6.01714">
        <ele>250.91</ele>
        <time>2017-10-04T09:12:49Z</time>
      </trkpt>
      <trkpt lat="47.64455" lon="6.01718">
        <ele>250.79</ele>
        <time>2017-10-04T09:12:51Z</time>
      </trkpt>
      <trkpt lat="47.64451" lon="6.01723">
        <ele>250.67</ele>
        <time>2017-10-04T09:12:53Z</time>
      </trkpt>
      <trkpt lat="47.64447" lon="6.01729">
        <ele>250.54</ele>
        <time>2017-10-04T09:12:55Z</time>
      </trkpt>
      <trkpt lat="47.64445" lon="6.01737">
        <ele>250.41</ele>
        <time>2017-10-04T09:12:57Z</time>
      </trkpt>
      <trkpt lat="47.64445" lon="6.01746">
        <ele>250.29</ele>
        <time>2017-10-04T09:12:59Z</time>
      </trkpt>
      <trkpt lat="47.64446" lon="6.01755">
        <ele>250.17</ele>
        <time>2017-10-04T09:13:01Z</time>
      </trkpt>
      <trkpt lat="47.6445" lon="6.01763">
        <ele>250.04</ele>
        <time>2017-10-04T09:13:03Z</time>
      </trkpt>
      <trkpt lat="47.64454" lon="6.01771">
        <ele>249.91</ele>
        <time>2017-10-04T09:13:05Z</time>
      </trkpt>
      <trkpt lat="47.64457" lon="6.01779">
        <ele>249.79</ele>
        <time>2017-10-04T09:13:07Z</time>
      </trkpt>
      <trkpt lat="47.64461" lon="6.01787">
        <ele>249.66</ele>
        <time>2017-10-04T09:13:09Z</time>
      </trkpt>
      <trkpt lat="47.64464" lon="6.01796">
        <ele>249.54</ele>
        <time>2017-10-04T09:13:11Z</time>
      </trkpt>
      <trkpt lat="47.64468" lon="6.01805">
        <ele>249.42</ele>
        <time>2017-10-04T09:13:13Z</time>
      </trkpt>
      <trkpt lat="47.64471" lon="6.01814">
        <ele>249.29</ele>
        <time>2017-10-04T09:13:15Z</time>
      </trkpt>
      <trkpt lat="47.64474" lon="6.01821">
        <ele>249.17</ele>
        <time>2017-10-04T09:13:17Z</time>
      </trkpt>
      <trkpt lat="47.64476" lon="6.01829">
        <ele>249.05</ele>
        <time>2017-10-04T09:13:19Z</time>
      </trkpt>
      <trkpt lat="47.64479" lon="6.01836">
        <ele>248.93</ele>
        <time>2017-10-04T09:13:21Z</time>
      </trkpt>
      <trkpt lat="47.64482" lon="6.01844">
        <ele>248.81</ele>
        <time>2017-10-04T09:13:23Z</time>
      </trkpt>
      <trkpt lat="47.64486" lon="6.01854">
        <ele>248.68</ele>
        <time>2017-10-04T09:13:25Z</time>
      </trkpt>
      <trkpt lat="47.64489" lon="6.01862">
        <ele>248.56</ele>
        <time>2017-10-04T09:13:27Z</time>
      </trkpt>
      <trkpt lat="47.64492" lon="6.01869">
        <ele>248.44</ele>
        <time>2017-10-04T09:13:29Z</time>
      </trkpt>
      <trkpt lat="47.64496" lon="6.01877">
        <ele>248.31</ele>
        <time>2017-10-04T09:13:31Z</time>
      </trkpt>
      <trkpt lat="47.64499" lon="6.01885">
        <ele>248.19</ele>
        <time>2017-10-04T09:13:33Z</time>
      </trkpt>
      <trkpt lat="47.64503" lon="6.01895">
        <ele>248.07</ele>
        <time>2017-10-04T09:13:35Z</time>
      </trkpt>
      <trkpt lat="47.64506" lon="6.01905">
        <ele>247.94</ele>
        <time>2017-10-04T09:13:37Z</time>
      </trkpt>
      <trkpt lat="47.64505" lon="6.01917">
        <ele>247</ele>
        <time>2017-10-04T09:13:39Z</time>
      </trkpt>
      <trkpt lat="47.64503" lon="6.01923">
        <ele>246.57</ele>
        <time>2017-10-04T09:13:40Z</time>
      </trkpt>
      <trkpt lat="47.645" lon="6.0193">
        <ele>246.21</ele>
        <time>2017-10-04T09:13:41Z</time>
      </trkpt>
      <trkpt lat="47.64498" lon="6.01937">
        <ele>245.91</ele>
        <time>2017-10-04T09:13:42Z</time>
      </trkpt>
      <trkpt lat="47.64495" lon="6.01943">
        <ele>245.81</ele>
        <time>2017-10-04T09:13:43Z</time>
      </trkpt>
      <trkpt lat="47.64491" lon="6.01953">
        <ele>245.73</ele>
        <time>2017-10-04T09:13:45Z</time>
      </trkpt>
      <trkpt lat="47.64486" lon="6.01965">
        <ele>245.69</ele>
        <time>2017-10-04T09:13:47Z</time>
      </trkpt>
      <trkpt lat="47.64481" lon="6.01974">
        <ele>245.65</ele>
        <time>2017-10-04T09:13:49Z</time>
      </trkpt>
      <trkpt lat="47.64477" lon="6.01983">
        <ele>245.61</ele>
        <time>2017-10-04T09:13:51Z</time>
      </trkpt>
      <trkpt lat="47.64473" lon="6.01991">
        <ele>245.56</ele>
        <time>2017-10-04T09:13:53Z</time>
      </trkpt>
      <trkpt lat="47.64469" lon="6.01999">
        <ele>245.52</ele>
        <time>2017-10-04T09:13:55Z</time>
      </trkpt>
      <trkpt lat="47.64467" lon="6.02008">
        <ele>245.48</ele>
        <time>2017-10-04T09:13:57Z</time>
      </trkpt>
      <trkpt lat="47.64463" lon="6.02016">
        <ele>245.44</ele>
        <time>2017-10-04T09:13:59Z</time>
      </trkpt>
      <trkpt lat="47.64461" lon="6.02023">
        <ele>245.41</ele>
        <time>2017-10-04T09:14:01Z</time>
      </trkpt>
      <trkpt lat="47.64458" lon="6.02031">
        <ele>245.38</ele>
        <time>2017-10-04T09:14:03Z</time>
      </trkpt>
      <trkpt lat="47.64455" lon="6.02039">
        <ele>245.35</ele>
        <time>2017-10-04T09:14:05Z</time>
      </trkpt>
      <trkpt lat="47.64453" lon="6.02045">
        <ele>245.31</ele>
        <time>2017-10-04T09:14:07Z</time>
      </trkpt>
      <trkpt lat="47.64451" lon="6.02053">
        <ele>245.28</ele>
        <time>2017-10-04T09:14:09Z</time>
      </trkpt>
      <trkpt lat="47.64449" lon="6.0206">
        <ele>245.24</ele>
        <time>2017-10-04T09:14:11Z</time>
      </trkpt>
      <trkpt lat="47.64445" lon="6.02068">
        <ele>245.19</ele>
        <time>2017-10-04T09:14:14Z</time>
      </trkpt>
      <trkpt lat="47.64443" lon="6.02075">
        <ele>245.15</ele>
        <time>2017-10-04T09:14:16Z</time>
      </trkpt>
      <trkpt lat="47.64438" lon="6.02087">
        <ele>245.09</ele>
        <time>2017-10-04T09:14:19Z</time>
      </trkpt>
      <trkpt lat="47.64434" lon="6.02096">
        <ele>245.04</ele>
        <time>2017-10-04T09:14:22Z</time>
      </trkpt>
      <trkpt lat="47.64431" lon="6.02105">
        <ele>245.01</ele>
        <time>2017-10-04T09:14:24Z</time>
      </trkpt>
      <trkpt lat="47.64428" lon="6.02112">
        <ele>244.98</ele>
        <time>2017-10-04T09:14:27Z</time>
      </trkpt>
      <trkpt lat="47.64423" lon="6.02119">
        <ele>244.94</ele>
        <time>2017-10-04T09:14:31Z</time>
      </trkpt>
      <trkpt lat="47.64421" lon="6.02127">
        <ele>244.93</ele>
        <time>2017-10-04T09:14:33Z</time>
      </trkpt>
      <trkpt lat="47.64419" lon="6.02134">
        <ele>244.92</ele>
        <time>2017-10-04T09:14:35Z</time>
      </trkpt>
      <trkpt lat="47.64417" lon="6.02141">
        <ele>244.91</ele>
        <time>2017-10-04T09:14:38Z</time>
      </trkpt>
      <trkpt lat="47.64416" lon="6.0215">
        <ele>244.9</ele>
        <time>2017-10-04T09:14:41Z</time>
      </trkpt>
      <trkpt lat="47.64416" lon="6.02158">
        <ele>244.89</ele>
        <time>2017-10-04T09:14:43Z</time>
      </trkpt>
      <trkpt lat="47.64419" lon="6.02166">
        <ele>244.88</ele>
        <time>2017-10-04T09:14:45Z</time>
      </trkpt>
      <trkpt lat="47.64421" lon="6.02171">
        <ele>244.87</ele>
        <time>2017-10-04T09:14:47Z</time>
      </trkpt>
      <trkpt lat="47.64425" lon="6.02177">
        <ele>244.86</ele>
        <time>2017-10-04T09:14:49Z</time>
      </trkpt>
      <trkpt lat="47.64429" lon="6.02184">
        <ele>244.84</ele>
        <time>2017-10-04T09:14:51Z</time>
      </trkpt>
      <trkpt lat="47.64433" lon="6.0219">
        <ele>244.83</ele>
        <time>2017-10-04T09:14:53Z</time>
      </trkpt>
      <trkpt lat="47.64437" lon="6.02196">
        <ele>244.81</ele>
        <time>2017-10-04T09:14:55Z</time>
      </trkpt>
      <trkpt lat="47.6444" lon="6.02202">
        <ele>244.78</ele>
        <time>2017-10-04T09:14:57Z</time>
      </trkpt>
      <trkpt lat="47.64444" lon="6.0221">
        <ele>244.75</ele>
        <time>2017-10-04T09:15:00Z</time>
      </trkpt>
      <trkpt lat="47.64447" lon="6.02218">
        <ele>244.71</ele>
        <time>2017-10-04T09:15:03Z</time>
      </trkpt>
      <trkpt lat="47.6445" lon="6.02223">
        <ele>244.68</ele>
        <time>2017-10-04T09:15:05Z</time>
      </trkpt>
      <trkpt lat="47.64454" lon="6.02229">
        <ele>244.66</ele>
        <time>2017-10-04T09:15:07Z</time>
      </trkpt>
      <trkpt lat="47.64458" lon="6.02235">
        <ele>244.63</ele>
        <time>2017-10-04T09:15:09Z</time>
      </trkpt>
      <trkpt lat="47.64461" lon="6.02241">
        <ele>244.61</ele>
        <time>2017-10-04T09:15:11Z</time>
      </trkpt>
      <trkpt lat="47.64465" lon="6.02246">
        <ele>244.58</ele>
        <time>2017-10-04T09:15:13Z</time>
      </trkpt>
      <trkpt lat="47.64469" lon="6.02251">
        <ele>244.55</ele>
        <time>2017-10-04T09:15:15Z</time>
      </trkpt>
      <trkpt lat="47.64475" lon="6.02258">
        <ele>244.51</ele>
        <time>2017-10-04T09:15:18Z</time>
      </trkpt>
      <trkpt lat="47.64479" lon="6.02266">
        <ele>244.48</ele>
        <time>2017-10-04T09:15:20Z</time>
      </trkpt>
      <trkpt lat="47.64484" lon="6.02274">
        <ele>244.45</ele>
        <time>2017-10-04T09:15:22Z</time>
      </trkpt>
      <trkpt lat="47.6449" lon="6.02282">
        <ele>244.22</ele>
        <time>2017-10-04T09:15:24Z</time>
      </trkpt>
      <trkpt lat="47.64496" lon="6.0229">
        <ele>244.01</ele>
        <time>2017-10-04T09:15:26Z</time>
      </trkpt>
      <trkpt lat="47.64503" lon="6.02295">
        <ele>243.91</ele>
        <time>2017-10-04T09:15:28Z</time>
      </trkpt>
      <trkpt lat="47.64507" lon="6.023">
        <ele>243.85</ele>
        <time>2017-10-04T09:15:29Z</time>
      </trkpt>
      <trkpt lat="47.64517" lon="6.02305">
        <ele>243.74</ele>
        <time>2017-10-04T09:15:31Z</time>
      </trkpt>
      <trkpt lat="47.64522" lon="6.02308">
        <ele>243.69</ele>
        <time>2017-10-04T09:15:32Z</time>
      </trkpt>
      <trkpt lat="47.64529" lon="6.0231">
        <ele>243.65</ele>
        <time>2017-10-04T09:15:33Z</time>
      </trkpt>
      <trkpt lat="47.64534" lon="6.02314">
        <ele>243.61</ele>
        <time>2017-10-04T09:15:34Z</time>
      </trkpt>
      <trkpt lat="47.64539" lon="6.02317">
        <ele>243.57</ele>
        <time>2017-10-04T09:15:35Z</time>
      </trkpt>
      <trkpt lat="47.64544" lon="6.02321">
        <ele>243.53</ele>
        <time>2017-10-04T09:15:36Z</time>
      </trkpt>
      <trkpt lat="47.64552" lon="6.02326">
        <ele>243.49</ele>
        <time>2017-10-04T09:15:37Z</time>
      </trkpt>
      <trkpt lat="47.64558" lon="6.0233">
        <ele>243.45</ele>
        <time>2017-10-04T09:15:38Z</time>
      </trkpt>
      <trkpt lat="47.64564" lon="6.02335">
        <ele>243.41</ele>
        <time>2017-10-04T09:15:39Z</time>
      </trkpt>
      <trkpt lat="47.64571" lon="6.0234">
        <ele>243.39</ele>
        <time>2017-10-04T09:15:40Z</time>
      </trkpt>
      <trkpt lat="47.64575" lon="6.02346">
        <ele>243.36</ele>
        <time>2017-10-04T09:15:41Z</time>
      </trkpt>
      <trkpt lat="47.64579" lon="6.02352">
        <ele>243.34</ele>
        <time>2017-10-04T09:15:42Z</time>
      </trkpt>
      <trkpt lat="47.64584" lon="6.02358">
        <ele>243.32</ele>
        <time>2017-10-04T09:15:43Z</time>
      </trkpt>
      <trkpt lat="47.6459" lon="6.02365">
        <ele>243.3</ele>
        <time>2017-10-04T09:15:44Z</time>
      </trkpt>
      <trkpt lat="47.64595" lon="6.02371">
        <ele>243.28</ele>
        <time>2017-10-04T09:15:45Z</time>
      </trkpt>
      <trkpt lat="47.64599" lon="6.02377">
        <ele>243.26</ele>
        <time>2017-10-04T09:15:46Z</time>
      </trkpt>
      <trkpt lat="47.64604" lon="6.02382">
        <ele>243.24</ele>
        <time>2017-10-04T09:15:47Z</time>
      </trkpt>
      <trkpt lat="47.6461" lon="6.02387">
        <ele>243.21</ele>
        <time>2017-10-04T09:15:48Z</time>
      </trkpt>
      <trkpt lat="47.64617" lon="6.0239">
        <ele>243.17</ele>
        <time>2017-10-04T09:15:49Z</time>
      </trkpt>
      <trkpt lat="47.64624" lon="6.02394">
        <ele>243.14</ele>
        <time>2017-10-04T09:15:50Z</time>
      </trkpt>
      <trkpt lat="47.6463" lon="6.02398">
        <ele>243.1</ele>
        <time>2017-10-04T09:15:51Z</time>
      </trkpt>
      <trkpt lat="47.64636" lon="6.02401">
        <ele>243.06</ele>
        <time>2017-10-04T09:15:52Z</time>
      </trkpt>
      <trkpt lat="47.64642" lon="6.02404">
        <ele>243.03</ele>
        <time>2017-10-04T09:15:53Z</time>
      </trkpt>
      <trkpt lat="47.64648" lon="6.02405">
        <ele>243</ele>
        <time>2017-10-04T09:15:54Z</time>
      </trkpt>
      <trkpt lat="47.64654" lon="6.02407">
        <ele>242.96</ele>
        <time>2017-10-04T09:15:55Z</time>
      </trkpt>
      <trkpt lat="47.64658" lon="6.02409">
        <ele>242.95</ele>
        <time>2017-10-04T09:15:56Z</time>
      </trkpt>
      <trkpt lat="47.64667" lon="6.02413">
        <ele>242.92</ele>
        <time>2017-10-04T09:15:58Z</time>
      </trkpt>
      <trkpt lat="47.64674" lon="6.02418">
        <ele>242.88</ele>
        <time>2017-10-04T09:16:00Z</time>
      </trkpt>
      <trkpt lat="47.6468" lon="6.02424">
        <ele>242.87</ele>
        <time>2017-10-04T09:16:02Z</time>
      </trkpt>
      <trkpt lat="47.64687" lon="6.02424">
        <ele>242.86</ele>
        <time>2017-10-04T09:16:04Z</time>
      </trkpt>
      <trkpt lat="47.64694" lon="6.02424">
        <ele>242.79</ele>
        <time>2017-10-04T09:16:06Z</time>
      </trkpt>
      <trkpt lat="47.64703" lon="6.02423">
        <ele>242.64</ele>
        <time>2017-10-04T09:16:08Z</time>
      </trkpt>
      <trkpt lat="47.64712" lon="6.02423">
        <ele>242.5</ele>
        <time>2017-10-04T09:16:10Z</time>
      </trkpt>
      <trkpt lat="47.6472" lon="6.02422">
        <ele>242.36</ele>
        <time>2017-10-04T09:16:12Z</time>
      </trkpt>
      <trkpt lat="47.64725" lon="6.02421">
        <ele>242.29</ele>
        <time>2017-10-04T09:16:13Z</time>
      </trkpt>
      <trkpt lat="47.6473" lon="6.02421">
        <ele>242.21</ele>
        <time>2017-10-04T09:16:14Z</time>
      </trkpt>
      <trkpt lat="47.64735" lon="6.0242">
        <ele>242.14</ele>
        <time>2017-10-04T09:16:15Z</time>
      </trkpt>
      <trkpt lat="47.64741" lon="6.0242">
        <ele>242.07</ele>
        <time>2017-10-04T09:16:16Z</time>
      </trkpt>
      <trkpt lat="47.64745" lon="6.0242">
        <ele>242</ele>
        <time>2017-10-04T09:16:17Z</time>
      </trkpt>
      <trkpt lat="47.6475" lon="6.02419">
        <ele>241.92</ele>
        <time>2017-10-04T09:16:18Z</time>
      </trkpt>
      <trkpt lat="47.64757" lon="6.02419">
        <ele>241.88</ele>
        <time>2017-10-04T09:16:20Z</time>
      </trkpt>
      <trkpt lat="47.64764" lon="6.02418">
        <ele>241.84</ele>
        <time>2017-10-04T09:16:23Z</time>
      </trkpt>
      <trkpt lat="47.64769" lon="6.0242">
        <ele>241.8</ele>
        <time>2017-10-04T09:16:26Z</time>
      </trkpt>
      <trkpt lat="47.64776" lon="6.02422">
        <ele>241.64</ele>
        <time>2017-10-04T09:16:28Z</time>
      </trkpt>
      <trkpt lat="47.64785" lon="6.02423">
        <ele>241.33</ele>
        <time>2017-10-04T09:16:30Z</time>
      </trkpt>
      <trkpt lat="47.64789" lon="6.02423">
        <ele>241.19</ele>
        <time>2017-10-04T09:16:31Z</time>
      </trkpt>
      <trkpt lat="47.64795" lon="6.02424">
        <ele>241.06</ele>
        <time>2017-10-04T09:16:32Z</time>
      </trkpt>
      <trkpt lat="47.64799" lon="6.02425">
        <ele>240.94</ele>
        <time>2017-10-04T09:16:33Z</time>
      </trkpt>
      <trkpt lat="47.64804" lon="6.02426">
        <ele>240.83</ele>
        <time>2017-10-04T09:16:34Z</time>
      </trkpt>
      <trkpt lat="47.64811" lon="6.02426">
        <ele>240.77</ele>
        <time>2017-10-04T09:16:36Z</time>
      </trkpt>
      <trkpt lat="47.64818" lon="6.02425">
        <ele>240.59</ele>
        <time>2017-10-04T09:16:38Z</time>
      </trkpt>
      <trkpt lat="47.64824" lon="6.02425">
        <ele>240.5</ele>
        <time>2017-10-04T09:16:39Z</time>
      </trkpt>
      <trkpt lat="47.64831" lon="6.02425">
        <ele>240.41</ele>
        <time>2017-10-04T09:16:40Z</time>
      </trkpt>
      <trkpt lat="47.64838" lon="6.02424">
        <ele>240.32</ele>
        <time>2017-10-04T09:16:41Z</time>
      </trkpt>
      <trkpt lat="47.64846" lon="6.02423">
        <ele>240.23</ele>
        <time>2017-10-04T09:16:42Z</time>
      </trkpt>
      <trkpt lat="47.64854" lon="6.02421">
        <ele>240.14</ele>
        <time>2017-10-04T09:16:43Z</time>
      </trkpt>
      <trkpt lat="47.64861" lon="6.0242">
        <ele>240.06</ele>
        <time>2017-10-04T09:16:44Z</time>
      </trkpt>
      <trkpt lat="47.64867" lon="6.0242">
        <ele>239.97</ele>
        <time>2017-10-04T09:16:45Z</time>
      </trkpt>
      <trkpt lat="47.64872" lon="6.02419">
        <ele>239.88</ele>
        <time>2017-10-04T09:16:46Z</time>
      </trkpt>
      <trkpt lat="47.64878" lon="6.02417">
        <ele>239.78</ele>
        <time>2017-10-04T09:16:47Z</time>
      </trkpt>
      <trkpt lat="47.64883" lon="6.02416">
        <ele>239.66</ele>
        <time>2017-10-04T09:16:48Z</time>
      </trkpt>
      <trkpt lat="47.64888" lon="6.02416">
        <ele>239.52</ele>
        <time>2017-10-04T09:16:49Z</time>
      </trkpt>
      <trkpt lat="47.64892" lon="6.02415">
        <ele>239.36</ele>
        <time>2017-10-04T09:16:50Z</time>
      </trkpt>
      <trkpt lat="47.64897" lon="6.02414">
        <ele>239.21</ele>
        <time>2017-10-04T09:16:51Z</time>
      </trkpt>
      <trkpt lat="47.64902" lon="6.02412">
        <ele>239.06</ele>
        <time>2017-10-04T09:16:52Z</time>
      </trkpt>
      <trkpt lat="47.64908" lon="6.0241">
        <ele>238.92</ele>
        <time>2017-10-04T09:16:53Z</time>
      </trkpt>
      <trkpt lat="47.64914" lon="6.02408">
        <ele>238.8</ele>
        <time>2017-10-04T09:16:54Z</time>
      </trkpt>
      <trkpt lat="47.6492" lon="6.02406">
        <ele>238.69</ele>
        <time>2017-10-04T09:16:55Z</time>
      </trkpt>
      <trkpt lat="47.64926" lon="6.02407">
        <ele>238.57</ele>
        <time>2017-10-04T09:16:56Z</time>
      </trkpt>
      <trkpt lat="47.64931" lon="6.02408">
        <ele>238.46</ele>
        <time>2017-10-04T09:16:57Z</time>
      </trkpt>
      <trkpt lat="47.64936" lon="6.02411">
        <ele>238.42</ele>
        <time>2017-10-04T09:16:58Z</time>
      </trkpt>
      <trkpt lat="47.64939" lon="6.02426">
        <ele>238.29</ele>
        <time>2017-10-04T09:17:00Z</time>
      </trkpt>
      <trkpt lat="47.6494" lon="6.02433">
        <ele>238.27</ele>
        <time>2017-10-04T09:17:01Z</time>
      </trkpt>
      <trkpt lat="47.64941" lon="6.02446">
        <ele>238.22</ele>
        <time>2017-10-04T09:17:03Z</time>
      </trkpt>
      <trkpt lat="47.64942" lon="6.02453">
        <ele>238.19</ele>
        <time>2017-10-04T09:17:04Z</time>
      </trkpt>
      <trkpt lat="47.64943" lon="6.0246">
        <ele>238.16</ele>
        <time>2017-10-04T09:17:05Z</time>
      </trkpt>
      <trkpt lat="47.64943" lon="6.02467">
        <ele>238.12</ele>
        <time>2017-10-04T09:17:06Z</time>
      </trkpt>
      <trkpt lat="47.64944" lon="6.02477">
        <ele>238.04</ele>
        <time>2017-10-04T09:17:08Z</time>
      </trkpt>
      <trkpt lat="47.64945" lon="6.02486">
        <ele>237.94</ele>
        <time>2017-10-04T09:17:10Z</time>
      </trkpt>
      <trkpt lat="47.64947" lon="6.02494">
        <ele>237.82</ele>
        <time>2017-10-04T09:17:12Z</time>
      </trkpt>
      <trkpt lat="47.6495" lon="6.02502">
        <ele>237.67</ele>
        <time>2017-10-04T09:17:14Z</time>
      </trkpt>
      <trkpt lat="47.64954" lon="6.02512">
        <ele>236.32</ele>
        <time>2017-10-04T09:17:16Z</time>
      </trkpt>
      <trkpt lat="47.64955" lon="6.02519">
        <ele>235.6</ele>
        <time>2017-10-04T09:17:17Z</time>
      </trkpt>
      <trkpt lat="47.64956" lon="6.02526">
        <ele>234.93</ele>
        <time>2017-10-04T09:17:18Z</time>
      </trkpt>
      <trkpt lat="47.64957" lon="6.02534">
        <ele>234.3</ele>
        <time>2017-10-04T09:17:19Z</time>
      </trkpt>
      <trkpt lat="47.64958" lon="6.02543">
        <ele>233.69</ele>
        <time>2017-10-04T09:17:20Z</time>
      </trkpt>
      <trkpt lat="47.64958" lon="6.02551">
        <ele>233.15</ele>
        <time>2017-10-04T09:17:21Z</time>
      </trkpt>
      <trkpt lat="47.64958" lon="6.02559">
        <ele>232.65</ele>
        <time>2017-10-04T09:17:22Z</time>
      </trkpt>
      <trkpt lat="47.64959" lon="6.02566">
        <ele>232.18</ele>
        <time>2017-10-04T09:17:23Z</time>
      </trkpt>
      <trkpt lat="47.6496" lon="6.02574">
        <ele>231.72</ele>
        <time>2017-10-04T09:17:24Z</time>
      </trkpt>
      <trkpt lat="47.64961" lon="6.02581">
        <ele>231.27</ele>
        <time>2017-10-04T09:17:25Z</time>
      </trkpt>
      <trkpt lat="47.64962" lon="6.02589">
        <ele>230.86</ele>
        <time>2017-10-04T09:17:26Z</time>
      </trkpt>
      <trkpt lat="47.64963" lon="6.02598">
        <ele>230.44</ele>
        <time>2017-10-04T09:17:27Z</time>
      </trkpt>
      <trkpt lat="47.64963" lon="6.02605">
        <ele>230.03</ele>
        <time>2017-10-04T09:17:28Z</time>
      </trkpt>
      <trkpt lat="47.64964" lon="6.02612">
        <ele>229.63</ele>
        <time>2017-10-04T09:17:29Z</time>
      </trkpt>
      <trkpt lat="47.64964" lon="6.02619">
        <ele>229.24</ele>
        <time>2017-10-04T09:17:30Z</time>
      </trkpt>
      <trkpt lat="47.64966" lon="6.02625">
        <ele>228.87</ele>
        <time>2017-10-04T09:17:31Z</time>
      </trkpt>
      <trkpt lat="47.64967" lon="6.02633">
        <ele>228.5</ele>
        <time>2017-10-04T09:17:32Z</time>
      </trkpt>
      <trkpt lat="47.64967" lon="6.0264">
        <ele>228.14</ele>
        <time>2017-10-04T09:17:33Z</time>
      </trkpt>
      <trkpt lat="47.64967" lon="6.02647">
        <ele>227.81</ele>
        <time>2017-10-04T09:17:34Z</time>
      </trkpt>
      <trkpt lat="47.64969" lon="6.02654">
        <ele>227.5</ele>
        <time>2017-10-04T09:17:35Z</time>
      </trkpt>
      <trkpt lat="47.64971" lon="6.02661">
        <ele>227.22</ele>
        <time>2017-10-04T09:17:36Z</time>
      </trkpt>
      <trkpt lat="47.64972" lon="6.02668">
        <ele>226.94</ele>
        <time>2017-10-04T09:17:37Z</time>
      </trkpt>
      <trkpt lat="47.64973" lon="6.02676">
        <ele>226.65</ele>
        <time>2017-10-04T09:17:38Z</time>
      </trkpt>
      <trkpt lat="47.64973" lon="6.02682">
        <ele>226.38</ele>
        <time>2017-10-04T09:17:39Z</time>
      </trkpt>
      <trkpt lat="47.64974" lon="6.02696">
        <ele>225.85</ele>
        <time>2017-10-04T09:17:41Z</time>
      </trkpt>
      <trkpt lat="47.64975" lon="6.02704">
        <ele>225.54</ele>
        <time>2017-10-04T09:17:42Z</time>
      </trkpt>
      <trkpt lat="47.64975" lon="6.02712">
        <ele>225.24</ele>
        <time>2017-10-04T09:17:43Z</time>
      </trkpt>
      <trkpt lat="47.64976" lon="6.0272">
        <ele>224.93</ele>
        <time>2017-10-04T09:17:44Z</time>
      </trkpt>
      <trkpt lat="47.64977" lon="6.02727">
        <ele>224.63</ele>
        <time>2017-10-04T09:17:45Z</time>
      </trkpt>
      <trkpt lat="47.64978" lon="6.02734">
        <ele>224.37</ele>
        <time>2017-10-04T09:17:46Z</time>
      </trkpt>
      <trkpt lat="47.64978" lon="6.02741">
        <ele>224.15</ele>
        <time>2017-10-04T09:17:47Z</time>
      </trkpt>
      <trkpt lat="47.64979" lon="6.02748">
        <ele>223.93</ele>
        <time>2017-10-04T09:17:48Z</time>
      </trkpt>
      <trkpt lat="47.6498" lon="6.02755">
        <ele>223.71</ele>
        <time>2017-10-04T09:17:49Z</time>
      </trkpt>
      <trkpt lat="47.64981" lon="6.02762">
        <ele>223.46</ele>
        <time>2017-10-04T09:17:50Z</time>
      </trkpt>
      <trkpt lat="47.64983" lon="6.02769">
        <ele>223.25</ele>
        <time>2017-10-04T09:17:51Z</time>
      </trkpt>
      <trkpt lat="47.64984" lon="6.02775">
        <ele>223.06</ele>
        <time>2017-10-04T09:17:52Z</time>
      </trkpt>
      <trkpt lat="47.64985" lon="6.02788">
        <ele>222.75</ele>
        <time>2017-10-04T09:17:54Z</time>
      </trkpt>
      <trkpt lat="47.64987" lon="6.02799">
        <ele>222.55</ele>
        <time>2017-10-04T09:17:56Z</time>
      </trkpt>
      <trkpt lat="47.64988" lon="6.02811">
        <ele>222.15</ele>
        <time>2017-10-04T09:17:58Z</time>
      </trkpt>
      <trkpt lat="47.64989" lon="6.02824">
        <ele>221.72</ele>
        <time>2017-10-04T09:18:00Z</time>
      </trkpt>
      <trkpt lat="47.64991" lon="6.02836">
        <ele>221.23</ele>
        <time>2017-10-04T09:18:02Z</time>
      </trkpt>
      <trkpt lat="47.64993" lon="6.02849">
        <ele>220.78</ele>
        <time>2017-10-04T09:18:04Z</time>
      </trkpt>
      <trkpt lat="47.64994" lon="6.02856">
        <ele>220.55</ele>
        <time>2017-10-04T09:18:05Z</time>
      </trkpt>
      <trkpt lat="47.64995" lon="6.02863">
        <ele>220.32</ele>
        <time>2017-10-04T09:18:06Z</time>
      </trkpt>
      <trkpt lat="47.64996" lon="6.02871">
        <ele>220.07</ele>
        <time>2017-10-04T09:18:07Z</time>
      </trkpt>
      <trkpt lat="47.64998" lon="6.02878">
        <ele>219.87</ele>
        <time>2017-10-04T09:18:08Z</time>
      </trkpt>
      <trkpt lat="47.64999" lon="6.02886">
        <ele>219.67</ele>
        <time>2017-10-04T09:18:09Z</time>
      </trkpt>
      <trkpt lat="47.65001" lon="6.02893">
        <ele>219.48</ele>
        <time>2017-10-04T09:18:10Z</time>
      </trkpt>
      <trkpt lat="47.65003" lon="6.029">
        <ele>219.29</ele>
        <time>2017-10-04T09:18:11Z</time>
      </trkpt>
      <trkpt lat="47.65004" lon="6.02906">
        <ele>219.09</ele>
        <time>2017-10-04T09:18:12Z</time>
      </trkpt>
      <trkpt lat="47.65006" lon="6.02912">
        <ele>218.9</ele>
        <time>2017-10-04T09:18:13Z</time>
      </trkpt>
      <trkpt lat="47.65009" lon="6.02924">
        <ele>218.44</ele>
        <time>2017-10-04T09:18:15Z</time>
      </trkpt>
      <trkpt lat="47.65013" lon="6.02936">
        <ele>217.93</ele>
        <time>2017-10-04T09:18:17Z</time>
      </trkpt>
      <trkpt lat="47.65016" lon="6.02942">
        <ele>217.69</ele>
        <time>2017-10-04T09:18:18Z</time>
      </trkpt>
      <trkpt lat="47.65019" lon="6.02948">
        <ele>217.45</ele>
        <time>2017-10-04T09:18:19Z</time>
      </trkpt>
      <trkpt lat="47.65022" lon="6.02954">
        <ele>217.25</ele>
        <time>2017-10-04T09:18:20Z</time>
      </trkpt>
      <trkpt lat="47.65025" lon="6.02959">
        <ele>217.08</ele>
        <time>2017-10-04T09:18:21Z</time>
      </trkpt>
      <trkpt lat="47.65028" lon="6.02964">
        <ele>216.91</ele>
        <time>2017-10-04T09:18:22Z</time>
      </trkpt>
      <trkpt lat="47.65033" lon="6.02974">
        <ele>216.63</ele>
        <time>2017-10-04T09:18:24Z</time>
      </trkpt>
      <trkpt lat="47.65038" lon="6.02982">
        <ele>216.43</ele>
        <time>2017-10-04T09:18:26Z</time>
      </trkpt>
      <trkpt lat="47.65044" lon="6.02991">
        <ele>216.19</ele>
        <time>2017-10-04T09:18:28Z</time>
      </trkpt>
      <trkpt lat="47.6505" lon="6.03">
        <ele>216.04</ele>
        <time>2017-10-04T09:18:30Z</time>
      </trkpt>
      <trkpt lat="47.65055" lon="6.0301">
        <ele>215.89</ele>
        <time>2017-10-04T09:18:32Z</time>
      </trkpt>
      <trkpt lat="47.65061" lon="6.03019">
        <ele>215.78</ele>
        <time>2017-10-04T09:18:34Z</time>
      </trkpt>
      <trkpt lat="47.65066" lon="6.03027">
        <ele>215.71</ele>
        <time>2017-10-04T09:18:36Z</time>
      </trkpt>
      <trkpt lat="47.6507" lon="6.03035">
        <ele>215.69</ele>
        <time>2017-10-04T09:18:38Z</time>
      </trkpt>
      <trkpt lat="47.65071" lon="6.03041">
        <ele>215.68</ele>
        <time>2017-10-04T09:18:40Z</time>
      </trkpt>
      <trkpt lat="47.65069" lon="6.03048">
        <ele>215.62</ele>
        <time>2017-10-04T09:18:44Z</time>
      </trkpt>
      <trkpt lat="47.65071" lon="6.03057">
        <ele>215.77</ele>
        <time>2017-10-04T09:19:54Z</time>
      </trkpt>
      <trkpt lat="47.65074" lon="6.03048">
        <ele>215.98</ele>
        <time>2017-10-04T09:20:12Z</time>
      </trkpt>
      <trkpt lat="47.65079" lon="6.03048">
        <ele>216</ele>
        <time>2017-10-04T09:20:15Z</time>
      </trkpt>
      <trkpt lat="47.65083" lon="6.03054">
        <ele>216</ele>
        <time>2017-10-04T09:20:17Z</time>
      </trkpt>
      <trkpt lat="47.65088" lon="6.03059">
        <ele>216</ele>
        <time>2017-10-04T09:20:19Z</time>
      </trkpt>
      <trkpt lat="47.65094" lon="6.03063">
        <ele>215.98</ele>
        <time>2017-10-04T09:20:21Z</time>
      </trkpt>
      <trkpt lat="47.65101" lon="6.03064">
        <ele>215.96</ele>
        <time>2017-10-04T09:20:23Z</time>
      </trkpt>
      <trkpt lat="47.65106" lon="6.03065">
        <ele>215.94</ele>
        <time>2017-10-04T09:20:25Z</time>
      </trkpt>
      <trkpt lat="47.65112" lon="6.03065">
        <ele>215.91</ele>
        <time>2017-10-04T09:20:27Z</time>
      </trkpt>
      <trkpt lat="47.6512" lon="6.03064">
        <ele>215.78</ele>
        <time>2017-10-04T09:20:29Z</time>
      </trkpt>
      <trkpt lat="47.65127" lon="6.03062">
        <ele>215.62</ele>
        <time>2017-10-04T09:20:31Z</time>
      </trkpt>
      <trkpt lat="47.65135" lon="6.03058">
        <ele>215.38</ele>
        <time>2017-10-04T09:20:33Z</time>
      </trkpt>
      <trkpt lat="47.65142" lon="6.03054">
        <ele>215.19</ele>
        <time>2017-10-04T09:20:35Z</time>
      </trkpt>
      <trkpt lat="47.65148" lon="6.03048">
        <ele>215.1</ele>
        <time>2017-10-04T09:20:37Z</time>
      </trkpt>
      <trkpt lat="47.65155" lon="6.03042">
        <ele>215</ele>
        <time>2017-10-04T09:20:39Z</time>
      </trkpt>
      <trkpt lat="47.65162" lon="6.03036">
        <ele>214.92</ele>
        <time>2017-10-04T09:20:41Z</time>
      </trkpt>
      <trkpt lat="47.6517" lon="6.03031">
        <ele>214.83</ele>
        <time>2017-10-04T09:20:43Z</time>
      </trkpt>
      <trkpt lat="47.65178" lon="6.03026">
        <ele>214.77</ele>
        <time>2017-10-04T09:20:45Z</time>
      </trkpt>
      <trkpt lat="47.65186" lon="6.03022">
        <ele>214.69</ele>
        <time>2017-10-04T09:20:47Z</time>
      </trkpt>
      <trkpt lat="47.65194" lon="6.03019">
        <ele>214.61</ele>
        <time>2017-10-04T09:20:49Z</time>
      </trkpt>
      <trkpt lat="47.65203" lon="6.03016">
        <ele>214.56</ele>
        <time>2017-10-04T09:20:51Z</time>
      </trkpt>
      <trkpt lat="47.65207" lon="6.03015">
        <ele>214.53</ele>
        <time>2017-10-04T09:20:52Z</time>
      </trkpt>
      <trkpt lat="47.65216" lon="6.03014">
        <ele>214.43</ele>
        <time>2017-10-04T09:20:54Z</time>
      </trkpt>
      <trkpt lat="47.65224" lon="6.03013">
        <ele>214.35</ele>
        <time>2017-10-04T09:20:56Z</time>
      </trkpt>
      <trkpt lat="47.65232" lon="6.03012">
        <ele>214.26</ele>
        <time>2017-10-04T09:20:58Z</time>
      </trkpt>
      <trkpt lat="47.65241" lon="6.03011">
        <ele>214.19</ele>
        <time>2017-10-04T09:21:00Z</time>
      </trkpt>
      <trkpt lat="47.65248" lon="6.03009">
        <ele>214.16</ele>
        <time>2017-10-04T09:21:02Z</time>
      </trkpt>
      <trkpt lat="47.65256" lon="6.03008">
        <ele>214.15</ele>
        <time>2017-10-04T09:21:04Z</time>
      </trkpt>
      <trkpt lat="47.65263" lon="6.03007">
        <ele>214.15</ele>
        <time>2017-10-04T09:21:06Z</time>
      </trkpt>
      <trkpt lat="47.6527" lon="6.03006">
        <ele>214.14</ele>
        <time>2017-10-04T09:21:08Z</time>
      </trkpt>
      <trkpt lat="47.65278" lon="6.03005">
        <ele>214.13</ele>
        <time>2017-10-04T09:21:10Z</time>
      </trkpt>
      <trkpt lat="47.65285" lon="6.03003">
        <ele>214.13</ele>
        <time>2017-10-04T09:21:12Z</time>
      </trkpt>
      <trkpt lat="47.65292" lon="6.03001">
        <ele>214.12</ele>
        <time>2017-10-04T09:21:14Z</time>
      </trkpt>
      <trkpt lat="47.653" lon="6.02999">
        <ele>214.11</ele>
        <time>2017-10-04T09:21:16Z</time>
      </trkpt>
      <trkpt lat="47.65307" lon="6.02997">
        <ele>214.1</ele>
        <time>2017-10-04T09:21:18Z</time>
      </trkpt>
      <trkpt lat="47.65314" lon="6.02993">
        <ele>214.09</ele>
        <time>2017-10-04T09:21:20Z</time>
      </trkpt>
      <trkpt lat="47.65321" lon="6.0299">
        <ele>214.08</ele>
        <time>2017-10-04T09:21:22Z</time>
      </trkpt>
      <trkpt lat="47.65328" lon="6.02987">
        <ele>214.01</ele>
        <time>2017-10-04T09:21:24Z</time>
      </trkpt>
      <trkpt lat="47.65335" lon="6.02983">
        <ele>213.92</ele>
        <time>2017-10-04T09:21:26Z</time>
      </trkpt>
      <trkpt lat="47.65342" lon="6.0298">
        <ele>213.9</ele>
        <time>2017-10-04T09:21:28Z</time>
      </trkpt>
      <trkpt lat="47.65349" lon="6.02977">
        <ele>213.89</ele>
        <time>2017-10-04T09:21:30Z</time>
      </trkpt>
      <trkpt lat="47.65356" lon="6.02973">
        <ele>213.84</ele>
        <time>2017-10-04T09:21:32Z</time>
      </trkpt>
      <trkpt lat="47.65364" lon="6.0297">
        <ele>213.75</ele>
        <time>2017-10-04T09:21:34Z</time>
      </trkpt>
      <trkpt lat="47.65371" lon="6.02966">
        <ele>213.77</ele>
        <time>2017-10-04T09:21:36Z</time>
      </trkpt>
      <trkpt lat="47.65379" lon="6.02962">
        <ele>213.81</ele>
        <time>2017-10-04T09:21:38Z</time>
      </trkpt>
      <trkpt lat="47.65386" lon="6.02959">
        <ele>213.86</ele>
        <time>2017-10-04T09:21:40Z</time>
      </trkpt>
      <trkpt lat="47.65393" lon="6.02955">
        <ele>213.87</ele>
        <time>2017-10-04T09:21:42Z</time>
      </trkpt>
      <trkpt lat="47.654" lon="6.02952">
        <ele>213.87</ele>
        <time>2017-10-04T09:21:44Z</time>
      </trkpt>
      <trkpt lat="47.65407" lon="6.02949">
        <ele>213.86</ele>
        <time>2017-10-04T09:21:46Z</time>
      </trkpt>
      <trkpt lat="47.65413" lon="6.02947">
        <ele>213.85</ele>
        <time>2017-10-04T09:21:48Z</time>
      </trkpt>
      <trkpt lat="47.65421" lon="6.02943">
        <ele>213.77</ele>
        <time>2017-10-04T09:21:50Z</time>
      </trkpt>
      <trkpt lat="47.65428" lon="6.02939">
        <ele>213.73</ele>
        <time>2017-10-04T09:21:52Z</time>
      </trkpt>
      <trkpt lat="47.65435" lon="6.02936">
        <ele>213.71</ele>
        <time>2017-10-04T09:21:54Z</time>
      </trkpt>
      <trkpt lat="47.65442" lon="6.02934">
        <ele>213.59</ele>
        <time>2017-10-04T09:21:56Z</time>
      </trkpt>
      <trkpt lat="47.65449" lon="6.02931">
        <ele>213.51</ele>
        <time>2017-10-04T09:21:58Z</time>
      </trkpt>
      <trkpt lat="47.65455" lon="6.02928">
        <ele>213.49</ele>
        <time>2017-10-04T09:22:00Z</time>
      </trkpt>
      <trkpt lat="47.65463" lon="6.02924">
        <ele>213.52</ele>
        <time>2017-10-04T09:22:02Z</time>
      </trkpt>
      <trkpt lat="47.6547" lon="6.02922">
        <ele>213.55</ele>
        <time>2017-10-04T09:22:04Z</time>
      </trkpt>
      <trkpt lat="47.65476" lon="6.0292">
        <ele>213.6</ele>
        <time>2017-10-04T09:22:06Z</time>
      </trkpt>
      <trkpt lat="47.65482" lon="6.02917">
        <ele>213.65</ele>
        <time>2017-10-04T09:22:08Z</time>
      </trkpt>
      <trkpt lat="47.6549" lon="6.02914">
        <ele>213.7</ele>
        <time>2017-10-04T09:22:10Z</time>
      </trkpt>
      <trkpt lat="47.65497" lon="6.02912">
        <ele>213.72</ele>
        <time>2017-10-04T09:22:12Z</time>
      </trkpt>
      <trkpt lat="47.65506" lon="6.02909">
        <ele>213.72</ele>
        <time>2017-10-04T09:22:14Z</time>
      </trkpt>
      <trkpt lat="47.6551" lon="6.02908">
        <ele>213.72</ele>
        <time>2017-10-04T09:22:15Z</time>
      </trkpt>
      <trkpt lat="47.65515" lon="6.02906">
        <ele>213.72</ele>
        <time>2017-10-04T09:22:16Z</time>
      </trkpt>
      <trkpt lat="47.65519" lon="6.02904">
        <ele>213.73</ele>
        <time>2017-10-04T09:22:17Z</time>
      </trkpt>
      <trkpt lat="47.65524" lon="6.02903">
        <ele>213.74</ele>
        <time>2017-10-04T09:22:18Z</time>
      </trkpt>
      <trkpt lat="47.65528" lon="6.02901">
        <ele>213.75</ele>
        <time>2017-10-04T09:22:19Z</time>
      </trkpt>
      <trkpt lat="47.65533" lon="6.029">
        <ele>213.75</ele>
        <time>2017-10-04T09:22:20Z</time>
      </trkpt>
      <trkpt lat="47.65538" lon="6.02899">
        <ele>213.75</ele>
        <time>2017-10-04T09:22:21Z</time>
      </trkpt>
      <trkpt lat="47.65543" lon="6.02897">
        <ele>213.75</ele>
        <time>2017-10-04T09:22:22Z</time>
      </trkpt>
      <trkpt lat="47.65548" lon="6.02896">
        <ele>213.75</ele>
        <time>2017-10-04T09:22:23Z</time>
      </trkpt>
      <trkpt lat="47.65552" lon="6.02894">
        <ele>213.75</ele>
        <time>2017-10-04T09:22:24Z</time>
      </trkpt>
      <trkpt lat="47.65556" lon="6.02893">
        <ele>213.76</ele>
        <time>2017-10-04T09:22:25Z</time>
      </trkpt>
      <trkpt lat="47.65565" lon="6.0289">
        <ele>213.76</ele>
        <time>2017-10-04T09:22:27Z</time>
      </trkpt>
      <trkpt lat="47.65574" lon="6.02888">
        <ele>213.76</ele>
        <time>2017-10-04T09:22:29Z</time>
      </trkpt>
      <trkpt lat="47.65582" lon="6.02885">
        <ele>213.75</ele>
        <time>2017-10-04T09:22:31Z</time>
      </trkpt>
      <trkpt lat="47.6559" lon="6.02882">
        <ele>213.75</ele>
        <time>2017-10-04T09:22:33Z</time>
      </trkpt>
      <trkpt lat="47.65598" lon="6.0288">
        <ele>213.74</ele>
        <time>2017-10-04T09:22:35Z</time>
      </trkpt>
      <trkpt lat="47.65607" lon="6.02878">
        <ele>213.74</ele>
        <time>2017-10-04T09:22:37Z</time>
      </trkpt>
      <trkpt lat="47.65612" lon="6.02877">
        <ele>213.74</ele>
        <time>2017-10-04T09:22:38Z</time>
      </trkpt>
      <trkpt lat="47.65617" lon="6.02876">
        <ele>213.73</ele>
        <time>2017-10-04T09:22:39Z</time>
      </trkpt>
      <trkpt lat="47.65622" lon="6.02874">
        <ele>213.73</ele>
        <time>2017-10-04T09:22:40Z</time>
      </trkpt>
      <trkpt lat="47.65631" lon="6.02872">
        <ele>213.74</ele>
        <time>2017-10-04T09:22:42Z</time>
      </trkpt>
      <trkpt lat="47.65635" lon="6.02871">
        <ele>213.74</ele>
        <time>2017-10-04T09:22:43Z</time>
      </trkpt>
      <trkpt lat="47.6564" lon="6.02869">
        <ele>213.75</ele>
        <time>2017-10-04T09:22:44Z</time>
      </trkpt>
      <trkpt lat="47.65645" lon="6.02868">
        <ele>213.75</ele>
        <time>2017-10-04T09:22:45Z</time>
      </trkpt>
      <trkpt lat="47.65649" lon="6.02866">
        <ele>213.76</ele>
        <time>2017-10-04T09:22:46Z</time>
      </trkpt>
      <trkpt lat="47.65654" lon="6.02865">
        <ele>213.77</ele>
        <time>2017-10-04T09:22:47Z</time>
      </trkpt>
      <trkpt lat="47.65658" lon="6.02863">
        <ele>213.78</ele>
        <time>2017-10-04T09:22:48Z</time>
      </trkpt>
      <trkpt lat="47.65663" lon="6.02862">
        <ele>213.78</ele>
        <time>2017-10-04T09:22:49Z</time>
      </trkpt>
      <trkpt lat="47.65671" lon="6.02859">
        <ele>213.79</ele>
        <time>2017-10-04T09:22:51Z</time>
      </trkpt>
      <trkpt lat="47.6568" lon="6.02856">
        <ele>213.78</ele>
        <time>2017-10-04T09:22:53Z</time>
      </trkpt>
      <trkpt lat="47.65688" lon="6.02853">
        <ele>213.78</ele>
        <time>2017-10-04T09:22:55Z</time>
      </trkpt>
      <trkpt lat="47.65697" lon="6.0285">
        <ele>213.77</ele>
        <time>2017-10-04T09:22:57Z</time>
      </trkpt>
      <trkpt lat="47.65704" lon="6.02846">
        <ele>213.77</ele>
        <time>2017-10-04T09:22:59Z</time>
      </trkpt>
      <trkpt lat="47.65713" lon="6.02842">
        <ele>213.75</ele>
        <time>2017-10-04T09:23:01Z</time>
      </trkpt>
      <trkpt lat="47.65717" lon="6.0284">
        <ele>213.75</ele>
        <time>2017-10-04T09:23:02Z</time>
      </trkpt>
      <trkpt lat="47.65722" lon="6.02838">
        <ele>213.74</ele>
        <time>2017-10-04T09:23:03Z</time>
      </trkpt>
      <trkpt lat="47.65726" lon="6.02836">
        <ele>213.74</ele>
        <time>2017-10-04T09:23:04Z</time>
      </trkpt>
      <trkpt lat="47.65731" lon="6.02834">
        <ele>213.73</ele>
        <time>2017-10-04T09:23:05Z</time>
      </trkpt>
      <trkpt lat="47.65735" lon="6.02832">
        <ele>213.72</ele>
        <time>2017-10-04T09:23:06Z</time>
      </trkpt>
      <trkpt lat="47.6574" lon="6.0283">
        <ele>213.72</ele>
        <time>2017-10-04T09:23:07Z</time>
      </trkpt>
      <trkpt lat="47.65745" lon="6.02828">
        <ele>213.71</ele>
        <time>2017-10-04T09:23:08Z</time>
      </trkpt>
      <trkpt lat="47.65749" lon="6.02826">
        <ele>213.71</ele>
        <time>2017-10-04T09:23:09Z</time>
      </trkpt>
      <trkpt lat="47.65758" lon="6.02822">
        <ele>213.7</ele>
        <time>2017-10-04T09:23:11Z</time>
      </trkpt>
      <trkpt lat="47.65762" lon="6.0282">
        <ele>213.69</ele>
        <time>2017-10-04T09:23:12Z</time>
      </trkpt>
      <trkpt lat="47.65767" lon="6.02817">
        <ele>213.68</ele>
        <time>2017-10-04T09:23:13Z</time>
      </trkpt>
      <trkpt lat="47.65772" lon="6.02815">
        <ele>213.68</ele>
        <time>2017-10-04T09:23:14Z</time>
      </trkpt>
      <trkpt lat="47.65776" lon="6.02813">
        <ele>213.67</ele>
        <time>2017-10-04T09:23:15Z</time>
      </trkpt>
      <trkpt lat="47.65781" lon="6.0281">
        <ele>213.66</ele>
        <time>2017-10-04T09:23:16Z</time>
      </trkpt>
      <trkpt lat="47.65786" lon="6.02808">
        <ele>213.65</ele>
        <time>2017-10-04T09:23:17Z</time>
      </trkpt>
      <trkpt lat="47.65791" lon="6.02806">
        <ele>213.64</ele>
        <time>2017-10-04T09:23:18Z</time>
      </trkpt>
      <trkpt lat="47.65796" lon="6.02804">
        <ele>213.63</ele>
        <time>2017-10-04T09:23:19Z</time>
      </trkpt>
      <trkpt lat="47.658" lon="6.02801">
        <ele>213.63</ele>
        <time>2017-10-04T09:23:20Z</time>
      </trkpt>
      <trkpt lat="47.65805" lon="6.02799">
        <ele>213.62</ele>
        <time>2017-10-04T09:23:21Z</time>
      </trkpt>
      <trkpt lat="47.6581" lon="6.02797">
        <ele>213.61</ele>
        <time>2017-10-04T09:23:22Z</time>
      </trkpt>
      <trkpt lat="47.65814" lon="6.02794">
        <ele>213.61</ele>
        <time>2017-10-04T09:23:23Z</time>
      </trkpt>
      <trkpt lat="47.65819" lon="6.02792">
        <ele>213.6</ele>
        <time>2017-10-04T09:23:24Z</time>
      </trkpt>
      <trkpt lat="47.65824" lon="6.0279">
        <ele>213.59</ele>
        <time>2017-10-04T09:23:25Z</time>
      </trkpt>
      <trkpt lat="47.65829" lon="6.02787">
        <ele>213.57</ele>
        <time>2017-10-04T09:23:26Z</time>
      </trkpt>
      <trkpt lat="47.65834" lon="6.02784">
        <ele>213.56</ele>
        <time>2017-10-04T09:23:27Z</time>
      </trkpt>
      <trkpt lat="47.65839" lon="6.02781">
        <ele>213.54</ele>
        <time>2017-10-04T09:23:28Z</time>
      </trkpt>
      <trkpt lat="47.65844" lon="6.02779">
        <ele>213.53</ele>
        <time>2017-10-04T09:23:29Z</time>
      </trkpt>
      <trkpt lat="47.65849" lon="6.02776">
        <ele>213.51</ele>
        <time>2017-10-04T09:23:30Z</time>
      </trkpt>
      <trkpt lat="47.65855" lon="6.02773">
        <ele>213.5</ele>
        <time>2017-10-04T09:23:31Z</time>
      </trkpt>
      <trkpt lat="47.6586" lon="6.0277">
        <ele>213.49</ele>
        <time>2017-10-04T09:23:32Z</time>
      </trkpt>
      <trkpt lat="47.65865" lon="6.02767">
        <ele>213.48</ele>
        <time>2017-10-04T09:23:33Z</time>
      </trkpt>
      <trkpt lat="47.65869" lon="6.02764">
        <ele>213.47</ele>
        <time>2017-10-04T09:23:34Z</time>
      </trkpt>
      <trkpt lat="47.65874" lon="6.02761">
        <ele>213.47</ele>
        <time>2017-10-04T09:23:35Z</time>
      </trkpt>
      <trkpt lat="47.65878" lon="6.02758">
        <ele>213.46</ele>
        <time>2017-10-04T09:23:36Z</time>
      </trkpt>
      <trkpt lat="47.65885" lon="6.02752">
        <ele>213.46</ele>
        <time>2017-10-04T09:23:38Z</time>
      </trkpt>
      <trkpt lat="47.65892" lon="6.02746">
        <ele>213.46</ele>
        <time>2017-10-04T09:23:40Z</time>
      </trkpt>
      <trkpt lat="47.65899" lon="6.0274">
        <ele>213.45</ele>
        <time>2017-10-04T09:23:42Z</time>
      </trkpt>
      <trkpt lat="47.65905" lon="6.02735">
        <ele>213.44</ele>
        <time>2017-10-04T09:23:44Z</time>
      </trkpt>
      <trkpt lat="47.65911" lon="6.0273">
        <ele>213.44</ele>
        <time>2017-10-04T09:23:46Z</time>
      </trkpt>
      <trkpt lat="47.65918" lon="6.02728">
        <ele>213.43</ele>
        <time>2017-10-04T09:23:48Z</time>
      </trkpt>
      <trkpt lat="47.65923" lon="6.02724">
        <ele>213.43</ele>
        <time>2017-10-04T09:23:50Z</time>
      </trkpt>
      <trkpt lat="47.6593" lon="6.02718">
        <ele>213.4</ele>
        <time>2017-10-04T09:23:52Z</time>
      </trkpt>
      <trkpt lat="47.65938" lon="6.02713">
        <ele>213.37</ele>
        <time>2017-10-04T09:23:54Z</time>
      </trkpt>
      <trkpt lat="47.65945" lon="6.02706">
        <ele>213.34</ele>
        <time>2017-10-04T09:23:56Z</time>
      </trkpt>
      <trkpt lat="47.65953" lon="6.027">
        <ele>213.31</ele>
        <time>2017-10-04T09:23:58Z</time>
      </trkpt>
      <trkpt lat="47.65958" lon="6.02697">
        <ele>213.31</ele>
        <time>2017-10-04T09:23:59Z</time>
      </trkpt>
      <trkpt lat="47.65962" lon="6.02694">
        <ele>213.3</ele>
        <time>2017-10-04T09:24:00Z</time>
      </trkpt>
      <trkpt lat="47.65966" lon="6.02691">
        <ele>213.29</ele>
        <time>2017-10-04T09:24:01Z</time>
      </trkpt>
      <trkpt lat="47.6597" lon="6.02688">
        <ele>213.28</ele>
        <time>2017-10-04T09:24:02Z</time>
      </trkpt>
      <trkpt lat="47.65974" lon="6.02685">
        <ele>213.27</ele>
        <time>2017-10-04T09:24:03Z</time>
      </trkpt>
      <trkpt lat="47.65982" lon="6.0268">
        <ele>213.26</ele>
        <time>2017-10-04T09:24:05Z</time>
      </trkpt>
      <trkpt lat="47.65989" lon="6.02675">
        <ele>213.27</ele>
        <time>2017-10-04T09:24:07Z</time>
      </trkpt>
      <trkpt lat="47.65995" lon="6.0267">
        <ele>213.28</ele>
        <time>2017-10-04T09:24:09Z</time>
      </trkpt>
      <trkpt lat="47.66001" lon="6.02666">
        <ele>213.28</ele>
        <time>2017-10-04T09:24:11Z</time>
      </trkpt>
      <trkpt lat="47.66006" lon="6.02662">
        <ele>213.28</ele>
        <time>2017-10-04T09:24:13Z</time>
      </trkpt>
      <trkpt lat="47.66012" lon="6.02657">
        <ele>213.28</ele>
        <time>2017-10-04T09:24:15Z</time>
      </trkpt>
      <trkpt lat="47.66018" lon="6.02653">
        <ele>213.3</ele>
        <time>2017-10-04T09:24:17Z</time>
      </trkpt>
      <trkpt lat="47.66026" lon="6.02649">
        <ele>213.31</ele>
        <time>2017-10-04T09:24:19Z</time>
      </trkpt>
      <trkpt lat="47.66034" lon="6.02644">
        <ele>213.32</ele>
        <time>2017-10-04T09:24:21Z</time>
      </trkpt>
      <trkpt lat="47.66042" lon="6.02639">
        <ele>213.33</ele>
        <time>2017-10-04T09:24:23Z</time>
      </trkpt>
      <trkpt lat="47.66049" lon="6.02635">
        <ele>213.34</ele>
        <time>2017-10-04T09:24:25Z</time>
      </trkpt>
      <trkpt lat="47.66057" lon="6.02632">
        <ele>213.35</ele>
        <time>2017-10-04T09:24:27Z</time>
      </trkpt>
      <trkpt lat="47.66065" lon="6.0263">
        <ele>213.34</ele>
        <time>2017-10-04T09:24:29Z</time>
      </trkpt>
      <trkpt lat="47.66073" lon="6.02629">
        <ele>213.34</ele>
        <time>2017-10-04T09:24:31Z</time>
      </trkpt>
      <trkpt lat="47.66079" lon="6.02627">
        <ele>213.34</ele>
        <time>2017-10-04T09:24:33Z</time>
      </trkpt>
      <trkpt lat="47.66086" lon="6.02627">
        <ele>213.34</ele>
        <time>2017-10-04T09:24:35Z</time>
      </trkpt>
      <trkpt lat="47.66092" lon="6.02627">
        <ele>213.33</ele>
        <time>2017-10-04T09:24:37Z</time>
      </trkpt>
      <trkpt lat="47.66101" lon="6.02628">
        <ele>213.3</ele>
        <time>2017-10-04T09:24:39Z</time>
      </trkpt>
      <trkpt lat="47.66109" lon="6.02629">
        <ele>213.28</ele>
        <time>2017-10-04T09:24:41Z</time>
      </trkpt>
      <trkpt lat="47.66117" lon="6.02633">
        <ele>213.26</ele>
        <time>2017-10-04T09:24:43Z</time>
      </trkpt>
      <trkpt lat="47.66125" lon="6.02638">
        <ele>213.24</ele>
        <time>2017-10-04T09:24:45Z</time>
      </trkpt>
      <trkpt lat="47.66132" lon="6.02642">
        <ele>213.23</ele>
        <time>2017-10-04T09:24:47Z</time>
      </trkpt>
      <trkpt lat="47.6614" lon="6.02646">
        <ele>213.2</ele>
        <time>2017-10-04T09:24:49Z</time>
      </trkpt>
      <trkpt lat="47.66147" lon="6.0265">
        <ele>213.19</ele>
        <time>2017-10-04T09:24:51Z</time>
      </trkpt>
      <trkpt lat="47.66153" lon="6.02653">
        <ele>213.19</ele>
        <time>2017-10-04T09:24:53Z</time>
      </trkpt>
      <trkpt lat="47.6616" lon="6.02656">
        <ele>213.18</ele>
        <time>2017-10-04T09:24:55Z</time>
      </trkpt>
      <trkpt lat="47.66165" lon="6.02659">
        <ele>213.18</ele>
        <time>2017-10-04T09:24:57Z</time>
      </trkpt>
      <trkpt lat="47.6617" lon="6.02661">
        <ele>213.17</ele>
        <time>2017-10-04T09:24:59Z</time>
      </trkpt>
      <trkpt lat="47.66176" lon="6.02664">
        <ele>213.17</ele>
        <time>2017-10-04T09:25:01Z</time>
      </trkpt>
      <trkpt lat="47.6618" lon="6.02667">
        <ele>213.17</ele>
        <time>2017-10-04T09:25:03Z</time>
      </trkpt>
      <trkpt lat="47.66185" lon="6.02671">
        <ele>213.17</ele>
        <time>2017-10-04T09:25:05Z</time>
      </trkpt>
      <trkpt lat="47.66189" lon="6.02676">
        <ele>213.17</ele>
        <time>2017-10-04T09:25:07Z</time>
      </trkpt>
      <trkpt lat="47.66193" lon="6.02682">
        <ele>213.18</ele>
        <time>2017-10-04T09:25:09Z</time>
      </trkpt>
      <trkpt lat="47.66196" lon="6.02691">
        <ele>213.19</ele>
        <time>2017-10-04T09:25:12Z</time>
      </trkpt>
      <trkpt lat="47.66197" lon="6.02699">
        <ele>213.19</ele>
        <time>2017-10-04T09:25:14Z</time>
      </trkpt>
      <trkpt lat="47.66197" lon="6.02708">
        <ele>213.2</ele>
        <time>2017-10-04T09:25:16Z</time>
      </trkpt>
      <trkpt lat="47.66197" lon="6.02717">
        <ele>213.21</ele>
        <time>2017-10-04T09:25:18Z</time>
      </trkpt>
      <trkpt lat="47.66197" lon="6.02726">
        <ele>213.22</ele>
        <time>2017-10-04T09:25:20Z</time>
      </trkpt>
      <trkpt lat="47.66198" lon="6.02736">
        <ele>213.24</ele>
        <time>2017-10-04T09:25:22Z</time>
      </trkpt>
      <trkpt lat="47.66199" lon="6.02744">
        <ele>213.25</ele>
        <time>2017-10-04T09:25:24Z</time>
      </trkpt>
      <trkpt lat="47.66199" lon="6.02753">
        <ele>213.27</ele>
        <time>2017-10-04T09:25:26Z</time>
      </trkpt>
      <trkpt lat="47.662" lon="6.02762">
        <ele>213.29</ele>
        <time>2017-10-04T09:25:28Z</time>
      </trkpt>
      <trkpt lat="47.662" lon="6.02772">
        <ele>213.3</ele>
        <time>2017-10-04T09:25:30Z</time>
      </trkpt>
      <trkpt lat="47.66201" lon="6.02782">
        <ele>213.32</ele>
        <time>2017-10-04T09:25:32Z</time>
      </trkpt>
      <trkpt lat="47.66204" lon="6.02792">
        <ele>213.34</ele>
        <time>2017-10-04T09:25:34Z</time>
      </trkpt>
      <trkpt lat="47.66207" lon="6.02801">
        <ele>213.35</ele>
        <time>2017-10-04T09:25:36Z</time>
      </trkpt>
      <trkpt lat="47.66211" lon="6.02811">
        <ele>213.37</ele>
        <time>2017-10-04T09:25:38Z</time>
      </trkpt>
      <trkpt lat="47.66216" lon="6.02821">
        <ele>213.45</ele>
        <time>2017-10-04T09:25:40Z</time>
      </trkpt>
      <trkpt lat="47.66221" lon="6.02829">
        <ele>213.49</ele>
        <time>2017-10-04T09:25:42Z</time>
      </trkpt>
      <trkpt lat="47.66225" lon="6.02836">
        <ele>213.51</ele>
        <time>2017-10-04T09:25:44Z</time>
      </trkpt>
      <trkpt lat="47.66229" lon="6.02842">
        <ele>213.52</ele>
        <time>2017-10-04T09:25:46Z</time>
      </trkpt>
      <trkpt lat="47.66234" lon="6.02848">
        <ele>213.54</ele>
        <time>2017-10-04T09:25:48Z</time>
      </trkpt>
      <trkpt lat="47.66239" lon="6.02854">
        <ele>213.56</ele>
        <time>2017-10-04T09:25:50Z</time>
      </trkpt>
      <trkpt lat="47.66243" lon="6.02859">
        <ele>213.59</ele>
        <time>2017-10-04T09:25:52Z</time>
      </trkpt>
      <trkpt lat="47.66249" lon="6.02865">
        <ele>213.61</ele>
        <time>2017-10-04T09:25:54Z</time>
      </trkpt>
      <trkpt lat="47.66254" lon="6.02872">
        <ele>213.64</ele>
        <time>2017-10-04T09:25:56Z</time>
      </trkpt>
      <trkpt lat="47.66258" lon="6.02877">
        <ele>213.68</ele>
        <time>2017-10-04T09:25:58Z</time>
      </trkpt>
      <trkpt lat="47.66262" lon="6.02882">
        <ele>213.71</ele>
        <time>2017-10-04T09:26:00Z</time>
      </trkpt>
      <trkpt lat="47.66266" lon="6.02888">
        <ele>213.74</ele>
        <time>2017-10-04T09:26:02Z</time>
      </trkpt>
      <trkpt lat="47.6627" lon="6.02893">
        <ele>213.78</ele>
        <time>2017-10-04T09:26:04Z</time>
      </trkpt>
      <trkpt lat="47.66274" lon="6.02898">
        <ele>213.81</ele>
        <time>2017-10-04T09:26:06Z</time>
      </trkpt>
      <trkpt lat="47.66277" lon="6.02903">
        <ele>213.85</ele>
        <time>2017-10-04T09:26:08Z</time>
      </trkpt>
      <trkpt lat="47.6628" lon="6.02908">
        <ele>213.88</ele>
        <time>2017-10-04T09:26:10Z</time>
      </trkpt>
      <trkpt lat="47.66284" lon="6.02913">
        <ele>213.92</ele>
        <time>2017-10-04T09:26:12Z</time>
      </trkpt>
      <trkpt lat="47.66287" lon="6.02919">
        <ele>213.96</ele>
        <time>2017-10-04T09:26:14Z</time>
      </trkpt>
      <trkpt lat="47.66291" lon="6.02925">
        <ele>214</ele>
        <time>2017-10-04T09:26:16Z</time>
      </trkpt>
      <trkpt lat="47.66295" lon="6.0293">
        <ele>214.03</ele>
        <time>2017-10-04T09:26:18Z</time>
      </trkpt>
      <trkpt lat="47.66298" lon="6.02936">
        <ele>214.07</ele>
        <time>2017-10-04T09:26:20Z</time>
      </trkpt>
      <trkpt lat="47.66301" lon="6.02941">
        <ele>214.11</ele>
        <time>2017-10-04T09:26:22Z</time>
      </trkpt>
      <trkpt lat="47.66305" lon="6.02946">
        <ele>214.14</ele>
        <time>2017-10-04T09:26:24Z</time>
      </trkpt>
      <trkpt lat="47.66309" lon="6.02951">
        <ele>214.18</ele>
        <time>2017-10-04T09:26:26Z</time>
      </trkpt>
      <trkpt lat="47.66315" lon="6.02958">
        <ele>214.23</ele>
        <time>2017-10-04T09:26:28Z</time>
      </trkpt>
      <trkpt lat="47.66319" lon="6.02965">
        <ele>214.27</ele>
        <time>2017-10-04T09:26:30Z</time>
      </trkpt>
      <trkpt lat="47.66323" lon="6.02971">
        <ele>214.31</ele>
        <time>2017-10-04T09:26:32Z</time>
      </trkpt>
      <trkpt lat="47.66326" lon="6.02977">
        <ele>214.36</ele>
        <time>2017-10-04T09:26:34Z</time>
      </trkpt>
      <trkpt lat="47.6633" lon="6.02984">
        <ele>214.4</ele>
        <time>2017-10-04T09:26:36Z</time>
      </trkpt>
      <trkpt lat="47.66334" lon="6.0299">
        <ele>214.44</ele>
        <time>2017-10-04T09:26:38Z</time>
      </trkpt>
      <trkpt lat="47.66337" lon="6.02995">
        <ele>214.48</ele>
        <time>2017-10-04T09:26:40Z</time>
      </trkpt>
      <trkpt lat="47.66339" lon="6.03003">
        <ele>214.54</ele>
        <time>2017-10-04T09:26:43Z</time>
      </trkpt>
      <trkpt lat="47.66343" lon="6.03009">
        <ele>214.58</ele>
        <time>2017-10-04T09:26:45Z</time>
      </trkpt>
      <trkpt lat="47.66348" lon="6.03015">
        <ele>214.62</ele>
        <time>2017-10-04T09:26:47Z</time>
      </trkpt>
      <trkpt lat="47.66355" lon="6.03023">
        <ele>214.65</ele>
        <time>2017-10-04T09:26:49Z</time>
      </trkpt>
      <trkpt lat="47.66361" lon="6.03029">
        <ele>214.68</ele>
        <time>2017-10-04T09:26:51Z</time>
      </trkpt>
      <trkpt lat="47.66368" lon="6.03033">
        <ele>214.71</ele>
        <time>2017-10-04T09:26:53Z</time>
      </trkpt>
      <trkpt lat="47.66375" lon="6.03039">
        <ele>214.74</ele>
        <time>2017-10-04T09:26:55Z</time>
      </trkpt>
      <trkpt lat="47.66381" lon="6.03043">
        <ele>214.77</ele>
        <time>2017-10-04T09:26:57Z</time>
      </trkpt>
      <trkpt lat="47.66386" lon="6.03047">
        <ele>214.8</ele>
        <time>2017-10-04T09:26:59Z</time>
      </trkpt>
      <trkpt lat="47.66393" lon="6.03049">
        <ele>214.82</ele>
        <time>2017-10-04T09:27:01Z</time>
      </trkpt>
      <trkpt lat="47.66399" lon="6.03052">
        <ele>214.84</ele>
        <time>2017-10-04T09:27:03Z</time>
      </trkpt>
      <trkpt lat="47.66403" lon="6.0306">
        <ele>214.86</ele>
        <time>2017-10-04T09:27:05Z</time>
      </trkpt>
      <trkpt lat="47.66408" lon="6.0306">
        <ele>214.87</ele>
        <time>2017-10-04T09:27:06Z</time>
      </trkpt>
      <trkpt lat="47.66415" lon="6.0306">
        <ele>214.88</ele>
        <time>2017-10-04T09:27:07Z</time>
      </trkpt>
      <trkpt lat="47.66422" lon="6.03066">
        <ele>214.89</ele>
        <time>2017-10-04T09:27:09Z</time>
      </trkpt>
      <trkpt lat="47.66427" lon="6.03069">
        <ele>214.9</ele>
        <time>2017-10-04T09:27:10Z</time>
      </trkpt>
      <trkpt lat="47.66432" lon="6.03073">
        <ele>214.9</ele>
        <time>2017-10-04T09:27:11Z</time>
      </trkpt>
      <trkpt lat="47.66439" lon="6.03075">
        <ele>214.91</ele>
        <time>2017-10-04T09:27:12Z</time>
      </trkpt>
      <trkpt lat="47.66446" lon="6.03076">
        <ele>214.92</ele>
        <time>2017-10-04T09:27:13Z</time>
      </trkpt>
      <trkpt lat="47.66453" lon="6.03078">
        <ele>214.97</ele>
        <time>2017-10-04T09:27:14Z</time>
      </trkpt>
      <trkpt lat="47.66458" lon="6.0308">
        <ele>214.99</ele>
        <time>2017-10-04T09:27:15Z</time>
      </trkpt>
      <trkpt lat="47.66466" lon="6.03084">
        <ele>215</ele>
        <time>2017-10-04T09:27:17Z</time>
      </trkpt>
      <trkpt lat="47.6647" lon="6.03085">
        <ele>215.01</ele>
        <time>2017-10-04T09:27:18Z</time>
      </trkpt>
      <trkpt lat="47.66478" lon="6.03087">
        <ele>215.02</ele>
        <time>2017-10-04T09:27:20Z</time>
      </trkpt>
      <trkpt lat="47.66487" lon="6.03088">
        <ele>215.03</ele>
        <time>2017-10-04T09:27:22Z</time>
      </trkpt>
      <trkpt lat="47.66494" lon="6.03091">
        <ele>215.1</ele>
        <time>2017-10-04T09:27:24Z</time>
      </trkpt>
      <trkpt lat="47.66501" lon="6.03091">
        <ele>215.12</ele>
        <time>2017-10-04T09:27:26Z</time>
      </trkpt>
      <trkpt lat="47.66508" lon="6.03092">
        <ele>215.13</ele>
        <time>2017-10-04T09:27:28Z</time>
      </trkpt>
      <trkpt lat="47.66514" lon="6.03092">
        <ele>215.14</ele>
        <time>2017-10-04T09:27:30Z</time>
      </trkpt>
      <trkpt lat="47.66521" lon="6.03092">
        <ele>215.15</ele>
        <time>2017-10-04T09:27:32Z</time>
      </trkpt>
      <trkpt lat="47.66528" lon="6.03093">
        <ele>215.16</ele>
        <time>2017-10-04T09:27:34Z</time>
      </trkpt>
      <trkpt lat="47.66535" lon="6.03094">
        <ele>215.17</ele>
        <time>2017-10-04T09:27:36Z</time>
      </trkpt>
      <trkpt lat="47.66541" lon="6.03094">
        <ele>215.19</ele>
        <time>2017-10-04T09:27:38Z</time>
      </trkpt>
      <trkpt lat="47.66547" lon="6.03095">
        <ele>215.2</ele>
        <time>2017-10-04T09:27:40Z</time>
      </trkpt>
      <trkpt lat="47.66553" lon="6.03095">
        <ele>215.21</ele>
        <time>2017-10-04T09:27:42Z</time>
      </trkpt>
      <trkpt lat="47.66559" lon="6.03095">
        <ele>215.22</ele>
        <time>2017-10-04T09:27:44Z</time>
      </trkpt>
      <trkpt lat="47.66565" lon="6.03096">
        <ele>215.23</ele>
        <time>2017-10-04T09:27:46Z</time>
      </trkpt>
      <trkpt lat="47.66572" lon="6.03097">
        <ele>215.24</ele>
        <time>2017-10-04T09:27:48Z</time>
      </trkpt>
      <trkpt lat="47.66579" lon="6.03097">
        <ele>215.25</ele>
        <time>2017-10-04T09:27:50Z</time>
      </trkpt>
      <trkpt lat="47.66586" lon="6.03097">
        <ele>215.26</ele>
        <time>2017-10-04T09:27:52Z</time>
      </trkpt>
      <trkpt lat="47.66592" lon="6.03097">
        <ele>215.28</ele>
        <time>2017-10-04T09:27:54Z</time>
      </trkpt>
      <trkpt lat="47.66599" lon="6.03097">
        <ele>215.28</ele>
        <time>2017-10-04T09:27:56Z</time>
      </trkpt>
      <trkpt lat="47.66606" lon="6.03097">
        <ele>215.29</ele>
        <time>2017-10-04T09:27:58Z</time>
      </trkpt>
      <trkpt lat="47.66613" lon="6.03097">
        <ele>215.3</ele>
        <time>2017-10-04T09:28:00Z</time>
      </trkpt>
      <trkpt lat="47.66619" lon="6.03097">
        <ele>215.31</ele>
        <time>2017-10-04T09:28:02Z</time>
      </trkpt>
      <trkpt lat="47.66625" lon="6.03096">
        <ele>215.32</ele>
        <time>2017-10-04T09:28:04Z</time>
      </trkpt>
      <trkpt lat="47.66631" lon="6.03095">
        <ele>215.32</ele>
        <time>2017-10-04T09:28:06Z</time>
      </trkpt>
      <trkpt lat="47.66639" lon="6.03095">
        <ele>215.33</ele>
        <time>2017-10-04T09:28:08Z</time>
      </trkpt>
      <trkpt lat="47.66646" lon="6.03094">
        <ele>215.33</ele>
        <time>2017-10-04T09:28:10Z</time>
      </trkpt>
      <trkpt lat="47.66652" lon="6.03093">
        <ele>215.34</ele>
        <time>2017-10-04T09:28:12Z</time>
      </trkpt>
      <trkpt lat="47.66659" lon="6.03093">
        <ele>215.34</ele>
        <time>2017-10-04T09:28:14Z</time>
      </trkpt>
      <trkpt lat="47.66665" lon="6.03093">
        <ele>215.34</ele>
        <time>2017-10-04T09:28:16Z</time>
      </trkpt>
      <trkpt lat="47.66671" lon="6.03094">
        <ele>215.35</ele>
        <time>2017-10-04T09:28:18Z</time>
      </trkpt>
      <trkpt lat="47.66677" lon="6.03096">
        <ele>215.35</ele>
        <time>2017-10-04T09:28:20Z</time>
      </trkpt>
      <trkpt lat="47.66684" lon="6.03099">
        <ele>215.35</ele>
        <time>2017-10-04T09:28:22Z</time>
      </trkpt>
      <trkpt lat="47.66691" lon="6.03102">
        <ele>215.36</ele>
        <time>2017-10-04T09:28:24Z</time>
      </trkpt>
      <trkpt lat="47.66697" lon="6.03107">
        <ele>215.36</ele>
        <time>2017-10-04T09:28:26Z</time>
      </trkpt>
      <trkpt lat="47.66702" lon="6.03111">
        <ele>215.36</ele>
        <time>2017-10-04T09:28:28Z</time>
      </trkpt>
      <trkpt lat="47.66708" lon="6.03115">
        <ele>215.37</ele>
        <time>2017-10-04T09:28:30Z</time>
      </trkpt>
      <trkpt lat="47.66713" lon="6.03121">
        <ele>215.37</ele>
        <time>2017-10-04T09:28:32Z</time>
      </trkpt>
      <trkpt lat="47.66719" lon="6.03126">
        <ele>215.38</ele>
        <time>2017-10-04T09:28:34Z</time>
      </trkpt>
      <trkpt lat="47.66725" lon="6.03129">
        <ele>215.39</ele>
        <time>2017-10-04T09:28:36Z</time>
      </trkpt>
      <trkpt lat="47.6673" lon="6.03133">
        <ele>215.4</ele>
        <time>2017-10-04T09:28:38Z</time>
      </trkpt>
      <trkpt lat="47.66735" lon="6.03135">
        <ele>215.41</ele>
        <time>2017-10-04T09:28:40Z</time>
      </trkpt>
      <trkpt lat="47.66741" lon="6.03138">
        <ele>215.42</ele>
        <time>2017-10-04T09:28:42Z</time>
      </trkpt>
      <trkpt lat="47.66747" lon="6.0314">
        <ele>215.43</ele>
        <time>2017-10-04T09:28:45Z</time>
      </trkpt>
      <trkpt lat="47.66751" lon="6.03142">
        <ele>215.44</ele>
        <time>2017-10-04T09:28:48Z</time>
      </trkpt>
      <trkpt lat="47.66756" lon="6.03143">
        <ele>215.45</ele>
        <time>2017-10-04T09:28:51Z</time>
      </trkpt>
      <trkpt lat="47.66761" lon="6.03147">
        <ele>215.46</ele>
        <time>2017-10-04T09:28:54Z</time>
      </trkpt>
      <trkpt lat="47.66768" lon="6.03148">
        <ele>215.48</ele>
        <time>2017-10-04T09:28:58Z</time>
      </trkpt>
      <trkpt lat="47.66775" lon="6.03149">
        <ele>215.5</ele>
        <time>2017-10-04T09:29:01Z</time>
      </trkpt>
      <trkpt lat="47.6678" lon="6.0315">
        <ele>215.53</ele>
        <time>2017-10-04T09:29:03Z</time>
      </trkpt>
      <trkpt lat="47.66786" lon="6.03152">
        <ele>215.58</ele>
        <time>2017-10-04T09:29:06Z</time>
      </trkpt>
      <trkpt lat="47.66792" lon="6.03153">
        <ele>215.64</ele>
        <time>2017-10-04T09:29:09Z</time>
      </trkpt>
      <trkpt lat="47.66798" lon="6.03154">
        <ele>215.71</ele>
        <time>2017-10-04T09:29:12Z</time>
      </trkpt>
      <trkpt lat="47.66805" lon="6.03156">
        <ele>215.78</ele>
        <time>2017-10-04T09:29:15Z</time>
      </trkpt>
      <trkpt lat="47.66811" lon="6.03157">
        <ele>215.87</ele>
        <time>2017-10-04T09:29:18Z</time>
      </trkpt>
      <trkpt lat="47.66817" lon="6.03157">
        <ele>215.96</ele>
        <time>2017-10-04T09:29:21Z</time>
      </trkpt>
      <trkpt lat="47.66822" lon="6.03158">
        <ele>216.02</ele>
        <time>2017-10-04T09:29:23Z</time>
      </trkpt>
      <trkpt lat="47.66827" lon="6.03161">
        <ele>216.09</ele>
        <time>2017-10-04T09:29:25Z</time>
      </trkpt>
      <trkpt lat="47.66833" lon="6.03162">
        <ele>216.16</ele>
        <time>2017-10-04T09:29:27Z</time>
      </trkpt>
      <trkpt lat="47.66839" lon="6.03162">
        <ele>216.26</ele>
        <time>2017-10-04T09:29:30Z</time>
      </trkpt>
      <trkpt lat="47.66844" lon="6.03163">
        <ele>216.32</ele>
        <time>2017-10-04T09:29:32Z</time>
      </trkpt>
      <trkpt lat="47.66849" lon="6.03164">
        <ele>216.39</ele>
        <time>2017-10-04T09:29:34Z</time>
      </trkpt>
      <trkpt lat="47.66855" lon="6.03165">
        <ele>216.47</ele>
        <time>2017-10-04T09:29:36Z</time>
      </trkpt>
      <trkpt lat="47.6686" lon="6.03166">
        <ele>216.56</ele>
        <time>2017-10-04T09:29:38Z</time>
      </trkpt>
      <trkpt lat="47.66866" lon="6.03167">
        <ele>216.7</ele>
        <time>2017-10-04T09:29:41Z</time>
      </trkpt>
      <trkpt lat="47.66872" lon="6.03169">
        <ele>216.84</ele>
        <time>2017-10-04T09:29:44Z</time>
      </trkpt>
      <trkpt lat="47.66879" lon="6.03171">
        <ele>216.99</ele>
        <time>2017-10-04T09:29:47Z</time>
      </trkpt>
      <trkpt lat="47.66885" lon="6.03174">
        <ele>217.09</ele>
        <time>2017-10-04T09:29:49Z</time>
      </trkpt>
      <trkpt lat="47.6689" lon="6.03177">
        <ele>217.2</ele>
        <time>2017-10-04T09:29:51Z</time>
      </trkpt>
      <trkpt lat="47.66896" lon="6.0318">
        <ele>217.3</ele>
        <time>2017-10-04T09:29:53Z</time>
      </trkpt>
      <trkpt lat="47.66902" lon="6.03184">
        <ele>217.47</ele>
        <time>2017-10-04T09:29:56Z</time>
      </trkpt>
      <trkpt lat="47.66908" lon="6.03188">
        <ele>217.65</ele>
        <time>2017-10-04T09:29:59Z</time>
      </trkpt>
      <trkpt lat="47.66913" lon="6.03194">
        <ele>217.82</ele>
        <time>2017-10-04T09:30:02Z</time>
      </trkpt>
      <trkpt lat="47.66918" lon="6.03198">
        <ele>217.93</ele>
        <time>2017-10-04T09:30:04Z</time>
      </trkpt>
      <trkpt lat="47.66922" lon="6.03203">
        <ele>218.04</ele>
        <time>2017-10-04T09:30:06Z</time>
      </trkpt>
      <trkpt lat="47.66926" lon="6.03209">
        <ele>218.15</ele>
        <time>2017-10-04T09:30:08Z</time>
      </trkpt>
      <trkpt lat="47.66929" lon="6.03214">
        <ele>218.26</ele>
        <time>2017-10-04T09:30:10Z</time>
      </trkpt>
      <trkpt lat="47.66934" lon="6.03218">
        <ele>218.36</ele>
        <time>2017-10-04T09:30:12Z</time>
      </trkpt>
      <trkpt lat="47.6694" lon="6.03226">
        <ele>218.52</ele>
        <time>2017-10-04T09:30:15Z</time>
      </trkpt>
      <trkpt lat="47.66944" lon="6.03231">
        <ele>218.62</ele>
        <time>2017-10-04T09:30:17Z</time>
      </trkpt>
      <trkpt lat="47.66948" lon="6.03236">
        <ele>218.72</ele>
        <time>2017-10-04T09:30:19Z</time>
      </trkpt>
      <trkpt lat="47.66952" lon="6.0324">
        <ele>218.82</ele>
        <time>2017-10-04T09:30:21Z</time>
      </trkpt>
      <trkpt lat="47.66956" lon="6.03246">
        <ele>218.92</ele>
        <time>2017-10-04T09:30:23Z</time>
      </trkpt>
      <trkpt lat="47.66962" lon="6.03253">
        <ele>219.01</ele>
        <time>2017-10-04T09:30:25Z</time>
      </trkpt>
      <trkpt lat="47.66966" lon="6.03258">
        <ele>219.11</ele>
        <time>2017-10-04T09:30:27Z</time>
      </trkpt>
      <trkpt lat="47.6697" lon="6.03263">
        <ele>219.2</ele>
        <time>2017-10-04T09:30:29Z</time>
      </trkpt>
      <trkpt lat="47.66974" lon="6.03268">
        <ele>219.29</ele>
        <time>2017-10-04T09:30:31Z</time>
      </trkpt>
      <trkpt lat="47.66977" lon="6.03273">
        <ele>219.38</ele>
        <time>2017-10-04T09:30:33Z</time>
      </trkpt>
      <trkpt lat="47.66981" lon="6.0328">
        <ele>219.52</ele>
        <time>2017-10-04T09:30:36Z</time>
      </trkpt>
      <trkpt lat="47.66986" lon="6.03286">
        <ele>219.61</ele>
        <time>2017-10-04T09:30:38Z</time>
      </trkpt>
      <trkpt lat="47.6699" lon="6.03294">
        <ele>219.73</ele>
        <time>2017-10-04T09:30:41Z</time>
      </trkpt>
      <trkpt lat="47.66995" lon="6.033">
        <ele>219.82</ele>
        <time>2017-10-04T09:30:43Z</time>
      </trkpt>
      <trkpt lat="47.67001" lon="6.03308">
        <ele>219.9</ele>
        <time>2017-10-04T09:30:45Z</time>
      </trkpt>
      <trkpt lat="47.67006" lon="6.03315">
        <ele>220.02</ele>
        <time>2017-10-04T09:30:48Z</time>
      </trkpt>
      <trkpt lat="47.6701" lon="6.03321">
        <ele>220.1</ele>
        <time>2017-10-04T09:30:50Z</time>
      </trkpt>
      <trkpt lat="47.67015" lon="6.03328">
        <ele>220.18</ele>
        <time>2017-10-04T09:30:52Z</time>
      </trkpt>
      <trkpt lat="47.67019" lon="6.03335">
        <ele>220.29</ele>
        <time>2017-10-04T09:30:55Z</time>
      </trkpt>
      <trkpt lat="47.67023" lon="6.0334">
        <ele>220.36</ele>
        <time>2017-10-04T09:30:57Z</time>
      </trkpt>
      <trkpt lat="47.67029" lon="6.03345">
        <ele>220.44</ele>
        <time>2017-10-04T09:30:59Z</time>
      </trkpt>
      <trkpt lat="47.67032" lon="6.03351">
        <ele>220.51</ele>
        <time>2017-10-04T09:31:01Z</time>
      </trkpt>
      <trkpt lat="47.67035" lon="6.03357">
        <ele>220.58</ele>
        <time>2017-10-04T09:31:03Z</time>
      </trkpt>
      <trkpt lat="47.67039" lon="6.03364">
        <ele>220.65</ele>
        <time>2017-10-04T09:31:05Z</time>
      </trkpt>
      <trkpt lat="47.67043" lon="6.03371">
        <ele>220.72</ele>
        <time>2017-10-04T09:31:07Z</time>
      </trkpt>
      <trkpt lat="47.67047" lon="6.03378">
        <ele>220.83</ele>
        <time>2017-10-04T09:31:10Z</time>
      </trkpt>
      <trkpt lat="47.67051" lon="6.03385">
        <ele>220.9</ele>
        <time>2017-10-04T09:31:12Z</time>
      </trkpt>
      <trkpt lat="47.67054" lon="6.03391">
        <ele>220.97</ele>
        <time>2017-10-04T09:31:14Z</time>
      </trkpt>
      <trkpt lat="47.67057" lon="6.03397">
        <ele>221.05</ele>
        <time>2017-10-04T09:31:16Z</time>
      </trkpt>
      <trkpt lat="47.67062" lon="6.03402">
        <ele>221.13</ele>
        <time>2017-10-04T09:31:18Z</time>
      </trkpt>
      <trkpt lat="47.67068" lon="6.03406">
        <ele>221.25</ele>
        <time>2017-10-04T09:31:21Z</time>
      </trkpt>
      <trkpt lat="47.67073" lon="6.03405">
        <ele>221.39</ele>
        <time>2017-10-04T09:31:25Z</time>
      </trkpt>
      <trkpt lat="47.67075" lon="6.03416">
        <ele>223.05</ele>
        <time>2017-10-04T09:32:07Z</time>
      </trkpt>
      <trkpt lat="47.67078" lon="6.03425">
        <ele>223.26</ele>
        <time>2017-10-04T09:32:09Z</time>
      </trkpt>
      <trkpt lat="47.67084" lon="6.03435">
        <ele>223.46</ele>
        <time>2017-10-04T09:32:11Z</time>
      </trkpt>
      <trkpt lat="47.67089" lon="6.03444">
        <ele>223.65</ele>
        <time>2017-10-04T09:32:13Z</time>
      </trkpt>
      <trkpt lat="47.67094" lon="6.03454">
        <ele>223.83</ele>
        <time>2017-10-04T09:32:15Z</time>
      </trkpt>
      <trkpt lat="47.67098" lon="6.03463">
        <ele>224.01</ele>
        <time>2017-10-04T09:32:17Z</time>
      </trkpt>
      <trkpt lat="47.67103" lon="6.03472">
        <ele>224.18</ele>
        <time>2017-10-04T09:32:19Z</time>
      </trkpt>
      <trkpt lat="47.67108" lon="6.0348">
        <ele>224.34</ele>
        <time>2017-10-04T09:32:21Z</time>
      </trkpt>
      <trkpt lat="47.67116" lon="6.03489">
        <ele>224.51</ele>
        <time>2017-10-04T09:32:23Z</time>
      </trkpt>
      <trkpt lat="47.67121" lon="6.03496">
        <ele>224.67</ele>
        <time>2017-10-04T09:32:25Z</time>
      </trkpt>
      <trkpt lat="47.67129" lon="6.03504">
        <ele>224.84</ele>
        <time>2017-10-04T09:32:27Z</time>
      </trkpt>
      <trkpt lat="47.67137" lon="6.03513">
        <ele>225.55</ele>
        <time>2017-10-04T09:32:29Z</time>
      </trkpt>
      <trkpt lat="47.67142" lon="6.0352">
        <ele>225.79</ele>
        <time>2017-10-04T09:32:30Z</time>
      </trkpt>
      <trkpt lat="47.67149" lon="6.03529">
        <ele>227</ele>
        <time>2017-10-04T09:32:32Z</time>
      </trkpt>
      <trkpt lat="47.67152" lon="6.03534">
        <ele>227.54</ele>
        <time>2017-10-04T09:32:33Z</time>
      </trkpt>
      <trkpt lat="47.67155" lon="6.03539">
        <ele>228</ele>
        <time>2017-10-04T09:32:34Z</time>
      </trkpt>
      <trkpt lat="47.6716" lon="6.03546">
        <ele>228.38</ele>
        <time>2017-10-04T09:32:35Z</time>
      </trkpt>
      <trkpt lat="47.67164" lon="6.03552">
        <ele>228.71</ele>
        <time>2017-10-04T09:32:36Z</time>
      </trkpt>
      <trkpt lat="47.67168" lon="6.0356">
        <ele>229</ele>
        <time>2017-10-04T09:32:37Z</time>
      </trkpt>
      <trkpt lat="47.67171" lon="6.03567">
        <ele>229.26</ele>
        <time>2017-10-04T09:32:38Z</time>
      </trkpt>
      <trkpt lat="47.67175" lon="6.03573">
        <ele>229.48</ele>
        <time>2017-10-04T09:32:39Z</time>
      </trkpt>
      <trkpt lat="47.67179" lon="6.03581">
        <ele>229.67</ele>
        <time>2017-10-04T09:32:40Z</time>
      </trkpt>
      <trkpt lat="47.67185" lon="6.03592">
        <ele>229.86</ele>
        <time>2017-10-04T09:32:41Z</time>
      </trkpt>
      <trkpt lat="47.67189" lon="6.036">
        <ele>230.07</ele>
        <time>2017-10-04T09:32:42Z</time>
      </trkpt>
      <trkpt lat="47.67193" lon="6.03609">
        <ele>230.3</ele>
        <time>2017-10-04T09:32:43Z</time>
      </trkpt>
      <trkpt lat="47.67197" lon="6.03618">
        <ele>230.54</ele>
        <time>2017-10-04T09:32:44Z</time>
      </trkpt>
      <trkpt lat="47.67201" lon="6.03627">
        <ele>230.78</ele>
        <time>2017-10-04T09:32:45Z</time>
      </trkpt>
      <trkpt lat="47.67206" lon="6.03636">
        <ele>231.03</ele>
        <time>2017-10-04T09:32:46Z</time>
      </trkpt>
      <trkpt lat="47.6721" lon="6.03645">
        <ele>231.28</ele>
        <time>2017-10-04T09:32:47Z</time>
      </trkpt>
      <trkpt lat="47.67214" lon="6.03655">
        <ele>231.53</ele>
        <time>2017-10-04T09:32:48Z</time>
      </trkpt>
      <trkpt lat="47.67218" lon="6.03663">
        <ele>231.75</ele>
        <time>2017-10-04T09:32:49Z</time>
      </trkpt>
      <trkpt lat="47.67223" lon="6.03672">
        <ele>231.92</ele>
        <time>2017-10-04T09:32:50Z</time>
      </trkpt>
      <trkpt lat="47.67227" lon="6.03681">
        <ele>232.06</ele>
        <time>2017-10-04T09:32:51Z</time>
      </trkpt>
      <trkpt lat="47.67231" lon="6.0369">
        <ele>232.17</ele>
        <time>2017-10-04T09:32:52Z</time>
      </trkpt>
      <trkpt lat="47.67236" lon="6.037">
        <ele>232.25</ele>
        <time>2017-10-04T09:32:53Z</time>
      </trkpt>
      <trkpt lat="47.6724" lon="6.03709">
        <ele>232.29</ele>
        <time>2017-10-04T09:32:54Z</time>
      </trkpt>
      <trkpt lat="47.67246" lon="6.03719">
        <ele>232.33</ele>
        <time>2017-10-04T09:32:55Z</time>
      </trkpt>
      <trkpt lat="47.67252" lon="6.03729">
        <ele>232.36</ele>
        <time>2017-10-04T09:32:56Z</time>
      </trkpt>
      <trkpt lat="47.67257" lon="6.0374">
        <ele>232.41</ele>
        <time>2017-10-04T09:32:57Z</time>
      </trkpt>
      <trkpt lat="47.67264" lon="6.0375">
        <ele>232.5</ele>
        <time>2017-10-04T09:32:58Z</time>
      </trkpt>
      <trkpt lat="47.6727" lon="6.0376">
        <ele>232.62</ele>
        <time>2017-10-04T09:32:59Z</time>
      </trkpt>
      <trkpt lat="47.67276" lon="6.0377">
        <ele>232.75</ele>
        <time>2017-10-04T09:33:00Z</time>
      </trkpt>
      <trkpt lat="47.67282" lon="6.0378">
        <ele>232.9</ele>
        <time>2017-10-04T09:33:01Z</time>
      </trkpt>
      <trkpt lat="47.67288" lon="6.0379">
        <ele>233.05</ele>
        <time>2017-10-04T09:33:02Z</time>
      </trkpt>
      <trkpt lat="47.67293" lon="6.038">
        <ele>233.18</ele>
        <time>2017-10-04T09:33:03Z</time>
      </trkpt>
      <trkpt lat="47.67299" lon="6.0381">
        <ele>233.3</ele>
        <time>2017-10-04T09:33:04Z</time>
      </trkpt>
      <trkpt lat="47.67305" lon="6.03821">
        <ele>233.41</ele>
        <time>2017-10-04T09:33:05Z</time>
      </trkpt>
      <trkpt lat="47.67311" lon="6.03831">
        <ele>233.5</ele>
        <time>2017-10-04T09:33:06Z</time>
      </trkpt>
      <trkpt lat="47.67316" lon="6.03841">
        <ele>233.56</ele>
        <time>2017-10-04T09:33:07Z</time>
      </trkpt>
      <trkpt lat="47.67321" lon="6.0385">
        <ele>233.61</ele>
        <time>2017-10-04T09:33:08Z</time>
      </trkpt>
      <trkpt lat="47.67326" lon="6.0386">
        <ele>233.63</ele>
        <time>2017-10-04T09:33:09Z</time>
      </trkpt>
      <trkpt lat="47.67332" lon="6.0387">
        <ele>233.63</ele>
        <time>2017-10-04T09:33:10Z</time>
      </trkpt>
      <trkpt lat="47.67338" lon="6.0388">
        <ele>233.61</ele>
        <time>2017-10-04T09:33:11Z</time>
      </trkpt>
      <trkpt lat="47.67344" lon="6.03889">
        <ele>233.59</ele>
        <time>2017-10-04T09:33:12Z</time>
      </trkpt>
      <trkpt lat="47.67351" lon="6.03897">
        <ele>233.56</ele>
        <time>2017-10-04T09:33:13Z</time>
      </trkpt>
      <trkpt lat="47.67359" lon="6.03905">
        <ele>233.52</ele>
        <time>2017-10-04T09:33:14Z</time>
      </trkpt>
      <trkpt lat="47.67366" lon="6.03912">
        <ele>233.48</ele>
        <time>2017-10-04T09:33:15Z</time>
      </trkpt>
      <trkpt lat="47.67373" lon="6.03919">
        <ele>233.43</ele>
        <time>2017-10-04T09:33:16Z</time>
      </trkpt>
      <trkpt lat="47.67379" lon="6.03926">
        <ele>233.38</ele>
        <time>2017-10-04T09:33:17Z</time>
      </trkpt>
      <trkpt lat="47.67384" lon="6.03934">
        <ele>233.32</ele>
        <time>2017-10-04T09:33:18Z</time>
      </trkpt>
      <trkpt lat="47.67389" lon="6.03941">
        <ele>233.27</ele>
        <time>2017-10-04T09:33:19Z</time>
      </trkpt>
      <trkpt lat="47.67393" lon="6.03949">
        <ele>233.21</ele>
        <time>2017-10-04T09:33:20Z</time>
      </trkpt>
      <trkpt lat="47.67398" lon="6.03957">
        <ele>233.15</ele>
        <time>2017-10-04T09:33:21Z</time>
      </trkpt>
      <trkpt lat="47.67403" lon="6.03966">
        <ele>233.08</ele>
        <time>2017-10-04T09:33:22Z</time>
      </trkpt>
      <trkpt lat="47.67407" lon="6.03974">
        <ele>233</ele>
        <time>2017-10-04T09:33:23Z</time>
      </trkpt>
      <trkpt lat="47.67411" lon="6.0398">
        <ele>232.84</ele>
        <time>2017-10-04T09:33:24Z</time>
      </trkpt>
      <trkpt lat="47.67414" lon="6.03987">
        <ele>232.59</ele>
        <time>2017-10-04T09:33:25Z</time>
      </trkpt>
      <trkpt lat="47.67417" lon="6.03993">
        <ele>232.49</ele>
        <time>2017-10-04T09:33:26Z</time>
      </trkpt>
      <trkpt lat="47.6742" lon="6.03998">
        <ele>232.17</ele>
        <time>2017-10-04T09:33:27Z</time>
      </trkpt>
      <trkpt lat="47.67423" lon="6.04004">
        <ele>232.05</ele>
        <time>2017-10-04T09:33:28Z</time>
      </trkpt>
      <trkpt lat="47.67428" lon="6.04015">
        <ele>231.36</ele>
        <time>2017-10-04T09:33:30Z</time>
      </trkpt>
      <trkpt lat="47.67432" lon="6.04021">
        <ele>231.02</ele>
        <time>2017-10-04T09:33:31Z</time>
      </trkpt>
      <trkpt lat="47.67435" lon="6.04027">
        <ele>230.9</ele>
        <time>2017-10-04T09:33:32Z</time>
      </trkpt>
      <trkpt lat="47.67438" lon="6.04033">
        <ele>230.82</ele>
        <time>2017-10-04T09:33:33Z</time>
      </trkpt>
      <trkpt lat="47.67441" lon="6.04038">
        <ele>230.77</ele>
        <time>2017-10-04T09:33:34Z</time>
      </trkpt>
      <trkpt lat="47.67444" lon="6.04044">
        <ele>230.71</ele>
        <time>2017-10-04T09:33:35Z</time>
      </trkpt>
      <trkpt lat="47.67447" lon="6.0405">
        <ele>230.65</ele>
        <time>2017-10-04T09:33:36Z</time>
      </trkpt>
      <trkpt lat="47.6745" lon="6.04055">
        <ele>230.58</ele>
        <time>2017-10-04T09:33:37Z</time>
      </trkpt>
      <trkpt lat="47.67453" lon="6.04061">
        <ele>230.02</ele>
        <time>2017-10-04T09:33:38Z</time>
      </trkpt>
      <trkpt lat="47.67456" lon="6.04067">
        <ele>229.81</ele>
        <time>2017-10-04T09:33:39Z</time>
      </trkpt>
      <trkpt lat="47.67459" lon="6.04072">
        <ele>229.7</ele>
        <time>2017-10-04T09:33:40Z</time>
      </trkpt>
      <trkpt lat="47.67462" lon="6.04079">
        <ele>229.2</ele>
        <time>2017-10-04T09:33:41Z</time>
      </trkpt>
      <trkpt lat="47.67466" lon="6.04085">
        <ele>229</ele>
        <time>2017-10-04T09:33:42Z</time>
      </trkpt>
      <trkpt lat="47.67469" lon="6.04092">
        <ele>228.35</ele>
        <time>2017-10-04T09:33:43Z</time>
      </trkpt>
      <trkpt lat="47.67473" lon="6.04099">
        <ele>227.63</ele>
        <time>2017-10-04T09:33:44Z</time>
      </trkpt>
      <trkpt lat="47.67478" lon="6.04106">
        <ele>226.96</ele>
        <time>2017-10-04T09:33:45Z</time>
      </trkpt>
      <trkpt lat="47.67483" lon="6.04113">
        <ele>226.34</ele>
        <time>2017-10-04T09:33:46Z</time>
      </trkpt>
      <trkpt lat="47.67488" lon="6.04121">
        <ele>225.85</ele>
        <time>2017-10-04T09:33:47Z</time>
      </trkpt>
      <trkpt lat="47.67493" lon="6.04128">
        <ele>225.45</ele>
        <time>2017-10-04T09:33:48Z</time>
      </trkpt>
      <trkpt lat="47.67498" lon="6.04133">
        <ele>225.12</ele>
        <time>2017-10-04T09:33:49Z</time>
      </trkpt>
      <trkpt lat="47.67503" lon="6.04139">
        <ele>224.89</ele>
        <time>2017-10-04T09:33:50Z</time>
      </trkpt>
      <trkpt lat="47.67508" lon="6.04144">
        <ele>224.69</ele>
        <time>2017-10-04T09:33:51Z</time>
      </trkpt>
      <trkpt lat="47.67512" lon="6.0415">
        <ele>224.55</ele>
        <time>2017-10-04T09:33:52Z</time>
      </trkpt>
      <trkpt lat="47.67518" lon="6.04157">
        <ele>224.55</ele>
        <time>2017-10-04T09:33:53Z</time>
      </trkpt>
      <trkpt lat="47.67523" lon="6.04163">
        <ele>224.6</ele>
        <time>2017-10-04T09:33:54Z</time>
      </trkpt>
      <trkpt lat="47.67528" lon="6.04168">
        <ele>224.72</ele>
        <time>2017-10-04T09:33:55Z</time>
      </trkpt>
      <trkpt lat="47.67532" lon="6.04172">
        <ele>224.84</ele>
        <time>2017-10-04T09:33:56Z</time>
      </trkpt>
      <trkpt lat="47.67537" lon="6.04177">
        <ele>224.91</ele>
        <time>2017-10-04T09:33:57Z</time>
      </trkpt>
      <trkpt lat="47.67541" lon="6.04183">
        <ele>224.98</ele>
        <time>2017-10-04T09:33:58Z</time>
      </trkpt>
      <trkpt lat="47.67546" lon="6.04188">
        <ele>225.03</ele>
        <time>2017-10-04T09:33:59Z</time>
      </trkpt>
      <trkpt lat="47.67551" lon="6.04194">
        <ele>225.07</ele>
        <time>2017-10-04T09:34:00Z</time>
      </trkpt>
      <trkpt lat="47.67555" lon="6.04199">
        <ele>225.04</ele>
        <time>2017-10-04T09:34:01Z</time>
      </trkpt>
      <trkpt lat="47.67559" lon="6.04204">
        <ele>224.98</ele>
        <time>2017-10-04T09:34:02Z</time>
      </trkpt>
      <trkpt lat="47.67563" lon="6.0421">
        <ele>224.9</ele>
        <time>2017-10-04T09:34:03Z</time>
      </trkpt>
      <trkpt lat="47.67567" lon="6.04215">
        <ele>224.8</ele>
        <time>2017-10-04T09:34:04Z</time>
      </trkpt>
      <trkpt lat="47.67571" lon="6.0422">
        <ele>224.67</ele>
        <time>2017-10-04T09:34:05Z</time>
      </trkpt>
      <trkpt lat="47.67575" lon="6.04226">
        <ele>224.52</ele>
        <time>2017-10-04T09:34:06Z</time>
      </trkpt>
      <trkpt lat="47.67578" lon="6.04231">
        <ele>224.45</ele>
        <time>2017-10-04T09:34:07Z</time>
      </trkpt>
      <trkpt lat="47.67584" lon="6.04241">
        <ele>223.99</ele>
        <time>2017-10-04T09:34:09Z</time>
      </trkpt>
      <trkpt lat="47.67588" lon="6.04246">
        <ele>223.41</ele>
        <time>2017-10-04T09:34:10Z</time>
      </trkpt>
      <trkpt lat="47.67592" lon="6.04253">
        <ele>222.82</ele>
        <time>2017-10-04T09:34:11Z</time>
      </trkpt>
      <trkpt lat="47.67596" lon="6.04259">
        <ele>222.24</ele>
        <time>2017-10-04T09:34:12Z</time>
      </trkpt>
      <trkpt lat="47.676" lon="6.04265">
        <ele>221.7</ele>
        <time>2017-10-04T09:34:13Z</time>
      </trkpt>
      <trkpt lat="47.67604" lon="6.04271">
        <ele>221.17</ele>
        <time>2017-10-04T09:34:14Z</time>
      </trkpt>
      <trkpt lat="47.67608" lon="6.04277">
        <ele>220.66</ele>
        <time>2017-10-04T09:34:15Z</time>
      </trkpt>
      <trkpt lat="47.67612" lon="6.04283">
        <ele>220.18</ele>
        <time>2017-10-04T09:34:16Z</time>
      </trkpt>
      <trkpt lat="47.67616" lon="6.04288">
        <ele>219.71</ele>
        <time>2017-10-04T09:34:17Z</time>
      </trkpt>
      <trkpt lat="47.6762" lon="6.04293">
        <ele>219.24</ele>
        <time>2017-10-04T09:34:18Z</time>
      </trkpt>
      <trkpt lat="47.67625" lon="6.043">
        <ele>218.79</ele>
        <time>2017-10-04T09:34:19Z</time>
      </trkpt>
      <trkpt lat="47.67629" lon="6.04306">
        <ele>218.26</ele>
        <time>2017-10-04T09:34:20Z</time>
      </trkpt>
      <trkpt lat="47.67633" lon="6.0431">
        <ele>217.75</ele>
        <time>2017-10-04T09:34:21Z</time>
      </trkpt>
      <trkpt lat="47.67637" lon="6.04315">
        <ele>217.27</ele>
        <time>2017-10-04T09:34:22Z</time>
      </trkpt>
      <trkpt lat="47.67641" lon="6.04319">
        <ele>216.87</ele>
        <time>2017-10-04T09:34:23Z</time>
      </trkpt>
      <trkpt lat="47.67645" lon="6.04322">
        <ele>216.72</ele>
        <time>2017-10-04T09:34:24Z</time>
      </trkpt>
      <trkpt lat="47.67649" lon="6.04326">
        <ele>216.65</ele>
        <time>2017-10-04T09:34:25Z</time>
      </trkpt>
      <trkpt lat="47.67657" lon="6.04333">
        <ele>216.53</ele>
        <time>2017-10-04T09:34:27Z</time>
      </trkpt>
      <trkpt lat="47.67662" lon="6.04336">
        <ele>216.11</ele>
        <time>2017-10-04T09:34:28Z</time>
      </trkpt>
      <trkpt lat="47.67668" lon="6.0434">
        <ele>215.68</ele>
        <time>2017-10-04T09:34:29Z</time>
      </trkpt>
      <trkpt lat="47.67673" lon="6.04344">
        <ele>215.28</ele>
        <time>2017-10-04T09:34:30Z</time>
      </trkpt>
      <trkpt lat="47.67678" lon="6.04347">
        <ele>214.91</ele>
        <time>2017-10-04T09:34:31Z</time>
      </trkpt>
      <trkpt lat="47.67684" lon="6.04351">
        <ele>214.57</ele>
        <time>2017-10-04T09:34:32Z</time>
      </trkpt>
      <trkpt lat="47.6769" lon="6.04355">
        <ele>214.27</ele>
        <time>2017-10-04T09:34:33Z</time>
      </trkpt>
      <trkpt lat="47.67696" lon="6.04359">
        <ele>213.97</ele>
        <time>2017-10-04T09:34:34Z</time>
      </trkpt>
      <trkpt lat="47.67703" lon="6.04363">
        <ele>213.71</ele>
        <time>2017-10-04T09:34:35Z</time>
      </trkpt>
      <trkpt lat="47.67709" lon="6.04367">
        <ele>213.54</ele>
        <time>2017-10-04T09:34:36Z</time>
      </trkpt>
      <trkpt lat="47.67716" lon="6.04372">
        <ele>213.43</ele>
        <time>2017-10-04T09:34:37Z</time>
      </trkpt>
      <trkpt lat="47.67723" lon="6.04376">
        <ele>213.33</ele>
        <time>2017-10-04T09:34:38Z</time>
      </trkpt>
      <trkpt lat="47.67729" lon="6.0438">
        <ele>213.24</ele>
        <time>2017-10-04T09:34:39Z</time>
      </trkpt>
      <trkpt lat="47.67736" lon="6.04383">
        <ele>213.18</ele>
        <time>2017-10-04T09:34:40Z</time>
      </trkpt>
      <trkpt lat="47.67744" lon="6.04387">
        <ele>213.11</ele>
        <time>2017-10-04T09:34:41Z</time>
      </trkpt>
      <trkpt lat="47.67752" lon="6.04389">
        <ele>213.06</ele>
        <time>2017-10-04T09:34:42Z</time>
      </trkpt>
      <trkpt lat="47.67759" lon="6.04392">
        <ele>213.03</ele>
        <time>2017-10-04T09:34:43Z</time>
      </trkpt>
      <trkpt lat="47.67767" lon="6.04395">
        <ele>213.05</ele>
        <time>2017-10-04T09:34:44Z</time>
      </trkpt>
      <trkpt lat="47.67773" lon="6.04398">
        <ele>213.08</ele>
        <time>2017-10-04T09:34:45Z</time>
      </trkpt>
      <trkpt lat="47.67781" lon="6.04401">
        <ele>213.2</ele>
        <time>2017-10-04T09:34:46Z</time>
      </trkpt>
      <trkpt lat="47.67788" lon="6.04404">
        <ele>213.4</ele>
        <time>2017-10-04T09:34:47Z</time>
      </trkpt>
      <trkpt lat="47.67795" lon="6.04407">
        <ele>213.6</ele>
        <time>2017-10-04T09:34:48Z</time>
      </trkpt>
      <trkpt lat="47.67801" lon="6.04409">
        <ele>213.8</ele>
        <time>2017-10-04T09:34:49Z</time>
      </trkpt>
      <trkpt lat="47.67809" lon="6.04412">
        <ele>214.04</ele>
        <time>2017-10-04T09:34:50Z</time>
      </trkpt>
      <trkpt lat="47.67817" lon="6.04414">
        <ele>214.65</ele>
        <time>2017-10-04T09:34:51Z</time>
      </trkpt>
      <trkpt lat="47.67825" lon="6.04416">
        <ele>215.25</ele>
        <time>2017-10-04T09:34:52Z</time>
      </trkpt>
      <trkpt lat="47.67834" lon="6.04418">
        <ele>215.76</ele>
        <time>2017-10-04T09:34:53Z</time>
      </trkpt>
      <trkpt lat="47.67842" lon="6.04419">
        <ele>216.16</ele>
        <time>2017-10-04T09:34:54Z</time>
      </trkpt>
      <trkpt lat="47.6785" lon="6.0442">
        <ele>216.53</ele>
        <time>2017-10-04T09:34:55Z</time>
      </trkpt>
      <trkpt lat="47.67857" lon="6.04422">
        <ele>216.89</ele>
        <time>2017-10-04T09:34:56Z</time>
      </trkpt>
      <trkpt lat="47.67865" lon="6.04423">
        <ele>217.46</ele>
        <time>2017-10-04T09:34:57Z</time>
      </trkpt>
      <trkpt lat="47.67873" lon="6.04423">
        <ele>218.04</ele>
        <time>2017-10-04T09:34:58Z</time>
      </trkpt>
      <trkpt lat="47.6788" lon="6.04424">
        <ele>218.53</ele>
        <time>2017-10-04T09:34:59Z</time>
      </trkpt>
      <trkpt lat="47.67886" lon="6.04425">
        <ele>218.94</ele>
        <time>2017-10-04T09:35:00Z</time>
      </trkpt>
      <trkpt lat="47.67894" lon="6.04426">
        <ele>219.24</ele>
        <time>2017-10-04T09:35:01Z</time>
      </trkpt>
      <trkpt lat="47.67901" lon="6.04426">
        <ele>219.45</ele>
        <time>2017-10-04T09:35:02Z</time>
      </trkpt>
      <trkpt lat="47.67908" lon="6.04428">
        <ele>219.62</ele>
        <time>2017-10-04T09:35:03Z</time>
      </trkpt>
      <trkpt lat="47.67915" lon="6.04429">
        <ele>219.72</ele>
        <time>2017-10-04T09:35:04Z</time>
      </trkpt>
      <trkpt lat="47.67922" lon="6.04429">
        <ele>219.95</ele>
        <time>2017-10-04T09:35:05Z</time>
      </trkpt>
      <trkpt lat="47.67929" lon="6.0443">
        <ele>220.19</ele>
        <time>2017-10-04T09:35:06Z</time>
      </trkpt>
      <trkpt lat="47.67936" lon="6.04431">
        <ele>220.43</ele>
        <time>2017-10-04T09:35:07Z</time>
      </trkpt>
      <trkpt lat="47.67942" lon="6.04432">
        <ele>220.7</ele>
        <time>2017-10-04T09:35:08Z</time>
      </trkpt>
      <trkpt lat="47.67947" lon="6.04433">
        <ele>220.84</ele>
        <time>2017-10-04T09:35:09Z</time>
      </trkpt>
      <trkpt lat="47.67953" lon="6.04433">
        <ele>220.95</ele>
        <time>2017-10-04T09:35:10Z</time>
      </trkpt>
      <trkpt lat="47.67959" lon="6.04433">
        <ele>221.03</ele>
        <time>2017-10-04T09:35:11Z</time>
      </trkpt>
      <trkpt lat="47.67964" lon="6.04433">
        <ele>221.06</ele>
        <time>2017-10-04T09:35:12Z</time>
      </trkpt>
      <trkpt lat="47.6797" lon="6.04434">
        <ele>221.03</ele>
        <time>2017-10-04T09:35:13Z</time>
      </trkpt>
      <trkpt lat="47.67976" lon="6.04433">
        <ele>220.93</ele>
        <time>2017-10-04T09:35:14Z</time>
      </trkpt>
      <trkpt lat="47.67981" lon="6.04432">
        <ele>220.82</ele>
        <time>2017-10-04T09:35:15Z</time>
      </trkpt>
      <trkpt lat="47.67987" lon="6.0443">
        <ele>220.67</ele>
        <time>2017-10-04T09:35:16Z</time>
      </trkpt>
      <trkpt lat="47.67993" lon="6.04428">
        <ele>220.49</ele>
        <time>2017-10-04T09:35:17Z</time>
      </trkpt>
      <trkpt lat="47.67998" lon="6.04428">
        <ele>220.33</ele>
        <time>2017-10-04T09:35:18Z</time>
      </trkpt>
      <trkpt lat="47.68004" lon="6.04428">
        <ele>220.15</ele>
        <time>2017-10-04T09:35:19Z</time>
      </trkpt>
      <trkpt lat="47.6801" lon="6.04426">
        <ele>219.97</ele>
        <time>2017-10-04T09:35:20Z</time>
      </trkpt>
      <trkpt lat="47.68015" lon="6.04424">
        <ele>219.76</ele>
        <time>2017-10-04T09:35:21Z</time>
      </trkpt>
      <trkpt lat="47.6802" lon="6.04421">
        <ele>219.61</ele>
        <time>2017-10-04T09:35:22Z</time>
      </trkpt>
      <trkpt lat="47.68025" lon="6.0442">
        <ele>219.46</ele>
        <time>2017-10-04T09:35:23Z</time>
      </trkpt>
      <trkpt lat="47.6803" lon="6.04418">
        <ele>219.31</ele>
        <time>2017-10-04T09:35:24Z</time>
      </trkpt>
      <trkpt lat="47.68035" lon="6.04416">
        <ele>219.14</ele>
        <time>2017-10-04T09:35:25Z</time>
      </trkpt>
      <trkpt lat="47.68039" lon="6.04414">
        <ele>218.96</ele>
        <time>2017-10-04T09:35:26Z</time>
      </trkpt>
      <trkpt lat="47.68044" lon="6.04411">
        <ele>218.76</ele>
        <time>2017-10-04T09:35:27Z</time>
      </trkpt>
      <trkpt lat="47.68048" lon="6.04408">
        <ele>218.56</ele>
        <time>2017-10-04T09:35:28Z</time>
      </trkpt>
      <trkpt lat="47.68055" lon="6.04403">
        <ele>218.29</ele>
        <time>2017-10-04T09:35:30Z</time>
      </trkpt>
      <trkpt lat="47.68061" lon="6.044">
        <ele>218.23</ele>
        <time>2017-10-04T09:35:32Z</time>
      </trkpt>
      <trkpt lat="47.68067" lon="6.04399">
        <ele>218.15</ele>
        <time>2017-10-04T09:35:35Z</time>
      </trkpt>
      <trkpt lat="47.68071" lon="6.04401">
        <ele>218.11</ele>
        <time>2017-10-04T09:35:37Z</time>
      </trkpt>
      <trkpt lat="47.68077" lon="6.04402">
        <ele>218.05</ele>
        <time>2017-10-04T09:35:39Z</time>
      </trkpt>
      <trkpt lat="47.68083" lon="6.044">
        <ele>218.01</ele>
        <time>2017-10-04T09:35:41Z</time>
      </trkpt>
      <trkpt lat="47.6809" lon="6.04397">
        <ele>217.97</ele>
        <time>2017-10-04T09:35:43Z</time>
      </trkpt>
      <trkpt lat="47.68096" lon="6.04395">
        <ele>217.96</ele>
        <time>2017-10-04T09:35:45Z</time>
      </trkpt>
      <trkpt lat="47.68103" lon="6.04392">
        <ele>217.97</ele>
        <time>2017-10-04T09:35:47Z</time>
      </trkpt>
      <trkpt lat="47.6811" lon="6.04391">
        <ele>217.99</ele>
        <time>2017-10-04T09:35:49Z</time>
      </trkpt>
      <trkpt lat="47.68116" lon="6.04388">
        <ele>218</ele>
        <time>2017-10-04T09:35:51Z</time>
      </trkpt>
      <trkpt lat="47.68122" lon="6.04386">
        <ele>218.02</ele>
        <time>2017-10-04T09:35:53Z</time>
      </trkpt>
      <trkpt lat="47.68127" lon="6.04384">
        <ele>218.05</ele>
        <time>2017-10-04T09:35:55Z</time>
      </trkpt>
      <trkpt lat="47.68132" lon="6.04383">
        <ele>218.08</ele>
        <time>2017-10-04T09:35:57Z</time>
      </trkpt>
      <trkpt lat="47.68136" lon="6.0438">
        <ele>218.11</ele>
        <time>2017-10-04T09:35:59Z</time>
      </trkpt>
      <trkpt lat="47.68142" lon="6.04377">
        <ele>218.15</ele>
        <time>2017-10-04T09:36:02Z</time>
      </trkpt>
      <trkpt lat="47.68147" lon="6.04377">
        <ele>218.17</ele>
        <time>2017-10-04T09:36:04Z</time>
      </trkpt>
      <trkpt lat="47.68153" lon="6.04376">
        <ele>218.19</ele>
        <time>2017-10-04T09:36:07Z</time>
      </trkpt>
      <trkpt lat="47.68158" lon="6.04374">
        <ele>218.21</ele>
        <time>2017-10-04T09:36:09Z</time>
      </trkpt>
      <trkpt lat="47.68163" lon="6.04372">
        <ele>218.22</ele>
        <time>2017-10-04T09:36:11Z</time>
      </trkpt>
      <trkpt lat="47.68169" lon="6.0437">
        <ele>218.23</ele>
        <time>2017-10-04T09:36:14Z</time>
      </trkpt>
      <trkpt lat="47.68174" lon="6.04369">
        <ele>218.24</ele>
        <time>2017-10-04T09:36:16Z</time>
      </trkpt>
      <trkpt lat="47.68179" lon="6.04372">
        <ele>218.23</ele>
        <time>2017-10-04T09:36:19Z</time>
      </trkpt>
      <trkpt lat="47.68182" lon="6.04378">
        <ele>218.19</ele>
        <time>2017-10-04T09:36:23Z</time>
      </trkpt>
      <trkpt lat="47.68187" lon="6.04376">
        <ele>218.13</ele>
        <time>2017-10-04T09:36:27Z</time>
      </trkpt>
      <trkpt lat="47.68193" lon="6.04376">
        <ele>218.08</ele>
        <time>2017-10-04T09:36:30Z</time>
      </trkpt>
      <trkpt lat="47.68197" lon="6.04379">
        <ele>218.07</ele>
        <time>2017-10-04T09:36:32Z</time>
      </trkpt>
      <trkpt lat="47.68204" lon="6.04384">
        <ele>218.05</ele>
        <time>2017-10-04T09:36:34Z</time>
      </trkpt>
      <trkpt lat="47.68211" lon="6.04389">
        <ele>217.89</ele>
        <time>2017-10-04T09:36:36Z</time>
      </trkpt>
      <trkpt lat="47.68219" lon="6.04394">
        <ele>217.58</ele>
        <time>2017-10-04T09:36:38Z</time>
      </trkpt>
      <trkpt lat="47.68226" lon="6.044">
        <ele>217.28</ele>
        <time>2017-10-04T09:36:40Z</time>
      </trkpt>
      <trkpt lat="47.68233" lon="6.04404">
        <ele>217.04</ele>
        <time>2017-10-04T09:36:42Z</time>
      </trkpt>
      <trkpt lat="47.68241" lon="6.04409">
        <ele>216.84</ele>
        <time>2017-10-04T09:36:44Z</time>
      </trkpt>
      <trkpt lat="47.68248" lon="6.04413">
        <ele>216.64</ele>
        <time>2017-10-04T09:36:46Z</time>
      </trkpt>
      <trkpt lat="47.68252" lon="6.04416">
        <ele>216.54</ele>
        <time>2017-10-04T09:36:47Z</time>
      </trkpt>
      <trkpt lat="47.68257" lon="6.04418">
        <ele>216.44</ele>
        <time>2017-10-04T09:36:48Z</time>
      </trkpt>
      <trkpt lat="47.68261" lon="6.04421">
        <ele>216.34</ele>
        <time>2017-10-04T09:36:49Z</time>
      </trkpt>
      <trkpt lat="47.68266" lon="6.04422">
        <ele>216.24</ele>
        <time>2017-10-04T09:36:50Z</time>
      </trkpt>
      <trkpt lat="47.68271" lon="6.04423">
        <ele>216.15</ele>
        <time>2017-10-04T09:36:51Z</time>
      </trkpt>
      <trkpt lat="47.68276" lon="6.04424">
        <ele>216.06</ele>
        <time>2017-10-04T09:36:52Z</time>
      </trkpt>
      <trkpt lat="47.68284" lon="6.04425">
        <ele>215.94</ele>
        <time>2017-10-04T09:36:54Z</time>
      </trkpt>
      <trkpt lat="47.68293" lon="6.04426">
        <ele>215.86</ele>
        <time>2017-10-04T09:36:56Z</time>
      </trkpt>
      <trkpt lat="47.68301" lon="6.04427">
        <ele>215.86</ele>
        <time>2017-10-04T09:36:58Z</time>
      </trkpt>
      <trkpt lat="47.6831" lon="6.04428">
        <ele>215.82</ele>
        <time>2017-10-04T09:37:00Z</time>
      </trkpt>
      <trkpt lat="47.68319" lon="6.0443">
        <ele>215.75</ele>
        <time>2017-10-04T09:37:02Z</time>
      </trkpt>
      <trkpt lat="47.68327" lon="6.0443">
        <ele>215.73</ele>
        <time>2017-10-04T09:37:04Z</time>
      </trkpt>
      <trkpt lat="47.68336" lon="6.0443">
        <ele>215.67</ele>
        <time>2017-10-04T09:37:06Z</time>
      </trkpt>
      <trkpt lat="47.68341" lon="6.04431">
        <ele>215.63</ele>
        <time>2017-10-04T09:37:07Z</time>
      </trkpt>
      <trkpt lat="47.68346" lon="6.04432">
        <ele>215.58</ele>
        <time>2017-10-04T09:37:08Z</time>
      </trkpt>
      <trkpt lat="47.68351" lon="6.04433">
        <ele>215.56</ele>
        <time>2017-10-04T09:37:09Z</time>
      </trkpt>
      <trkpt lat="47.68359" lon="6.04433">
        <ele>215.48</ele>
        <time>2017-10-04T09:37:11Z</time>
      </trkpt>
      <trkpt lat="47.68367" lon="6.04434">
        <ele>215.45</ele>
        <time>2017-10-04T09:37:13Z</time>
      </trkpt>
      <trkpt lat="47.68374" lon="6.04435">
        <ele>215.44</ele>
        <time>2017-10-04T09:37:15Z</time>
      </trkpt>
      <trkpt lat="47.68382" lon="6.04435">
        <ele>215.42</ele>
        <time>2017-10-04T09:37:17Z</time>
      </trkpt>
      <trkpt lat="47.6839" lon="6.04437">
        <ele>215.3</ele>
        <time>2017-10-04T09:37:19Z</time>
      </trkpt>
      <trkpt lat="47.68397" lon="6.04437">
        <ele>215.27</ele>
        <time>2017-10-04T09:37:21Z</time>
      </trkpt>
      <trkpt lat="47.68404" lon="6.04437">
        <ele>215.26</ele>
        <time>2017-10-04T09:37:23Z</time>
      </trkpt>
      <trkpt lat="47.6841" lon="6.04437">
        <ele>215.24</ele>
        <time>2017-10-04T09:37:25Z</time>
      </trkpt>
      <trkpt lat="47.68417" lon="6.04437">
        <ele>215.23</ele>
        <time>2017-10-04T09:37:27Z</time>
      </trkpt>
      <trkpt lat="47.68424" lon="6.04437">
        <ele>215.22</ele>
        <time>2017-10-04T09:37:29Z</time>
      </trkpt>
      <trkpt lat="47.68431" lon="6.04437">
        <ele>215.2</ele>
        <time>2017-10-04T09:37:31Z</time>
      </trkpt>
      <trkpt lat="47.68438" lon="6.04438">
        <ele>215.19</ele>
        <time>2017-10-04T09:37:33Z</time>
      </trkpt>
      <trkpt lat="47.68443" lon="6.04437">
        <ele>215.18</ele>
        <time>2017-10-04T09:37:35Z</time>
      </trkpt>
      <trkpt lat="47.6845" lon="6.04436">
        <ele>215.16</ele>
        <time>2017-10-04T09:37:38Z</time>
      </trkpt>
      <trkpt lat="47.68455" lon="6.04436">
        <ele>215.15</ele>
        <time>2017-10-04T09:37:41Z</time>
      </trkpt>
      <trkpt lat="47.6846" lon="6.04438">
        <ele>215.14</ele>
        <time>2017-10-04T09:37:45Z</time>
      </trkpt>
      <trkpt lat="47.68467" lon="6.04437">
        <ele>215.13</ele>
        <time>2017-10-04T09:37:49Z</time>
      </trkpt>
      <trkpt lat="47.68472" lon="6.04437">
        <ele>215.14</ele>
        <time>2017-10-04T09:37:52Z</time>
      </trkpt>
      <trkpt lat="47.68477" lon="6.04438">
        <ele>215.15</ele>
        <time>2017-10-04T09:37:55Z</time>
      </trkpt>
      <trkpt lat="47.68484" lon="6.04439">
        <ele>215.16</ele>
        <time>2017-10-04T09:37:59Z</time>
      </trkpt>
      <trkpt lat="47.68488" lon="6.04441">
        <ele>215.18</ele>
        <time>2017-10-04T09:38:02Z</time>
      </trkpt>
      <trkpt lat="47.68495" lon="6.04443">
        <ele>215.19</ele>
        <time>2017-10-04T09:38:05Z</time>
      </trkpt>
      <trkpt lat="47.68499" lon="6.04445">
        <ele>215.21</ele>
        <time>2017-10-04T09:38:08Z</time>
      </trkpt>
      <trkpt lat="47.68505" lon="6.04447">
        <ele>215.22</ele>
        <time>2017-10-04T09:38:11Z</time>
      </trkpt>
      <trkpt lat="47.68511" lon="6.04449">
        <ele>215.24</ele>
        <time>2017-10-04T09:38:14Z</time>
      </trkpt>
      <trkpt lat="47.68516" lon="6.04453">
        <ele>215.25</ele>
        <time>2017-10-04T09:38:17Z</time>
      </trkpt>
      <trkpt lat="47.68523" lon="6.04457">
        <ele>215.27</ele>
        <time>2017-10-04T09:38:20Z</time>
      </trkpt>
      <trkpt lat="47.68529" lon="6.04461">
        <ele>215.29</ele>
        <time>2017-10-04T09:38:23Z</time>
      </trkpt>
      <trkpt lat="47.68535" lon="6.04465">
        <ele>215.3</ele>
        <time>2017-10-04T09:38:26Z</time>
      </trkpt>
      <trkpt lat="47.68541" lon="6.04469">
        <ele>215.32</ele>
        <time>2017-10-04T09:38:29Z</time>
      </trkpt>
      <trkpt lat="47.68547" lon="6.04473">
        <ele>215.33</ele>
        <time>2017-10-04T09:38:32Z</time>
      </trkpt>
      <trkpt lat="47.68553" lon="6.04476">
        <ele>215.35</ele>
        <time>2017-10-04T09:38:35Z</time>
      </trkpt>
      <trkpt lat="47.68558" lon="6.0448">
        <ele>215.37</ele>
        <time>2017-10-04T09:38:38Z</time>
      </trkpt>
      <trkpt lat="47.68561" lon="6.04486">
        <ele>215.39</ele>
        <time>2017-10-04T09:38:41Z</time>
      </trkpt>
      <trkpt lat="47.68566" lon="6.04489">
        <ele>215.42</ele>
        <time>2017-10-04T09:38:44Z</time>
      </trkpt>
      <trkpt lat="47.68573" lon="6.04494">
        <ele>215.44</ele>
        <time>2017-10-04T09:38:47Z</time>
      </trkpt>
      <trkpt lat="47.68578" lon="6.04498">
        <ele>215.46</ele>
        <time>2017-10-04T09:38:49Z</time>
      </trkpt>
      <trkpt lat="47.68584" lon="6.04502">
        <ele>215.48</ele>
        <time>2017-10-04T09:38:51Z</time>
      </trkpt>
      <trkpt lat="47.6859" lon="6.04506">
        <ele>215.49</ele>
        <time>2017-10-04T09:38:53Z</time>
      </trkpt>
      <trkpt lat="47.68596" lon="6.0451">
        <ele>215.51</ele>
        <time>2017-10-04T09:38:55Z</time>
      </trkpt>
      <trkpt lat="47.68601" lon="6.04514">
        <ele>215.53</ele>
        <time>2017-10-04T09:38:57Z</time>
      </trkpt>
      <trkpt lat="47.68606" lon="6.04517">
        <ele>215.55</ele>
        <time>2017-10-04T09:38:59Z</time>
      </trkpt>
      <trkpt lat="47.68611" lon="6.04521">
        <ele>215.57</ele>
        <time>2017-10-04T09:39:01Z</time>
      </trkpt>
      <trkpt lat="47.68615" lon="6.04524">
        <ele>215.6</ele>
        <time>2017-10-04T09:39:03Z</time>
      </trkpt>
      <trkpt lat="47.6862" lon="6.04527">
        <ele>215.62</ele>
        <time>2017-10-04T09:39:05Z</time>
      </trkpt>
      <trkpt lat="47.68624" lon="6.04531">
        <ele>215.65</ele>
        <time>2017-10-04T09:39:07Z</time>
      </trkpt>
      <trkpt lat="47.68625" lon="6.04538">
        <ele>215.68</ele>
        <time>2017-10-04T09:39:09Z</time>
      </trkpt>
      <trkpt lat="47.68623" lon="6.04545">
        <ele>215.73</ele>
        <time>2017-10-04T09:39:13Z</time>
      </trkpt>
    </trkseg>
  </trk>
</gpx>